<?xml version="1.0" encoding="UTF-8" standalone="no" ?>
<gpx xmlns="http://www.topografix.com/GPX/1/1" xmlns:xsi="http://www.w3.org/2001/XMLSchema-instance" xsi:schemaLocation="http://www.topografix.com/GPX/1/1 http://www.topografix.com/GPX/1/1/gpx.xsd" version="1.1" creator="VisuGPX - https://www.visugpx.com">
  <metadata>
    <name>Le Grand Rocher depuis Theys</name>
    <desc><![CDATA[Le Grand Rocher depuis Theys 
Le Grand Rocher depuis Theys]]></desc>
  </metadata>
  <trk>
    <name><![CDATA[20180701 ]]></name>
    <trkseg>
      <trkpt lat="45.3023" lon="5.99825">
        <ele>640</ele>
        <time>2018-07-01T10:02:19Z</time>
      </trkpt>
      <trkpt lat="45.30246" lon="5.99819">
        <ele>637</ele>
        <time>2018-07-01T10:02:20Z</time>
      </trkpt>
      <trkpt lat="45.30253" lon="5.99818">
        <ele>636</ele>
        <time>2018-07-01T10:02:21Z</time>
      </trkpt>
      <trkpt lat="45.30261" lon="5.99815">
        <ele>635</ele>
        <time>2018-07-01T10:02:27Z</time>
      </trkpt>
      <trkpt lat="45.30293" lon="5.99833">
        <ele>632</ele>
        <time>2018-07-01T10:02:28Z</time>
      </trkpt>
      <trkpt lat="45.30289" lon="5.99836">
        <ele>633</ele>
        <time>2018-07-01T10:02:29Z</time>
      </trkpt>
      <trkpt lat="45.30283" lon="5.99842">
        <ele>633</ele>
        <time>2018-07-01T10:02:31Z</time>
      </trkpt>
      <trkpt lat="45.3028" lon="5.99852">
        <ele>635</ele>
        <time>2018-07-01T10:02:33Z</time>
      </trkpt>
      <trkpt lat="45.30275" lon="5.99852">
        <ele>635</ele>
        <time>2018-07-01T10:02:35Z</time>
      </trkpt>
      <trkpt lat="45.30271" lon="5.99853">
        <ele>636</ele>
        <time>2018-07-01T10:02:36Z</time>
      </trkpt>
      <trkpt lat="45.30263" lon="5.99856">
        <ele>637</ele>
        <time>2018-07-01T10:02:38Z</time>
      </trkpt>
      <trkpt lat="45.30262" lon="5.99863">
        <ele>638</ele>
        <time>2018-07-01T10:02:42Z</time>
      </trkpt>
      <trkpt lat="45.30257" lon="5.99862">
        <ele>639</ele>
        <time>2018-07-01T10:02:46Z</time>
      </trkpt>
      <trkpt lat="45.30257" lon="5.99869">
        <ele>639</ele>
        <time>2018-07-01T10:02:52Z</time>
      </trkpt>
      <trkpt lat="45.3026" lon="5.99874">
        <ele>639</ele>
        <time>2018-07-01T10:02:55Z</time>
      </trkpt>
      <trkpt lat="45.30261" lon="5.99882">
        <ele>640</ele>
        <time>2018-07-01T10:02:59Z</time>
      </trkpt>
      <trkpt lat="45.30258" lon="5.99881">
        <ele>640</ele>
        <time>2018-07-01T10:03:20Z</time>
      </trkpt>
      <trkpt lat="45.30258" lon="5.99881">
        <ele>640</ele>
        <time>2018-07-01T10:03:22Z</time>
      </trkpt>
      <trkpt lat="45.30258" lon="5.99881">
        <ele>640</ele>
        <time>2018-07-01T10:03:52Z</time>
      </trkpt>
      <trkpt lat="45.30258" lon="5.99881">
        <ele>640</ele>
        <time>2018-07-01T10:03:53Z</time>
      </trkpt>
      <trkpt lat="45.3026" lon="5.99889">
        <ele>641</ele>
        <time>2018-07-01T10:04:00Z</time>
      </trkpt>
      <trkpt lat="45.3026" lon="5.99897">
        <ele>641</ele>
        <time>2018-07-01T10:04:03Z</time>
      </trkpt>
      <trkpt lat="45.30259" lon="5.99904">
        <ele>642</ele>
        <time>2018-07-01T10:04:05Z</time>
      </trkpt>
      <trkpt lat="45.30257" lon="5.99912">
        <ele>643</ele>
        <time>2018-07-01T10:04:08Z</time>
      </trkpt>
      <trkpt lat="45.30257" lon="5.9992">
        <ele>643</ele>
        <time>2018-07-01T10:04:11Z</time>
      </trkpt>
      <trkpt lat="45.30256" lon="5.99927">
        <ele>644</ele>
        <time>2018-07-01T10:04:14Z</time>
      </trkpt>
      <trkpt lat="45.30257" lon="5.99934">
        <ele>645</ele>
        <time>2018-07-01T10:04:17Z</time>
      </trkpt>
      <trkpt lat="45.30258" lon="5.9994">
        <ele>645</ele>
        <time>2018-07-01T10:04:20Z</time>
      </trkpt>
      <trkpt lat="45.30257" lon="5.99946">
        <ele>646</ele>
        <time>2018-07-01T10:04:23Z</time>
      </trkpt>
      <trkpt lat="45.30258" lon="5.99955">
        <ele>647</ele>
        <time>2018-07-01T10:04:27Z</time>
      </trkpt>
      <trkpt lat="45.30258" lon="5.99963">
        <ele>647</ele>
        <time>2018-07-01T10:04:31Z</time>
      </trkpt>
      <trkpt lat="45.30258" lon="5.99971">
        <ele>648</ele>
        <time>2018-07-01T10:04:35Z</time>
      </trkpt>
      <trkpt lat="45.30262" lon="5.99978">
        <ele>648</ele>
        <time>2018-07-01T10:04:39Z</time>
      </trkpt>
      <trkpt lat="45.30264" lon="5.99985">
        <ele>649</ele>
        <time>2018-07-01T10:04:43Z</time>
      </trkpt>
      <trkpt lat="45.30267" lon="5.9999">
        <ele>649</ele>
        <time>2018-07-01T10:04:47Z</time>
      </trkpt>
      <trkpt lat="45.30269" lon="5.99996">
        <ele>649</ele>
        <time>2018-07-01T10:04:50Z</time>
      </trkpt>
      <trkpt lat="45.30271" lon="6.00003">
        <ele>650</ele>
        <time>2018-07-01T10:04:54Z</time>
      </trkpt>
      <trkpt lat="45.30275" lon="6.00009">
        <ele>650</ele>
        <time>2018-07-01T10:04:57Z</time>
      </trkpt>
      <trkpt lat="45.30277" lon="6.00014">
        <ele>651</ele>
        <time>2018-07-01T10:05:00Z</time>
      </trkpt>
      <trkpt lat="45.30279" lon="6.0002">
        <ele>651</ele>
        <time>2018-07-01T10:05:03Z</time>
      </trkpt>
      <trkpt lat="45.30281" lon="6.00026">
        <ele>652</ele>
        <time>2018-07-01T10:05:06Z</time>
      </trkpt>
      <trkpt lat="45.30283" lon="6.00032">
        <ele>652</ele>
        <time>2018-07-01T10:05:10Z</time>
      </trkpt>
      <trkpt lat="45.30284" lon="6.00038">
        <ele>653</ele>
        <time>2018-07-01T10:05:14Z</time>
      </trkpt>
      <trkpt lat="45.30286" lon="6.00045">
        <ele>654</ele>
        <time>2018-07-01T10:05:19Z</time>
      </trkpt>
      <trkpt lat="45.3029" lon="6.0005">
        <ele>654</ele>
        <time>2018-07-01T10:05:23Z</time>
      </trkpt>
      <trkpt lat="45.30295" lon="6.00054">
        <ele>654</ele>
        <time>2018-07-01T10:05:27Z</time>
      </trkpt>
      <trkpt lat="45.303" lon="6.00059">
        <ele>655</ele>
        <time>2018-07-01T10:05:31Z</time>
      </trkpt>
      <trkpt lat="45.30303" lon="6.00066">
        <ele>655</ele>
        <time>2018-07-01T10:05:35Z</time>
      </trkpt>
      <trkpt lat="45.30306" lon="6.00072">
        <ele>656</ele>
        <time>2018-07-01T10:05:39Z</time>
      </trkpt>
      <trkpt lat="45.30307" lon="6.00079">
        <ele>656</ele>
        <time>2018-07-01T10:05:43Z</time>
      </trkpt>
      <trkpt lat="45.3031" lon="6.00084">
        <ele>657</ele>
        <time>2018-07-01T10:05:47Z</time>
      </trkpt>
      <trkpt lat="45.30316" lon="6.00089">
        <ele>657</ele>
        <time>2018-07-01T10:05:51Z</time>
      </trkpt>
      <trkpt lat="45.3032" lon="6.00095">
        <ele>658</ele>
        <time>2018-07-01T10:05:55Z</time>
      </trkpt>
      <trkpt lat="45.30322" lon="6.00102">
        <ele>658</ele>
        <time>2018-07-01T10:05:59Z</time>
      </trkpt>
      <trkpt lat="45.30323" lon="6.0011">
        <ele>659</ele>
        <time>2018-07-01T10:06:03Z</time>
      </trkpt>
      <trkpt lat="45.30327" lon="6.00113">
        <ele>659</ele>
        <time>2018-07-01T10:06:06Z</time>
      </trkpt>
      <trkpt lat="45.30332" lon="6.00117">
        <ele>660</ele>
        <time>2018-07-01T10:06:10Z</time>
      </trkpt>
      <trkpt lat="45.30335" lon="6.00122">
        <ele>660</ele>
        <time>2018-07-01T10:06:14Z</time>
      </trkpt>
      <trkpt lat="45.30339" lon="6.00127">
        <ele>661</ele>
        <time>2018-07-01T10:06:18Z</time>
      </trkpt>
      <trkpt lat="45.30342" lon="6.00133">
        <ele>661</ele>
        <time>2018-07-01T10:06:22Z</time>
      </trkpt>
      <trkpt lat="45.30345" lon="6.00137">
        <ele>661</ele>
        <time>2018-07-01T10:06:26Z</time>
      </trkpt>
      <trkpt lat="45.3035" lon="6.00144">
        <ele>662</ele>
        <time>2018-07-01T10:06:31Z</time>
      </trkpt>
      <trkpt lat="45.30355" lon="6.00145">
        <ele>661</ele>
        <time>2018-07-01T10:06:35Z</time>
      </trkpt>
      <trkpt lat="45.3036" lon="6.00147">
        <ele>661</ele>
        <time>2018-07-01T10:06:39Z</time>
      </trkpt>
      <trkpt lat="45.3036" lon="6.00155">
        <ele>662</ele>
        <time>2018-07-01T10:06:44Z</time>
      </trkpt>
      <trkpt lat="45.30363" lon="6.00161">
        <ele>662</ele>
        <time>2018-07-01T10:06:48Z</time>
      </trkpt>
      <trkpt lat="45.30366" lon="6.00166">
        <ele>662</ele>
        <time>2018-07-01T10:06:52Z</time>
      </trkpt>
      <trkpt lat="45.30372" lon="6.00169">
        <ele>662</ele>
        <time>2018-07-01T10:06:56Z</time>
      </trkpt>
      <trkpt lat="45.30375" lon="6.00173">
        <ele>663</ele>
        <time>2018-07-01T10:06:59Z</time>
      </trkpt>
      <trkpt lat="45.30379" lon="6.0018">
        <ele>663</ele>
        <time>2018-07-01T10:07:04Z</time>
      </trkpt>
      <trkpt lat="45.30383" lon="6.00183">
        <ele>663</ele>
        <time>2018-07-01T10:07:07Z</time>
      </trkpt>
      <trkpt lat="45.30388" lon="6.0019">
        <ele>664</ele>
        <time>2018-07-01T10:07:11Z</time>
      </trkpt>
      <trkpt lat="45.3039" lon="6.00195">
        <ele>664</ele>
        <time>2018-07-01T10:07:14Z</time>
      </trkpt>
      <trkpt lat="45.30393" lon="6.00201">
        <ele>665</ele>
        <time>2018-07-01T10:07:18Z</time>
      </trkpt>
      <trkpt lat="45.30397" lon="6.00207">
        <ele>665</ele>
        <time>2018-07-01T10:07:22Z</time>
      </trkpt>
      <trkpt lat="45.30401" lon="6.00213">
        <ele>666</ele>
        <time>2018-07-01T10:07:25Z</time>
      </trkpt>
      <trkpt lat="45.30405" lon="6.00219">
        <ele>667</ele>
        <time>2018-07-01T10:07:29Z</time>
      </trkpt>
      <trkpt lat="45.30404" lon="6.00227">
        <ele>668</ele>
        <time>2018-07-01T10:07:34Z</time>
      </trkpt>
      <trkpt lat="45.30405" lon="6.00234">
        <ele>668</ele>
        <time>2018-07-01T10:07:38Z</time>
      </trkpt>
      <trkpt lat="45.30405" lon="6.00242">
        <ele>669</ele>
        <time>2018-07-01T10:07:46Z</time>
      </trkpt>
      <trkpt lat="45.30401" lon="6.00245">
        <ele>670</ele>
        <time>2018-07-01T10:07:51Z</time>
      </trkpt>
      <trkpt lat="45.30396" lon="6.00247">
        <ele>670</ele>
        <time>2018-07-01T10:07:55Z</time>
      </trkpt>
      <trkpt lat="45.30391" lon="6.00251">
        <ele>670</ele>
        <time>2018-07-01T10:07:59Z</time>
      </trkpt>
      <trkpt lat="45.30387" lon="6.00255">
        <ele>670</ele>
        <time>2018-07-01T10:08:02Z</time>
      </trkpt>
      <trkpt lat="45.30383" lon="6.00258">
        <ele>671</ele>
        <time>2018-07-01T10:08:06Z</time>
      </trkpt>
      <trkpt lat="45.30377" lon="6.00261">
        <ele>671</ele>
        <time>2018-07-01T10:08:11Z</time>
      </trkpt>
      <trkpt lat="45.30374" lon="6.00267">
        <ele>671</ele>
        <time>2018-07-01T10:08:16Z</time>
      </trkpt>
      <trkpt lat="45.3037" lon="6.00274">
        <ele>672</ele>
        <time>2018-07-01T10:08:20Z</time>
      </trkpt>
      <trkpt lat="45.30367" lon="6.00279">
        <ele>672</ele>
        <time>2018-07-01T10:08:23Z</time>
      </trkpt>
      <trkpt lat="45.30363" lon="6.00281">
        <ele>672</ele>
        <time>2018-07-01T10:08:26Z</time>
      </trkpt>
      <trkpt lat="45.30359" lon="6.00284">
        <ele>672</ele>
        <time>2018-07-01T10:08:29Z</time>
      </trkpt>
      <trkpt lat="45.30356" lon="6.00289">
        <ele>672</ele>
        <time>2018-07-01T10:08:32Z</time>
      </trkpt>
      <trkpt lat="45.30351" lon="6.00293">
        <ele>673</ele>
        <time>2018-07-01T10:08:36Z</time>
      </trkpt>
      <trkpt lat="45.30346" lon="6.00297">
        <ele>673</ele>
        <time>2018-07-01T10:08:40Z</time>
      </trkpt>
      <trkpt lat="45.30342" lon="6.00301">
        <ele>673</ele>
        <time>2018-07-01T10:08:43Z</time>
      </trkpt>
      <trkpt lat="45.3034" lon="6.00307">
        <ele>674</ele>
        <time>2018-07-01T10:08:46Z</time>
      </trkpt>
      <trkpt lat="45.30338" lon="6.00313">
        <ele>675</ele>
        <time>2018-07-01T10:08:49Z</time>
      </trkpt>
      <trkpt lat="45.30334" lon="6.00319">
        <ele>675</ele>
        <time>2018-07-01T10:08:53Z</time>
      </trkpt>
      <trkpt lat="45.3033" lon="6.00324">
        <ele>676</ele>
        <time>2018-07-01T10:08:58Z</time>
      </trkpt>
      <trkpt lat="45.30328" lon="6.0033">
        <ele>676</ele>
        <time>2018-07-01T10:09:01Z</time>
      </trkpt>
      <trkpt lat="45.30326" lon="6.00338">
        <ele>677</ele>
        <time>2018-07-01T10:09:05Z</time>
      </trkpt>
      <trkpt lat="45.30324" lon="6.00346">
        <ele>678</ele>
        <time>2018-07-01T10:09:09Z</time>
      </trkpt>
      <trkpt lat="45.30323" lon="6.00349">
        <ele>679</ele>
        <time>2018-07-01T10:09:38Z</time>
      </trkpt>
      <trkpt lat="45.30323" lon="6.00353">
        <ele>679</ele>
        <time>2018-07-01T10:09:40Z</time>
      </trkpt>
      <trkpt lat="45.30322" lon="6.00359">
        <ele>680</ele>
        <time>2018-07-01T10:09:42Z</time>
      </trkpt>
      <trkpt lat="45.30321" lon="6.00366">
        <ele>681</ele>
        <time>2018-07-01T10:09:46Z</time>
      </trkpt>
      <trkpt lat="45.30317" lon="6.00371">
        <ele>681</ele>
        <time>2018-07-01T10:09:50Z</time>
      </trkpt>
      <trkpt lat="45.30312" lon="6.0037">
        <ele>682</ele>
        <time>2018-07-01T10:09:54Z</time>
      </trkpt>
      <trkpt lat="45.30309" lon="6.00376">
        <ele>682</ele>
        <time>2018-07-01T10:09:59Z</time>
      </trkpt>
      <trkpt lat="45.30306" lon="6.00383">
        <ele>683</ele>
        <time>2018-07-01T10:10:04Z</time>
      </trkpt>
      <trkpt lat="45.30305" lon="6.0039">
        <ele>684</ele>
        <time>2018-07-01T10:10:08Z</time>
      </trkpt>
      <trkpt lat="45.30304" lon="6.00398">
        <ele>685</ele>
        <time>2018-07-01T10:10:12Z</time>
      </trkpt>
      <trkpt lat="45.30301" lon="6.00405">
        <ele>686</ele>
        <time>2018-07-01T10:10:18Z</time>
      </trkpt>
      <trkpt lat="45.30303" lon="6.00413">
        <ele>687</ele>
        <time>2018-07-01T10:10:21Z</time>
      </trkpt>
      <trkpt lat="45.30305" lon="6.00419">
        <ele>688</ele>
        <time>2018-07-01T10:10:24Z</time>
      </trkpt>
      <trkpt lat="45.30309" lon="6.00426">
        <ele>689</ele>
        <time>2018-07-01T10:10:28Z</time>
      </trkpt>
      <trkpt lat="45.30312" lon="6.00431">
        <ele>689</ele>
        <time>2018-07-01T10:10:31Z</time>
      </trkpt>
      <trkpt lat="45.30315" lon="6.00436">
        <ele>690</ele>
        <time>2018-07-01T10:10:34Z</time>
      </trkpt>
      <trkpt lat="45.30315" lon="6.00443">
        <ele>691</ele>
        <time>2018-07-01T10:10:39Z</time>
      </trkpt>
      <trkpt lat="45.30318" lon="6.00451">
        <ele>691</ele>
        <time>2018-07-01T10:10:43Z</time>
      </trkpt>
      <trkpt lat="45.3032" lon="6.00457">
        <ele>692</ele>
        <time>2018-07-01T10:10:47Z</time>
      </trkpt>
      <trkpt lat="45.30326" lon="6.00461">
        <ele>692</ele>
        <time>2018-07-01T10:10:51Z</time>
      </trkpt>
      <trkpt lat="45.3033" lon="6.00466">
        <ele>692</ele>
        <time>2018-07-01T10:10:55Z</time>
      </trkpt>
      <trkpt lat="45.30332" lon="6.00474">
        <ele>693</ele>
        <time>2018-07-01T10:10:59Z</time>
      </trkpt>
      <trkpt lat="45.30335" lon="6.0048">
        <ele>694</ele>
        <time>2018-07-01T10:11:02Z</time>
      </trkpt>
      <trkpt lat="45.30339" lon="6.00484">
        <ele>694</ele>
        <time>2018-07-01T10:11:06Z</time>
      </trkpt>
      <trkpt lat="45.30343" lon="6.0049">
        <ele>695</ele>
        <time>2018-07-01T10:11:10Z</time>
      </trkpt>
      <trkpt lat="45.30347" lon="6.00494">
        <ele>695</ele>
        <time>2018-07-01T10:11:13Z</time>
      </trkpt>
      <trkpt lat="45.3035" lon="6.005">
        <ele>696</ele>
        <time>2018-07-01T10:11:17Z</time>
      </trkpt>
      <trkpt lat="45.30355" lon="6.00501">
        <ele>696</ele>
        <time>2018-07-01T10:11:20Z</time>
      </trkpt>
      <trkpt lat="45.3036" lon="6.00501">
        <ele>696</ele>
        <time>2018-07-01T10:11:23Z</time>
      </trkpt>
      <trkpt lat="45.30364" lon="6.00504">
        <ele>696</ele>
        <time>2018-07-01T10:11:26Z</time>
      </trkpt>
      <trkpt lat="45.30367" lon="6.00511">
        <ele>697</ele>
        <time>2018-07-01T10:11:30Z</time>
      </trkpt>
      <trkpt lat="45.30366" lon="6.00518">
        <ele>698</ele>
        <time>2018-07-01T10:11:34Z</time>
      </trkpt>
      <trkpt lat="45.30371" lon="6.00523">
        <ele>699</ele>
        <time>2018-07-01T10:11:38Z</time>
      </trkpt>
      <trkpt lat="45.30374" lon="6.00528">
        <ele>699</ele>
        <time>2018-07-01T10:11:41Z</time>
      </trkpt>
      <trkpt lat="45.30379" lon="6.00532">
        <ele>700</ele>
        <time>2018-07-01T10:11:44Z</time>
      </trkpt>
      <trkpt lat="45.30384" lon="6.00533">
        <ele>700</ele>
        <time>2018-07-01T10:11:47Z</time>
      </trkpt>
      <trkpt lat="45.30388" lon="6.00539">
        <ele>700</ele>
        <time>2018-07-01T10:11:51Z</time>
      </trkpt>
      <trkpt lat="45.30392" lon="6.00543">
        <ele>701</ele>
        <time>2018-07-01T10:11:55Z</time>
      </trkpt>
      <trkpt lat="45.30396" lon="6.00548">
        <ele>701</ele>
        <time>2018-07-01T10:12:01Z</time>
      </trkpt>
      <trkpt lat="45.30399" lon="6.00553">
        <ele>702</ele>
        <time>2018-07-01T10:12:05Z</time>
      </trkpt>
      <trkpt lat="45.30401" lon="6.0056">
        <ele>703</ele>
        <time>2018-07-01T10:12:10Z</time>
      </trkpt>
      <trkpt lat="45.30404" lon="6.00566">
        <ele>704</ele>
        <time>2018-07-01T10:12:15Z</time>
      </trkpt>
      <trkpt lat="45.30408" lon="6.00571">
        <ele>704</ele>
        <time>2018-07-01T10:12:19Z</time>
      </trkpt>
      <trkpt lat="45.30411" lon="6.00575">
        <ele>704</ele>
        <time>2018-07-01T10:12:22Z</time>
      </trkpt>
      <trkpt lat="45.30416" lon="6.00578">
        <ele>705</ele>
        <time>2018-07-01T10:12:25Z</time>
      </trkpt>
      <trkpt lat="45.30421" lon="6.00582">
        <ele>705</ele>
        <time>2018-07-01T10:12:28Z</time>
      </trkpt>
      <trkpt lat="45.30425" lon="6.00584">
        <ele>705</ele>
        <time>2018-07-01T10:12:31Z</time>
      </trkpt>
      <trkpt lat="45.30428" lon="6.0059">
        <ele>706</ele>
        <time>2018-07-01T10:12:35Z</time>
      </trkpt>
      <trkpt lat="45.30432" lon="6.00596">
        <ele>706</ele>
        <time>2018-07-01T10:12:39Z</time>
      </trkpt>
      <trkpt lat="45.30438" lon="6.00601">
        <ele>707</ele>
        <time>2018-07-01T10:12:44Z</time>
      </trkpt>
      <trkpt lat="45.30442" lon="6.00601">
        <ele>707</ele>
        <time>2018-07-01T10:12:47Z</time>
      </trkpt>
      <trkpt lat="45.30447" lon="6.00603">
        <ele>707</ele>
        <time>2018-07-01T10:12:50Z</time>
      </trkpt>
      <trkpt lat="45.3045" lon="6.00609">
        <ele>707</ele>
        <time>2018-07-01T10:12:53Z</time>
      </trkpt>
      <trkpt lat="45.30451" lon="6.00616">
        <ele>708</ele>
        <time>2018-07-01T10:12:57Z</time>
      </trkpt>
      <trkpt lat="45.30451" lon="6.00623">
        <ele>709</ele>
        <time>2018-07-01T10:13:01Z</time>
      </trkpt>
      <trkpt lat="45.30456" lon="6.00625">
        <ele>709</ele>
        <time>2018-07-01T10:13:05Z</time>
      </trkpt>
      <trkpt lat="45.30463" lon="6.00624">
        <ele>709</ele>
        <time>2018-07-01T10:13:07Z</time>
      </trkpt>
      <trkpt lat="45.30468" lon="6.00622">
        <ele>708</ele>
        <time>2018-07-01T10:13:09Z</time>
      </trkpt>
      <trkpt lat="45.30473" lon="6.00626">
        <ele>709</ele>
        <time>2018-07-01T10:13:13Z</time>
      </trkpt>
      <trkpt lat="45.30473" lon="6.00632">
        <ele>709</ele>
        <time>2018-07-01T10:13:15Z</time>
      </trkpt>
      <trkpt lat="45.30476" lon="6.0064">
        <ele>710</ele>
        <time>2018-07-01T10:13:18Z</time>
      </trkpt>
      <trkpt lat="45.30477" lon="6.00648">
        <ele>711</ele>
        <time>2018-07-01T10:13:22Z</time>
      </trkpt>
      <trkpt lat="45.30481" lon="6.00653">
        <ele>711</ele>
        <time>2018-07-01T10:13:25Z</time>
      </trkpt>
      <trkpt lat="45.30486" lon="6.00658">
        <ele>711</ele>
        <time>2018-07-01T10:13:30Z</time>
      </trkpt>
      <trkpt lat="45.30489" lon="6.00661">
        <ele>711</ele>
        <time>2018-07-01T10:13:33Z</time>
      </trkpt>
      <trkpt lat="45.30495" lon="6.00664">
        <ele>711</ele>
        <time>2018-07-01T10:13:37Z</time>
      </trkpt>
      <trkpt lat="45.30499" lon="6.00667">
        <ele>711</ele>
        <time>2018-07-01T10:13:41Z</time>
      </trkpt>
      <trkpt lat="45.30502" lon="6.00672">
        <ele>711</ele>
        <time>2018-07-01T10:13:45Z</time>
      </trkpt>
      <trkpt lat="45.30505" lon="6.00679">
        <ele>712</ele>
        <time>2018-07-01T10:13:49Z</time>
      </trkpt>
      <trkpt lat="45.30507" lon="6.00685">
        <ele>713</ele>
        <time>2018-07-01T10:13:52Z</time>
      </trkpt>
      <trkpt lat="45.30512" lon="6.0069">
        <ele>713</ele>
        <time>2018-07-01T10:13:56Z</time>
      </trkpt>
      <trkpt lat="45.30515" lon="6.00695">
        <ele>713</ele>
        <time>2018-07-01T10:13:59Z</time>
      </trkpt>
      <trkpt lat="45.30519" lon="6.007">
        <ele>714</ele>
        <time>2018-07-01T10:14:02Z</time>
      </trkpt>
      <trkpt lat="45.30523" lon="6.00706">
        <ele>714</ele>
        <time>2018-07-01T10:14:06Z</time>
      </trkpt>
      <trkpt lat="45.30527" lon="6.0071">
        <ele>714</ele>
        <time>2018-07-01T10:14:10Z</time>
      </trkpt>
      <trkpt lat="45.30533" lon="6.00711">
        <ele>714</ele>
        <time>2018-07-01T10:14:14Z</time>
      </trkpt>
      <trkpt lat="45.30537" lon="6.00714">
        <ele>714</ele>
        <time>2018-07-01T10:14:17Z</time>
      </trkpt>
      <trkpt lat="45.30542" lon="6.00716">
        <ele>714</ele>
        <time>2018-07-01T10:14:20Z</time>
      </trkpt>
      <trkpt lat="45.30546" lon="6.00719">
        <ele>714</ele>
        <time>2018-07-01T10:14:23Z</time>
      </trkpt>
      <trkpt lat="45.30551" lon="6.00724">
        <ele>715</ele>
        <time>2018-07-01T10:14:27Z</time>
      </trkpt>
      <trkpt lat="45.30556" lon="6.00728">
        <ele>715</ele>
        <time>2018-07-01T10:14:31Z</time>
      </trkpt>
      <trkpt lat="45.3056" lon="6.00734">
        <ele>715</ele>
        <time>2018-07-01T10:14:35Z</time>
      </trkpt>
      <trkpt lat="45.30564" lon="6.00739">
        <ele>716</ele>
        <time>2018-07-01T10:14:39Z</time>
      </trkpt>
      <trkpt lat="45.30566" lon="6.00745">
        <ele>717</ele>
        <time>2018-07-01T10:14:43Z</time>
      </trkpt>
      <trkpt lat="45.3057" lon="6.00751">
        <ele>718</ele>
        <time>2018-07-01T10:14:47Z</time>
      </trkpt>
      <trkpt lat="45.30573" lon="6.00756">
        <ele>718</ele>
        <time>2018-07-01T10:14:51Z</time>
      </trkpt>
      <trkpt lat="45.30576" lon="6.00763">
        <ele>720</ele>
        <time>2018-07-01T10:14:55Z</time>
      </trkpt>
      <trkpt lat="45.30577" lon="6.00771">
        <ele>721</ele>
        <time>2018-07-01T10:14:59Z</time>
      </trkpt>
      <trkpt lat="45.30582" lon="6.00775">
        <ele>721</ele>
        <time>2018-07-01T10:15:03Z</time>
      </trkpt>
      <trkpt lat="45.30587" lon="6.00776">
        <ele>722</ele>
        <time>2018-07-01T10:15:06Z</time>
      </trkpt>
      <trkpt lat="45.30591" lon="6.00779">
        <ele>722</ele>
        <time>2018-07-01T10:15:09Z</time>
      </trkpt>
      <trkpt lat="45.30596" lon="6.00783">
        <ele>723</ele>
        <time>2018-07-01T10:15:13Z</time>
      </trkpt>
      <trkpt lat="45.306" lon="6.00789">
        <ele>723</ele>
        <time>2018-07-01T10:15:18Z</time>
      </trkpt>
      <trkpt lat="45.30605" lon="6.00787">
        <ele>723</ele>
        <time>2018-07-01T10:15:22Z</time>
      </trkpt>
      <trkpt lat="45.30611" lon="6.00791">
        <ele>724</ele>
        <time>2018-07-01T10:15:26Z</time>
      </trkpt>
      <trkpt lat="45.30616" lon="6.00794">
        <ele>724</ele>
        <time>2018-07-01T10:15:29Z</time>
      </trkpt>
      <trkpt lat="45.30621" lon="6.00795">
        <ele>724</ele>
        <time>2018-07-01T10:15:32Z</time>
      </trkpt>
      <trkpt lat="45.30627" lon="6.00797">
        <ele>724</ele>
        <time>2018-07-01T10:15:36Z</time>
      </trkpt>
      <trkpt lat="45.30633" lon="6.00795">
        <ele>724</ele>
        <time>2018-07-01T10:15:39Z</time>
      </trkpt>
      <trkpt lat="45.30638" lon="6.00793">
        <ele>724</ele>
        <time>2018-07-01T10:15:41Z</time>
      </trkpt>
      <trkpt lat="45.30642" lon="6.00796">
        <ele>724</ele>
        <time>2018-07-01T10:15:44Z</time>
      </trkpt>
      <trkpt lat="45.30645" lon="6.00803">
        <ele>725</ele>
        <time>2018-07-01T10:15:48Z</time>
      </trkpt>
      <trkpt lat="45.30647" lon="6.0081">
        <ele>726</ele>
        <time>2018-07-01T10:15:51Z</time>
      </trkpt>
      <trkpt lat="45.30651" lon="6.00816">
        <ele>727</ele>
        <time>2018-07-01T10:15:56Z</time>
      </trkpt>
      <trkpt lat="45.30656" lon="6.00819">
        <ele>727</ele>
        <time>2018-07-01T10:16:00Z</time>
      </trkpt>
      <trkpt lat="45.3066" lon="6.00823">
        <ele>728</ele>
        <time>2018-07-01T10:16:03Z</time>
      </trkpt>
      <trkpt lat="45.30666" lon="6.00819">
        <ele>727</ele>
        <time>2018-07-01T10:16:06Z</time>
      </trkpt>
      <trkpt lat="45.3067" lon="6.00821">
        <ele>727</ele>
        <time>2018-07-01T10:16:09Z</time>
      </trkpt>
      <trkpt lat="45.30674" lon="6.00826">
        <ele>728</ele>
        <time>2018-07-01T10:16:13Z</time>
      </trkpt>
      <trkpt lat="45.30678" lon="6.00831">
        <ele>729</ele>
        <time>2018-07-01T10:16:18Z</time>
      </trkpt>
      <trkpt lat="45.30681" lon="6.00837">
        <ele>730</ele>
        <time>2018-07-01T10:16:23Z</time>
      </trkpt>
      <trkpt lat="45.30685" lon="6.0084">
        <ele>730</ele>
        <time>2018-07-01T10:16:28Z</time>
      </trkpt>
      <trkpt lat="45.30689" lon="6.00846">
        <ele>731</ele>
        <time>2018-07-01T10:16:33Z</time>
      </trkpt>
      <trkpt lat="45.30694" lon="6.00846">
        <ele>731</ele>
        <time>2018-07-01T10:16:37Z</time>
      </trkpt>
      <trkpt lat="45.30698" lon="6.00849">
        <ele>731</ele>
        <time>2018-07-01T10:16:41Z</time>
      </trkpt>
      <trkpt lat="45.30703" lon="6.0085">
        <ele>731</ele>
        <time>2018-07-01T10:16:45Z</time>
      </trkpt>
      <trkpt lat="45.30708" lon="6.00853">
        <ele>731</ele>
        <time>2018-07-01T10:16:48Z</time>
      </trkpt>
      <trkpt lat="45.30713" lon="6.00857">
        <ele>731</ele>
        <time>2018-07-01T10:16:51Z</time>
      </trkpt>
      <trkpt lat="45.30718" lon="6.00861">
        <ele>731</ele>
        <time>2018-07-01T10:16:54Z</time>
      </trkpt>
      <trkpt lat="45.30721" lon="6.00866">
        <ele>732</ele>
        <time>2018-07-01T10:16:59Z</time>
      </trkpt>
      <trkpt lat="45.30726" lon="6.00867">
        <ele>732</ele>
        <time>2018-07-01T10:17:07Z</time>
      </trkpt>
      <trkpt lat="45.3073" lon="6.0087">
        <ele>732</ele>
        <time>2018-07-01T10:17:12Z</time>
      </trkpt>
      <trkpt lat="45.30733" lon="6.00875">
        <ele>733</ele>
        <time>2018-07-01T10:17:16Z</time>
      </trkpt>
      <trkpt lat="45.30731" lon="6.00881">
        <ele>734</ele>
        <time>2018-07-01T10:17:18Z</time>
      </trkpt>
      <trkpt lat="45.3073" lon="6.00887">
        <ele>734</ele>
        <time>2018-07-01T10:17:21Z</time>
      </trkpt>
      <trkpt lat="45.30728" lon="6.00895">
        <ele>735</ele>
        <time>2018-07-01T10:17:24Z</time>
      </trkpt>
      <trkpt lat="45.30732" lon="6.00903">
        <ele>736</ele>
        <time>2018-07-01T10:17:27Z</time>
      </trkpt>
      <trkpt lat="45.30736" lon="6.00907">
        <ele>736</ele>
        <time>2018-07-01T10:17:29Z</time>
      </trkpt>
      <trkpt lat="45.3074" lon="6.00911">
        <ele>737</ele>
        <time>2018-07-01T10:17:44Z</time>
      </trkpt>
      <trkpt lat="45.30741" lon="6.00919">
        <ele>738</ele>
        <time>2018-07-01T10:17:47Z</time>
      </trkpt>
      <trkpt lat="45.3074" lon="6.00926">
        <ele>739</ele>
        <time>2018-07-01T10:17:50Z</time>
      </trkpt>
      <trkpt lat="45.3074" lon="6.00932">
        <ele>739</ele>
        <time>2018-07-01T10:17:54Z</time>
      </trkpt>
      <trkpt lat="45.3074" lon="6.0094">
        <ele>740</ele>
        <time>2018-07-01T10:17:58Z</time>
      </trkpt>
      <trkpt lat="45.30741" lon="6.00948">
        <ele>741</ele>
        <time>2018-07-01T10:18:01Z</time>
      </trkpt>
      <trkpt lat="45.30742" lon="6.00954">
        <ele>742</ele>
        <time>2018-07-01T10:18:04Z</time>
      </trkpt>
      <trkpt lat="45.30742" lon="6.00962">
        <ele>743</ele>
        <time>2018-07-01T10:18:09Z</time>
      </trkpt>
      <trkpt lat="45.30744" lon="6.00968">
        <ele>744</ele>
        <time>2018-07-01T10:18:15Z</time>
      </trkpt>
      <trkpt lat="45.30748" lon="6.00973">
        <ele>744</ele>
        <time>2018-07-01T10:18:19Z</time>
      </trkpt>
      <trkpt lat="45.30749" lon="6.00981">
        <ele>745</ele>
        <time>2018-07-01T10:18:23Z</time>
      </trkpt>
      <trkpt lat="45.30751" lon="6.00988">
        <ele>746</ele>
        <time>2018-07-01T10:18:26Z</time>
      </trkpt>
      <trkpt lat="45.30755" lon="6.00994">
        <ele>747</ele>
        <time>2018-07-01T10:18:30Z</time>
      </trkpt>
      <trkpt lat="45.30759" lon="6.00996">
        <ele>746</ele>
        <time>2018-07-01T10:18:33Z</time>
      </trkpt>
      <trkpt lat="45.30765" lon="6.00999">
        <ele>746</ele>
        <time>2018-07-01T10:18:36Z</time>
      </trkpt>
      <trkpt lat="45.30769" lon="6.01003">
        <ele>746</ele>
        <time>2018-07-01T10:18:38Z</time>
      </trkpt>
      <trkpt lat="45.30772" lon="6.01009">
        <ele>747</ele>
        <time>2018-07-01T10:18:40Z</time>
      </trkpt>
      <trkpt lat="45.30774" lon="6.01015">
        <ele>747</ele>
        <time>2018-07-01T10:18:42Z</time>
      </trkpt>
      <trkpt lat="45.30776" lon="6.01022">
        <ele>748</ele>
        <time>2018-07-01T10:18:45Z</time>
      </trkpt>
      <trkpt lat="45.30779" lon="6.0103">
        <ele>749</ele>
        <time>2018-07-01T10:18:48Z</time>
      </trkpt>
      <trkpt lat="45.30782" lon="6.01036">
        <ele>749</ele>
        <time>2018-07-01T10:18:51Z</time>
      </trkpt>
      <trkpt lat="45.30783" lon="6.01044">
        <ele>750</ele>
        <time>2018-07-01T10:18:56Z</time>
      </trkpt>
      <trkpt lat="45.30785" lon="6.01049">
        <ele>750</ele>
        <time>2018-07-01T10:18:59Z</time>
      </trkpt>
      <trkpt lat="45.30787" lon="6.01055">
        <ele>751</ele>
        <time>2018-07-01T10:19:02Z</time>
      </trkpt>
      <trkpt lat="45.30792" lon="6.0106">
        <ele>751</ele>
        <time>2018-07-01T10:19:07Z</time>
      </trkpt>
      <trkpt lat="45.30797" lon="6.01062">
        <ele>751</ele>
        <time>2018-07-01T10:19:09Z</time>
      </trkpt>
      <trkpt lat="45.30805" lon="6.01065">
        <ele>750</ele>
        <time>2018-07-01T10:19:11Z</time>
      </trkpt>
      <trkpt lat="45.3081" lon="6.01067">
        <ele>750</ele>
        <time>2018-07-01T10:19:13Z</time>
      </trkpt>
      <trkpt lat="45.30815" lon="6.01069">
        <ele>750</ele>
        <time>2018-07-01T10:19:15Z</time>
      </trkpt>
      <trkpt lat="45.30819" lon="6.01071">
        <ele>750</ele>
        <time>2018-07-01T10:19:17Z</time>
      </trkpt>
      <trkpt lat="45.30824" lon="6.01074">
        <ele>750</ele>
        <time>2018-07-01T10:19:24Z</time>
      </trkpt>
      <trkpt lat="45.30829" lon="6.01075">
        <ele>750</ele>
        <time>2018-07-01T10:19:27Z</time>
      </trkpt>
      <trkpt lat="45.30833" lon="6.01078">
        <ele>750</ele>
        <time>2018-07-01T10:19:30Z</time>
      </trkpt>
      <trkpt lat="45.3084" lon="6.01081">
        <ele>749</ele>
        <time>2018-07-01T10:19:36Z</time>
      </trkpt>
      <trkpt lat="45.30845" lon="6.01084">
        <ele>749</ele>
        <time>2018-07-01T10:19:38Z</time>
      </trkpt>
      <trkpt lat="45.30851" lon="6.01086">
        <ele>749</ele>
        <time>2018-07-01T10:19:40Z</time>
      </trkpt>
      <trkpt lat="45.3086" lon="6.0109">
        <ele>749</ele>
        <time>2018-07-01T10:19:42Z</time>
      </trkpt>
      <trkpt lat="45.30864" lon="6.01093">
        <ele>749</ele>
        <time>2018-07-01T10:19:43Z</time>
      </trkpt>
      <trkpt lat="45.3087" lon="6.01096">
        <ele>749</ele>
        <time>2018-07-01T10:19:45Z</time>
      </trkpt>
      <trkpt lat="45.30875" lon="6.01101">
        <ele>749</ele>
        <time>2018-07-01T10:19:48Z</time>
      </trkpt>
      <trkpt lat="45.30879" lon="6.01105">
        <ele>750</ele>
        <time>2018-07-01T10:19:54Z</time>
      </trkpt>
      <trkpt lat="45.30884" lon="6.01106">
        <ele>750</ele>
        <time>2018-07-01T10:19:57Z</time>
      </trkpt>
      <trkpt lat="45.30889" lon="6.01106">
        <ele>749</ele>
        <time>2018-07-01T10:20:00Z</time>
      </trkpt>
      <trkpt lat="45.30895" lon="6.01105">
        <ele>748</ele>
        <time>2018-07-01T10:20:02Z</time>
      </trkpt>
      <trkpt lat="45.309" lon="6.01104">
        <ele>748</ele>
        <time>2018-07-01T10:20:03Z</time>
      </trkpt>
      <trkpt lat="45.30905" lon="6.01103">
        <ele>747</ele>
        <time>2018-07-01T10:20:06Z</time>
      </trkpt>
      <trkpt lat="45.30909" lon="6.01107">
        <ele>748</ele>
        <time>2018-07-01T10:20:08Z</time>
      </trkpt>
      <trkpt lat="45.30914" lon="6.01117">
        <ele>750</ele>
        <time>2018-07-01T10:20:10Z</time>
      </trkpt>
      <trkpt lat="45.30914" lon="6.01127">
        <ele>752</ele>
        <time>2018-07-01T10:20:12Z</time>
      </trkpt>
      <trkpt lat="45.30912" lon="6.01139">
        <ele>755</ele>
        <time>2018-07-01T10:20:14Z</time>
      </trkpt>
      <trkpt lat="45.30911" lon="6.01147">
        <ele>757</ele>
        <time>2018-07-01T10:20:16Z</time>
      </trkpt>
      <trkpt lat="45.30916" lon="6.0115">
        <ele>757</ele>
        <time>2018-07-01T10:20:20Z</time>
      </trkpt>
      <trkpt lat="45.30921" lon="6.01152">
        <ele>757</ele>
        <time>2018-07-01T10:20:24Z</time>
      </trkpt>
      <trkpt lat="45.30925" lon="6.01155">
        <ele>758</ele>
        <time>2018-07-01T10:20:28Z</time>
      </trkpt>
      <trkpt lat="45.3093" lon="6.01153">
        <ele>757</ele>
        <time>2018-07-01T10:20:31Z</time>
      </trkpt>
      <trkpt lat="45.30935" lon="6.01152">
        <ele>757</ele>
        <time>2018-07-01T10:20:34Z</time>
      </trkpt>
      <trkpt lat="45.3094" lon="6.01156">
        <ele>757</ele>
        <time>2018-07-01T10:20:38Z</time>
      </trkpt>
      <trkpt lat="45.30944" lon="6.01161">
        <ele>758</ele>
        <time>2018-07-01T10:20:42Z</time>
      </trkpt>
      <trkpt lat="45.30948" lon="6.01165">
        <ele>759</ele>
        <time>2018-07-01T10:20:46Z</time>
      </trkpt>
      <trkpt lat="45.3095" lon="6.01171">
        <ele>760</ele>
        <time>2018-07-01T10:20:49Z</time>
      </trkpt>
      <trkpt lat="45.30954" lon="6.01175">
        <ele>761</ele>
        <time>2018-07-01T10:20:53Z</time>
      </trkpt>
      <trkpt lat="45.30959" lon="6.01177">
        <ele>761</ele>
        <time>2018-07-01T10:20:57Z</time>
      </trkpt>
      <trkpt lat="45.30962" lon="6.01182">
        <ele>762</ele>
        <time>2018-07-01T10:21:01Z</time>
      </trkpt>
      <trkpt lat="45.30969" lon="6.0118">
        <ele>762</ele>
        <time>2018-07-01T10:21:04Z</time>
      </trkpt>
      <trkpt lat="45.30973" lon="6.01181">
        <ele>762</ele>
        <time>2018-07-01T10:21:07Z</time>
      </trkpt>
      <trkpt lat="45.30978" lon="6.01184">
        <ele>762</ele>
        <time>2018-07-01T10:21:10Z</time>
      </trkpt>
      <trkpt lat="45.30982" lon="6.01188">
        <ele>763</ele>
        <time>2018-07-01T10:21:13Z</time>
      </trkpt>
      <trkpt lat="45.30986" lon="6.01193">
        <ele>764</ele>
        <time>2018-07-01T10:21:16Z</time>
      </trkpt>
      <trkpt lat="45.3099" lon="6.01199">
        <ele>765</ele>
        <time>2018-07-01T10:21:19Z</time>
      </trkpt>
      <trkpt lat="45.30994" lon="6.01203">
        <ele>766</ele>
        <time>2018-07-01T10:21:22Z</time>
      </trkpt>
      <trkpt lat="45.30996" lon="6.0121">
        <ele>768</ele>
        <time>2018-07-01T10:21:26Z</time>
      </trkpt>
      <trkpt lat="45.31001" lon="6.01214">
        <ele>768</ele>
        <time>2018-07-01T10:21:30Z</time>
      </trkpt>
      <trkpt lat="45.31007" lon="6.01217">
        <ele>769</ele>
        <time>2018-07-01T10:21:34Z</time>
      </trkpt>
      <trkpt lat="45.31011" lon="6.01216">
        <ele>769</ele>
        <time>2018-07-01T10:21:37Z</time>
      </trkpt>
      <trkpt lat="45.31016" lon="6.01219">
        <ele>769</ele>
        <time>2018-07-01T10:21:41Z</time>
      </trkpt>
      <trkpt lat="45.31022" lon="6.01219">
        <ele>769</ele>
        <time>2018-07-01T10:21:45Z</time>
      </trkpt>
      <trkpt lat="45.31026" lon="6.0122">
        <ele>769</ele>
        <time>2018-07-01T10:21:48Z</time>
      </trkpt>
      <trkpt lat="45.3103" lon="6.01224">
        <ele>770</ele>
        <time>2018-07-01T10:21:52Z</time>
      </trkpt>
      <trkpt lat="45.31034" lon="6.01228">
        <ele>771</ele>
        <time>2018-07-01T10:21:56Z</time>
      </trkpt>
      <trkpt lat="45.31039" lon="6.01228">
        <ele>771</ele>
        <time>2018-07-01T10:22:00Z</time>
      </trkpt>
      <trkpt lat="45.31044" lon="6.01231">
        <ele>771</ele>
        <time>2018-07-01T10:22:04Z</time>
      </trkpt>
      <trkpt lat="45.31049" lon="6.01232">
        <ele>771</ele>
        <time>2018-07-01T10:22:08Z</time>
      </trkpt>
      <trkpt lat="45.31055" lon="6.01233">
        <ele>771</ele>
        <time>2018-07-01T10:22:11Z</time>
      </trkpt>
      <trkpt lat="45.31061" lon="6.01234">
        <ele>771</ele>
        <time>2018-07-01T10:22:14Z</time>
      </trkpt>
      <trkpt lat="45.31067" lon="6.01234">
        <ele>771</ele>
        <time>2018-07-01T10:22:17Z</time>
      </trkpt>
      <trkpt lat="45.31072" lon="6.01235">
        <ele>771</ele>
        <time>2018-07-01T10:22:20Z</time>
      </trkpt>
      <trkpt lat="45.31076" lon="6.01235">
        <ele>771</ele>
        <time>2018-07-01T10:22:23Z</time>
      </trkpt>
      <trkpt lat="45.31081" lon="6.01236">
        <ele>771</ele>
        <time>2018-07-01T10:22:26Z</time>
      </trkpt>
      <trkpt lat="45.31087" lon="6.01238">
        <ele>771</ele>
        <time>2018-07-01T10:22:30Z</time>
      </trkpt>
      <trkpt lat="45.31089" lon="6.01243">
        <ele>772</ele>
        <time>2018-07-01T10:22:33Z</time>
      </trkpt>
      <trkpt lat="45.31093" lon="6.01247">
        <ele>773</ele>
        <time>2018-07-01T10:22:36Z</time>
      </trkpt>
      <trkpt lat="45.31096" lon="6.01254">
        <ele>774</ele>
        <time>2018-07-01T10:22:40Z</time>
      </trkpt>
      <trkpt lat="45.31097" lon="6.01262">
        <ele>776</ele>
        <time>2018-07-01T10:22:43Z</time>
      </trkpt>
      <trkpt lat="45.311" lon="6.01269">
        <ele>778</ele>
        <time>2018-07-01T10:22:46Z</time>
      </trkpt>
      <trkpt lat="45.31105" lon="6.0127">
        <ele>778</ele>
        <time>2018-07-01T10:22:49Z</time>
      </trkpt>
      <trkpt lat="45.31109" lon="6.01273">
        <ele>778</ele>
        <time>2018-07-01T10:22:53Z</time>
      </trkpt>
      <trkpt lat="45.31114" lon="6.01276">
        <ele>778</ele>
        <time>2018-07-01T10:22:58Z</time>
      </trkpt>
      <trkpt lat="45.31117" lon="6.01281">
        <ele>779</ele>
        <time>2018-07-01T10:23:03Z</time>
      </trkpt>
      <trkpt lat="45.31123" lon="6.01282">
        <ele>779</ele>
        <time>2018-07-01T10:23:07Z</time>
      </trkpt>
      <trkpt lat="45.31128" lon="6.01286">
        <ele>780</ele>
        <time>2018-07-01T10:23:11Z</time>
      </trkpt>
      <trkpt lat="45.31132" lon="6.0129">
        <ele>781</ele>
        <time>2018-07-01T10:23:15Z</time>
      </trkpt>
      <trkpt lat="45.31136" lon="6.01294">
        <ele>781</ele>
        <time>2018-07-01T10:23:19Z</time>
      </trkpt>
      <trkpt lat="45.3114" lon="6.01299">
        <ele>782</ele>
        <time>2018-07-01T10:23:23Z</time>
      </trkpt>
      <trkpt lat="45.31143" lon="6.01303">
        <ele>783</ele>
        <time>2018-07-01T10:23:27Z</time>
      </trkpt>
      <trkpt lat="45.31148" lon="6.01306">
        <ele>783</ele>
        <time>2018-07-01T10:23:31Z</time>
      </trkpt>
      <trkpt lat="45.31153" lon="6.01305">
        <ele>783</ele>
        <time>2018-07-01T10:23:35Z</time>
      </trkpt>
      <trkpt lat="45.31158" lon="6.01305">
        <ele>783</ele>
        <time>2018-07-01T10:23:39Z</time>
      </trkpt>
      <trkpt lat="45.31162" lon="6.0131">
        <ele>784</ele>
        <time>2018-07-01T10:23:42Z</time>
      </trkpt>
      <trkpt lat="45.31169" lon="6.01312">
        <ele>784</ele>
        <time>2018-07-01T10:23:48Z</time>
      </trkpt>
      <trkpt lat="45.31173" lon="6.01314">
        <ele>784</ele>
        <time>2018-07-01T10:23:52Z</time>
      </trkpt>
      <trkpt lat="45.31179" lon="6.01315">
        <ele>784</ele>
        <time>2018-07-01T10:23:56Z</time>
      </trkpt>
      <trkpt lat="45.31184" lon="6.01319">
        <ele>785</ele>
        <time>2018-07-01T10:24:00Z</time>
      </trkpt>
      <trkpt lat="45.31186" lon="6.01326">
        <ele>787</ele>
        <time>2018-07-01T10:24:04Z</time>
      </trkpt>
      <trkpt lat="45.31191" lon="6.01328">
        <ele>787</ele>
        <time>2018-07-01T10:24:09Z</time>
      </trkpt>
      <trkpt lat="45.31197" lon="6.01329">
        <ele>787</ele>
        <time>2018-07-01T10:24:13Z</time>
      </trkpt>
      <trkpt lat="45.31202" lon="6.01331">
        <ele>788</ele>
        <time>2018-07-01T10:24:17Z</time>
      </trkpt>
      <trkpt lat="45.31207" lon="6.01334">
        <ele>788</ele>
        <time>2018-07-01T10:24:21Z</time>
      </trkpt>
      <trkpt lat="45.31212" lon="6.01337">
        <ele>789</ele>
        <time>2018-07-01T10:24:26Z</time>
      </trkpt>
      <trkpt lat="45.31215" lon="6.0134">
        <ele>789</ele>
        <time>2018-07-01T10:24:33Z</time>
      </trkpt>
      <trkpt lat="45.31221" lon="6.01341">
        <ele>789</ele>
        <time>2018-07-01T10:24:37Z</time>
      </trkpt>
      <trkpt lat="45.31226" lon="6.01343">
        <ele>790</ele>
        <time>2018-07-01T10:24:41Z</time>
      </trkpt>
      <trkpt lat="45.31229" lon="6.0135">
        <ele>791</ele>
        <time>2018-07-01T10:24:47Z</time>
      </trkpt>
      <trkpt lat="45.31234" lon="6.01353">
        <ele>792</ele>
        <time>2018-07-01T10:24:53Z</time>
      </trkpt>
      <trkpt lat="45.3124" lon="6.01352">
        <ele>791</ele>
        <time>2018-07-01T10:24:57Z</time>
      </trkpt>
      <trkpt lat="45.31245" lon="6.01352">
        <ele>791</ele>
        <time>2018-07-01T10:25:00Z</time>
      </trkpt>
      <trkpt lat="45.31249" lon="6.01355">
        <ele>792</ele>
        <time>2018-07-01T10:25:04Z</time>
      </trkpt>
      <trkpt lat="45.31255" lon="6.01358">
        <ele>792</ele>
        <time>2018-07-01T10:25:08Z</time>
      </trkpt>
      <trkpt lat="45.31259" lon="6.01362">
        <ele>793</ele>
        <time>2018-07-01T10:25:11Z</time>
      </trkpt>
      <trkpt lat="45.31263" lon="6.01367">
        <ele>794</ele>
        <time>2018-07-01T10:25:15Z</time>
      </trkpt>
      <trkpt lat="45.31269" lon="6.01366">
        <ele>794</ele>
        <time>2018-07-01T10:25:20Z</time>
      </trkpt>
      <trkpt lat="45.31274" lon="6.01369">
        <ele>795</ele>
        <time>2018-07-01T10:25:23Z</time>
      </trkpt>
      <trkpt lat="45.31278" lon="6.01371">
        <ele>795</ele>
        <time>2018-07-01T10:25:26Z</time>
      </trkpt>
      <trkpt lat="45.31284" lon="6.01373">
        <ele>796</ele>
        <time>2018-07-01T10:25:31Z</time>
      </trkpt>
      <trkpt lat="45.31289" lon="6.01373">
        <ele>796</ele>
        <time>2018-07-01T10:25:37Z</time>
      </trkpt>
      <trkpt lat="45.31294" lon="6.01376">
        <ele>797</ele>
        <time>2018-07-01T10:25:41Z</time>
      </trkpt>
      <trkpt lat="45.31298" lon="6.01373">
        <ele>796</ele>
        <time>2018-07-01T10:25:44Z</time>
      </trkpt>
      <trkpt lat="45.31303" lon="6.01373">
        <ele>796</ele>
        <time>2018-07-01T10:25:49Z</time>
      </trkpt>
      <trkpt lat="45.31308" lon="6.01376">
        <ele>797</ele>
        <time>2018-07-01T10:25:53Z</time>
      </trkpt>
      <trkpt lat="45.31314" lon="6.01376">
        <ele>797</ele>
        <time>2018-07-01T10:25:56Z</time>
      </trkpt>
      <trkpt lat="45.31319" lon="6.01377">
        <ele>797</ele>
        <time>2018-07-01T10:25:59Z</time>
      </trkpt>
      <trkpt lat="45.31326" lon="6.01375">
        <ele>797</ele>
        <time>2018-07-01T10:26:02Z</time>
      </trkpt>
      <trkpt lat="45.31331" lon="6.01374">
        <ele>797</ele>
        <time>2018-07-01T10:26:05Z</time>
      </trkpt>
      <trkpt lat="45.31337" lon="6.01373">
        <ele>797</ele>
        <time>2018-07-01T10:26:08Z</time>
      </trkpt>
      <trkpt lat="45.31344" lon="6.01372">
        <ele>797</ele>
        <time>2018-07-01T10:26:11Z</time>
      </trkpt>
      <trkpt lat="45.31349" lon="6.01373">
        <ele>797</ele>
        <time>2018-07-01T10:26:14Z</time>
      </trkpt>
      <trkpt lat="45.31354" lon="6.01371">
        <ele>797</ele>
        <time>2018-07-01T10:26:17Z</time>
      </trkpt>
      <trkpt lat="45.3136" lon="6.01366">
        <ele>797</ele>
        <time>2018-07-01T10:26:20Z</time>
      </trkpt>
      <trkpt lat="45.31366" lon="6.01362">
        <ele>797</ele>
        <time>2018-07-01T10:26:23Z</time>
      </trkpt>
      <trkpt lat="45.31367" lon="6.01364">
        <ele>797</ele>
        <time>2018-07-01T10:26:45Z</time>
      </trkpt>
      <trkpt lat="45.31367" lon="6.01364">
        <ele>797</ele>
        <time>2018-07-01T10:26:48Z</time>
      </trkpt>
      <trkpt lat="45.31367" lon="6.01364">
        <ele>797</ele>
        <time>2018-07-01T10:27:03Z</time>
      </trkpt>
      <trkpt lat="45.31368" lon="6.01365">
        <ele>797</ele>
        <time>2018-07-01T10:27:06Z</time>
      </trkpt>
      <trkpt lat="45.31374" lon="6.01363">
        <ele>797</ele>
        <time>2018-07-01T10:27:08Z</time>
      </trkpt>
      <trkpt lat="45.31379" lon="6.01358">
        <ele>797</ele>
        <time>2018-07-01T10:27:11Z</time>
      </trkpt>
      <trkpt lat="45.31385" lon="6.01355">
        <ele>797</ele>
        <time>2018-07-01T10:27:14Z</time>
      </trkpt>
      <trkpt lat="45.3139" lon="6.01352">
        <ele>797</ele>
        <time>2018-07-01T10:27:17Z</time>
      </trkpt>
      <trkpt lat="45.31396" lon="6.01349">
        <ele>797</ele>
        <time>2018-07-01T10:27:20Z</time>
      </trkpt>
      <trkpt lat="45.31401" lon="6.01348">
        <ele>797</ele>
        <time>2018-07-01T10:27:23Z</time>
      </trkpt>
      <trkpt lat="45.31406" lon="6.01347">
        <ele>797</ele>
        <time>2018-07-01T10:27:26Z</time>
      </trkpt>
      <trkpt lat="45.31411" lon="6.01344">
        <ele>797</ele>
        <time>2018-07-01T10:27:29Z</time>
      </trkpt>
      <trkpt lat="45.31416" lon="6.01344">
        <ele>798</ele>
        <time>2018-07-01T10:27:32Z</time>
      </trkpt>
      <trkpt lat="45.31421" lon="6.01343">
        <ele>798</ele>
        <time>2018-07-01T10:27:35Z</time>
      </trkpt>
      <trkpt lat="45.31426" lon="6.01343">
        <ele>798</ele>
        <time>2018-07-01T10:27:38Z</time>
      </trkpt>
      <trkpt lat="45.3143" lon="6.01347">
        <ele>799</ele>
        <time>2018-07-01T10:27:41Z</time>
      </trkpt>
      <trkpt lat="45.31435" lon="6.0135">
        <ele>799</ele>
        <time>2018-07-01T10:27:44Z</time>
      </trkpt>
      <trkpt lat="45.31441" lon="6.01349">
        <ele>800</ele>
        <time>2018-07-01T10:27:47Z</time>
      </trkpt>
      <trkpt lat="45.31447" lon="6.01351">
        <ele>800</ele>
        <time>2018-07-01T10:27:50Z</time>
      </trkpt>
      <trkpt lat="45.31453" lon="6.01352">
        <ele>801</ele>
        <time>2018-07-01T10:27:53Z</time>
      </trkpt>
      <trkpt lat="45.31458" lon="6.01353">
        <ele>801</ele>
        <time>2018-07-01T10:27:55Z</time>
      </trkpt>
      <trkpt lat="45.31464" lon="6.01353">
        <ele>801</ele>
        <time>2018-07-01T10:27:57Z</time>
      </trkpt>
      <trkpt lat="45.31469" lon="6.01355">
        <ele>801</ele>
        <time>2018-07-01T10:28:00Z</time>
      </trkpt>
      <trkpt lat="45.31473" lon="6.0136">
        <ele>802</ele>
        <time>2018-07-01T10:28:04Z</time>
      </trkpt>
      <trkpt lat="45.31477" lon="6.01366">
        <ele>803</ele>
        <time>2018-07-01T10:28:07Z</time>
      </trkpt>
      <trkpt lat="45.31481" lon="6.01374">
        <ele>803</ele>
        <time>2018-07-01T10:28:10Z</time>
      </trkpt>
      <trkpt lat="45.31482" lon="6.01382">
        <ele>804</ele>
        <time>2018-07-01T10:28:13Z</time>
      </trkpt>
      <trkpt lat="45.31485" lon="6.01389">
        <ele>805</ele>
        <time>2018-07-01T10:28:16Z</time>
      </trkpt>
      <trkpt lat="45.31488" lon="6.01395">
        <ele>806</ele>
        <time>2018-07-01T10:28:21Z</time>
      </trkpt>
      <trkpt lat="45.3149" lon="6.01401">
        <ele>806</ele>
        <time>2018-07-01T10:28:25Z</time>
      </trkpt>
      <trkpt lat="45.31492" lon="6.01408">
        <ele>807</ele>
        <time>2018-07-01T10:28:32Z</time>
      </trkpt>
      <trkpt lat="45.31495" lon="6.01416">
        <ele>808</ele>
        <time>2018-07-01T10:28:37Z</time>
      </trkpt>
      <trkpt lat="45.31496" lon="6.01423">
        <ele>809</ele>
        <time>2018-07-01T10:28:42Z</time>
      </trkpt>
      <trkpt lat="45.31498" lon="6.01431">
        <ele>810</ele>
        <time>2018-07-01T10:28:47Z</time>
      </trkpt>
      <trkpt lat="45.31499" lon="6.01439">
        <ele>811</ele>
        <time>2018-07-01T10:28:51Z</time>
      </trkpt>
      <trkpt lat="45.31502" lon="6.01446">
        <ele>811</ele>
        <time>2018-07-01T10:28:55Z</time>
      </trkpt>
      <trkpt lat="45.31503" lon="6.01453">
        <ele>812</ele>
        <time>2018-07-01T10:28:59Z</time>
      </trkpt>
      <trkpt lat="45.31503" lon="6.0146">
        <ele>813</ele>
        <time>2018-07-01T10:29:04Z</time>
      </trkpt>
      <trkpt lat="45.31504" lon="6.01467">
        <ele>813</ele>
        <time>2018-07-01T10:29:08Z</time>
      </trkpt>
      <trkpt lat="45.31508" lon="6.01472">
        <ele>814</ele>
        <time>2018-07-01T10:29:13Z</time>
      </trkpt>
      <trkpt lat="45.31508" lon="6.01479">
        <ele>815</ele>
        <time>2018-07-01T10:29:18Z</time>
      </trkpt>
      <trkpt lat="45.31509" lon="6.01486">
        <ele>815</ele>
        <time>2018-07-01T10:29:23Z</time>
      </trkpt>
      <trkpt lat="45.31511" lon="6.01492">
        <ele>816</ele>
        <time>2018-07-01T10:29:27Z</time>
      </trkpt>
      <trkpt lat="45.31513" lon="6.01499">
        <ele>816</ele>
        <time>2018-07-01T10:29:30Z</time>
      </trkpt>
      <trkpt lat="45.31514" lon="6.01505">
        <ele>817</ele>
        <time>2018-07-01T10:29:33Z</time>
      </trkpt>
      <trkpt lat="45.31516" lon="6.01512">
        <ele>818</ele>
        <time>2018-07-01T10:29:37Z</time>
      </trkpt>
      <trkpt lat="45.31516" lon="6.0152">
        <ele>819</ele>
        <time>2018-07-01T10:29:41Z</time>
      </trkpt>
      <trkpt lat="45.31517" lon="6.01527">
        <ele>820</ele>
        <time>2018-07-01T10:29:44Z</time>
      </trkpt>
      <trkpt lat="45.31519" lon="6.01532">
        <ele>821</ele>
        <time>2018-07-01T10:29:47Z</time>
      </trkpt>
      <trkpt lat="45.31523" lon="6.01536">
        <ele>821</ele>
        <time>2018-07-01T10:29:50Z</time>
      </trkpt>
      <trkpt lat="45.31527" lon="6.0154">
        <ele>822</ele>
        <time>2018-07-01T10:29:53Z</time>
      </trkpt>
      <trkpt lat="45.3153" lon="6.01545">
        <ele>823</ele>
        <time>2018-07-01T10:29:56Z</time>
      </trkpt>
      <trkpt lat="45.31532" lon="6.01553">
        <ele>824</ele>
        <time>2018-07-01T10:30:00Z</time>
      </trkpt>
      <trkpt lat="45.31537" lon="6.01557">
        <ele>824</ele>
        <time>2018-07-01T10:30:04Z</time>
      </trkpt>
      <trkpt lat="45.3154" lon="6.01562">
        <ele>825</ele>
        <time>2018-07-01T10:30:09Z</time>
      </trkpt>
      <trkpt lat="45.31545" lon="6.01566">
        <ele>825</ele>
        <time>2018-07-01T10:30:13Z</time>
      </trkpt>
      <trkpt lat="45.31546" lon="6.01572">
        <ele>826</ele>
        <time>2018-07-01T10:30:17Z</time>
      </trkpt>
      <trkpt lat="45.3155" lon="6.01576">
        <ele>826</ele>
        <time>2018-07-01T10:30:21Z</time>
      </trkpt>
      <trkpt lat="45.31552" lon="6.01582">
        <ele>827</ele>
        <time>2018-07-01T10:30:25Z</time>
      </trkpt>
      <trkpt lat="45.31555" lon="6.01587">
        <ele>828</ele>
        <time>2018-07-01T10:30:28Z</time>
      </trkpt>
      <trkpt lat="45.31559" lon="6.01592">
        <ele>828</ele>
        <time>2018-07-01T10:30:31Z</time>
      </trkpt>
      <trkpt lat="45.31562" lon="6.01597">
        <ele>828</ele>
        <time>2018-07-01T10:30:34Z</time>
      </trkpt>
      <trkpt lat="45.31564" lon="6.01603">
        <ele>829</ele>
        <time>2018-07-01T10:30:37Z</time>
      </trkpt>
      <trkpt lat="45.31567" lon="6.01608">
        <ele>830</ele>
        <time>2018-07-01T10:30:40Z</time>
      </trkpt>
      <trkpt lat="45.31571" lon="6.01613">
        <ele>830</ele>
        <time>2018-07-01T10:30:44Z</time>
      </trkpt>
      <trkpt lat="45.31576" lon="6.01616">
        <ele>830</ele>
        <time>2018-07-01T10:30:47Z</time>
      </trkpt>
      <trkpt lat="45.31579" lon="6.01621">
        <ele>830</ele>
        <time>2018-07-01T10:30:51Z</time>
      </trkpt>
      <trkpt lat="45.31582" lon="6.01626">
        <ele>830</ele>
        <time>2018-07-01T10:30:57Z</time>
      </trkpt>
      <trkpt lat="45.31585" lon="6.0163">
        <ele>831</ele>
        <time>2018-07-01T10:31:01Z</time>
      </trkpt>
      <trkpt lat="45.31588" lon="6.01635">
        <ele>831</ele>
        <time>2018-07-01T10:31:05Z</time>
      </trkpt>
      <trkpt lat="45.31593" lon="6.01641">
        <ele>831</ele>
        <time>2018-07-01T10:31:09Z</time>
      </trkpt>
      <trkpt lat="45.31596" lon="6.01646">
        <ele>832</ele>
        <time>2018-07-01T10:31:12Z</time>
      </trkpt>
      <trkpt lat="45.31599" lon="6.01653">
        <ele>833</ele>
        <time>2018-07-01T10:31:16Z</time>
      </trkpt>
      <trkpt lat="45.31601" lon="6.01659">
        <ele>833</ele>
        <time>2018-07-01T10:31:20Z</time>
      </trkpt>
      <trkpt lat="45.31606" lon="6.01664">
        <ele>833</ele>
        <time>2018-07-01T10:31:24Z</time>
      </trkpt>
      <trkpt lat="45.3161" lon="6.01667">
        <ele>833</ele>
        <time>2018-07-01T10:31:27Z</time>
      </trkpt>
      <trkpt lat="45.31615" lon="6.01671">
        <ele>833</ele>
        <time>2018-07-01T10:31:30Z</time>
      </trkpt>
      <trkpt lat="45.31619" lon="6.01675">
        <ele>834</ele>
        <time>2018-07-01T10:31:32Z</time>
      </trkpt>
      <trkpt lat="45.31623" lon="6.01679">
        <ele>834</ele>
        <time>2018-07-01T10:31:34Z</time>
      </trkpt>
      <trkpt lat="45.31628" lon="6.01683">
        <ele>833</ele>
        <time>2018-07-01T10:31:36Z</time>
      </trkpt>
      <trkpt lat="45.31633" lon="6.01688">
        <ele>833</ele>
        <time>2018-07-01T10:31:38Z</time>
      </trkpt>
      <trkpt lat="45.31637" lon="6.01693">
        <ele>833</ele>
        <time>2018-07-01T10:31:40Z</time>
      </trkpt>
      <trkpt lat="45.31641" lon="6.01698">
        <ele>833</ele>
        <time>2018-07-01T10:31:42Z</time>
      </trkpt>
      <trkpt lat="45.31645" lon="6.01703">
        <ele>833</ele>
        <time>2018-07-01T10:31:44Z</time>
      </trkpt>
      <trkpt lat="45.31649" lon="6.01709">
        <ele>833</ele>
        <time>2018-07-01T10:31:46Z</time>
      </trkpt>
      <trkpt lat="45.31652" lon="6.01715">
        <ele>833</ele>
        <time>2018-07-01T10:31:48Z</time>
      </trkpt>
      <trkpt lat="45.31656" lon="6.0172">
        <ele>833</ele>
        <time>2018-07-01T10:31:50Z</time>
      </trkpt>
      <trkpt lat="45.31658" lon="6.01726">
        <ele>834</ele>
        <time>2018-07-01T10:31:52Z</time>
      </trkpt>
      <trkpt lat="45.31661" lon="6.01733">
        <ele>834</ele>
        <time>2018-07-01T10:31:55Z</time>
      </trkpt>
      <trkpt lat="45.31664" lon="6.0174">
        <ele>835</ele>
        <time>2018-07-01T10:31:58Z</time>
      </trkpt>
      <trkpt lat="45.31665" lon="6.01746">
        <ele>835</ele>
        <time>2018-07-01T10:32:01Z</time>
      </trkpt>
      <trkpt lat="45.31664" lon="6.01754">
        <ele>836</ele>
        <time>2018-07-01T10:32:04Z</time>
      </trkpt>
      <trkpt lat="45.31665" lon="6.01761">
        <ele>837</ele>
        <time>2018-07-01T10:32:07Z</time>
      </trkpt>
      <trkpt lat="45.31665" lon="6.01768">
        <ele>837</ele>
        <time>2018-07-01T10:32:10Z</time>
      </trkpt>
      <trkpt lat="45.31667" lon="6.01775">
        <ele>838</ele>
        <time>2018-07-01T10:32:14Z</time>
      </trkpt>
      <trkpt lat="45.3167" lon="6.01782">
        <ele>838</ele>
        <time>2018-07-01T10:32:17Z</time>
      </trkpt>
      <trkpt lat="45.31674" lon="6.01786">
        <ele>839</ele>
        <time>2018-07-01T10:32:20Z</time>
      </trkpt>
      <trkpt lat="45.3168" lon="6.01788">
        <ele>839</ele>
        <time>2018-07-01T10:32:23Z</time>
      </trkpt>
      <trkpt lat="45.31685" lon="6.01791">
        <ele>839</ele>
        <time>2018-07-01T10:32:26Z</time>
      </trkpt>
      <trkpt lat="45.31688" lon="6.01798">
        <ele>840</ele>
        <time>2018-07-01T10:32:30Z</time>
      </trkpt>
      <trkpt lat="45.31689" lon="6.01805">
        <ele>841</ele>
        <time>2018-07-01T10:32:33Z</time>
      </trkpt>
      <trkpt lat="45.31689" lon="6.01813">
        <ele>841</ele>
        <time>2018-07-01T10:32:36Z</time>
      </trkpt>
      <trkpt lat="45.3169" lon="6.0182">
        <ele>842</ele>
        <time>2018-07-01T10:32:39Z</time>
      </trkpt>
      <trkpt lat="45.31694" lon="6.01823">
        <ele>842</ele>
        <time>2018-07-01T10:32:43Z</time>
      </trkpt>
      <trkpt lat="45.31695" lon="6.0183">
        <ele>843</ele>
        <time>2018-07-01T10:32:45Z</time>
      </trkpt>
      <trkpt lat="45.31696" lon="6.01838">
        <ele>843</ele>
        <time>2018-07-01T10:32:47Z</time>
      </trkpt>
      <trkpt lat="45.31701" lon="6.0184">
        <ele>843</ele>
        <time>2018-07-01T10:32:51Z</time>
      </trkpt>
      <trkpt lat="45.31706" lon="6.0184">
        <ele>843</ele>
        <time>2018-07-01T10:32:56Z</time>
      </trkpt>
      <trkpt lat="45.3171" lon="6.01844">
        <ele>844</ele>
        <time>2018-07-01T10:33:02Z</time>
      </trkpt>
      <trkpt lat="45.31715" lon="6.01847">
        <ele>844</ele>
        <time>2018-07-01T10:33:07Z</time>
      </trkpt>
      <trkpt lat="45.31719" lon="6.01849">
        <ele>844</ele>
        <time>2018-07-01T10:33:15Z</time>
      </trkpt>
      <trkpt lat="45.31724" lon="6.01852">
        <ele>844</ele>
        <time>2018-07-01T10:33:17Z</time>
      </trkpt>
      <trkpt lat="45.31728" lon="6.01857">
        <ele>845</ele>
        <time>2018-07-01T10:33:19Z</time>
      </trkpt>
      <trkpt lat="45.31733" lon="6.01861">
        <ele>846</ele>
        <time>2018-07-01T10:33:21Z</time>
      </trkpt>
      <trkpt lat="45.31741" lon="6.01873">
        <ele>848</ele>
        <time>2018-07-01T10:33:29Z</time>
      </trkpt>
      <trkpt lat="45.31742" lon="6.01874">
        <ele>848</ele>
        <time>2018-07-01T10:33:46Z</time>
      </trkpt>
      <trkpt lat="45.31742" lon="6.01874">
        <ele>848</ele>
        <time>2018-07-01T10:33:49Z</time>
      </trkpt>
      <trkpt lat="45.31742" lon="6.01874">
        <ele>848</ele>
        <time>2018-07-01T10:34:16Z</time>
      </trkpt>
      <trkpt lat="45.31742" lon="6.01874">
        <ele>848</ele>
        <time>2018-07-01T10:34:19Z</time>
      </trkpt>
      <trkpt lat="45.31738" lon="6.01871">
        <ele>848</ele>
        <time>2018-07-01T10:34:37Z</time>
      </trkpt>
      <trkpt lat="45.3173" lon="6.01862">
        <ele>846</ele>
        <time>2018-07-01T10:34:39Z</time>
      </trkpt>
      <trkpt lat="45.31725" lon="6.01856">
        <ele>845</ele>
        <time>2018-07-01T10:34:40Z</time>
      </trkpt>
      <trkpt lat="45.31722" lon="6.01849">
        <ele>844</ele>
        <time>2018-07-01T10:34:41Z</time>
      </trkpt>
      <trkpt lat="45.31715" lon="6.01833">
        <ele>843</ele>
        <time>2018-07-01T10:34:42Z</time>
      </trkpt>
      <trkpt lat="45.31712" lon="6.01824">
        <ele>842</ele>
        <time>2018-07-01T10:34:43Z</time>
      </trkpt>
      <trkpt lat="45.31709" lon="6.01817">
        <ele>842</ele>
        <time>2018-07-01T10:34:44Z</time>
      </trkpt>
      <trkpt lat="45.31699" lon="6.01804">
        <ele>840</ele>
        <time>2018-07-01T10:34:46Z</time>
      </trkpt>
      <trkpt lat="45.31697" lon="6.01799">
        <ele>840</ele>
        <time>2018-07-01T10:34:47Z</time>
      </trkpt>
      <trkpt lat="45.31688" lon="6.01795">
        <ele>840</ele>
        <time>2018-07-01T10:34:48Z</time>
      </trkpt>
      <trkpt lat="45.31681" lon="6.01795">
        <ele>840</ele>
        <time>2018-07-01T10:34:49Z</time>
      </trkpt>
      <trkpt lat="45.31679" lon="6.01801">
        <ele>840</ele>
        <time>2018-07-01T10:34:52Z</time>
      </trkpt>
      <trkpt lat="45.31683" lon="6.01809">
        <ele>841</ele>
        <time>2018-07-01T10:34:57Z</time>
      </trkpt>
      <trkpt lat="45.31686" lon="6.01815">
        <ele>841</ele>
        <time>2018-07-01T10:35:00Z</time>
      </trkpt>
      <trkpt lat="45.31683" lon="6.01821">
        <ele>842</ele>
        <time>2018-07-01T10:35:06Z</time>
      </trkpt>
      <trkpt lat="45.31679" lon="6.01827">
        <ele>843</ele>
        <time>2018-07-01T10:35:09Z</time>
      </trkpt>
      <trkpt lat="45.31677" lon="6.01833">
        <ele>843</ele>
        <time>2018-07-01T10:35:12Z</time>
      </trkpt>
      <trkpt lat="45.31673" lon="6.01838">
        <ele>844</ele>
        <time>2018-07-01T10:35:16Z</time>
      </trkpt>
      <trkpt lat="45.31673" lon="6.01846">
        <ele>844</ele>
        <time>2018-07-01T10:35:20Z</time>
      </trkpt>
      <trkpt lat="45.31673" lon="6.01853">
        <ele>845</ele>
        <time>2018-07-01T10:35:25Z</time>
      </trkpt>
      <trkpt lat="45.31672" lon="6.0186">
        <ele>846</ele>
        <time>2018-07-01T10:35:29Z</time>
      </trkpt>
      <trkpt lat="45.31672" lon="6.01868">
        <ele>848</ele>
        <time>2018-07-01T10:35:32Z</time>
      </trkpt>
      <trkpt lat="45.31674" lon="6.01877">
        <ele>849</ele>
        <time>2018-07-01T10:35:35Z</time>
      </trkpt>
      <trkpt lat="45.31675" lon="6.01885">
        <ele>850</ele>
        <time>2018-07-01T10:35:38Z</time>
      </trkpt>
      <trkpt lat="45.31675" lon="6.01893">
        <ele>851</ele>
        <time>2018-07-01T10:35:41Z</time>
      </trkpt>
      <trkpt lat="45.31675" lon="6.01901">
        <ele>852</ele>
        <time>2018-07-01T10:35:45Z</time>
      </trkpt>
      <trkpt lat="45.31677" lon="6.01909">
        <ele>853</ele>
        <time>2018-07-01T10:35:49Z</time>
      </trkpt>
      <trkpt lat="45.31676" lon="6.01917">
        <ele>854</ele>
        <time>2018-07-01T10:35:54Z</time>
      </trkpt>
      <trkpt lat="45.31675" lon="6.01924">
        <ele>855</ele>
        <time>2018-07-01T10:36:00Z</time>
      </trkpt>
      <trkpt lat="45.31673" lon="6.01932">
        <ele>857</ele>
        <time>2018-07-01T10:36:06Z</time>
      </trkpt>
      <trkpt lat="45.31673" lon="6.01939">
        <ele>858</ele>
        <time>2018-07-01T10:36:10Z</time>
      </trkpt>
      <trkpt lat="45.31674" lon="6.01946">
        <ele>859</ele>
        <time>2018-07-01T10:36:14Z</time>
      </trkpt>
      <trkpt lat="45.31674" lon="6.01953">
        <ele>860</ele>
        <time>2018-07-01T10:36:18Z</time>
      </trkpt>
      <trkpt lat="45.31673" lon="6.01961">
        <ele>861</ele>
        <time>2018-07-01T10:36:24Z</time>
      </trkpt>
      <trkpt lat="45.31675" lon="6.01968">
        <ele>862</ele>
        <time>2018-07-01T10:36:30Z</time>
      </trkpt>
      <trkpt lat="45.31674" lon="6.01974">
        <ele>863</ele>
        <time>2018-07-01T10:36:36Z</time>
      </trkpt>
      <trkpt lat="45.3167" lon="6.01978">
        <ele>864</ele>
        <time>2018-07-01T10:36:41Z</time>
      </trkpt>
      <trkpt lat="45.31672" lon="6.01984">
        <ele>864</ele>
        <time>2018-07-01T10:36:45Z</time>
      </trkpt>
      <trkpt lat="45.31669" lon="6.0199">
        <ele>866</ele>
        <time>2018-07-01T10:36:50Z</time>
      </trkpt>
      <trkpt lat="45.31667" lon="6.01998">
        <ele>867</ele>
        <time>2018-07-01T10:36:55Z</time>
      </trkpt>
      <trkpt lat="45.31667" lon="6.02005">
        <ele>868</ele>
        <time>2018-07-01T10:36:59Z</time>
      </trkpt>
      <trkpt lat="45.31667" lon="6.02012">
        <ele>869</ele>
        <time>2018-07-01T10:37:03Z</time>
      </trkpt>
      <trkpt lat="45.31669" lon="6.02018">
        <ele>870</ele>
        <time>2018-07-01T10:37:07Z</time>
      </trkpt>
      <trkpt lat="45.31664" lon="6.02026">
        <ele>871</ele>
        <time>2018-07-01T10:37:11Z</time>
      </trkpt>
      <trkpt lat="45.31661" lon="6.02031">
        <ele>872</ele>
        <time>2018-07-01T10:37:14Z</time>
      </trkpt>
      <trkpt lat="45.31662" lon="6.02038">
        <ele>873</ele>
        <time>2018-07-01T10:37:23Z</time>
      </trkpt>
      <trkpt lat="45.31664" lon="6.02044">
        <ele>874</ele>
        <time>2018-07-01T10:37:29Z</time>
      </trkpt>
      <trkpt lat="45.31668" lon="6.02048">
        <ele>874</ele>
        <time>2018-07-01T10:37:32Z</time>
      </trkpt>
      <trkpt lat="45.3167" lon="6.02055">
        <ele>875</ele>
        <time>2018-07-01T10:37:35Z</time>
      </trkpt>
      <trkpt lat="45.3167" lon="6.02061">
        <ele>875</ele>
        <time>2018-07-01T10:37:39Z</time>
      </trkpt>
      <trkpt lat="45.31672" lon="6.02068">
        <ele>876</ele>
        <time>2018-07-01T10:37:43Z</time>
      </trkpt>
      <trkpt lat="45.31669" lon="6.02073">
        <ele>877</ele>
        <time>2018-07-01T10:37:48Z</time>
      </trkpt>
      <trkpt lat="45.3167" lon="6.0208">
        <ele>878</ele>
        <time>2018-07-01T10:37:51Z</time>
      </trkpt>
      <trkpt lat="45.31669" lon="6.02086">
        <ele>879</ele>
        <time>2018-07-01T10:37:55Z</time>
      </trkpt>
      <trkpt lat="45.31672" lon="6.02092">
        <ele>879</ele>
        <time>2018-07-01T10:37:59Z</time>
      </trkpt>
      <trkpt lat="45.31674" lon="6.02098">
        <ele>880</ele>
        <time>2018-07-01T10:38:04Z</time>
      </trkpt>
      <trkpt lat="45.31679" lon="6.021">
        <ele>880</ele>
        <time>2018-07-01T10:38:08Z</time>
      </trkpt>
      <trkpt lat="45.31683" lon="6.02103">
        <ele>880</ele>
        <time>2018-07-01T10:38:12Z</time>
      </trkpt>
      <trkpt lat="45.31687" lon="6.02107">
        <ele>880</ele>
        <time>2018-07-01T10:38:16Z</time>
      </trkpt>
      <trkpt lat="45.31695" lon="6.02117">
        <ele>881</ele>
        <time>2018-07-01T10:38:23Z</time>
      </trkpt>
      <trkpt lat="45.31696" lon="6.02124">
        <ele>881</ele>
        <time>2018-07-01T10:38:27Z</time>
      </trkpt>
      <trkpt lat="45.31698" lon="6.02127">
        <ele>882</ele>
        <time>2018-07-01T10:38:30Z</time>
      </trkpt>
      <trkpt lat="45.31707" lon="6.02148">
        <ele>884</ele>
        <time>2018-07-01T10:38:47Z</time>
      </trkpt>
      <trkpt lat="45.3171" lon="6.02154">
        <ele>885</ele>
        <time>2018-07-01T10:38:50Z</time>
      </trkpt>
      <trkpt lat="45.31712" lon="6.02161">
        <ele>885</ele>
        <time>2018-07-01T10:38:56Z</time>
      </trkpt>
      <trkpt lat="45.31712" lon="6.02173">
        <ele>887</ele>
        <time>2018-07-01T10:39:05Z</time>
      </trkpt>
      <trkpt lat="45.31717" lon="6.02176">
        <ele>887</ele>
        <time>2018-07-01T10:39:07Z</time>
      </trkpt>
      <trkpt lat="45.31721" lon="6.02181">
        <ele>888</ele>
        <time>2018-07-01T10:39:10Z</time>
      </trkpt>
      <trkpt lat="45.31722" lon="6.02188">
        <ele>889</ele>
        <time>2018-07-01T10:39:30Z</time>
      </trkpt>
      <trkpt lat="45.31727" lon="6.02204">
        <ele>891</ele>
        <time>2018-07-01T10:39:36Z</time>
      </trkpt>
      <trkpt lat="45.31734" lon="6.02219">
        <ele>892</ele>
        <time>2018-07-01T10:39:44Z</time>
      </trkpt>
      <trkpt lat="45.31736" lon="6.02225">
        <ele>893</ele>
        <time>2018-07-01T10:39:48Z</time>
      </trkpt>
      <trkpt lat="45.31737" lon="6.02231">
        <ele>894</ele>
        <time>2018-07-01T10:39:53Z</time>
      </trkpt>
      <trkpt lat="45.31743" lon="6.02243">
        <ele>896</ele>
        <time>2018-07-01T10:40:02Z</time>
      </trkpt>
      <trkpt lat="45.31744" lon="6.02251">
        <ele>897</ele>
        <time>2018-07-01T10:40:06Z</time>
      </trkpt>
      <trkpt lat="45.31745" lon="6.02258">
        <ele>898</ele>
        <time>2018-07-01T10:40:10Z</time>
      </trkpt>
      <trkpt lat="45.31749" lon="6.0226">
        <ele>898</ele>
        <time>2018-07-01T10:40:14Z</time>
      </trkpt>
      <trkpt lat="45.31755" lon="6.02271">
        <ele>901</ele>
        <time>2018-07-01T10:40:22Z</time>
      </trkpt>
      <trkpt lat="45.31757" lon="6.0228">
        <ele>902</ele>
        <time>2018-07-01T10:40:27Z</time>
      </trkpt>
      <trkpt lat="45.31758" lon="6.02287">
        <ele>904</ele>
        <time>2018-07-01T10:40:31Z</time>
      </trkpt>
      <trkpt lat="45.31763" lon="6.02289">
        <ele>904</ele>
        <time>2018-07-01T10:40:35Z</time>
      </trkpt>
      <trkpt lat="45.31758" lon="6.02291">
        <ele>905</ele>
        <time>2018-07-01T10:40:38Z</time>
      </trkpt>
      <trkpt lat="45.31755" lon="6.02299">
        <ele>906</ele>
        <time>2018-07-01T10:40:42Z</time>
      </trkpt>
      <trkpt lat="45.31757" lon="6.02305">
        <ele>908</ele>
        <time>2018-07-01T10:40:45Z</time>
      </trkpt>
      <trkpt lat="45.31758" lon="6.02311">
        <ele>909</ele>
        <time>2018-07-01T10:40:48Z</time>
      </trkpt>
      <trkpt lat="45.31758" lon="6.02317">
        <ele>910</ele>
        <time>2018-07-01T10:40:52Z</time>
      </trkpt>
      <trkpt lat="45.31759" lon="6.02325">
        <ele>912</ele>
        <time>2018-07-01T10:40:57Z</time>
      </trkpt>
      <trkpt lat="45.31755" lon="6.0233">
        <ele>913</ele>
        <time>2018-07-01T10:41:04Z</time>
      </trkpt>
      <trkpt lat="45.31758" lon="6.02336">
        <ele>914</ele>
        <time>2018-07-01T10:41:09Z</time>
      </trkpt>
      <trkpt lat="45.31761" lon="6.02341">
        <ele>915</ele>
        <time>2018-07-01T10:41:13Z</time>
      </trkpt>
      <trkpt lat="45.31764" lon="6.0235">
        <ele>917</ele>
        <time>2018-07-01T10:41:18Z</time>
      </trkpt>
      <trkpt lat="45.31768" lon="6.02353">
        <ele>917</ele>
        <time>2018-07-01T10:41:22Z</time>
      </trkpt>
      <trkpt lat="45.31773" lon="6.02355">
        <ele>917</ele>
        <time>2018-07-01T10:41:25Z</time>
      </trkpt>
      <trkpt lat="45.31778" lon="6.02357">
        <ele>917</ele>
        <time>2018-07-01T10:41:29Z</time>
      </trkpt>
      <trkpt lat="45.31782" lon="6.02361">
        <ele>918</ele>
        <time>2018-07-01T10:41:33Z</time>
      </trkpt>
      <trkpt lat="45.31783" lon="6.02369">
        <ele>919</ele>
        <time>2018-07-01T10:41:37Z</time>
      </trkpt>
      <trkpt lat="45.31786" lon="6.02373">
        <ele>920</ele>
        <time>2018-07-01T10:41:41Z</time>
      </trkpt>
      <trkpt lat="45.31789" lon="6.02377">
        <ele>920</ele>
        <time>2018-07-01T10:41:45Z</time>
      </trkpt>
      <trkpt lat="45.31795" lon="6.02377">
        <ele>920</ele>
        <time>2018-07-01T10:41:49Z</time>
      </trkpt>
      <trkpt lat="45.318" lon="6.02374">
        <ele>920</ele>
        <time>2018-07-01T10:41:52Z</time>
      </trkpt>
      <trkpt lat="45.31804" lon="6.02368">
        <ele>919</ele>
        <time>2018-07-01T10:41:55Z</time>
      </trkpt>
      <trkpt lat="45.31808" lon="6.02362">
        <ele>918</ele>
        <time>2018-07-01T10:41:58Z</time>
      </trkpt>
      <trkpt lat="45.31811" lon="6.02354">
        <ele>916</ele>
        <time>2018-07-01T10:42:01Z</time>
      </trkpt>
      <trkpt lat="45.31815" lon="6.0235">
        <ele>916</ele>
        <time>2018-07-01T10:42:04Z</time>
      </trkpt>
      <trkpt lat="45.31819" lon="6.02347">
        <ele>915</ele>
        <time>2018-07-01T10:42:07Z</time>
      </trkpt>
      <trkpt lat="45.31824" lon="6.02346">
        <ele>915</ele>
        <time>2018-07-01T10:42:10Z</time>
      </trkpt>
      <trkpt lat="45.3183" lon="6.02346">
        <ele>915</ele>
        <time>2018-07-01T10:42:13Z</time>
      </trkpt>
      <trkpt lat="45.31835" lon="6.02345">
        <ele>915</ele>
        <time>2018-07-01T10:42:16Z</time>
      </trkpt>
      <trkpt lat="45.3184" lon="6.02342">
        <ele>915</ele>
        <time>2018-07-01T10:42:19Z</time>
      </trkpt>
      <trkpt lat="45.31846" lon="6.02339">
        <ele>914</ele>
        <time>2018-07-01T10:42:22Z</time>
      </trkpt>
      <trkpt lat="45.3185" lon="6.02338">
        <ele>914</ele>
        <time>2018-07-01T10:42:25Z</time>
      </trkpt>
      <trkpt lat="45.31855" lon="6.02339">
        <ele>915</ele>
        <time>2018-07-01T10:42:28Z</time>
      </trkpt>
      <trkpt lat="45.31861" lon="6.02337">
        <ele>914</ele>
        <time>2018-07-01T10:42:32Z</time>
      </trkpt>
      <trkpt lat="45.31865" lon="6.02331">
        <ele>914</ele>
        <time>2018-07-01T10:42:35Z</time>
      </trkpt>
      <trkpt lat="45.31872" lon="6.0233">
        <ele>914</ele>
        <time>2018-07-01T10:42:39Z</time>
      </trkpt>
      <trkpt lat="45.31878" lon="6.0233">
        <ele>914</ele>
        <time>2018-07-01T10:42:42Z</time>
      </trkpt>
      <trkpt lat="45.31885" lon="6.02331">
        <ele>915</ele>
        <time>2018-07-01T10:42:45Z</time>
      </trkpt>
      <trkpt lat="45.3189" lon="6.02331">
        <ele>915</ele>
        <time>2018-07-01T10:42:47Z</time>
      </trkpt>
      <trkpt lat="45.31896" lon="6.02332">
        <ele>916</ele>
        <time>2018-07-01T10:42:50Z</time>
      </trkpt>
      <trkpt lat="45.31902" lon="6.02335">
        <ele>916</ele>
        <time>2018-07-01T10:42:53Z</time>
      </trkpt>
      <trkpt lat="45.31907" lon="6.02336">
        <ele>917</ele>
        <time>2018-07-01T10:42:55Z</time>
      </trkpt>
      <trkpt lat="45.31911" lon="6.02338">
        <ele>917</ele>
        <time>2018-07-01T10:42:57Z</time>
      </trkpt>
      <trkpt lat="45.31916" lon="6.02339">
        <ele>918</ele>
        <time>2018-07-01T10:42:59Z</time>
      </trkpt>
      <trkpt lat="45.31921" lon="6.02339">
        <ele>918</ele>
        <time>2018-07-01T10:43:01Z</time>
      </trkpt>
      <trkpt lat="45.31926" lon="6.0234">
        <ele>918</ele>
        <time>2018-07-01T10:43:03Z</time>
      </trkpt>
      <trkpt lat="45.31931" lon="6.02342">
        <ele>919</ele>
        <time>2018-07-01T10:43:05Z</time>
      </trkpt>
      <trkpt lat="45.31937" lon="6.02345">
        <ele>919</ele>
        <time>2018-07-01T10:43:07Z</time>
      </trkpt>
      <trkpt lat="45.31946" lon="6.02347">
        <ele>919</ele>
        <time>2018-07-01T10:43:09Z</time>
      </trkpt>
      <trkpt lat="45.31954" lon="6.02346">
        <ele>919</ele>
        <time>2018-07-01T10:43:10Z</time>
      </trkpt>
      <trkpt lat="45.31959" lon="6.02348">
        <ele>919</ele>
        <time>2018-07-01T10:43:11Z</time>
      </trkpt>
      <trkpt lat="45.31963" lon="6.02349">
        <ele>919</ele>
        <time>2018-07-01T10:43:12Z</time>
      </trkpt>
      <trkpt lat="45.31972" lon="6.02349">
        <ele>919</ele>
        <time>2018-07-01T10:43:14Z</time>
      </trkpt>
      <trkpt lat="45.31979" lon="6.02348">
        <ele>919</ele>
        <time>2018-07-01T10:43:16Z</time>
      </trkpt>
      <trkpt lat="45.31984" lon="6.02346">
        <ele>918</ele>
        <time>2018-07-01T10:43:18Z</time>
      </trkpt>
      <trkpt lat="45.31989" lon="6.02345">
        <ele>918</ele>
        <time>2018-07-01T10:43:20Z</time>
      </trkpt>
      <trkpt lat="45.31996" lon="6.02344">
        <ele>918</ele>
        <time>2018-07-01T10:43:24Z</time>
      </trkpt>
      <trkpt lat="45.32002" lon="6.02342">
        <ele>917</ele>
        <time>2018-07-01T10:43:27Z</time>
      </trkpt>
      <trkpt lat="45.32006" lon="6.02338">
        <ele>916</ele>
        <time>2018-07-01T10:43:30Z</time>
      </trkpt>
      <trkpt lat="45.32011" lon="6.02337">
        <ele>916</ele>
        <time>2018-07-01T10:43:34Z</time>
      </trkpt>
      <trkpt lat="45.32016" lon="6.02338">
        <ele>916</ele>
        <time>2018-07-01T10:43:37Z</time>
      </trkpt>
      <trkpt lat="45.32018" lon="6.02347">
        <ele>917</ele>
        <time>2018-07-01T10:43:41Z</time>
      </trkpt>
      <trkpt lat="45.32019" lon="6.02353">
        <ele>917</ele>
        <time>2018-07-01T10:43:44Z</time>
      </trkpt>
      <trkpt lat="45.32019" lon="6.0236">
        <ele>918</ele>
        <time>2018-07-01T10:43:49Z</time>
      </trkpt>
      <trkpt lat="45.32016" lon="6.02365">
        <ele>919</ele>
        <time>2018-07-01T10:43:53Z</time>
      </trkpt>
      <trkpt lat="45.32015" lon="6.02373">
        <ele>920</ele>
        <time>2018-07-01T10:43:57Z</time>
      </trkpt>
      <trkpt lat="45.32013" lon="6.02379">
        <ele>921</ele>
        <time>2018-07-01T10:44:00Z</time>
      </trkpt>
      <trkpt lat="45.32011" lon="6.02385">
        <ele>921</ele>
        <time>2018-07-01T10:44:03Z</time>
      </trkpt>
      <trkpt lat="45.3201" lon="6.02393">
        <ele>922</ele>
        <time>2018-07-01T10:44:06Z</time>
      </trkpt>
      <trkpt lat="45.32009" lon="6.024">
        <ele>923</ele>
        <time>2018-07-01T10:44:09Z</time>
      </trkpt>
      <trkpt lat="45.32008" lon="6.0241">
        <ele>925</ele>
        <time>2018-07-01T10:44:12Z</time>
      </trkpt>
      <trkpt lat="45.32009" lon="6.02416">
        <ele>925</ele>
        <time>2018-07-01T10:44:16Z</time>
      </trkpt>
      <trkpt lat="45.32009" lon="6.02414">
        <ele>925</ele>
        <time>2018-07-01T10:44:39Z</time>
      </trkpt>
      <trkpt lat="45.32009" lon="6.02414">
        <ele>925</ele>
        <time>2018-07-01T10:44:41Z</time>
      </trkpt>
      <trkpt lat="45.32009" lon="6.02414">
        <ele>925</ele>
        <time>2018-07-01T10:44:56Z</time>
      </trkpt>
      <trkpt lat="45.32009" lon="6.02414">
        <ele>925</ele>
        <time>2018-07-01T10:44:58Z</time>
      </trkpt>
      <trkpt lat="45.32009" lon="6.02414">
        <ele>925</ele>
        <time>2018-07-01T10:45:41Z</time>
      </trkpt>
      <trkpt lat="45.32009" lon="6.02414">
        <ele>925</ele>
        <time>2018-07-01T10:45:43Z</time>
      </trkpt>
      <trkpt lat="45.32009" lon="6.02414">
        <ele>925</ele>
        <time>2018-07-01T10:46:44Z</time>
      </trkpt>
      <trkpt lat="45.32009" lon="6.02414">
        <ele>925</ele>
        <time>2018-07-01T10:46:47Z</time>
      </trkpt>
      <trkpt lat="45.32009" lon="6.02414">
        <ele>925</ele>
        <time>2018-07-01T10:47:11Z</time>
      </trkpt>
      <trkpt lat="45.32009" lon="6.02414">
        <ele>925</ele>
        <time>2018-07-01T10:47:15Z</time>
      </trkpt>
      <trkpt lat="45.32009" lon="6.02414">
        <ele>925</ele>
        <time>2018-07-01T10:47:42Z</time>
      </trkpt>
      <trkpt lat="45.32009" lon="6.02414">
        <ele>925</ele>
        <time>2018-07-01T10:47:44Z</time>
      </trkpt>
      <trkpt lat="45.32009" lon="6.02414">
        <ele>925</ele>
        <time>2018-07-01T10:48:12Z</time>
      </trkpt>
      <trkpt lat="45.32009" lon="6.02414">
        <ele>925</ele>
        <time>2018-07-01T10:48:15Z</time>
      </trkpt>
      <trkpt lat="45.32008" lon="6.02408">
        <ele>925</ele>
        <time>2018-07-01T10:48:23Z</time>
      </trkpt>
      <trkpt lat="45.32005" lon="6.02402">
        <ele>924</ele>
        <time>2018-07-01T10:48:27Z</time>
      </trkpt>
      <trkpt lat="45.3201" lon="6.0241">
        <ele>925</ele>
        <time>2018-07-01T10:48:32Z</time>
      </trkpt>
      <trkpt lat="45.32014" lon="6.02408">
        <ele>924</ele>
        <time>2018-07-01T10:48:49Z</time>
      </trkpt>
      <trkpt lat="45.32021" lon="6.02404">
        <ele>923</ele>
        <time>2018-07-01T10:48:51Z</time>
      </trkpt>
      <trkpt lat="45.32028" lon="6.02402">
        <ele>922</ele>
        <time>2018-07-01T10:48:53Z</time>
      </trkpt>
      <trkpt lat="45.32036" lon="6.02399">
        <ele>921</ele>
        <time>2018-07-01T10:48:55Z</time>
      </trkpt>
      <trkpt lat="45.32041" lon="6.02398">
        <ele>921</ele>
        <time>2018-07-01T10:48:56Z</time>
      </trkpt>
      <trkpt lat="45.32047" lon="6.02397">
        <ele>920</ele>
        <time>2018-07-01T10:48:57Z</time>
      </trkpt>
      <trkpt lat="45.32052" lon="6.02396">
        <ele>920</ele>
        <time>2018-07-01T10:48:58Z</time>
      </trkpt>
      <trkpt lat="45.32058" lon="6.02396">
        <ele>919</ele>
        <time>2018-07-01T10:48:59Z</time>
      </trkpt>
      <trkpt lat="45.32068" lon="6.02393">
        <ele>918</ele>
        <time>2018-07-01T10:49:01Z</time>
      </trkpt>
      <trkpt lat="45.32072" lon="6.02389">
        <ele>918</ele>
        <time>2018-07-01T10:49:02Z</time>
      </trkpt>
      <trkpt lat="45.32082" lon="6.02391">
        <ele>917</ele>
        <time>2018-07-01T10:49:04Z</time>
      </trkpt>
      <trkpt lat="45.32089" lon="6.0239">
        <ele>917</ele>
        <time>2018-07-01T10:49:06Z</time>
      </trkpt>
      <trkpt lat="45.32094" lon="6.02393">
        <ele>917</ele>
        <time>2018-07-01T10:49:08Z</time>
      </trkpt>
      <trkpt lat="45.32102" lon="6.02394">
        <ele>917</ele>
        <time>2018-07-01T10:49:10Z</time>
      </trkpt>
      <trkpt lat="45.32107" lon="6.02396">
        <ele>917</ele>
        <time>2018-07-01T10:49:11Z</time>
      </trkpt>
      <trkpt lat="45.32118" lon="6.02396">
        <ele>917</ele>
        <time>2018-07-01T10:49:13Z</time>
      </trkpt>
      <trkpt lat="45.32128" lon="6.024">
        <ele>917</ele>
        <time>2018-07-01T10:49:15Z</time>
      </trkpt>
      <trkpt lat="45.32132" lon="6.02405">
        <ele>917</ele>
        <time>2018-07-01T10:49:16Z</time>
      </trkpt>
      <trkpt lat="45.32136" lon="6.02408">
        <ele>918</ele>
        <time>2018-07-01T10:49:17Z</time>
      </trkpt>
      <trkpt lat="45.32142" lon="6.02409">
        <ele>918</ele>
        <time>2018-07-01T10:49:18Z</time>
      </trkpt>
      <trkpt lat="45.32149" lon="6.02408">
        <ele>917</ele>
        <time>2018-07-01T10:49:19Z</time>
      </trkpt>
      <trkpt lat="45.32155" lon="6.02408">
        <ele>917</ele>
        <time>2018-07-01T10:49:20Z</time>
      </trkpt>
      <trkpt lat="45.32163" lon="6.02406">
        <ele>917</ele>
        <time>2018-07-01T10:49:21Z</time>
      </trkpt>
      <trkpt lat="45.32169" lon="6.02403">
        <ele>916</ele>
        <time>2018-07-01T10:49:22Z</time>
      </trkpt>
      <trkpt lat="45.32175" lon="6.02399">
        <ele>915</ele>
        <time>2018-07-01T10:49:23Z</time>
      </trkpt>
      <trkpt lat="45.32184" lon="6.02397">
        <ele>915</ele>
        <time>2018-07-01T10:49:24Z</time>
      </trkpt>
      <trkpt lat="45.32191" lon="6.02392">
        <ele>914</ele>
        <time>2018-07-01T10:49:25Z</time>
      </trkpt>
      <trkpt lat="45.32197" lon="6.02388">
        <ele>913</ele>
        <time>2018-07-01T10:49:26Z</time>
      </trkpt>
      <trkpt lat="45.32209" lon="6.0238">
        <ele>911</ele>
        <time>2018-07-01T10:49:28Z</time>
      </trkpt>
      <trkpt lat="45.32216" lon="6.0238">
        <ele>911</ele>
        <time>2018-07-01T10:49:29Z</time>
      </trkpt>
      <trkpt lat="45.32225" lon="6.02378">
        <ele>910</ele>
        <time>2018-07-01T10:49:30Z</time>
      </trkpt>
      <trkpt lat="45.32232" lon="6.02375">
        <ele>909</ele>
        <time>2018-07-01T10:49:31Z</time>
      </trkpt>
      <trkpt lat="45.3224" lon="6.02376">
        <ele>909</ele>
        <time>2018-07-01T10:49:32Z</time>
      </trkpt>
      <trkpt lat="45.32246" lon="6.02378">
        <ele>909</ele>
        <time>2018-07-01T10:49:33Z</time>
      </trkpt>
      <trkpt lat="45.32255" lon="6.02378">
        <ele>909</ele>
        <time>2018-07-01T10:49:34Z</time>
      </trkpt>
      <trkpt lat="45.32262" lon="6.02376">
        <ele>908</ele>
        <time>2018-07-01T10:49:35Z</time>
      </trkpt>
      <trkpt lat="45.32268" lon="6.02378">
        <ele>908</ele>
        <time>2018-07-01T10:49:36Z</time>
      </trkpt>
      <trkpt lat="45.32273" lon="6.02381">
        <ele>908</ele>
        <time>2018-07-01T10:49:37Z</time>
      </trkpt>
      <trkpt lat="45.32282" lon="6.02379">
        <ele>907</ele>
        <time>2018-07-01T10:49:38Z</time>
      </trkpt>
      <trkpt lat="45.3229" lon="6.02381">
        <ele>907</ele>
        <time>2018-07-01T10:49:39Z</time>
      </trkpt>
      <trkpt lat="45.32298" lon="6.02381">
        <ele>907</ele>
        <time>2018-07-01T10:49:40Z</time>
      </trkpt>
      <trkpt lat="45.32305" lon="6.0238">
        <ele>906</ele>
        <time>2018-07-01T10:49:41Z</time>
      </trkpt>
      <trkpt lat="45.32312" lon="6.02381">
        <ele>906</ele>
        <time>2018-07-01T10:49:42Z</time>
      </trkpt>
      <trkpt lat="45.3232" lon="6.02379">
        <ele>905</ele>
        <time>2018-07-01T10:49:43Z</time>
      </trkpt>
      <trkpt lat="45.32326" lon="6.02379">
        <ele>905</ele>
        <time>2018-07-01T10:49:44Z</time>
      </trkpt>
      <trkpt lat="45.32333" lon="6.02375">
        <ele>904</ele>
        <time>2018-07-01T10:49:45Z</time>
      </trkpt>
      <trkpt lat="45.32337" lon="6.02371">
        <ele>903</ele>
        <time>2018-07-01T10:49:46Z</time>
      </trkpt>
      <trkpt lat="45.32342" lon="6.02364">
        <ele>902</ele>
        <time>2018-07-01T10:49:47Z</time>
      </trkpt>
      <trkpt lat="45.32347" lon="6.02359">
        <ele>901</ele>
        <time>2018-07-01T10:49:48Z</time>
      </trkpt>
      <trkpt lat="45.32352" lon="6.02356">
        <ele>900</ele>
        <time>2018-07-01T10:49:49Z</time>
      </trkpt>
      <trkpt lat="45.32358" lon="6.02354">
        <ele>900</ele>
        <time>2018-07-01T10:49:50Z</time>
      </trkpt>
      <trkpt lat="45.32365" lon="6.02356">
        <ele>900</ele>
        <time>2018-07-01T10:49:51Z</time>
      </trkpt>
      <trkpt lat="45.32379" lon="6.02363">
        <ele>901</ele>
        <time>2018-07-01T10:49:52Z</time>
      </trkpt>
      <trkpt lat="45.32391" lon="6.02364">
        <ele>901</ele>
        <time>2018-07-01T10:49:54Z</time>
      </trkpt>
      <trkpt lat="45.32396" lon="6.02362">
        <ele>901</ele>
        <time>2018-07-01T10:49:55Z</time>
      </trkpt>
      <trkpt lat="45.32401" lon="6.02363">
        <ele>901</ele>
        <time>2018-07-01T10:49:56Z</time>
      </trkpt>
      <trkpt lat="45.32407" lon="6.02363">
        <ele>901</ele>
        <time>2018-07-01T10:49:57Z</time>
      </trkpt>
      <trkpt lat="45.32414" lon="6.02362">
        <ele>900</ele>
        <time>2018-07-01T10:49:59Z</time>
      </trkpt>
      <trkpt lat="45.32419" lon="6.02366">
        <ele>901</ele>
        <time>2018-07-01T10:50:02Z</time>
      </trkpt>
      <trkpt lat="45.32426" lon="6.0237">
        <ele>902</ele>
        <time>2018-07-01T10:50:05Z</time>
      </trkpt>
      <trkpt lat="45.3243" lon="6.02375">
        <ele>903</ele>
        <time>2018-07-01T10:50:08Z</time>
      </trkpt>
      <trkpt lat="45.32435" lon="6.02377">
        <ele>903</ele>
        <time>2018-07-01T10:50:11Z</time>
      </trkpt>
      <trkpt lat="45.32441" lon="6.0238">
        <ele>904</ele>
        <time>2018-07-01T10:50:14Z</time>
      </trkpt>
      <trkpt lat="45.32446" lon="6.02382">
        <ele>904</ele>
        <time>2018-07-01T10:50:17Z</time>
      </trkpt>
      <trkpt lat="45.32451" lon="6.02384">
        <ele>904</ele>
        <time>2018-07-01T10:50:20Z</time>
      </trkpt>
      <trkpt lat="45.32455" lon="6.02386">
        <ele>904</ele>
        <time>2018-07-01T10:50:23Z</time>
      </trkpt>
      <trkpt lat="45.32459" lon="6.0239">
        <ele>905</ele>
        <time>2018-07-01T10:50:26Z</time>
      </trkpt>
      <trkpt lat="45.32464" lon="6.02392">
        <ele>905</ele>
        <time>2018-07-01T10:50:29Z</time>
      </trkpt>
      <trkpt lat="45.3247" lon="6.02393">
        <ele>905</ele>
        <time>2018-07-01T10:50:32Z</time>
      </trkpt>
      <trkpt lat="45.32474" lon="6.02398">
        <ele>906</ele>
        <time>2018-07-01T10:50:36Z</time>
      </trkpt>
      <trkpt lat="45.32473" lon="6.02405">
        <ele>907</ele>
        <time>2018-07-01T10:50:39Z</time>
      </trkpt>
      <trkpt lat="45.32476" lon="6.0241">
        <ele>908</ele>
        <time>2018-07-01T10:50:43Z</time>
      </trkpt>
      <trkpt lat="45.32481" lon="6.02413">
        <ele>908</ele>
        <time>2018-07-01T10:50:46Z</time>
      </trkpt>
      <trkpt lat="45.32486" lon="6.02415">
        <ele>909</ele>
        <time>2018-07-01T10:50:49Z</time>
      </trkpt>
      <trkpt lat="45.32492" lon="6.02416">
        <ele>909</ele>
        <time>2018-07-01T10:50:52Z</time>
      </trkpt>
      <trkpt lat="45.32497" lon="6.02417">
        <ele>909</ele>
        <time>2018-07-01T10:50:55Z</time>
      </trkpt>
      <trkpt lat="45.32502" lon="6.02416">
        <ele>910</ele>
        <time>2018-07-01T10:50:58Z</time>
      </trkpt>
      <trkpt lat="45.32507" lon="6.02416">
        <ele>910</ele>
        <time>2018-07-01T10:51:01Z</time>
      </trkpt>
      <trkpt lat="45.32512" lon="6.02417">
        <ele>910</ele>
        <time>2018-07-01T10:51:04Z</time>
      </trkpt>
      <trkpt lat="45.32517" lon="6.02415">
        <ele>910</ele>
        <time>2018-07-01T10:51:07Z</time>
      </trkpt>
      <trkpt lat="45.32523" lon="6.02413">
        <ele>910</ele>
        <time>2018-07-01T10:51:10Z</time>
      </trkpt>
      <trkpt lat="45.32527" lon="6.02409">
        <ele>909</ele>
        <time>2018-07-01T10:51:13Z</time>
      </trkpt>
      <trkpt lat="45.32531" lon="6.02406">
        <ele>909</ele>
        <time>2018-07-01T10:51:16Z</time>
      </trkpt>
      <trkpt lat="45.32537" lon="6.02403">
        <ele>909</ele>
        <time>2018-07-01T10:51:20Z</time>
      </trkpt>
      <trkpt lat="45.32542" lon="6.02399">
        <ele>909</ele>
        <time>2018-07-01T10:51:24Z</time>
      </trkpt>
      <trkpt lat="45.32547" lon="6.02396">
        <ele>909</ele>
        <time>2018-07-01T10:51:27Z</time>
      </trkpt>
      <trkpt lat="45.32553" lon="6.02394">
        <ele>909</ele>
        <time>2018-07-01T10:51:30Z</time>
      </trkpt>
      <trkpt lat="45.32558" lon="6.02391">
        <ele>909</ele>
        <time>2018-07-01T10:51:33Z</time>
      </trkpt>
      <trkpt lat="45.32562" lon="6.02385">
        <ele>909</ele>
        <time>2018-07-01T10:51:36Z</time>
      </trkpt>
      <trkpt lat="45.32567" lon="6.0238">
        <ele>909</ele>
        <time>2018-07-01T10:51:40Z</time>
      </trkpt>
      <trkpt lat="45.32571" lon="6.02377">
        <ele>910</ele>
        <time>2018-07-01T10:51:44Z</time>
      </trkpt>
      <trkpt lat="45.32576" lon="6.02374">
        <ele>910</ele>
        <time>2018-07-01T10:51:48Z</time>
      </trkpt>
      <trkpt lat="45.32582" lon="6.02371">
        <ele>910</ele>
        <time>2018-07-01T10:51:52Z</time>
      </trkpt>
      <trkpt lat="45.32587" lon="6.02369">
        <ele>911</ele>
        <time>2018-07-01T10:51:55Z</time>
      </trkpt>
      <trkpt lat="45.32591" lon="6.02365">
        <ele>911</ele>
        <time>2018-07-01T10:51:58Z</time>
      </trkpt>
      <trkpt lat="45.32594" lon="6.02359">
        <ele>911</ele>
        <time>2018-07-01T10:52:01Z</time>
      </trkpt>
      <trkpt lat="45.32595" lon="6.02353">
        <ele>910</ele>
        <time>2018-07-01T10:52:04Z</time>
      </trkpt>
      <trkpt lat="45.326" lon="6.02347">
        <ele>910</ele>
        <time>2018-07-01T10:52:08Z</time>
      </trkpt>
      <trkpt lat="45.32604" lon="6.02343">
        <ele>911</ele>
        <time>2018-07-01T10:52:11Z</time>
      </trkpt>
      <trkpt lat="45.32607" lon="6.02337">
        <ele>910</ele>
        <time>2018-07-01T10:52:14Z</time>
      </trkpt>
      <trkpt lat="45.3261" lon="6.02332">
        <ele>910</ele>
        <time>2018-07-01T10:52:17Z</time>
      </trkpt>
      <trkpt lat="45.32612" lon="6.02326">
        <ele>910</ele>
        <time>2018-07-01T10:52:20Z</time>
      </trkpt>
      <trkpt lat="45.32613" lon="6.02318">
        <ele>910</ele>
        <time>2018-07-01T10:52:23Z</time>
      </trkpt>
      <trkpt lat="45.32614" lon="6.02309">
        <ele>910</ele>
        <time>2018-07-01T10:52:26Z</time>
      </trkpt>
      <trkpt lat="45.32616" lon="6.02302">
        <ele>911</ele>
        <time>2018-07-01T10:52:29Z</time>
      </trkpt>
      <trkpt lat="45.32617" lon="6.02295">
        <ele>911</ele>
        <time>2018-07-01T10:52:32Z</time>
      </trkpt>
      <trkpt lat="45.3262" lon="6.02288">
        <ele>911</ele>
        <time>2018-07-01T10:52:35Z</time>
      </trkpt>
      <trkpt lat="45.32618" lon="6.02279">
        <ele>911</ele>
        <time>2018-07-01T10:52:38Z</time>
      </trkpt>
      <trkpt lat="45.32616" lon="6.02271">
        <ele>911</ele>
        <time>2018-07-01T10:52:41Z</time>
      </trkpt>
      <trkpt lat="45.32615" lon="6.02263">
        <ele>910</ele>
        <time>2018-07-01T10:52:44Z</time>
      </trkpt>
      <trkpt lat="45.32615" lon="6.02254">
        <ele>910</ele>
        <time>2018-07-01T10:52:47Z</time>
      </trkpt>
      <trkpt lat="45.32614" lon="6.02245">
        <ele>911</ele>
        <time>2018-07-01T10:52:50Z</time>
      </trkpt>
      <trkpt lat="45.32615" lon="6.02235">
        <ele>911</ele>
        <time>2018-07-01T10:52:53Z</time>
      </trkpt>
      <trkpt lat="45.32615" lon="6.02229">
        <ele>911</ele>
        <time>2018-07-01T10:52:55Z</time>
      </trkpt>
      <trkpt lat="45.32614" lon="6.02222">
        <ele>911</ele>
        <time>2018-07-01T10:52:57Z</time>
      </trkpt>
      <trkpt lat="45.32615" lon="6.02213">
        <ele>912</ele>
        <time>2018-07-01T10:53:00Z</time>
      </trkpt>
      <trkpt lat="45.32618" lon="6.02206">
        <ele>912</ele>
        <time>2018-07-01T10:53:03Z</time>
      </trkpt>
      <trkpt lat="45.32619" lon="6.02199">
        <ele>913</ele>
        <time>2018-07-01T10:53:06Z</time>
      </trkpt>
      <trkpt lat="45.3262" lon="6.02191">
        <ele>913</ele>
        <time>2018-07-01T10:53:09Z</time>
      </trkpt>
      <trkpt lat="45.32617" lon="6.02185">
        <ele>913</ele>
        <time>2018-07-01T10:53:11Z</time>
      </trkpt>
      <trkpt lat="45.32615" lon="6.02179">
        <ele>913</ele>
        <time>2018-07-01T10:53:13Z</time>
      </trkpt>
      <trkpt lat="45.32612" lon="6.02173">
        <ele>912</ele>
        <time>2018-07-01T10:53:15Z</time>
      </trkpt>
      <trkpt lat="45.32613" lon="6.02165">
        <ele>913</ele>
        <time>2018-07-01T10:53:18Z</time>
      </trkpt>
      <trkpt lat="45.32618" lon="6.02158">
        <ele>914</ele>
        <time>2018-07-01T10:53:21Z</time>
      </trkpt>
      <trkpt lat="45.32626" lon="6.02137">
        <ele>917</ele>
        <time>2018-07-01T10:53:30Z</time>
      </trkpt>
      <trkpt lat="45.32628" lon="6.0213">
        <ele>918</ele>
        <time>2018-07-01T10:53:33Z</time>
      </trkpt>
      <trkpt lat="45.32631" lon="6.02123">
        <ele>919</ele>
        <time>2018-07-01T10:53:36Z</time>
      </trkpt>
      <trkpt lat="45.32633" lon="6.02115">
        <ele>920</ele>
        <time>2018-07-01T10:53:39Z</time>
      </trkpt>
      <trkpt lat="45.32633" lon="6.02109">
        <ele>920</ele>
        <time>2018-07-01T10:53:42Z</time>
      </trkpt>
      <trkpt lat="45.32633" lon="6.02102">
        <ele>920</ele>
        <time>2018-07-01T10:53:45Z</time>
      </trkpt>
      <trkpt lat="45.32632" lon="6.02095">
        <ele>921</ele>
        <time>2018-07-01T10:53:48Z</time>
      </trkpt>
      <trkpt lat="45.32632" lon="6.02088">
        <ele>921</ele>
        <time>2018-07-01T10:53:51Z</time>
      </trkpt>
      <trkpt lat="45.32633" lon="6.02081">
        <ele>922</ele>
        <time>2018-07-01T10:53:55Z</time>
      </trkpt>
      <trkpt lat="45.32631" lon="6.02075">
        <ele>921</ele>
        <time>2018-07-01T10:53:58Z</time>
      </trkpt>
      <trkpt lat="45.32631" lon="6.02068">
        <ele>922</ele>
        <time>2018-07-01T10:54:02Z</time>
      </trkpt>
      <trkpt lat="45.32629" lon="6.02061">
        <ele>921</ele>
        <time>2018-07-01T10:54:07Z</time>
      </trkpt>
      <trkpt lat="45.32626" lon="6.02054">
        <ele>921</ele>
        <time>2018-07-01T10:54:11Z</time>
      </trkpt>
      <trkpt lat="45.32624" lon="6.02047">
        <ele>921</ele>
        <time>2018-07-01T10:54:14Z</time>
      </trkpt>
      <trkpt lat="45.32622" lon="6.02038">
        <ele>921</ele>
        <time>2018-07-01T10:54:18Z</time>
      </trkpt>
      <trkpt lat="45.32621" lon="6.02032">
        <ele>921</ele>
        <time>2018-07-01T10:54:21Z</time>
      </trkpt>
      <trkpt lat="45.32622" lon="6.02024">
        <ele>922</ele>
        <time>2018-07-01T10:54:25Z</time>
      </trkpt>
      <trkpt lat="45.32621" lon="6.02017">
        <ele>922</ele>
        <time>2018-07-01T10:54:29Z</time>
      </trkpt>
      <trkpt lat="45.32622" lon="6.0201">
        <ele>923</ele>
        <time>2018-07-01T10:54:32Z</time>
      </trkpt>
      <trkpt lat="45.32624" lon="6.02003">
        <ele>923</ele>
        <time>2018-07-01T10:54:36Z</time>
      </trkpt>
      <trkpt lat="45.32625" lon="6.01996">
        <ele>924</ele>
        <time>2018-07-01T10:54:39Z</time>
      </trkpt>
      <trkpt lat="45.32626" lon="6.01989">
        <ele>925</ele>
        <time>2018-07-01T10:54:42Z</time>
      </trkpt>
      <trkpt lat="45.32627" lon="6.01981">
        <ele>926</ele>
        <time>2018-07-01T10:54:45Z</time>
      </trkpt>
      <trkpt lat="45.32629" lon="6.01973">
        <ele>927</ele>
        <time>2018-07-01T10:54:48Z</time>
      </trkpt>
      <trkpt lat="45.32632" lon="6.01968">
        <ele>928</ele>
        <time>2018-07-01T10:54:51Z</time>
      </trkpt>
      <trkpt lat="45.32634" lon="6.0196">
        <ele>929</ele>
        <time>2018-07-01T10:54:55Z</time>
      </trkpt>
      <trkpt lat="45.32637" lon="6.01955">
        <ele>930</ele>
        <time>2018-07-01T10:54:59Z</time>
      </trkpt>
      <trkpt lat="45.32637" lon="6.01947">
        <ele>930</ele>
        <time>2018-07-01T10:55:03Z</time>
      </trkpt>
      <trkpt lat="45.32637" lon="6.01939">
        <ele>931</ele>
        <time>2018-07-01T10:55:07Z</time>
      </trkpt>
      <trkpt lat="45.32639" lon="6.01933">
        <ele>931</ele>
        <time>2018-07-01T10:55:11Z</time>
      </trkpt>
      <trkpt lat="45.32637" lon="6.01924">
        <ele>931</ele>
        <time>2018-07-01T10:55:16Z</time>
      </trkpt>
      <trkpt lat="45.32636" lon="6.01917">
        <ele>932</ele>
        <time>2018-07-01T10:55:19Z</time>
      </trkpt>
      <trkpt lat="45.32636" lon="6.01909">
        <ele>932</ele>
        <time>2018-07-01T10:55:22Z</time>
      </trkpt>
      <trkpt lat="45.32635" lon="6.01902">
        <ele>932</ele>
        <time>2018-07-01T10:55:25Z</time>
      </trkpt>
      <trkpt lat="45.32632" lon="6.01894">
        <ele>932</ele>
        <time>2018-07-01T10:55:28Z</time>
      </trkpt>
      <trkpt lat="45.32629" lon="6.01887">
        <ele>931</ele>
        <time>2018-07-01T10:55:31Z</time>
      </trkpt>
      <trkpt lat="45.32629" lon="6.0188">
        <ele>932</ele>
        <time>2018-07-01T10:55:34Z</time>
      </trkpt>
      <trkpt lat="45.32628" lon="6.01873">
        <ele>932</ele>
        <time>2018-07-01T10:55:37Z</time>
      </trkpt>
      <trkpt lat="45.32626" lon="6.01866">
        <ele>932</ele>
        <time>2018-07-01T10:55:40Z</time>
      </trkpt>
      <trkpt lat="45.32625" lon="6.01859">
        <ele>932</ele>
        <time>2018-07-01T10:55:43Z</time>
      </trkpt>
      <trkpt lat="45.32623" lon="6.01852">
        <ele>932</ele>
        <time>2018-07-01T10:55:46Z</time>
      </trkpt>
      <trkpt lat="45.32622" lon="6.01844">
        <ele>932</ele>
        <time>2018-07-01T10:55:50Z</time>
      </trkpt>
      <trkpt lat="45.32621" lon="6.01837">
        <ele>932</ele>
        <time>2018-07-01T10:55:54Z</time>
      </trkpt>
      <trkpt lat="45.32621" lon="6.01829">
        <ele>932</ele>
        <time>2018-07-01T10:55:58Z</time>
      </trkpt>
      <trkpt lat="45.3262" lon="6.01821">
        <ele>933</ele>
        <time>2018-07-01T10:56:02Z</time>
      </trkpt>
      <trkpt lat="45.32619" lon="6.01812">
        <ele>933</ele>
        <time>2018-07-01T10:56:06Z</time>
      </trkpt>
      <trkpt lat="45.32618" lon="6.01804">
        <ele>933</ele>
        <time>2018-07-01T10:56:10Z</time>
      </trkpt>
      <trkpt lat="45.3262" lon="6.01797">
        <ele>934</ele>
        <time>2018-07-01T10:56:13Z</time>
      </trkpt>
      <trkpt lat="45.3262" lon="6.01791">
        <ele>934</ele>
        <time>2018-07-01T10:56:16Z</time>
      </trkpt>
      <trkpt lat="45.32622" lon="6.01783">
        <ele>935</ele>
        <time>2018-07-01T10:56:20Z</time>
      </trkpt>
      <trkpt lat="45.32624" lon="6.01777">
        <ele>935</ele>
        <time>2018-07-01T10:56:23Z</time>
      </trkpt>
      <trkpt lat="45.32625" lon="6.01771">
        <ele>936</ele>
        <time>2018-07-01T10:56:26Z</time>
      </trkpt>
      <trkpt lat="45.32626" lon="6.01763">
        <ele>937</ele>
        <time>2018-07-01T10:56:30Z</time>
      </trkpt>
      <trkpt lat="45.32629" lon="6.01756">
        <ele>938</ele>
        <time>2018-07-01T10:56:34Z</time>
      </trkpt>
      <trkpt lat="45.32632" lon="6.01746">
        <ele>939</ele>
        <time>2018-07-01T10:56:38Z</time>
      </trkpt>
      <trkpt lat="45.32634" lon="6.01739">
        <ele>940</ele>
        <time>2018-07-01T10:56:41Z</time>
      </trkpt>
      <trkpt lat="45.32637" lon="6.01733">
        <ele>941</ele>
        <time>2018-07-01T10:56:44Z</time>
      </trkpt>
      <trkpt lat="45.3264" lon="6.01727">
        <ele>942</ele>
        <time>2018-07-01T10:56:47Z</time>
      </trkpt>
      <trkpt lat="45.3264" lon="6.0172">
        <ele>943</ele>
        <time>2018-07-01T10:56:50Z</time>
      </trkpt>
      <trkpt lat="45.32639" lon="6.01714">
        <ele>943</ele>
        <time>2018-07-01T10:56:53Z</time>
      </trkpt>
      <trkpt lat="45.32641" lon="6.01705">
        <ele>944</ele>
        <time>2018-07-01T10:56:57Z</time>
      </trkpt>
      <trkpt lat="45.32641" lon="6.01698">
        <ele>945</ele>
        <time>2018-07-01T10:57:01Z</time>
      </trkpt>
      <trkpt lat="45.32641" lon="6.01691">
        <ele>945</ele>
        <time>2018-07-01T10:57:04Z</time>
      </trkpt>
      <trkpt lat="45.32639" lon="6.01685">
        <ele>946</ele>
        <time>2018-07-01T10:57:07Z</time>
      </trkpt>
      <trkpt lat="45.32638" lon="6.01678">
        <ele>946</ele>
        <time>2018-07-01T10:57:10Z</time>
      </trkpt>
      <trkpt lat="45.32635" lon="6.01671">
        <ele>946</ele>
        <time>2018-07-01T10:57:13Z</time>
      </trkpt>
      <trkpt lat="45.32633" lon="6.01664">
        <ele>946</ele>
        <time>2018-07-01T10:57:16Z</time>
      </trkpt>
      <trkpt lat="45.32631" lon="6.01657">
        <ele>946</ele>
        <time>2018-07-01T10:57:19Z</time>
      </trkpt>
      <trkpt lat="45.3263" lon="6.0165">
        <ele>947</ele>
        <time>2018-07-01T10:57:22Z</time>
      </trkpt>
      <trkpt lat="45.32629" lon="6.01644">
        <ele>947</ele>
        <time>2018-07-01T10:57:25Z</time>
      </trkpt>
      <trkpt lat="45.32626" lon="6.01637">
        <ele>947</ele>
        <time>2018-07-01T10:57:28Z</time>
      </trkpt>
      <trkpt lat="45.32625" lon="6.01631">
        <ele>947</ele>
        <time>2018-07-01T10:57:31Z</time>
      </trkpt>
      <trkpt lat="45.32622" lon="6.01624">
        <ele>947</ele>
        <time>2018-07-01T10:57:34Z</time>
      </trkpt>
      <trkpt lat="45.3262" lon="6.01618">
        <ele>947</ele>
        <time>2018-07-01T10:57:37Z</time>
      </trkpt>
      <trkpt lat="45.32618" lon="6.01611">
        <ele>947</ele>
        <time>2018-07-01T10:57:40Z</time>
      </trkpt>
      <trkpt lat="45.32615" lon="6.01606">
        <ele>946</ele>
        <time>2018-07-01T10:57:43Z</time>
      </trkpt>
      <trkpt lat="45.32613" lon="6.01601">
        <ele>946</ele>
        <time>2018-07-01T10:57:46Z</time>
      </trkpt>
      <trkpt lat="45.32611" lon="6.01594">
        <ele>946</ele>
        <time>2018-07-01T10:57:49Z</time>
      </trkpt>
      <trkpt lat="45.3261" lon="6.01588">
        <ele>946</ele>
        <time>2018-07-01T10:57:52Z</time>
      </trkpt>
      <trkpt lat="45.3261" lon="6.01581">
        <ele>946</ele>
        <time>2018-07-01T10:57:55Z</time>
      </trkpt>
      <trkpt lat="45.32611" lon="6.01574">
        <ele>947</ele>
        <time>2018-07-01T10:57:58Z</time>
      </trkpt>
      <trkpt lat="45.32612" lon="6.01568">
        <ele>948</ele>
        <time>2018-07-01T10:58:01Z</time>
      </trkpt>
      <trkpt lat="45.32615" lon="6.01563">
        <ele>949</ele>
        <time>2018-07-01T10:58:04Z</time>
      </trkpt>
      <trkpt lat="45.32619" lon="6.0156">
        <ele>950</ele>
        <time>2018-07-01T10:58:07Z</time>
      </trkpt>
      <trkpt lat="45.32624" lon="6.0156">
        <ele>951</ele>
        <time>2018-07-01T10:58:10Z</time>
      </trkpt>
      <trkpt lat="45.32627" lon="6.01564">
        <ele>952</ele>
        <time>2018-07-01T10:58:13Z</time>
      </trkpt>
      <trkpt lat="45.32629" lon="6.01571">
        <ele>952</ele>
        <time>2018-07-01T10:58:16Z</time>
      </trkpt>
      <trkpt lat="45.32629" lon="6.01578">
        <ele>952</ele>
        <time>2018-07-01T10:58:19Z</time>
      </trkpt>
      <trkpt lat="45.32629" lon="6.01585">
        <ele>951</ele>
        <time>2018-07-01T10:58:22Z</time>
      </trkpt>
      <trkpt lat="45.32631" lon="6.01591">
        <ele>951</ele>
        <time>2018-07-01T10:58:25Z</time>
      </trkpt>
      <trkpt lat="45.32633" lon="6.01598">
        <ele>951</ele>
        <time>2018-07-01T10:58:29Z</time>
      </trkpt>
      <trkpt lat="45.32638" lon="6.01603">
        <ele>952</ele>
        <time>2018-07-01T10:58:33Z</time>
      </trkpt>
      <trkpt lat="45.32643" lon="6.01606">
        <ele>953</ele>
        <time>2018-07-01T10:58:36Z</time>
      </trkpt>
      <trkpt lat="45.32648" lon="6.01609">
        <ele>954</ele>
        <time>2018-07-01T10:58:39Z</time>
      </trkpt>
      <trkpt lat="45.32653" lon="6.01611">
        <ele>955</ele>
        <time>2018-07-01T10:58:42Z</time>
      </trkpt>
      <trkpt lat="45.32658" lon="6.01612">
        <ele>957</ele>
        <time>2018-07-01T10:58:45Z</time>
      </trkpt>
      <trkpt lat="45.32662" lon="6.01613">
        <ele>958</ele>
        <time>2018-07-01T10:58:48Z</time>
      </trkpt>
      <trkpt lat="45.32667" lon="6.01614">
        <ele>959</ele>
        <time>2018-07-01T10:58:51Z</time>
      </trkpt>
      <trkpt lat="45.32671" lon="6.01615">
        <ele>960</ele>
        <time>2018-07-01T10:58:54Z</time>
      </trkpt>
      <trkpt lat="45.32677" lon="6.01616">
        <ele>961</ele>
        <time>2018-07-01T10:58:58Z</time>
      </trkpt>
      <trkpt lat="45.32682" lon="6.0162">
        <ele>962</ele>
        <time>2018-07-01T10:59:02Z</time>
      </trkpt>
      <trkpt lat="45.32687" lon="6.01623">
        <ele>963</ele>
        <time>2018-07-01T10:59:06Z</time>
      </trkpt>
      <trkpt lat="45.32691" lon="6.01627">
        <ele>964</ele>
        <time>2018-07-01T10:59:09Z</time>
      </trkpt>
      <trkpt lat="45.32695" lon="6.01633">
        <ele>964</ele>
        <time>2018-07-01T10:59:13Z</time>
      </trkpt>
      <trkpt lat="45.32696" lon="6.0164">
        <ele>964</ele>
        <time>2018-07-01T10:59:17Z</time>
      </trkpt>
      <trkpt lat="45.32697" lon="6.01649">
        <ele>963</ele>
        <time>2018-07-01T10:59:21Z</time>
      </trkpt>
      <trkpt lat="45.32699" lon="6.01656">
        <ele>963</ele>
        <time>2018-07-01T10:59:24Z</time>
      </trkpt>
      <trkpt lat="45.32702" lon="6.01662">
        <ele>963</ele>
        <time>2018-07-01T10:59:27Z</time>
      </trkpt>
      <trkpt lat="45.32705" lon="6.01668">
        <ele>963</ele>
        <time>2018-07-01T10:59:30Z</time>
      </trkpt>
      <trkpt lat="45.32707" lon="6.01675">
        <ele>963</ele>
        <time>2018-07-01T10:59:33Z</time>
      </trkpt>
      <trkpt lat="45.32709" lon="6.0168">
        <ele>963</ele>
        <time>2018-07-01T10:59:36Z</time>
      </trkpt>
      <trkpt lat="45.32714" lon="6.01688">
        <ele>963</ele>
        <time>2018-07-01T10:59:41Z</time>
      </trkpt>
      <trkpt lat="45.32718" lon="6.01694">
        <ele>964</ele>
        <time>2018-07-01T10:59:45Z</time>
      </trkpt>
      <trkpt lat="45.32721" lon="6.01699">
        <ele>964</ele>
        <time>2018-07-01T10:59:49Z</time>
      </trkpt>
      <trkpt lat="45.32726" lon="6.01704">
        <ele>965</ele>
        <time>2018-07-01T10:59:53Z</time>
      </trkpt>
      <trkpt lat="45.3273" lon="6.01707">
        <ele>966</ele>
        <time>2018-07-01T10:59:56Z</time>
      </trkpt>
      <trkpt lat="45.32734" lon="6.01711">
        <ele>966</ele>
        <time>2018-07-01T10:59:59Z</time>
      </trkpt>
      <trkpt lat="45.32737" lon="6.01716">
        <ele>967</ele>
        <time>2018-07-01T11:00:02Z</time>
      </trkpt>
      <trkpt lat="45.32741" lon="6.0172">
        <ele>967</ele>
        <time>2018-07-01T11:00:05Z</time>
      </trkpt>
      <trkpt lat="45.32745" lon="6.01723">
        <ele>968</ele>
        <time>2018-07-01T11:00:08Z</time>
      </trkpt>
      <trkpt lat="45.32749" lon="6.01727">
        <ele>969</ele>
        <time>2018-07-01T11:00:11Z</time>
      </trkpt>
      <trkpt lat="45.32752" lon="6.01732">
        <ele>969</ele>
        <time>2018-07-01T11:00:14Z</time>
      </trkpt>
      <trkpt lat="45.32753" lon="6.01739">
        <ele>969</ele>
        <time>2018-07-01T11:00:17Z</time>
      </trkpt>
      <trkpt lat="45.32756" lon="6.01746">
        <ele>970</ele>
        <time>2018-07-01T11:00:20Z</time>
      </trkpt>
      <trkpt lat="45.32758" lon="6.01752">
        <ele>970</ele>
        <time>2018-07-01T11:00:23Z</time>
      </trkpt>
      <trkpt lat="45.32759" lon="6.01759">
        <ele>970</ele>
        <time>2018-07-01T11:00:26Z</time>
      </trkpt>
      <trkpt lat="45.3276" lon="6.01766">
        <ele>969</ele>
        <time>2018-07-01T11:00:29Z</time>
      </trkpt>
      <trkpt lat="45.32759" lon="6.01773">
        <ele>968</ele>
        <time>2018-07-01T11:00:32Z</time>
      </trkpt>
      <trkpt lat="45.32758" lon="6.01779">
        <ele>968</ele>
        <time>2018-07-01T11:00:39Z</time>
      </trkpt>
      <trkpt lat="45.32758" lon="6.01788">
        <ele>968</ele>
        <time>2018-07-01T11:00:42Z</time>
      </trkpt>
      <trkpt lat="45.32758" lon="6.01795">
        <ele>967</ele>
        <time>2018-07-01T11:00:45Z</time>
      </trkpt>
      <trkpt lat="45.32761" lon="6.01801">
        <ele>968</ele>
        <time>2018-07-01T11:00:48Z</time>
      </trkpt>
      <trkpt lat="45.32763" lon="6.01807">
        <ele>968</ele>
        <time>2018-07-01T11:00:51Z</time>
      </trkpt>
      <trkpt lat="45.32767" lon="6.01812">
        <ele>969</ele>
        <time>2018-07-01T11:00:54Z</time>
      </trkpt>
      <trkpt lat="45.3277" lon="6.01816">
        <ele>970</ele>
        <time>2018-07-01T11:00:57Z</time>
      </trkpt>
      <trkpt lat="45.32774" lon="6.01819">
        <ele>971</ele>
        <time>2018-07-01T11:01:00Z</time>
      </trkpt>
      <trkpt lat="45.32778" lon="6.01824">
        <ele>972</ele>
        <time>2018-07-01T11:01:03Z</time>
      </trkpt>
      <trkpt lat="45.32782" lon="6.01828">
        <ele>972</ele>
        <time>2018-07-01T11:01:06Z</time>
      </trkpt>
      <trkpt lat="45.32787" lon="6.0183">
        <ele>974</ele>
        <time>2018-07-01T11:01:10Z</time>
      </trkpt>
      <trkpt lat="45.32791" lon="6.01833">
        <ele>975</ele>
        <time>2018-07-01T11:01:13Z</time>
      </trkpt>
      <trkpt lat="45.32795" lon="6.01837">
        <ele>975</ele>
        <time>2018-07-01T11:01:16Z</time>
      </trkpt>
      <trkpt lat="45.328" lon="6.01842">
        <ele>976</ele>
        <time>2018-07-01T11:01:19Z</time>
      </trkpt>
      <trkpt lat="45.32803" lon="6.01847">
        <ele>977</ele>
        <time>2018-07-01T11:01:22Z</time>
      </trkpt>
      <trkpt lat="45.32806" lon="6.01853">
        <ele>977</ele>
        <time>2018-07-01T11:01:25Z</time>
      </trkpt>
      <trkpt lat="45.32808" lon="6.01859">
        <ele>977</ele>
        <time>2018-07-01T11:01:28Z</time>
      </trkpt>
      <trkpt lat="45.3281" lon="6.01866">
        <ele>977</ele>
        <time>2018-07-01T11:01:32Z</time>
      </trkpt>
      <trkpt lat="45.32813" lon="6.01872">
        <ele>977</ele>
        <time>2018-07-01T11:01:35Z</time>
      </trkpt>
      <trkpt lat="45.32814" lon="6.0188">
        <ele>977</ele>
        <time>2018-07-01T11:01:39Z</time>
      </trkpt>
      <trkpt lat="45.32816" lon="6.01886">
        <ele>977</ele>
        <time>2018-07-01T11:01:42Z</time>
      </trkpt>
      <trkpt lat="45.32819" lon="6.01894">
        <ele>977</ele>
        <time>2018-07-01T11:01:46Z</time>
      </trkpt>
      <trkpt lat="45.32821" lon="6.019">
        <ele>977</ele>
        <time>2018-07-01T11:01:49Z</time>
      </trkpt>
      <trkpt lat="45.32823" lon="6.01906">
        <ele>977</ele>
        <time>2018-07-01T11:01:52Z</time>
      </trkpt>
      <trkpt lat="45.32824" lon="6.01913">
        <ele>977</ele>
        <time>2018-07-01T11:01:55Z</time>
      </trkpt>
      <trkpt lat="45.32826" lon="6.01919">
        <ele>977</ele>
        <time>2018-07-01T11:01:58Z</time>
      </trkpt>
      <trkpt lat="45.32829" lon="6.01925">
        <ele>979</ele>
        <time>2018-07-01T11:02:01Z</time>
      </trkpt>
      <trkpt lat="45.32829" lon="6.01931">
        <ele>979</ele>
        <time>2018-07-01T11:02:04Z</time>
      </trkpt>
      <trkpt lat="45.3283" lon="6.01938">
        <ele>979</ele>
        <time>2018-07-01T11:02:07Z</time>
      </trkpt>
      <trkpt lat="45.32832" lon="6.01944">
        <ele>980</ele>
        <time>2018-07-01T11:02:10Z</time>
      </trkpt>
      <trkpt lat="45.32834" lon="6.0195">
        <ele>981</ele>
        <time>2018-07-01T11:02:13Z</time>
      </trkpt>
      <trkpt lat="45.32837" lon="6.01955">
        <ele>982</ele>
        <time>2018-07-01T11:02:16Z</time>
      </trkpt>
      <trkpt lat="45.32838" lon="6.01963">
        <ele>982</ele>
        <time>2018-07-01T11:02:20Z</time>
      </trkpt>
      <trkpt lat="45.3284" lon="6.01971">
        <ele>983</ele>
        <time>2018-07-01T11:02:24Z</time>
      </trkpt>
      <trkpt lat="45.32841" lon="6.01977">
        <ele>984</ele>
        <time>2018-07-01T11:02:27Z</time>
      </trkpt>
      <trkpt lat="45.32843" lon="6.01984">
        <ele>984</ele>
        <time>2018-07-01T11:02:31Z</time>
      </trkpt>
      <trkpt lat="45.32843" lon="6.01992">
        <ele>984</ele>
        <time>2018-07-01T11:02:35Z</time>
      </trkpt>
      <trkpt lat="45.32843" lon="6.01999">
        <ele>984</ele>
        <time>2018-07-01T11:02:38Z</time>
      </trkpt>
      <trkpt lat="45.32843" lon="6.02006">
        <ele>983</ele>
        <time>2018-07-01T11:02:41Z</time>
      </trkpt>
      <trkpt lat="45.32845" lon="6.02013">
        <ele>984</ele>
        <time>2018-07-01T11:02:44Z</time>
      </trkpt>
      <trkpt lat="45.32845" lon="6.0202">
        <ele>983</ele>
        <time>2018-07-01T11:02:47Z</time>
      </trkpt>
      <trkpt lat="45.32847" lon="6.02027">
        <ele>984</ele>
        <time>2018-07-01T11:02:50Z</time>
      </trkpt>
      <trkpt lat="45.32847" lon="6.02034">
        <ele>983</ele>
        <time>2018-07-01T11:02:53Z</time>
      </trkpt>
      <trkpt lat="45.32846" lon="6.02041">
        <ele>983</ele>
        <time>2018-07-01T11:02:56Z</time>
      </trkpt>
      <trkpt lat="45.32848" lon="6.02047">
        <ele>983</ele>
        <time>2018-07-01T11:02:59Z</time>
      </trkpt>
      <trkpt lat="45.32851" lon="6.02054">
        <ele>984</ele>
        <time>2018-07-01T11:03:02Z</time>
      </trkpt>
      <trkpt lat="45.32852" lon="6.0206">
        <ele>984</ele>
        <time>2018-07-01T11:03:05Z</time>
      </trkpt>
      <trkpt lat="45.32855" lon="6.02066">
        <ele>985</ele>
        <time>2018-07-01T11:03:09Z</time>
      </trkpt>
      <trkpt lat="45.32858" lon="6.02073">
        <ele>986</ele>
        <time>2018-07-01T11:03:13Z</time>
      </trkpt>
      <trkpt lat="45.32861" lon="6.02081">
        <ele>987</ele>
        <time>2018-07-01T11:03:16Z</time>
      </trkpt>
      <trkpt lat="45.32863" lon="6.02088">
        <ele>987</ele>
        <time>2018-07-01T11:03:19Z</time>
      </trkpt>
      <trkpt lat="45.32864" lon="6.02094">
        <ele>987</ele>
        <time>2018-07-01T11:03:22Z</time>
      </trkpt>
      <trkpt lat="45.32865" lon="6.02101">
        <ele>987</ele>
        <time>2018-07-01T11:03:27Z</time>
      </trkpt>
      <trkpt lat="45.32866" lon="6.02109">
        <ele>987</ele>
        <time>2018-07-01T11:03:32Z</time>
      </trkpt>
      <trkpt lat="45.32868" lon="6.02115">
        <ele>988</ele>
        <time>2018-07-01T11:03:35Z</time>
      </trkpt>
      <trkpt lat="45.32871" lon="6.02122">
        <ele>988</ele>
        <time>2018-07-01T11:03:38Z</time>
      </trkpt>
      <trkpt lat="45.32873" lon="6.02132">
        <ele>989</ele>
        <time>2018-07-01T11:03:43Z</time>
      </trkpt>
      <trkpt lat="45.32875" lon="6.02139">
        <ele>989</ele>
        <time>2018-07-01T11:03:46Z</time>
      </trkpt>
      <trkpt lat="45.32875" lon="6.02147">
        <ele>989</ele>
        <time>2018-07-01T11:03:49Z</time>
      </trkpt>
      <trkpt lat="45.32876" lon="6.02153">
        <ele>989</ele>
        <time>2018-07-01T11:03:52Z</time>
      </trkpt>
      <trkpt lat="45.32877" lon="6.02159">
        <ele>989</ele>
        <time>2018-07-01T11:03:55Z</time>
      </trkpt>
      <trkpt lat="45.32879" lon="6.02165">
        <ele>989</ele>
        <time>2018-07-01T11:03:58Z</time>
      </trkpt>
      <trkpt lat="45.32881" lon="6.02172">
        <ele>990</ele>
        <time>2018-07-01T11:04:01Z</time>
      </trkpt>
      <trkpt lat="45.32883" lon="6.02178">
        <ele>990</ele>
        <time>2018-07-01T11:04:04Z</time>
      </trkpt>
      <trkpt lat="45.32884" lon="6.02185">
        <ele>990</ele>
        <time>2018-07-01T11:04:07Z</time>
      </trkpt>
      <trkpt lat="45.32885" lon="6.02191">
        <ele>990</ele>
        <time>2018-07-01T11:04:10Z</time>
      </trkpt>
      <trkpt lat="45.32887" lon="6.02197">
        <ele>991</ele>
        <time>2018-07-01T11:04:13Z</time>
      </trkpt>
      <trkpt lat="45.32889" lon="6.02203">
        <ele>991</ele>
        <time>2018-07-01T11:04:16Z</time>
      </trkpt>
      <trkpt lat="45.32889" lon="6.0221">
        <ele>990</ele>
        <time>2018-07-01T11:04:19Z</time>
      </trkpt>
      <trkpt lat="45.32892" lon="6.02216">
        <ele>991</ele>
        <time>2018-07-01T11:04:22Z</time>
      </trkpt>
      <trkpt lat="45.32894" lon="6.02222">
        <ele>992</ele>
        <time>2018-07-01T11:04:25Z</time>
      </trkpt>
      <trkpt lat="45.32897" lon="6.02229">
        <ele>993</ele>
        <time>2018-07-01T11:04:28Z</time>
      </trkpt>
      <trkpt lat="45.329" lon="6.02234">
        <ele>994</ele>
        <time>2018-07-01T11:04:31Z</time>
      </trkpt>
      <trkpt lat="45.32902" lon="6.02241">
        <ele>994</ele>
        <time>2018-07-01T11:04:34Z</time>
      </trkpt>
      <trkpt lat="45.32903" lon="6.02247">
        <ele>994</ele>
        <time>2018-07-01T11:04:37Z</time>
      </trkpt>
      <trkpt lat="45.32904" lon="6.02254">
        <ele>994</ele>
        <time>2018-07-01T11:04:40Z</time>
      </trkpt>
      <trkpt lat="45.32905" lon="6.02261">
        <ele>994</ele>
        <time>2018-07-01T11:04:43Z</time>
      </trkpt>
      <trkpt lat="45.32905" lon="6.02267">
        <ele>994</ele>
        <time>2018-07-01T11:04:46Z</time>
      </trkpt>
      <trkpt lat="45.32906" lon="6.02274">
        <ele>993</ele>
        <time>2018-07-01T11:04:49Z</time>
      </trkpt>
      <trkpt lat="45.32907" lon="6.0228">
        <ele>993</ele>
        <time>2018-07-01T11:04:52Z</time>
      </trkpt>
      <trkpt lat="45.3291" lon="6.02287">
        <ele>994</ele>
        <time>2018-07-01T11:04:55Z</time>
      </trkpt>
      <trkpt lat="45.32914" lon="6.02293">
        <ele>996</ele>
        <time>2018-07-01T11:04:58Z</time>
      </trkpt>
      <trkpt lat="45.32917" lon="6.023">
        <ele>996</ele>
        <time>2018-07-01T11:05:01Z</time>
      </trkpt>
      <trkpt lat="45.3292" lon="6.02305">
        <ele>997</ele>
        <time>2018-07-01T11:05:04Z</time>
      </trkpt>
      <trkpt lat="45.32925" lon="6.02311">
        <ele>999</ele>
        <time>2018-07-01T11:05:07Z</time>
      </trkpt>
      <trkpt lat="45.32927" lon="6.02317">
        <ele>999</ele>
        <time>2018-07-01T11:05:10Z</time>
      </trkpt>
      <trkpt lat="45.32929" lon="6.02323">
        <ele>999</ele>
        <time>2018-07-01T11:05:13Z</time>
      </trkpt>
      <trkpt lat="45.32931" lon="6.02329">
        <ele>1000</ele>
        <time>2018-07-01T11:05:16Z</time>
      </trkpt>
      <trkpt lat="45.32935" lon="6.02334">
        <ele>1001</ele>
        <time>2018-07-01T11:05:19Z</time>
      </trkpt>
      <trkpt lat="45.32939" lon="6.02339">
        <ele>1002</ele>
        <time>2018-07-01T11:05:22Z</time>
      </trkpt>
      <trkpt lat="45.32943" lon="6.02346">
        <ele>1003</ele>
        <time>2018-07-01T11:05:26Z</time>
      </trkpt>
      <trkpt lat="45.32944" lon="6.02352">
        <ele>1003</ele>
        <time>2018-07-01T11:05:29Z</time>
      </trkpt>
      <trkpt lat="45.32946" lon="6.02359">
        <ele>1003</ele>
        <time>2018-07-01T11:05:32Z</time>
      </trkpt>
      <trkpt lat="45.32949" lon="6.02366">
        <ele>1003</ele>
        <time>2018-07-01T11:05:36Z</time>
      </trkpt>
      <trkpt lat="45.32953" lon="6.02371">
        <ele>1004</ele>
        <time>2018-07-01T11:05:40Z</time>
      </trkpt>
      <trkpt lat="45.32956" lon="6.02378">
        <ele>1005</ele>
        <time>2018-07-01T11:05:44Z</time>
      </trkpt>
      <trkpt lat="45.32962" lon="6.02382">
        <ele>1006</ele>
        <time>2018-07-01T11:05:47Z</time>
      </trkpt>
      <trkpt lat="45.32965" lon="6.02387">
        <ele>1007</ele>
        <time>2018-07-01T11:05:50Z</time>
      </trkpt>
      <trkpt lat="45.32969" lon="6.02393">
        <ele>1007</ele>
        <time>2018-07-01T11:05:54Z</time>
      </trkpt>
      <trkpt lat="45.32973" lon="6.024">
        <ele>1008</ele>
        <time>2018-07-01T11:05:57Z</time>
      </trkpt>
      <trkpt lat="45.32976" lon="6.02405">
        <ele>1009</ele>
        <time>2018-07-01T11:05:59Z</time>
      </trkpt>
      <trkpt lat="45.32979" lon="6.02413">
        <ele>1010</ele>
        <time>2018-07-01T11:06:02Z</time>
      </trkpt>
      <trkpt lat="45.32982" lon="6.0242">
        <ele>1010</ele>
        <time>2018-07-01T11:06:05Z</time>
      </trkpt>
      <trkpt lat="45.32985" lon="6.02425">
        <ele>1011</ele>
        <time>2018-07-01T11:06:08Z</time>
      </trkpt>
      <trkpt lat="45.32989" lon="6.0243">
        <ele>1012</ele>
        <time>2018-07-01T11:06:11Z</time>
      </trkpt>
      <trkpt lat="45.32993" lon="6.02434">
        <ele>1013</ele>
        <time>2018-07-01T11:06:14Z</time>
      </trkpt>
      <trkpt lat="45.32997" lon="6.0244">
        <ele>1014</ele>
        <time>2018-07-01T11:06:18Z</time>
      </trkpt>
      <trkpt lat="45.33001" lon="6.02444">
        <ele>1015</ele>
        <time>2018-07-01T11:06:21Z</time>
      </trkpt>
      <trkpt lat="45.33006" lon="6.02448">
        <ele>1017</ele>
        <time>2018-07-01T11:06:24Z</time>
      </trkpt>
      <trkpt lat="45.3301" lon="6.02451">
        <ele>1018</ele>
        <time>2018-07-01T11:06:27Z</time>
      </trkpt>
      <trkpt lat="45.33015" lon="6.02452">
        <ele>1019</ele>
        <time>2018-07-01T11:06:30Z</time>
      </trkpt>
      <trkpt lat="45.33021" lon="6.02454">
        <ele>1021</ele>
        <time>2018-07-01T11:06:33Z</time>
      </trkpt>
      <trkpt lat="45.33025" lon="6.0246">
        <ele>1022</ele>
        <time>2018-07-01T11:06:36Z</time>
      </trkpt>
      <trkpt lat="45.33028" lon="6.02467">
        <ele>1023</ele>
        <time>2018-07-01T11:06:39Z</time>
      </trkpt>
      <trkpt lat="45.33032" lon="6.02472">
        <ele>1024</ele>
        <time>2018-07-01T11:06:42Z</time>
      </trkpt>
      <trkpt lat="45.33035" lon="6.02478">
        <ele>1025</ele>
        <time>2018-07-01T11:06:45Z</time>
      </trkpt>
      <trkpt lat="45.33038" lon="6.02485">
        <ele>1026</ele>
        <time>2018-07-01T11:06:49Z</time>
      </trkpt>
      <trkpt lat="45.3304" lon="6.02492">
        <ele>1026</ele>
        <time>2018-07-01T11:06:53Z</time>
      </trkpt>
      <trkpt lat="45.33038" lon="6.02499">
        <ele>1025</ele>
        <time>2018-07-01T11:06:57Z</time>
      </trkpt>
      <trkpt lat="45.33035" lon="6.02503">
        <ele>1024</ele>
        <time>2018-07-01T11:07:00Z</time>
      </trkpt>
      <trkpt lat="45.33033" lon="6.02509">
        <ele>1023</ele>
        <time>2018-07-01T11:07:05Z</time>
      </trkpt>
      <trkpt lat="45.33033" lon="6.02516">
        <ele>1023</ele>
        <time>2018-07-01T11:07:09Z</time>
      </trkpt>
      <trkpt lat="45.33034" lon="6.02522">
        <ele>1023</ele>
        <time>2018-07-01T11:07:12Z</time>
      </trkpt>
      <trkpt lat="45.33038" lon="6.02528">
        <ele>1024</ele>
        <time>2018-07-01T11:07:15Z</time>
      </trkpt>
      <trkpt lat="45.33042" lon="6.02534">
        <ele>1025</ele>
        <time>2018-07-01T11:07:18Z</time>
      </trkpt>
      <trkpt lat="45.33044" lon="6.0254">
        <ele>1026</ele>
        <time>2018-07-01T11:07:21Z</time>
      </trkpt>
      <trkpt lat="45.33047" lon="6.02547">
        <ele>1027</ele>
        <time>2018-07-01T11:07:24Z</time>
      </trkpt>
      <trkpt lat="45.33051" lon="6.02551">
        <ele>1028</ele>
        <time>2018-07-01T11:07:26Z</time>
      </trkpt>
      <trkpt lat="45.33056" lon="6.02556">
        <ele>1029</ele>
        <time>2018-07-01T11:07:29Z</time>
      </trkpt>
      <trkpt lat="45.3306" lon="6.02561">
        <ele>1030</ele>
        <time>2018-07-01T11:07:31Z</time>
      </trkpt>
      <trkpt lat="45.33064" lon="6.02568">
        <ele>1031</ele>
        <time>2018-07-01T11:07:34Z</time>
      </trkpt>
      <trkpt lat="45.33065" lon="6.02575">
        <ele>1031</ele>
        <time>2018-07-01T11:07:37Z</time>
      </trkpt>
      <trkpt lat="45.33067" lon="6.02583">
        <ele>1032</ele>
        <time>2018-07-01T11:07:40Z</time>
      </trkpt>
      <trkpt lat="45.3307" lon="6.0259">
        <ele>1032</ele>
        <time>2018-07-01T11:07:43Z</time>
      </trkpt>
      <trkpt lat="45.33072" lon="6.02596">
        <ele>1033</ele>
        <time>2018-07-01T11:07:46Z</time>
      </trkpt>
      <trkpt lat="45.33074" lon="6.02603">
        <ele>1033</ele>
        <time>2018-07-01T11:07:49Z</time>
      </trkpt>
      <trkpt lat="45.33077" lon="6.0261">
        <ele>1034</ele>
        <time>2018-07-01T11:07:52Z</time>
      </trkpt>
      <trkpt lat="45.33077" lon="6.02616">
        <ele>1035</ele>
        <time>2018-07-01T11:07:55Z</time>
      </trkpt>
      <trkpt lat="45.33079" lon="6.02623">
        <ele>1036</ele>
        <time>2018-07-01T11:07:58Z</time>
      </trkpt>
      <trkpt lat="45.3308" lon="6.02631">
        <ele>1037</ele>
        <time>2018-07-01T11:08:02Z</time>
      </trkpt>
      <trkpt lat="45.33083" lon="6.02637">
        <ele>1038</ele>
        <time>2018-07-01T11:08:05Z</time>
      </trkpt>
      <trkpt lat="45.33087" lon="6.02642">
        <ele>1039</ele>
        <time>2018-07-01T11:08:08Z</time>
      </trkpt>
      <trkpt lat="45.33091" lon="6.02648">
        <ele>1040</ele>
        <time>2018-07-01T11:08:11Z</time>
      </trkpt>
      <trkpt lat="45.33096" lon="6.02653">
        <ele>1040</ele>
        <time>2018-07-01T11:08:14Z</time>
      </trkpt>
      <trkpt lat="45.33101" lon="6.02658">
        <ele>1041</ele>
        <time>2018-07-01T11:08:17Z</time>
      </trkpt>
      <trkpt lat="45.33104" lon="6.02663">
        <ele>1042</ele>
        <time>2018-07-01T11:08:20Z</time>
      </trkpt>
      <trkpt lat="45.33107" lon="6.02668">
        <ele>1043</ele>
        <time>2018-07-01T11:08:23Z</time>
      </trkpt>
      <trkpt lat="45.3311" lon="6.02675">
        <ele>1044</ele>
        <time>2018-07-01T11:08:26Z</time>
      </trkpt>
      <trkpt lat="45.33112" lon="6.02681">
        <ele>1045</ele>
        <time>2018-07-01T11:08:29Z</time>
      </trkpt>
      <trkpt lat="45.33113" lon="6.02688">
        <ele>1046</ele>
        <time>2018-07-01T11:08:32Z</time>
      </trkpt>
      <trkpt lat="45.33112" lon="6.02697">
        <ele>1047</ele>
        <time>2018-07-01T11:08:36Z</time>
      </trkpt>
      <trkpt lat="45.33113" lon="6.02704">
        <ele>1048</ele>
        <time>2018-07-01T11:08:40Z</time>
      </trkpt>
      <trkpt lat="45.33113" lon="6.02712">
        <ele>1050</ele>
        <time>2018-07-01T11:08:44Z</time>
      </trkpt>
      <trkpt lat="45.33113" lon="6.02719">
        <ele>1051</ele>
        <time>2018-07-01T11:08:48Z</time>
      </trkpt>
      <trkpt lat="45.33112" lon="6.02725">
        <ele>1051</ele>
        <time>2018-07-01T11:08:52Z</time>
      </trkpt>
      <trkpt lat="45.33112" lon="6.02732">
        <ele>1052</ele>
        <time>2018-07-01T11:08:58Z</time>
      </trkpt>
      <trkpt lat="45.33117" lon="6.0273">
        <ele>1052</ele>
        <time>2018-07-01T11:09:04Z</time>
      </trkpt>
      <trkpt lat="45.3312" lon="6.02734">
        <ele>1053</ele>
        <time>2018-07-01T11:09:32Z</time>
      </trkpt>
      <trkpt lat="45.33144" lon="6.02741">
        <ele>1053</ele>
        <time>2018-07-01T11:10:32Z</time>
      </trkpt>
      <trkpt lat="45.33138" lon="6.0274">
        <ele>1053</ele>
        <time>2018-07-01T11:10:33Z</time>
      </trkpt>
      <trkpt lat="45.33128" lon="6.02731">
        <ele>1052</ele>
        <time>2018-07-01T11:10:34Z</time>
      </trkpt>
      <trkpt lat="45.33122" lon="6.02726">
        <ele>1052</ele>
        <time>2018-07-01T11:10:35Z</time>
      </trkpt>
      <trkpt lat="45.33127" lon="6.02735">
        <ele>1053</ele>
        <time>2018-07-01T11:10:36Z</time>
      </trkpt>
      <trkpt lat="45.33131" lon="6.02728">
        <ele>1052</ele>
        <time>2018-07-01T11:10:37Z</time>
      </trkpt>
      <trkpt lat="45.33129" lon="6.0275">
        <ele>1055</ele>
        <time>2018-07-01T11:10:39Z</time>
      </trkpt>
      <trkpt lat="45.33123" lon="6.02751">
        <ele>1055</ele>
        <time>2018-07-01T11:10:43Z</time>
      </trkpt>
      <trkpt lat="45.33111" lon="6.02761">
        <ele>1057</ele>
        <time>2018-07-01T11:10:44Z</time>
      </trkpt>
      <trkpt lat="45.33116" lon="6.02766">
        <ele>1057</ele>
        <time>2018-07-01T11:10:45Z</time>
      </trkpt>
      <trkpt lat="45.3312" lon="6.02734">
        <ele>1053</ele>
        <time>2018-07-01T11:10:50Z</time>
      </trkpt>
      <trkpt lat="45.3312" lon="6.02733">
        <ele>1053</ele>
        <time>2018-07-01T11:11:14Z</time>
      </trkpt>
      <trkpt lat="45.3312" lon="6.02733">
        <ele>1053</ele>
        <time>2018-07-01T11:11:16Z</time>
      </trkpt>
      <trkpt lat="45.3312" lon="6.02733">
        <ele>1053</ele>
        <time>2018-07-01T11:11:45Z</time>
      </trkpt>
      <trkpt lat="45.3312" lon="6.02733">
        <ele>1053</ele>
        <time>2018-07-01T11:11:47Z</time>
      </trkpt>
      <trkpt lat="45.3312" lon="6.02736">
        <ele>1053</ele>
        <time>2018-07-01T11:12:18Z</time>
      </trkpt>
      <trkpt lat="45.3312" lon="6.02737">
        <ele>1053</ele>
        <time>2018-07-01T11:12:39Z</time>
      </trkpt>
      <trkpt lat="45.33122" lon="6.02744">
        <ele>1054</ele>
        <time>2018-07-01T11:12:50Z</time>
      </trkpt>
      <trkpt lat="45.33125" lon="6.02751">
        <ele>1055</ele>
        <time>2018-07-01T11:12:53Z</time>
      </trkpt>
      <trkpt lat="45.33129" lon="6.02758">
        <ele>1056</ele>
        <time>2018-07-01T11:12:56Z</time>
      </trkpt>
      <trkpt lat="45.33133" lon="6.02764">
        <ele>1056</ele>
        <time>2018-07-01T11:12:59Z</time>
      </trkpt>
      <trkpt lat="45.33137" lon="6.02771">
        <ele>1057</ele>
        <time>2018-07-01T11:13:02Z</time>
      </trkpt>
      <trkpt lat="45.33142" lon="6.02783">
        <ele>1058</ele>
        <time>2018-07-01T11:13:08Z</time>
      </trkpt>
      <trkpt lat="45.33146" lon="6.02789">
        <ele>1058</ele>
        <time>2018-07-01T11:13:12Z</time>
      </trkpt>
      <trkpt lat="45.33151" lon="6.02793">
        <ele>1058</ele>
        <time>2018-07-01T11:13:16Z</time>
      </trkpt>
      <trkpt lat="45.33155" lon="6.02799">
        <ele>1059</ele>
        <time>2018-07-01T11:13:20Z</time>
      </trkpt>
      <trkpt lat="45.33158" lon="6.02805">
        <ele>1059</ele>
        <time>2018-07-01T11:13:24Z</time>
      </trkpt>
      <trkpt lat="45.33162" lon="6.02807">
        <ele>1059</ele>
        <time>2018-07-01T11:13:28Z</time>
      </trkpt>
      <trkpt lat="45.33167" lon="6.0281">
        <ele>1059</ele>
        <time>2018-07-01T11:13:32Z</time>
      </trkpt>
      <trkpt lat="45.33172" lon="6.02811">
        <ele>1057</ele>
        <time>2018-07-01T11:13:36Z</time>
      </trkpt>
      <trkpt lat="45.33172" lon="6.02818">
        <ele>1058</ele>
        <time>2018-07-01T11:13:40Z</time>
      </trkpt>
      <trkpt lat="45.33181" lon="6.02828">
        <ele>1058</ele>
        <time>2018-07-01T11:13:46Z</time>
      </trkpt>
      <trkpt lat="45.33186" lon="6.0283">
        <ele>1057</ele>
        <time>2018-07-01T11:13:48Z</time>
      </trkpt>
      <trkpt lat="45.33189" lon="6.02834">
        <ele>1056</ele>
        <time>2018-07-01T11:13:51Z</time>
      </trkpt>
      <trkpt lat="45.33194" lon="6.02838">
        <ele>1056</ele>
        <time>2018-07-01T11:13:56Z</time>
      </trkpt>
      <trkpt lat="45.33197" lon="6.02843">
        <ele>1056</ele>
        <time>2018-07-01T11:14:00Z</time>
      </trkpt>
      <trkpt lat="45.33201" lon="6.02847">
        <ele>1055</ele>
        <time>2018-07-01T11:14:03Z</time>
      </trkpt>
      <trkpt lat="45.33205" lon="6.02853">
        <ele>1055</ele>
        <time>2018-07-01T11:14:07Z</time>
      </trkpt>
      <trkpt lat="45.33209" lon="6.02858">
        <ele>1055</ele>
        <time>2018-07-01T11:14:10Z</time>
      </trkpt>
      <trkpt lat="45.33212" lon="6.02865">
        <ele>1055</ele>
        <time>2018-07-01T11:14:14Z</time>
      </trkpt>
      <trkpt lat="45.33214" lon="6.02871">
        <ele>1055</ele>
        <time>2018-07-01T11:14:17Z</time>
      </trkpt>
      <trkpt lat="45.33216" lon="6.02876">
        <ele>1055</ele>
        <time>2018-07-01T11:14:20Z</time>
      </trkpt>
      <trkpt lat="45.3322" lon="6.02881">
        <ele>1055</ele>
        <time>2018-07-01T11:14:23Z</time>
      </trkpt>
      <trkpt lat="45.33222" lon="6.02887">
        <ele>1055</ele>
        <time>2018-07-01T11:14:27Z</time>
      </trkpt>
      <trkpt lat="45.33223" lon="6.02894">
        <ele>1056</ele>
        <time>2018-07-01T11:14:31Z</time>
      </trkpt>
      <trkpt lat="45.33224" lon="6.029">
        <ele>1057</ele>
        <time>2018-07-01T11:14:35Z</time>
      </trkpt>
      <trkpt lat="45.33225" lon="6.02907">
        <ele>1058</ele>
        <time>2018-07-01T11:14:39Z</time>
      </trkpt>
      <trkpt lat="45.33225" lon="6.02915">
        <ele>1059</ele>
        <time>2018-07-01T11:14:43Z</time>
      </trkpt>
      <trkpt lat="45.33226" lon="6.02923">
        <ele>1060</ele>
        <time>2018-07-01T11:14:47Z</time>
      </trkpt>
      <trkpt lat="45.33227" lon="6.0293">
        <ele>1061</ele>
        <time>2018-07-01T11:14:51Z</time>
      </trkpt>
      <trkpt lat="45.3323" lon="6.02935">
        <ele>1061</ele>
        <time>2018-07-01T11:14:55Z</time>
      </trkpt>
      <trkpt lat="45.33231" lon="6.02943">
        <ele>1062</ele>
        <time>2018-07-01T11:15:00Z</time>
      </trkpt>
      <trkpt lat="45.33231" lon="6.02949">
        <ele>1063</ele>
        <time>2018-07-01T11:15:03Z</time>
      </trkpt>
      <trkpt lat="45.33234" lon="6.02957">
        <ele>1063</ele>
        <time>2018-07-01T11:15:07Z</time>
      </trkpt>
      <trkpt lat="45.33236" lon="6.02962">
        <ele>1064</ele>
        <time>2018-07-01T11:15:10Z</time>
      </trkpt>
      <trkpt lat="45.3324" lon="6.02966">
        <ele>1063</ele>
        <time>2018-07-01T11:15:14Z</time>
      </trkpt>
      <trkpt lat="45.33242" lon="6.02974">
        <ele>1064</ele>
        <time>2018-07-01T11:15:19Z</time>
      </trkpt>
      <trkpt lat="45.33242" lon="6.0298">
        <ele>1064</ele>
        <time>2018-07-01T11:15:22Z</time>
      </trkpt>
      <trkpt lat="45.33242" lon="6.02988">
        <ele>1065</ele>
        <time>2018-07-01T11:15:25Z</time>
      </trkpt>
      <trkpt lat="45.33242" lon="6.02995">
        <ele>1067</ele>
        <time>2018-07-01T11:15:28Z</time>
      </trkpt>
      <trkpt lat="45.33244" lon="6.03003">
        <ele>1067</ele>
        <time>2018-07-01T11:15:31Z</time>
      </trkpt>
      <trkpt lat="45.33247" lon="6.0301">
        <ele>1067</ele>
        <time>2018-07-01T11:15:34Z</time>
      </trkpt>
      <trkpt lat="45.33249" lon="6.03017">
        <ele>1068</ele>
        <time>2018-07-01T11:15:37Z</time>
      </trkpt>
      <trkpt lat="45.33251" lon="6.03023">
        <ele>1068</ele>
        <time>2018-07-01T11:15:40Z</time>
      </trkpt>
      <trkpt lat="45.33252" lon="6.03031">
        <ele>1069</ele>
        <time>2018-07-01T11:15:43Z</time>
      </trkpt>
      <trkpt lat="45.33255" lon="6.03037">
        <ele>1068</ele>
        <time>2018-07-01T11:15:46Z</time>
      </trkpt>
      <trkpt lat="45.33257" lon="6.03043">
        <ele>1069</ele>
        <time>2018-07-01T11:15:49Z</time>
      </trkpt>
      <trkpt lat="45.33259" lon="6.03049">
        <ele>1069</ele>
        <time>2018-07-01T11:15:52Z</time>
      </trkpt>
      <trkpt lat="45.33261" lon="6.03056">
        <ele>1069</ele>
        <time>2018-07-01T11:15:55Z</time>
      </trkpt>
      <trkpt lat="45.33262" lon="6.03064">
        <ele>1070</ele>
        <time>2018-07-01T11:15:59Z</time>
      </trkpt>
      <trkpt lat="45.33263" lon="6.0307">
        <ele>1070</ele>
        <time>2018-07-01T11:16:02Z</time>
      </trkpt>
      <trkpt lat="45.33265" lon="6.03076">
        <ele>1071</ele>
        <time>2018-07-01T11:16:05Z</time>
      </trkpt>
      <trkpt lat="45.33262" lon="6.03082">
        <ele>1072</ele>
        <time>2018-07-01T11:16:08Z</time>
      </trkpt>
      <trkpt lat="45.33262" lon="6.03088">
        <ele>1072</ele>
        <time>2018-07-01T11:16:11Z</time>
      </trkpt>
      <trkpt lat="45.33261" lon="6.03095">
        <ele>1073</ele>
        <time>2018-07-01T11:16:14Z</time>
      </trkpt>
      <trkpt lat="45.33261" lon="6.03102">
        <ele>1073</ele>
        <time>2018-07-01T11:16:17Z</time>
      </trkpt>
      <trkpt lat="45.3326" lon="6.03109">
        <ele>1074</ele>
        <time>2018-07-01T11:16:20Z</time>
      </trkpt>
      <trkpt lat="45.33259" lon="6.03116">
        <ele>1074</ele>
        <time>2018-07-01T11:16:24Z</time>
      </trkpt>
      <trkpt lat="45.33256" lon="6.03123">
        <ele>1075</ele>
        <time>2018-07-01T11:16:28Z</time>
      </trkpt>
      <trkpt lat="45.33254" lon="6.0313">
        <ele>1076</ele>
        <time>2018-07-01T11:16:32Z</time>
      </trkpt>
      <trkpt lat="45.33253" lon="6.03137">
        <ele>1076</ele>
        <time>2018-07-01T11:16:35Z</time>
      </trkpt>
      <trkpt lat="45.33253" lon="6.03144">
        <ele>1077</ele>
        <time>2018-07-01T11:16:40Z</time>
      </trkpt>
      <trkpt lat="45.3325" lon="6.03151">
        <ele>1077</ele>
        <time>2018-07-01T11:16:43Z</time>
      </trkpt>
      <trkpt lat="45.33247" lon="6.03159">
        <ele>1079</ele>
        <time>2018-07-01T11:16:46Z</time>
      </trkpt>
      <trkpt lat="45.33246" lon="6.03168">
        <ele>1079</ele>
        <time>2018-07-01T11:16:49Z</time>
      </trkpt>
      <trkpt lat="45.33244" lon="6.03175">
        <ele>1080</ele>
        <time>2018-07-01T11:16:52Z</time>
      </trkpt>
      <trkpt lat="45.33243" lon="6.03182">
        <ele>1081</ele>
        <time>2018-07-01T11:16:55Z</time>
      </trkpt>
      <trkpt lat="45.33243" lon="6.0319">
        <ele>1081</ele>
        <time>2018-07-01T11:16:58Z</time>
      </trkpt>
      <trkpt lat="45.33244" lon="6.03196">
        <ele>1081</ele>
        <time>2018-07-01T11:17:01Z</time>
      </trkpt>
      <trkpt lat="45.33244" lon="6.03204">
        <ele>1082</ele>
        <time>2018-07-01T11:17:05Z</time>
      </trkpt>
      <trkpt lat="45.33243" lon="6.03211">
        <ele>1082</ele>
        <time>2018-07-01T11:17:08Z</time>
      </trkpt>
      <trkpt lat="45.33244" lon="6.03218">
        <ele>1082</ele>
        <time>2018-07-01T11:17:12Z</time>
      </trkpt>
      <trkpt lat="45.33242" lon="6.03225">
        <ele>1082</ele>
        <time>2018-07-01T11:17:16Z</time>
      </trkpt>
      <trkpt lat="45.33242" lon="6.03232">
        <ele>1082</ele>
        <time>2018-07-01T11:17:20Z</time>
      </trkpt>
      <trkpt lat="45.33243" lon="6.0324">
        <ele>1081</ele>
        <time>2018-07-01T11:17:25Z</time>
      </trkpt>
      <trkpt lat="45.33247" lon="6.03246">
        <ele>1080</ele>
        <time>2018-07-01T11:17:28Z</time>
      </trkpt>
      <trkpt lat="45.3325" lon="6.03253">
        <ele>1079</ele>
        <time>2018-07-01T11:17:31Z</time>
      </trkpt>
      <trkpt lat="45.33251" lon="6.0326">
        <ele>1078</ele>
        <time>2018-07-01T11:17:34Z</time>
      </trkpt>
      <trkpt lat="45.33252" lon="6.03268">
        <ele>1077</ele>
        <time>2018-07-01T11:17:38Z</time>
      </trkpt>
      <trkpt lat="45.33254" lon="6.03274">
        <ele>1077</ele>
        <time>2018-07-01T11:17:41Z</time>
      </trkpt>
      <trkpt lat="45.33253" lon="6.03281">
        <ele>1076</ele>
        <time>2018-07-01T11:17:44Z</time>
      </trkpt>
      <trkpt lat="45.33252" lon="6.03288">
        <ele>1076</ele>
        <time>2018-07-01T11:17:47Z</time>
      </trkpt>
      <trkpt lat="45.33249" lon="6.03294">
        <ele>1075</ele>
        <time>2018-07-01T11:17:50Z</time>
      </trkpt>
      <trkpt lat="45.33246" lon="6.03299">
        <ele>1075</ele>
        <time>2018-07-01T11:17:53Z</time>
      </trkpt>
      <trkpt lat="45.33242" lon="6.03304">
        <ele>1075</ele>
        <time>2018-07-01T11:17:56Z</time>
      </trkpt>
      <trkpt lat="45.33237" lon="6.03307">
        <ele>1075</ele>
        <time>2018-07-01T11:18:00Z</time>
      </trkpt>
      <trkpt lat="45.33231" lon="6.03305">
        <ele>1077</ele>
        <time>2018-07-01T11:18:04Z</time>
      </trkpt>
      <trkpt lat="45.33226" lon="6.03305">
        <ele>1078</ele>
        <time>2018-07-01T11:18:08Z</time>
      </trkpt>
      <trkpt lat="45.3322" lon="6.03305">
        <ele>1079</ele>
        <time>2018-07-01T11:18:12Z</time>
      </trkpt>
      <trkpt lat="45.33215" lon="6.03304">
        <ele>1080</ele>
        <time>2018-07-01T11:18:16Z</time>
      </trkpt>
      <trkpt lat="45.3321" lon="6.03306">
        <ele>1081</ele>
        <time>2018-07-01T11:18:19Z</time>
      </trkpt>
      <trkpt lat="45.33206" lon="6.03308">
        <ele>1082</ele>
        <time>2018-07-01T11:18:22Z</time>
      </trkpt>
      <trkpt lat="45.33201" lon="6.03308">
        <ele>1083</ele>
        <time>2018-07-01T11:18:26Z</time>
      </trkpt>
      <trkpt lat="45.33198" lon="6.03302">
        <ele>1084</ele>
        <time>2018-07-01T11:18:30Z</time>
      </trkpt>
      <trkpt lat="45.33194" lon="6.03298">
        <ele>1086</ele>
        <time>2018-07-01T11:18:34Z</time>
      </trkpt>
      <trkpt lat="45.33189" lon="6.03298">
        <ele>1087</ele>
        <time>2018-07-01T11:18:38Z</time>
      </trkpt>
      <trkpt lat="45.33183" lon="6.03296">
        <ele>1088</ele>
        <time>2018-07-01T11:18:41Z</time>
      </trkpt>
      <trkpt lat="45.33178" lon="6.03294">
        <ele>1090</ele>
        <time>2018-07-01T11:18:44Z</time>
      </trkpt>
      <trkpt lat="45.33173" lon="6.03292">
        <ele>1091</ele>
        <time>2018-07-01T11:18:47Z</time>
      </trkpt>
      <trkpt lat="45.33167" lon="6.03293">
        <ele>1092</ele>
        <time>2018-07-01T11:18:50Z</time>
      </trkpt>
      <trkpt lat="45.33161" lon="6.03293">
        <ele>1093</ele>
        <time>2018-07-01T11:18:53Z</time>
      </trkpt>
      <trkpt lat="45.33156" lon="6.03292">
        <ele>1095</ele>
        <time>2018-07-01T11:18:56Z</time>
      </trkpt>
      <trkpt lat="45.33151" lon="6.03294">
        <ele>1095</ele>
        <time>2018-07-01T11:18:59Z</time>
      </trkpt>
      <trkpt lat="45.33146" lon="6.03296">
        <ele>1096</ele>
        <time>2018-07-01T11:19:02Z</time>
      </trkpt>
      <trkpt lat="45.33141" lon="6.03298">
        <ele>1097</ele>
        <time>2018-07-01T11:19:05Z</time>
      </trkpt>
      <trkpt lat="45.33137" lon="6.033">
        <ele>1097</ele>
        <time>2018-07-01T11:19:08Z</time>
      </trkpt>
      <trkpt lat="45.33133" lon="6.03303">
        <ele>1098</ele>
        <time>2018-07-01T11:19:11Z</time>
      </trkpt>
      <trkpt lat="45.33128" lon="6.03307">
        <ele>1098</ele>
        <time>2018-07-01T11:19:14Z</time>
      </trkpt>
      <trkpt lat="45.33124" lon="6.0331">
        <ele>1099</ele>
        <time>2018-07-01T11:19:17Z</time>
      </trkpt>
      <trkpt lat="45.3312" lon="6.03314">
        <ele>1099</ele>
        <time>2018-07-01T11:19:20Z</time>
      </trkpt>
      <trkpt lat="45.33116" lon="6.03318">
        <ele>1100</ele>
        <time>2018-07-01T11:19:23Z</time>
      </trkpt>
      <trkpt lat="45.33112" lon="6.03322">
        <ele>1100</ele>
        <time>2018-07-01T11:19:26Z</time>
      </trkpt>
      <trkpt lat="45.33107" lon="6.03327">
        <ele>1101</ele>
        <time>2018-07-01T11:19:29Z</time>
      </trkpt>
      <trkpt lat="45.33103" lon="6.03331">
        <ele>1101</ele>
        <time>2018-07-01T11:19:32Z</time>
      </trkpt>
      <trkpt lat="45.33101" lon="6.03336">
        <ele>1101</ele>
        <time>2018-07-01T11:19:35Z</time>
      </trkpt>
      <trkpt lat="45.33099" lon="6.03342">
        <ele>1101</ele>
        <time>2018-07-01T11:19:38Z</time>
      </trkpt>
      <trkpt lat="45.33096" lon="6.03349">
        <ele>1101</ele>
        <time>2018-07-01T11:19:41Z</time>
      </trkpt>
      <trkpt lat="45.33094" lon="6.03354">
        <ele>1102</ele>
        <time>2018-07-01T11:19:44Z</time>
      </trkpt>
      <trkpt lat="45.33091" lon="6.03359">
        <ele>1102</ele>
        <time>2018-07-01T11:19:47Z</time>
      </trkpt>
      <trkpt lat="45.33088" lon="6.03365">
        <ele>1103</ele>
        <time>2018-07-01T11:19:50Z</time>
      </trkpt>
      <trkpt lat="45.33086" lon="6.03373">
        <ele>1104</ele>
        <time>2018-07-01T11:19:53Z</time>
      </trkpt>
      <trkpt lat="45.33084" lon="6.0338">
        <ele>1105</ele>
        <time>2018-07-01T11:19:56Z</time>
      </trkpt>
      <trkpt lat="45.33081" lon="6.03386">
        <ele>1106</ele>
        <time>2018-07-01T11:19:59Z</time>
      </trkpt>
      <trkpt lat="45.33078" lon="6.03392">
        <ele>1107</ele>
        <time>2018-07-01T11:20:03Z</time>
      </trkpt>
      <trkpt lat="45.33072" lon="6.03392">
        <ele>1109</ele>
        <time>2018-07-01T11:20:09Z</time>
      </trkpt>
      <trkpt lat="45.33069" lon="6.03396">
        <ele>1111</ele>
        <time>2018-07-01T11:20:11Z</time>
      </trkpt>
      <trkpt lat="45.33067" lon="6.03404">
        <ele>1112</ele>
        <time>2018-07-01T11:20:13Z</time>
      </trkpt>
      <trkpt lat="45.33061" lon="6.03408">
        <ele>1114</ele>
        <time>2018-07-01T11:20:16Z</time>
      </trkpt>
      <trkpt lat="45.33055" lon="6.03407">
        <ele>1117</ele>
        <time>2018-07-01T11:20:19Z</time>
      </trkpt>
      <trkpt lat="45.33051" lon="6.03406">
        <ele>1119</ele>
        <time>2018-07-01T11:20:23Z</time>
      </trkpt>
      <trkpt lat="45.33045" lon="6.03405">
        <ele>1122</ele>
        <time>2018-07-01T11:20:28Z</time>
      </trkpt>
      <trkpt lat="45.3304" lon="6.03409">
        <ele>1124</ele>
        <time>2018-07-01T11:20:32Z</time>
      </trkpt>
      <trkpt lat="45.33038" lon="6.03415">
        <ele>1125</ele>
        <time>2018-07-01T11:20:35Z</time>
      </trkpt>
      <trkpt lat="45.33037" lon="6.03423">
        <ele>1126</ele>
        <time>2018-07-01T11:20:38Z</time>
      </trkpt>
      <trkpt lat="45.33035" lon="6.03429">
        <ele>1127</ele>
        <time>2018-07-01T11:20:41Z</time>
      </trkpt>
      <trkpt lat="45.33032" lon="6.03434">
        <ele>1129</ele>
        <time>2018-07-01T11:20:44Z</time>
      </trkpt>
      <trkpt lat="45.33031" lon="6.03442">
        <ele>1128</ele>
        <time>2018-07-01T11:20:47Z</time>
      </trkpt>
      <trkpt lat="45.33031" lon="6.0345">
        <ele>1128</ele>
        <time>2018-07-01T11:20:50Z</time>
      </trkpt>
      <trkpt lat="45.33032" lon="6.03458">
        <ele>1127</ele>
        <time>2018-07-01T11:20:53Z</time>
      </trkpt>
      <trkpt lat="45.33031" lon="6.03465">
        <ele>1128</ele>
        <time>2018-07-01T11:20:56Z</time>
      </trkpt>
      <trkpt lat="45.3303" lon="6.03473">
        <ele>1128</ele>
        <time>2018-07-01T11:21:00Z</time>
      </trkpt>
      <trkpt lat="45.33031" lon="6.0348">
        <ele>1127</ele>
        <time>2018-07-01T11:21:03Z</time>
      </trkpt>
      <trkpt lat="45.3303" lon="6.03487">
        <ele>1127</ele>
        <time>2018-07-01T11:21:06Z</time>
      </trkpt>
      <trkpt lat="45.33029" lon="6.03495">
        <ele>1128</ele>
        <time>2018-07-01T11:21:09Z</time>
      </trkpt>
      <trkpt lat="45.3303" lon="6.03501">
        <ele>1127</ele>
        <time>2018-07-01T11:21:12Z</time>
      </trkpt>
      <trkpt lat="45.33029" lon="6.03507">
        <ele>1128</ele>
        <time>2018-07-01T11:21:15Z</time>
      </trkpt>
      <trkpt lat="45.3303" lon="6.03515">
        <ele>1127</ele>
        <time>2018-07-01T11:21:19Z</time>
      </trkpt>
      <trkpt lat="45.3303" lon="6.03523">
        <ele>1127</ele>
        <time>2018-07-01T11:21:23Z</time>
      </trkpt>
      <trkpt lat="45.33033" lon="6.0353">
        <ele>1126</ele>
        <time>2018-07-01T11:21:26Z</time>
      </trkpt>
      <trkpt lat="45.33035" lon="6.03537">
        <ele>1125</ele>
        <time>2018-07-01T11:21:29Z</time>
      </trkpt>
      <trkpt lat="45.33037" lon="6.03544">
        <ele>1123</ele>
        <time>2018-07-01T11:21:32Z</time>
      </trkpt>
      <trkpt lat="45.33038" lon="6.03553">
        <ele>1123</ele>
        <time>2018-07-01T11:21:35Z</time>
      </trkpt>
      <trkpt lat="45.3304" lon="6.03561">
        <ele>1122</ele>
        <time>2018-07-01T11:21:38Z</time>
      </trkpt>
      <trkpt lat="45.33042" lon="6.03567">
        <ele>1121</ele>
        <time>2018-07-01T11:21:41Z</time>
      </trkpt>
      <trkpt lat="45.33044" lon="6.03573">
        <ele>1121</ele>
        <time>2018-07-01T11:21:43Z</time>
      </trkpt>
      <trkpt lat="45.33045" lon="6.03582">
        <ele>1121</ele>
        <time>2018-07-01T11:21:45Z</time>
      </trkpt>
      <trkpt lat="45.33046" lon="6.0359">
        <ele>1121</ele>
        <time>2018-07-01T11:21:47Z</time>
      </trkpt>
      <trkpt lat="45.33045" lon="6.03598">
        <ele>1122</ele>
        <time>2018-07-01T11:21:50Z</time>
      </trkpt>
      <trkpt lat="45.33041" lon="6.03604">
        <ele>1125</ele>
        <time>2018-07-01T11:21:53Z</time>
      </trkpt>
      <trkpt lat="45.33038" lon="6.03611">
        <ele>1127</ele>
        <time>2018-07-01T11:21:56Z</time>
      </trkpt>
      <trkpt lat="45.33035" lon="6.03617">
        <ele>1130</ele>
        <time>2018-07-01T11:21:58Z</time>
      </trkpt>
      <trkpt lat="45.33033" lon="6.03624">
        <ele>1132</ele>
        <time>2018-07-01T11:22:01Z</time>
      </trkpt>
      <trkpt lat="45.33033" lon="6.03633">
        <ele>1133</ele>
        <time>2018-07-01T11:22:04Z</time>
      </trkpt>
      <trkpt lat="45.33033" lon="6.0364">
        <ele>1134</ele>
        <time>2018-07-01T11:22:06Z</time>
      </trkpt>
      <trkpt lat="45.33035" lon="6.03647">
        <ele>1134</ele>
        <time>2018-07-01T11:22:08Z</time>
      </trkpt>
      <trkpt lat="45.33036" lon="6.03655">
        <ele>1135</ele>
        <time>2018-07-01T11:22:10Z</time>
      </trkpt>
      <trkpt lat="45.33039" lon="6.03662">
        <ele>1134</ele>
        <time>2018-07-01T11:22:12Z</time>
      </trkpt>
      <trkpt lat="45.33041" lon="6.03669">
        <ele>1134</ele>
        <time>2018-07-01T11:22:14Z</time>
      </trkpt>
      <trkpt lat="45.33044" lon="6.03676">
        <ele>1133</ele>
        <time>2018-07-01T11:22:16Z</time>
      </trkpt>
      <trkpt lat="45.33046" lon="6.03684">
        <ele>1133</ele>
        <time>2018-07-01T11:22:18Z</time>
      </trkpt>
      <trkpt lat="45.33047" lon="6.03691">
        <ele>1133</ele>
        <time>2018-07-01T11:22:20Z</time>
      </trkpt>
      <trkpt lat="45.33048" lon="6.03699">
        <ele>1134</ele>
        <time>2018-07-01T11:22:22Z</time>
      </trkpt>
      <trkpt lat="45.33049" lon="6.03707">
        <ele>1135</ele>
        <time>2018-07-01T11:22:24Z</time>
      </trkpt>
      <trkpt lat="45.33051" lon="6.03714">
        <ele>1135</ele>
        <time>2018-07-01T11:22:26Z</time>
      </trkpt>
      <trkpt lat="45.33053" lon="6.0372">
        <ele>1134</ele>
        <time>2018-07-01T11:22:28Z</time>
      </trkpt>
      <trkpt lat="45.33055" lon="6.03727">
        <ele>1134</ele>
        <time>2018-07-01T11:22:30Z</time>
      </trkpt>
      <trkpt lat="45.33057" lon="6.03733">
        <ele>1134</ele>
        <time>2018-07-01T11:22:32Z</time>
      </trkpt>
      <trkpt lat="45.33059" lon="6.0374">
        <ele>1134</ele>
        <time>2018-07-01T11:22:34Z</time>
      </trkpt>
      <trkpt lat="45.33061" lon="6.03746">
        <ele>1135</ele>
        <time>2018-07-01T11:22:36Z</time>
      </trkpt>
      <trkpt lat="45.33063" lon="6.03752">
        <ele>1134</ele>
        <time>2018-07-01T11:22:38Z</time>
      </trkpt>
      <trkpt lat="45.33065" lon="6.03758">
        <ele>1133</ele>
        <time>2018-07-01T11:22:40Z</time>
      </trkpt>
      <trkpt lat="45.33067" lon="6.03764">
        <ele>1133</ele>
        <time>2018-07-01T11:22:42Z</time>
      </trkpt>
      <trkpt lat="45.3307" lon="6.0377">
        <ele>1132</ele>
        <time>2018-07-01T11:22:44Z</time>
      </trkpt>
      <trkpt lat="45.33072" lon="6.03777">
        <ele>1133</ele>
        <time>2018-07-01T11:22:46Z</time>
      </trkpt>
      <trkpt lat="45.33074" lon="6.03783">
        <ele>1133</ele>
        <time>2018-07-01T11:22:48Z</time>
      </trkpt>
      <trkpt lat="45.33077" lon="6.0379">
        <ele>1133</ele>
        <time>2018-07-01T11:22:50Z</time>
      </trkpt>
      <trkpt lat="45.33079" lon="6.03797">
        <ele>1133</ele>
        <time>2018-07-01T11:22:52Z</time>
      </trkpt>
      <trkpt lat="45.33081" lon="6.03803">
        <ele>1133</ele>
        <time>2018-07-01T11:22:54Z</time>
      </trkpt>
      <trkpt lat="45.33084" lon="6.03809">
        <ele>1132</ele>
        <time>2018-07-01T11:22:56Z</time>
      </trkpt>
      <trkpt lat="45.33085" lon="6.03815">
        <ele>1133</ele>
        <time>2018-07-01T11:22:58Z</time>
      </trkpt>
      <trkpt lat="45.33086" lon="6.03822">
        <ele>1134</ele>
        <time>2018-07-01T11:23:00Z</time>
      </trkpt>
      <trkpt lat="45.33089" lon="6.03828">
        <ele>1134</ele>
        <time>2018-07-01T11:23:02Z</time>
      </trkpt>
      <trkpt lat="45.33091" lon="6.03835">
        <ele>1134</ele>
        <time>2018-07-01T11:23:04Z</time>
      </trkpt>
      <trkpt lat="45.33092" lon="6.03842">
        <ele>1135</ele>
        <time>2018-07-01T11:23:06Z</time>
      </trkpt>
      <trkpt lat="45.33094" lon="6.0385">
        <ele>1136</ele>
        <time>2018-07-01T11:23:08Z</time>
      </trkpt>
      <trkpt lat="45.33096" lon="6.03858">
        <ele>1136</ele>
        <time>2018-07-01T11:23:10Z</time>
      </trkpt>
      <trkpt lat="45.33098" lon="6.03866">
        <ele>1137</ele>
        <time>2018-07-01T11:23:12Z</time>
      </trkpt>
      <trkpt lat="45.331" lon="6.03873">
        <ele>1137</ele>
        <time>2018-07-01T11:23:14Z</time>
      </trkpt>
      <trkpt lat="45.33103" lon="6.03879">
        <ele>1137</ele>
        <time>2018-07-01T11:23:16Z</time>
      </trkpt>
      <trkpt lat="45.33105" lon="6.03885">
        <ele>1137</ele>
        <time>2018-07-01T11:23:18Z</time>
      </trkpt>
      <trkpt lat="45.33109" lon="6.03893">
        <ele>1136</ele>
        <time>2018-07-01T11:23:21Z</time>
      </trkpt>
      <trkpt lat="45.33111" lon="6.03899">
        <ele>1136</ele>
        <time>2018-07-01T11:23:23Z</time>
      </trkpt>
      <trkpt lat="45.33113" lon="6.03906">
        <ele>1136</ele>
        <time>2018-07-01T11:23:25Z</time>
      </trkpt>
      <trkpt lat="45.33115" lon="6.03912">
        <ele>1135</ele>
        <time>2018-07-01T11:23:27Z</time>
      </trkpt>
      <trkpt lat="45.33117" lon="6.03919">
        <ele>1134</ele>
        <time>2018-07-01T11:23:29Z</time>
      </trkpt>
      <trkpt lat="45.3312" lon="6.03925">
        <ele>1133</ele>
        <time>2018-07-01T11:23:31Z</time>
      </trkpt>
      <trkpt lat="45.33123" lon="6.03931">
        <ele>1131</ele>
        <time>2018-07-01T11:23:33Z</time>
      </trkpt>
      <trkpt lat="45.33127" lon="6.03937">
        <ele>1129</ele>
        <time>2018-07-01T11:23:35Z</time>
      </trkpt>
      <trkpt lat="45.3313" lon="6.03942">
        <ele>1128</ele>
        <time>2018-07-01T11:23:37Z</time>
      </trkpt>
      <trkpt lat="45.33132" lon="6.03948">
        <ele>1128</ele>
        <time>2018-07-01T11:23:39Z</time>
      </trkpt>
      <trkpt lat="45.33134" lon="6.03955">
        <ele>1127</ele>
        <time>2018-07-01T11:23:41Z</time>
      </trkpt>
      <trkpt lat="45.33135" lon="6.03961">
        <ele>1127</ele>
        <time>2018-07-01T11:23:43Z</time>
      </trkpt>
      <trkpt lat="45.33137" lon="6.0397">
        <ele>1127</ele>
        <time>2018-07-01T11:23:46Z</time>
      </trkpt>
      <trkpt lat="45.3314" lon="6.03978">
        <ele>1126</ele>
        <time>2018-07-01T11:23:49Z</time>
      </trkpt>
      <trkpt lat="45.33142" lon="6.03984">
        <ele>1124</ele>
        <time>2018-07-01T11:23:51Z</time>
      </trkpt>
      <trkpt lat="45.33144" lon="6.03992">
        <ele>1123</ele>
        <time>2018-07-01T11:23:54Z</time>
      </trkpt>
      <trkpt lat="45.33146" lon="6.03998">
        <ele>1121</ele>
        <time>2018-07-01T11:23:56Z</time>
      </trkpt>
      <trkpt lat="45.33147" lon="6.04005">
        <ele>1120</ele>
        <time>2018-07-01T11:23:58Z</time>
      </trkpt>
      <trkpt lat="45.33149" lon="6.04014">
        <ele>1119</ele>
        <time>2018-07-01T11:24:01Z</time>
      </trkpt>
      <trkpt lat="45.33149" lon="6.04023">
        <ele>1119</ele>
        <time>2018-07-01T11:24:04Z</time>
      </trkpt>
      <trkpt lat="45.33149" lon="6.0403">
        <ele>1119</ele>
        <time>2018-07-01T11:24:06Z</time>
      </trkpt>
      <trkpt lat="45.33149" lon="6.04036">
        <ele>1119</ele>
        <time>2018-07-01T11:24:08Z</time>
      </trkpt>
      <trkpt lat="45.33147" lon="6.04045">
        <ele>1119</ele>
        <time>2018-07-01T11:24:11Z</time>
      </trkpt>
      <trkpt lat="45.33145" lon="6.04054">
        <ele>1121</ele>
        <time>2018-07-01T11:24:14Z</time>
      </trkpt>
      <trkpt lat="45.33142" lon="6.04059">
        <ele>1122</ele>
        <time>2018-07-01T11:24:16Z</time>
      </trkpt>
      <trkpt lat="45.33138" lon="6.04064">
        <ele>1124</ele>
        <time>2018-07-01T11:24:18Z</time>
      </trkpt>
      <trkpt lat="45.33132" lon="6.04068">
        <ele>1126</ele>
        <time>2018-07-01T11:24:20Z</time>
      </trkpt>
      <trkpt lat="45.33125" lon="6.04072">
        <ele>1129</ele>
        <time>2018-07-01T11:24:22Z</time>
      </trkpt>
      <trkpt lat="45.33118" lon="6.04076">
        <ele>1131</ele>
        <time>2018-07-01T11:24:24Z</time>
      </trkpt>
      <trkpt lat="45.3311" lon="6.04079">
        <ele>1134</ele>
        <time>2018-07-01T11:24:26Z</time>
      </trkpt>
      <trkpt lat="45.33101" lon="6.04083">
        <ele>1137</ele>
        <time>2018-07-01T11:24:28Z</time>
      </trkpt>
      <trkpt lat="45.33095" lon="6.04086">
        <ele>1139</ele>
        <time>2018-07-01T11:24:29Z</time>
      </trkpt>
      <trkpt lat="45.33093" lon="6.04092">
        <ele>1140</ele>
        <time>2018-07-01T11:24:30Z</time>
      </trkpt>
      <trkpt lat="45.33091" lon="6.041">
        <ele>1139</ele>
        <time>2018-07-01T11:24:31Z</time>
      </trkpt>
      <trkpt lat="45.33093" lon="6.0411">
        <ele>1137</ele>
        <time>2018-07-01T11:24:32Z</time>
      </trkpt>
      <trkpt lat="45.33094" lon="6.04118">
        <ele>1137</ele>
        <time>2018-07-01T11:24:33Z</time>
      </trkpt>
      <trkpt lat="45.33097" lon="6.04125">
        <ele>1137</ele>
        <time>2018-07-01T11:24:34Z</time>
      </trkpt>
      <trkpt lat="45.33101" lon="6.04132">
        <ele>1137</ele>
        <time>2018-07-01T11:24:36Z</time>
      </trkpt>
      <trkpt lat="45.33106" lon="6.04138">
        <ele>1137</ele>
        <time>2018-07-01T11:24:38Z</time>
      </trkpt>
      <trkpt lat="45.33109" lon="6.04144">
        <ele>1137</ele>
        <time>2018-07-01T11:24:42Z</time>
      </trkpt>
      <trkpt lat="45.33113" lon="6.04146">
        <ele>1137</ele>
        <time>2018-07-01T11:25:00Z</time>
      </trkpt>
      <trkpt lat="45.33115" lon="6.04137">
        <ele>1135</ele>
        <time>2018-07-01T11:25:10Z</time>
      </trkpt>
      <trkpt lat="45.33112" lon="6.04143">
        <ele>1136</ele>
        <time>2018-07-01T11:25:26Z</time>
      </trkpt>
      <trkpt lat="45.33117" lon="6.04145">
        <ele>1136</ele>
        <time>2018-07-01T11:25:32Z</time>
      </trkpt>
      <trkpt lat="45.33121" lon="6.04149">
        <ele>1135</ele>
        <time>2018-07-01T11:25:37Z</time>
      </trkpt>
      <trkpt lat="45.33125" lon="6.04154">
        <ele>1136</ele>
        <time>2018-07-01T11:25:42Z</time>
      </trkpt>
      <trkpt lat="45.3313" lon="6.04155">
        <ele>1135</ele>
        <time>2018-07-01T11:25:44Z</time>
      </trkpt>
      <trkpt lat="45.33135" lon="6.04157">
        <ele>1134</ele>
        <time>2018-07-01T11:25:45Z</time>
      </trkpt>
      <trkpt lat="45.33141" lon="6.04161">
        <ele>1134</ele>
        <time>2018-07-01T11:25:47Z</time>
      </trkpt>
      <trkpt lat="45.33147" lon="6.04164">
        <ele>1133</ele>
        <time>2018-07-01T11:25:49Z</time>
      </trkpt>
      <trkpt lat="45.33151" lon="6.04167">
        <ele>1133</ele>
        <time>2018-07-01T11:25:51Z</time>
      </trkpt>
      <trkpt lat="45.33157" lon="6.04169">
        <ele>1132</ele>
        <time>2018-07-01T11:25:54Z</time>
      </trkpt>
      <trkpt lat="45.33164" lon="6.04172">
        <ele>1132</ele>
        <time>2018-07-01T11:25:57Z</time>
      </trkpt>
      <trkpt lat="45.33169" lon="6.04175">
        <ele>1132</ele>
        <time>2018-07-01T11:26:00Z</time>
      </trkpt>
      <trkpt lat="45.33173" lon="6.04174">
        <ele>1132</ele>
        <time>2018-07-01T11:26:03Z</time>
      </trkpt>
      <trkpt lat="45.33178" lon="6.04173">
        <ele>1131</ele>
        <time>2018-07-01T11:26:06Z</time>
      </trkpt>
      <trkpt lat="45.33184" lon="6.04173">
        <ele>1131</ele>
        <time>2018-07-01T11:26:09Z</time>
      </trkpt>
      <trkpt lat="45.3319" lon="6.04172">
        <ele>1130</ele>
        <time>2018-07-01T11:26:12Z</time>
      </trkpt>
      <trkpt lat="45.33195" lon="6.04174">
        <ele>1130</ele>
        <time>2018-07-01T11:26:15Z</time>
      </trkpt>
      <trkpt lat="45.33201" lon="6.04175">
        <ele>1130</ele>
        <time>2018-07-01T11:26:20Z</time>
      </trkpt>
      <trkpt lat="45.33206" lon="6.04175">
        <ele>1130</ele>
        <time>2018-07-01T11:26:24Z</time>
      </trkpt>
      <trkpt lat="45.33211" lon="6.04177">
        <ele>1130</ele>
        <time>2018-07-01T11:26:28Z</time>
      </trkpt>
      <trkpt lat="45.33216" lon="6.04178">
        <ele>1130</ele>
        <time>2018-07-01T11:26:33Z</time>
      </trkpt>
      <trkpt lat="45.33217" lon="6.04186">
        <ele>1132</ele>
        <time>2018-07-01T11:26:38Z</time>
      </trkpt>
      <trkpt lat="45.33223" lon="6.04187">
        <ele>1132</ele>
        <time>2018-07-01T11:26:42Z</time>
      </trkpt>
      <trkpt lat="45.33228" lon="6.04187">
        <ele>1132</ele>
        <time>2018-07-01T11:26:45Z</time>
      </trkpt>
      <trkpt lat="45.33233" lon="6.04185">
        <ele>1131</ele>
        <time>2018-07-01T11:26:48Z</time>
      </trkpt>
      <trkpt lat="45.33237" lon="6.04189">
        <ele>1132</ele>
        <time>2018-07-01T11:26:53Z</time>
      </trkpt>
      <trkpt lat="45.33242" lon="6.0419">
        <ele>1132</ele>
        <time>2018-07-01T11:26:55Z</time>
      </trkpt>
      <trkpt lat="45.33246" lon="6.04192">
        <ele>1132</ele>
        <time>2018-07-01T11:26:57Z</time>
      </trkpt>
      <trkpt lat="45.33251" lon="6.04196">
        <ele>1133</ele>
        <time>2018-07-01T11:27:00Z</time>
      </trkpt>
      <trkpt lat="45.33253" lon="6.04202">
        <ele>1135</ele>
        <time>2018-07-01T11:27:03Z</time>
      </trkpt>
      <trkpt lat="45.33258" lon="6.04202">
        <ele>1135</ele>
        <time>2018-07-01T11:27:08Z</time>
      </trkpt>
      <trkpt lat="45.33262" lon="6.04207">
        <ele>1136</ele>
        <time>2018-07-01T11:27:13Z</time>
      </trkpt>
      <trkpt lat="45.33264" lon="6.04214">
        <ele>1138</ele>
        <time>2018-07-01T11:27:18Z</time>
      </trkpt>
      <trkpt lat="45.33265" lon="6.04221">
        <ele>1140</ele>
        <time>2018-07-01T11:27:23Z</time>
      </trkpt>
      <trkpt lat="45.33268" lon="6.04226">
        <ele>1141</ele>
        <time>2018-07-01T11:27:27Z</time>
      </trkpt>
      <trkpt lat="45.33272" lon="6.04231">
        <ele>1143</ele>
        <time>2018-07-01T11:27:31Z</time>
      </trkpt>
      <trkpt lat="45.33276" lon="6.04236">
        <ele>1144</ele>
        <time>2018-07-01T11:27:35Z</time>
      </trkpt>
      <trkpt lat="45.3328" lon="6.0424">
        <ele>1145</ele>
        <time>2018-07-01T11:27:39Z</time>
      </trkpt>
      <trkpt lat="45.33286" lon="6.04241">
        <ele>1145</ele>
        <time>2018-07-01T11:27:43Z</time>
      </trkpt>
      <trkpt lat="45.33291" lon="6.04243">
        <ele>1145</ele>
        <time>2018-07-01T11:28:02Z</time>
      </trkpt>
      <trkpt lat="45.33298" lon="6.04242">
        <ele>1145</ele>
        <time>2018-07-01T11:28:03Z</time>
      </trkpt>
      <trkpt lat="45.33318" lon="6.04226">
        <ele>1139</ele>
        <time>2018-07-01T11:28:04Z</time>
      </trkpt>
      <trkpt lat="45.33323" lon="6.04223">
        <ele>1137</ele>
        <time>2018-07-01T11:28:07Z</time>
      </trkpt>
      <trkpt lat="45.33327" lon="6.04227">
        <ele>1139</ele>
        <time>2018-07-01T11:28:11Z</time>
      </trkpt>
      <trkpt lat="45.33329" lon="6.04234">
        <ele>1141</ele>
        <time>2018-07-01T11:28:14Z</time>
      </trkpt>
      <trkpt lat="45.33334" lon="6.04236">
        <ele>1141</ele>
        <time>2018-07-01T11:28:17Z</time>
      </trkpt>
      <trkpt lat="45.33338" lon="6.04241">
        <ele>1142</ele>
        <time>2018-07-01T11:28:20Z</time>
      </trkpt>
      <trkpt lat="45.33343" lon="6.04244">
        <ele>1143</ele>
        <time>2018-07-01T11:28:23Z</time>
      </trkpt>
      <trkpt lat="45.33342" lon="6.04251">
        <ele>1145</ele>
        <time>2018-07-01T11:28:25Z</time>
      </trkpt>
      <trkpt lat="45.33339" lon="6.04259">
        <ele>1147</ele>
        <time>2018-07-01T11:28:28Z</time>
      </trkpt>
      <trkpt lat="45.3334" lon="6.04266">
        <ele>1148</ele>
        <time>2018-07-01T11:28:32Z</time>
      </trkpt>
      <trkpt lat="45.33344" lon="6.04272">
        <ele>1150</ele>
        <time>2018-07-01T11:28:36Z</time>
      </trkpt>
      <trkpt lat="45.3335" lon="6.04274">
        <ele>1150</ele>
        <time>2018-07-01T11:28:39Z</time>
      </trkpt>
      <trkpt lat="45.33354" lon="6.04277">
        <ele>1150</ele>
        <time>2018-07-01T11:28:42Z</time>
      </trkpt>
      <trkpt lat="45.33358" lon="6.04282">
        <ele>1151</ele>
        <time>2018-07-01T11:28:46Z</time>
      </trkpt>
      <trkpt lat="45.33361" lon="6.04289">
        <ele>1153</ele>
        <time>2018-07-01T11:28:51Z</time>
      </trkpt>
      <trkpt lat="45.33365" lon="6.04294">
        <ele>1154</ele>
        <time>2018-07-01T11:28:54Z</time>
      </trkpt>
      <trkpt lat="45.33369" lon="6.04298">
        <ele>1154</ele>
        <time>2018-07-01T11:28:57Z</time>
      </trkpt>
      <trkpt lat="45.33373" lon="6.04302">
        <ele>1155</ele>
        <time>2018-07-01T11:29:07Z</time>
      </trkpt>
      <trkpt lat="45.33378" lon="6.04303">
        <ele>1155</ele>
        <time>2018-07-01T11:29:10Z</time>
      </trkpt>
      <trkpt lat="45.33384" lon="6.04303">
        <ele>1154</ele>
        <time>2018-07-01T11:29:13Z</time>
      </trkpt>
      <trkpt lat="45.3339" lon="6.04304">
        <ele>1154</ele>
        <time>2018-07-01T11:29:15Z</time>
      </trkpt>
      <trkpt lat="45.33395" lon="6.04307">
        <ele>1154</ele>
        <time>2018-07-01T11:29:17Z</time>
      </trkpt>
      <trkpt lat="45.334" lon="6.0431">
        <ele>1154</ele>
        <time>2018-07-01T11:29:20Z</time>
      </trkpt>
      <trkpt lat="45.33405" lon="6.04314">
        <ele>1155</ele>
        <time>2018-07-01T11:29:23Z</time>
      </trkpt>
      <trkpt lat="45.33409" lon="6.04317">
        <ele>1155</ele>
        <time>2018-07-01T11:29:26Z</time>
      </trkpt>
      <trkpt lat="45.33413" lon="6.04321">
        <ele>1156</ele>
        <time>2018-07-01T11:29:29Z</time>
      </trkpt>
      <trkpt lat="45.33417" lon="6.04327">
        <ele>1157</ele>
        <time>2018-07-01T11:29:33Z</time>
      </trkpt>
      <trkpt lat="45.33422" lon="6.04332">
        <ele>1158</ele>
        <time>2018-07-01T11:29:37Z</time>
      </trkpt>
      <trkpt lat="45.33425" lon="6.04337">
        <ele>1159</ele>
        <time>2018-07-01T11:29:40Z</time>
      </trkpt>
      <trkpt lat="45.33429" lon="6.04343">
        <ele>1160</ele>
        <time>2018-07-01T11:29:44Z</time>
      </trkpt>
      <trkpt lat="45.33434" lon="6.04346">
        <ele>1160</ele>
        <time>2018-07-01T11:29:48Z</time>
      </trkpt>
      <trkpt lat="45.33438" lon="6.04347">
        <ele>1160</ele>
        <time>2018-07-01T11:29:51Z</time>
      </trkpt>
      <trkpt lat="45.33442" lon="6.04351">
        <ele>1161</ele>
        <time>2018-07-01T11:29:54Z</time>
      </trkpt>
      <trkpt lat="45.33445" lon="6.04358">
        <ele>1162</ele>
        <time>2018-07-01T11:29:58Z</time>
      </trkpt>
      <trkpt lat="45.33447" lon="6.04365">
        <ele>1163</ele>
        <time>2018-07-01T11:30:02Z</time>
      </trkpt>
      <trkpt lat="45.3345" lon="6.04372">
        <ele>1164</ele>
        <time>2018-07-01T11:30:06Z</time>
      </trkpt>
      <trkpt lat="45.33453" lon="6.04378">
        <ele>1165</ele>
        <time>2018-07-01T11:30:10Z</time>
      </trkpt>
      <trkpt lat="45.33455" lon="6.04384">
        <ele>1166</ele>
        <time>2018-07-01T11:30:14Z</time>
      </trkpt>
      <trkpt lat="45.33457" lon="6.04392">
        <ele>1168</ele>
        <time>2018-07-01T11:30:18Z</time>
      </trkpt>
      <trkpt lat="45.33457" lon="6.04399">
        <ele>1170</ele>
        <time>2018-07-01T11:30:22Z</time>
      </trkpt>
      <trkpt lat="45.33462" lon="6.04402">
        <ele>1170</ele>
        <time>2018-07-01T11:30:28Z</time>
      </trkpt>
      <trkpt lat="45.33462" lon="6.0441">
        <ele>1172</ele>
        <time>2018-07-01T11:30:34Z</time>
      </trkpt>
      <trkpt lat="45.33464" lon="6.04417">
        <ele>1173</ele>
        <time>2018-07-01T11:30:37Z</time>
      </trkpt>
      <trkpt lat="45.33466" lon="6.04423">
        <ele>1174</ele>
        <time>2018-07-01T11:30:40Z</time>
      </trkpt>
      <trkpt lat="45.33469" lon="6.04429">
        <ele>1175</ele>
        <time>2018-07-01T11:30:43Z</time>
      </trkpt>
      <trkpt lat="45.33471" lon="6.04437">
        <ele>1177</ele>
        <time>2018-07-01T11:30:47Z</time>
      </trkpt>
      <trkpt lat="45.33473" lon="6.04443">
        <ele>1178</ele>
        <time>2018-07-01T11:30:50Z</time>
      </trkpt>
      <trkpt lat="45.33476" lon="6.0445">
        <ele>1179</ele>
        <time>2018-07-01T11:30:54Z</time>
      </trkpt>
      <trkpt lat="45.3348" lon="6.04457">
        <ele>1180</ele>
        <time>2018-07-01T11:30:58Z</time>
      </trkpt>
      <trkpt lat="45.33482" lon="6.04462">
        <ele>1181</ele>
        <time>2018-07-01T11:31:01Z</time>
      </trkpt>
      <trkpt lat="45.33485" lon="6.04469">
        <ele>1182</ele>
        <time>2018-07-01T11:31:05Z</time>
      </trkpt>
      <trkpt lat="45.33487" lon="6.04478">
        <ele>1185</ele>
        <time>2018-07-01T11:31:09Z</time>
      </trkpt>
      <trkpt lat="45.3349" lon="6.04484">
        <ele>1186</ele>
        <time>2018-07-01T11:31:12Z</time>
      </trkpt>
      <trkpt lat="45.33493" lon="6.0449">
        <ele>1187</ele>
        <time>2018-07-01T11:31:15Z</time>
      </trkpt>
      <trkpt lat="45.33496" lon="6.04496">
        <ele>1188</ele>
        <time>2018-07-01T11:31:18Z</time>
      </trkpt>
      <trkpt lat="45.33498" lon="6.04501">
        <ele>1189</ele>
        <time>2018-07-01T11:31:21Z</time>
      </trkpt>
      <trkpt lat="45.33502" lon="6.04507">
        <ele>1189</ele>
        <time>2018-07-01T11:31:25Z</time>
      </trkpt>
      <trkpt lat="45.33506" lon="6.04512">
        <ele>1190</ele>
        <time>2018-07-01T11:31:29Z</time>
      </trkpt>
      <trkpt lat="45.3351" lon="6.04518">
        <ele>1191</ele>
        <time>2018-07-01T11:31:33Z</time>
      </trkpt>
      <trkpt lat="45.3351" lon="6.04526">
        <ele>1193</ele>
        <time>2018-07-01T11:31:37Z</time>
      </trkpt>
      <trkpt lat="45.33517" lon="6.04533">
        <ele>1194</ele>
        <time>2018-07-01T11:31:43Z</time>
      </trkpt>
      <trkpt lat="45.33522" lon="6.04533">
        <ele>1192</ele>
        <time>2018-07-01T11:31:46Z</time>
      </trkpt>
      <trkpt lat="45.33528" lon="6.04534">
        <ele>1190</ele>
        <time>2018-07-01T11:31:49Z</time>
      </trkpt>
      <trkpt lat="45.33533" lon="6.04535">
        <ele>1190</ele>
        <time>2018-07-01T11:31:52Z</time>
      </trkpt>
      <trkpt lat="45.33537" lon="6.04536">
        <ele>1189</ele>
        <time>2018-07-01T11:31:55Z</time>
      </trkpt>
      <trkpt lat="45.33542" lon="6.04538">
        <ele>1188</ele>
        <time>2018-07-01T11:32:00Z</time>
      </trkpt>
      <trkpt lat="45.33546" lon="6.04543">
        <ele>1188</ele>
        <time>2018-07-01T11:32:06Z</time>
      </trkpt>
      <trkpt lat="45.3355" lon="6.04547">
        <ele>1189</ele>
        <time>2018-07-01T11:32:10Z</time>
      </trkpt>
      <trkpt lat="45.33557" lon="6.04549">
        <ele>1187</ele>
        <time>2018-07-01T11:32:12Z</time>
      </trkpt>
      <trkpt lat="45.33563" lon="6.04552">
        <ele>1186</ele>
        <time>2018-07-01T11:32:14Z</time>
      </trkpt>
      <trkpt lat="45.33567" lon="6.04554">
        <ele>1186</ele>
        <time>2018-07-01T11:32:16Z</time>
      </trkpt>
      <trkpt lat="45.33573" lon="6.04558">
        <ele>1186</ele>
        <time>2018-07-01T11:32:19Z</time>
      </trkpt>
      <trkpt lat="45.33577" lon="6.04564">
        <ele>1186</ele>
        <time>2018-07-01T11:32:22Z</time>
      </trkpt>
      <trkpt lat="45.3358" lon="6.0457">
        <ele>1187</ele>
        <time>2018-07-01T11:32:25Z</time>
      </trkpt>
      <trkpt lat="45.33583" lon="6.04575">
        <ele>1189</ele>
        <time>2018-07-01T11:32:29Z</time>
      </trkpt>
      <trkpt lat="45.33588" lon="6.04579">
        <ele>1189</ele>
        <time>2018-07-01T11:32:33Z</time>
      </trkpt>
      <trkpt lat="45.33592" lon="6.04585">
        <ele>1190</ele>
        <time>2018-07-01T11:32:37Z</time>
      </trkpt>
      <trkpt lat="45.33595" lon="6.0459">
        <ele>1191</ele>
        <time>2018-07-01T11:32:40Z</time>
      </trkpt>
      <trkpt lat="45.33599" lon="6.04596">
        <ele>1191</ele>
        <time>2018-07-01T11:32:44Z</time>
      </trkpt>
      <trkpt lat="45.33601" lon="6.04602">
        <ele>1193</ele>
        <time>2018-07-01T11:32:47Z</time>
      </trkpt>
      <trkpt lat="45.33603" lon="6.04607">
        <ele>1194</ele>
        <time>2018-07-01T11:32:50Z</time>
      </trkpt>
      <trkpt lat="45.33607" lon="6.04614">
        <ele>1195</ele>
        <time>2018-07-01T11:32:54Z</time>
      </trkpt>
      <trkpt lat="45.33609" lon="6.0462">
        <ele>1196</ele>
        <time>2018-07-01T11:32:58Z</time>
      </trkpt>
      <trkpt lat="45.33611" lon="6.04627">
        <ele>1198</ele>
        <time>2018-07-01T11:33:02Z</time>
      </trkpt>
      <trkpt lat="45.33614" lon="6.04634">
        <ele>1199</ele>
        <time>2018-07-01T11:33:06Z</time>
      </trkpt>
      <trkpt lat="45.33612" lon="6.04642">
        <ele>1202</ele>
        <time>2018-07-01T11:33:10Z</time>
      </trkpt>
      <trkpt lat="45.33614" lon="6.04649">
        <ele>1204</ele>
        <time>2018-07-01T11:33:13Z</time>
      </trkpt>
      <trkpt lat="45.33613" lon="6.04656">
        <ele>1206</ele>
        <time>2018-07-01T11:33:16Z</time>
      </trkpt>
      <trkpt lat="45.33617" lon="6.04661">
        <ele>1207</ele>
        <time>2018-07-01T11:33:21Z</time>
      </trkpt>
      <trkpt lat="45.33622" lon="6.04663">
        <ele>1206</ele>
        <time>2018-07-01T11:33:24Z</time>
      </trkpt>
      <trkpt lat="45.33625" lon="6.04668">
        <ele>1206</ele>
        <time>2018-07-01T11:33:27Z</time>
      </trkpt>
      <trkpt lat="45.3363" lon="6.0467">
        <ele>1205</ele>
        <time>2018-07-01T11:33:31Z</time>
      </trkpt>
      <trkpt lat="45.33633" lon="6.04676">
        <ele>1205</ele>
        <time>2018-07-01T11:33:35Z</time>
      </trkpt>
      <trkpt lat="45.33636" lon="6.0468">
        <ele>1206</ele>
        <time>2018-07-01T11:33:39Z</time>
      </trkpt>
      <trkpt lat="45.33641" lon="6.04684">
        <ele>1205</ele>
        <time>2018-07-01T11:33:42Z</time>
      </trkpt>
      <trkpt lat="45.33645" lon="6.04691">
        <ele>1206</ele>
        <time>2018-07-01T11:33:45Z</time>
      </trkpt>
      <trkpt lat="45.33649" lon="6.04693">
        <ele>1205</ele>
        <time>2018-07-01T11:33:48Z</time>
      </trkpt>
      <trkpt lat="45.33654" lon="6.04698">
        <ele>1205</ele>
        <time>2018-07-01T11:33:51Z</time>
      </trkpt>
      <trkpt lat="45.33658" lon="6.04704">
        <ele>1206</ele>
        <time>2018-07-01T11:33:54Z</time>
      </trkpt>
      <trkpt lat="45.33662" lon="6.04707">
        <ele>1206</ele>
        <time>2018-07-01T11:33:57Z</time>
      </trkpt>
      <trkpt lat="45.33666" lon="6.04712">
        <ele>1206</ele>
        <time>2018-07-01T11:34:00Z</time>
      </trkpt>
      <trkpt lat="45.33669" lon="6.04716">
        <ele>1206</ele>
        <time>2018-07-01T11:34:03Z</time>
      </trkpt>
      <trkpt lat="45.33674" lon="6.04719">
        <ele>1206</ele>
        <time>2018-07-01T11:34:06Z</time>
      </trkpt>
      <trkpt lat="45.33679" lon="6.0472">
        <ele>1205</ele>
        <time>2018-07-01T11:34:11Z</time>
      </trkpt>
      <trkpt lat="45.33683" lon="6.04718">
        <ele>1204</ele>
        <time>2018-07-01T11:34:14Z</time>
      </trkpt>
      <trkpt lat="45.33689" lon="6.04721">
        <ele>1203</ele>
        <time>2018-07-01T11:34:17Z</time>
      </trkpt>
      <trkpt lat="45.33693" lon="6.04725">
        <ele>1203</ele>
        <time>2018-07-01T11:34:20Z</time>
      </trkpt>
      <trkpt lat="45.33696" lon="6.04729">
        <ele>1203</ele>
        <time>2018-07-01T11:34:23Z</time>
      </trkpt>
      <trkpt lat="45.33701" lon="6.04733">
        <ele>1203</ele>
        <time>2018-07-01T11:34:27Z</time>
      </trkpt>
      <trkpt lat="45.33706" lon="6.04737">
        <ele>1203</ele>
        <time>2018-07-01T11:34:32Z</time>
      </trkpt>
      <trkpt lat="45.3371" lon="6.0474">
        <ele>1203</ele>
        <time>2018-07-01T11:34:35Z</time>
      </trkpt>
      <trkpt lat="45.33715" lon="6.04743">
        <ele>1203</ele>
        <time>2018-07-01T11:34:38Z</time>
      </trkpt>
      <trkpt lat="45.33719" lon="6.04744">
        <ele>1203</ele>
        <time>2018-07-01T11:34:41Z</time>
      </trkpt>
      <trkpt lat="45.33724" lon="6.04746">
        <ele>1203</ele>
        <time>2018-07-01T11:34:44Z</time>
      </trkpt>
      <trkpt lat="45.3373" lon="6.04746">
        <ele>1204</ele>
        <time>2018-07-01T11:34:47Z</time>
      </trkpt>
      <trkpt lat="45.33735" lon="6.04747">
        <ele>1204</ele>
        <time>2018-07-01T11:34:50Z</time>
      </trkpt>
      <trkpt lat="45.3374" lon="6.04746">
        <ele>1203</ele>
        <time>2018-07-01T11:34:54Z</time>
      </trkpt>
      <trkpt lat="45.33745" lon="6.04746">
        <ele>1203</ele>
        <time>2018-07-01T11:34:57Z</time>
      </trkpt>
      <trkpt lat="45.3375" lon="6.04748">
        <ele>1204</ele>
        <time>2018-07-01T11:35:00Z</time>
      </trkpt>
      <trkpt lat="45.33755" lon="6.0475">
        <ele>1204</ele>
        <time>2018-07-01T11:35:04Z</time>
      </trkpt>
      <trkpt lat="45.33761" lon="6.0475">
        <ele>1204</ele>
        <time>2018-07-01T11:35:08Z</time>
      </trkpt>
      <trkpt lat="45.33765" lon="6.0475">
        <ele>1204</ele>
        <time>2018-07-01T11:35:11Z</time>
      </trkpt>
      <trkpt lat="45.3377" lon="6.0475">
        <ele>1204</ele>
        <time>2018-07-01T11:35:14Z</time>
      </trkpt>
      <trkpt lat="45.33775" lon="6.04749">
        <ele>1203</ele>
        <time>2018-07-01T11:35:17Z</time>
      </trkpt>
      <trkpt lat="45.3378" lon="6.0475">
        <ele>1203</ele>
        <time>2018-07-01T11:35:20Z</time>
      </trkpt>
      <trkpt lat="45.33785" lon="6.0475">
        <ele>1203</ele>
        <time>2018-07-01T11:35:23Z</time>
      </trkpt>
      <trkpt lat="45.33789" lon="6.04748">
        <ele>1203</ele>
        <time>2018-07-01T11:35:26Z</time>
      </trkpt>
      <trkpt lat="45.33794" lon="6.04748">
        <ele>1203</ele>
        <time>2018-07-01T11:35:29Z</time>
      </trkpt>
      <trkpt lat="45.33799" lon="6.04751">
        <ele>1204</ele>
        <time>2018-07-01T11:35:32Z</time>
      </trkpt>
      <trkpt lat="45.33804" lon="6.04754">
        <ele>1206</ele>
        <time>2018-07-01T11:35:35Z</time>
      </trkpt>
      <trkpt lat="45.33809" lon="6.04751">
        <ele>1205</ele>
        <time>2018-07-01T11:35:39Z</time>
      </trkpt>
      <trkpt lat="45.33815" lon="6.0475">
        <ele>1205</ele>
        <time>2018-07-01T11:35:43Z</time>
      </trkpt>
      <trkpt lat="45.33819" lon="6.04754">
        <ele>1206</ele>
        <time>2018-07-01T11:35:47Z</time>
      </trkpt>
      <trkpt lat="45.33825" lon="6.04752">
        <ele>1206</ele>
        <time>2018-07-01T11:35:51Z</time>
      </trkpt>
      <trkpt lat="45.3383" lon="6.04755">
        <ele>1207</ele>
        <time>2018-07-01T11:35:54Z</time>
      </trkpt>
      <trkpt lat="45.33836" lon="6.04759">
        <ele>1209</ele>
        <time>2018-07-01T11:35:57Z</time>
      </trkpt>
      <trkpt lat="45.3384" lon="6.04764">
        <ele>1211</ele>
        <time>2018-07-01T11:36:00Z</time>
      </trkpt>
      <trkpt lat="45.33844" lon="6.0477">
        <ele>1213</ele>
        <time>2018-07-01T11:36:03Z</time>
      </trkpt>
      <trkpt lat="45.33849" lon="6.04773">
        <ele>1214</ele>
        <time>2018-07-01T11:36:06Z</time>
      </trkpt>
      <trkpt lat="45.33854" lon="6.04775">
        <ele>1215</ele>
        <time>2018-07-01T11:36:09Z</time>
      </trkpt>
      <trkpt lat="45.33858" lon="6.0478">
        <ele>1216</ele>
        <time>2018-07-01T11:36:12Z</time>
      </trkpt>
      <trkpt lat="45.33862" lon="6.04786">
        <ele>1217</ele>
        <time>2018-07-01T11:36:15Z</time>
      </trkpt>
      <trkpt lat="45.33866" lon="6.04794">
        <ele>1220</ele>
        <time>2018-07-01T11:36:18Z</time>
      </trkpt>
      <trkpt lat="45.33867" lon="6.048">
        <ele>1221</ele>
        <time>2018-07-01T11:36:19Z</time>
      </trkpt>
      <trkpt lat="45.33867" lon="6.04808">
        <ele>1224</ele>
        <time>2018-07-01T11:36:21Z</time>
      </trkpt>
      <trkpt lat="45.33872" lon="6.04813">
        <ele>1226</ele>
        <time>2018-07-01T11:36:24Z</time>
      </trkpt>
      <trkpt lat="45.33877" lon="6.04813">
        <ele>1225</ele>
        <time>2018-07-01T11:36:27Z</time>
      </trkpt>
      <trkpt lat="45.33882" lon="6.04815">
        <ele>1225</ele>
        <time>2018-07-01T11:36:30Z</time>
      </trkpt>
      <trkpt lat="45.33886" lon="6.04821">
        <ele>1226</ele>
        <time>2018-07-01T11:36:33Z</time>
      </trkpt>
      <trkpt lat="45.33891" lon="6.04825">
        <ele>1227</ele>
        <time>2018-07-01T11:36:36Z</time>
      </trkpt>
      <trkpt lat="45.33896" lon="6.04826">
        <ele>1226</ele>
        <time>2018-07-01T11:36:40Z</time>
      </trkpt>
      <trkpt lat="45.33902" lon="6.04828">
        <ele>1226</ele>
        <time>2018-07-01T11:36:44Z</time>
      </trkpt>
      <trkpt lat="45.33908" lon="6.04832">
        <ele>1227</ele>
        <time>2018-07-01T11:36:47Z</time>
      </trkpt>
      <trkpt lat="45.33913" lon="6.04831">
        <ele>1225</ele>
        <time>2018-07-01T11:36:50Z</time>
      </trkpt>
      <trkpt lat="45.33916" lon="6.04837">
        <ele>1227</ele>
        <time>2018-07-01T11:36:53Z</time>
      </trkpt>
      <trkpt lat="45.33918" lon="6.04844">
        <ele>1229</ele>
        <time>2018-07-01T11:36:56Z</time>
      </trkpt>
      <trkpt lat="45.33921" lon="6.04851">
        <ele>1230</ele>
        <time>2018-07-01T11:36:59Z</time>
      </trkpt>
      <trkpt lat="45.33924" lon="6.04858">
        <ele>1232</ele>
        <time>2018-07-01T11:37:02Z</time>
      </trkpt>
      <trkpt lat="45.33926" lon="6.04865">
        <ele>1234</ele>
        <time>2018-07-01T11:37:06Z</time>
      </trkpt>
      <trkpt lat="45.33928" lon="6.04873">
        <ele>1235</ele>
        <time>2018-07-01T11:37:09Z</time>
      </trkpt>
      <trkpt lat="45.33931" lon="6.04878">
        <ele>1236</ele>
        <time>2018-07-01T11:37:11Z</time>
      </trkpt>
      <trkpt lat="45.33935" lon="6.04884">
        <ele>1236</ele>
        <time>2018-07-01T11:37:13Z</time>
      </trkpt>
      <trkpt lat="45.33936" lon="6.0489">
        <ele>1238</ele>
        <time>2018-07-01T11:37:15Z</time>
      </trkpt>
      <trkpt lat="45.33938" lon="6.04897">
        <ele>1239</ele>
        <time>2018-07-01T11:37:17Z</time>
      </trkpt>
      <trkpt lat="45.33942" lon="6.04903">
        <ele>1239</ele>
        <time>2018-07-01T11:37:20Z</time>
      </trkpt>
      <trkpt lat="45.33946" lon="6.04908">
        <ele>1239</ele>
        <time>2018-07-01T11:37:23Z</time>
      </trkpt>
      <trkpt lat="45.3395" lon="6.04911">
        <ele>1239</ele>
        <time>2018-07-01T11:37:27Z</time>
      </trkpt>
      <trkpt lat="45.33953" lon="6.04919">
        <ele>1240</ele>
        <time>2018-07-01T11:37:31Z</time>
      </trkpt>
      <trkpt lat="45.33955" lon="6.04926">
        <ele>1241</ele>
        <time>2018-07-01T11:37:34Z</time>
      </trkpt>
      <trkpt lat="45.33958" lon="6.04933">
        <ele>1241</ele>
        <time>2018-07-01T11:37:37Z</time>
      </trkpt>
      <trkpt lat="45.33962" lon="6.0494">
        <ele>1241</ele>
        <time>2018-07-01T11:37:40Z</time>
      </trkpt>
      <trkpt lat="45.33968" lon="6.04944">
        <ele>1240</ele>
        <time>2018-07-01T11:37:43Z</time>
      </trkpt>
      <trkpt lat="45.33974" lon="6.04945">
        <ele>1238</ele>
        <time>2018-07-01T11:37:46Z</time>
      </trkpt>
      <trkpt lat="45.33977" lon="6.04951">
        <ele>1238</ele>
        <time>2018-07-01T11:37:49Z</time>
      </trkpt>
      <trkpt lat="45.3398" lon="6.04956">
        <ele>1238</ele>
        <time>2018-07-01T11:37:51Z</time>
      </trkpt>
      <trkpt lat="45.33984" lon="6.04963">
        <ele>1238</ele>
        <time>2018-07-01T11:37:54Z</time>
      </trkpt>
      <trkpt lat="45.33985" lon="6.0497">
        <ele>1239</ele>
        <time>2018-07-01T11:37:57Z</time>
      </trkpt>
      <trkpt lat="45.33987" lon="6.04977">
        <ele>1239</ele>
        <time>2018-07-01T11:38:01Z</time>
      </trkpt>
      <trkpt lat="45.33989" lon="6.04984">
        <ele>1240</ele>
        <time>2018-07-01T11:38:04Z</time>
      </trkpt>
      <trkpt lat="45.33991" lon="6.0499">
        <ele>1241</ele>
        <time>2018-07-01T11:38:07Z</time>
      </trkpt>
      <trkpt lat="45.33994" lon="6.04996">
        <ele>1240</ele>
        <time>2018-07-01T11:38:10Z</time>
      </trkpt>
      <trkpt lat="45.33997" lon="6.05002">
        <ele>1240</ele>
        <time>2018-07-01T11:38:13Z</time>
      </trkpt>
      <trkpt lat="45.33998" lon="6.0501">
        <ele>1241</ele>
        <time>2018-07-01T11:38:16Z</time>
      </trkpt>
      <trkpt lat="45.34" lon="6.05016">
        <ele>1242</ele>
        <time>2018-07-01T11:38:19Z</time>
      </trkpt>
      <trkpt lat="45.34004" lon="6.0502">
        <ele>1241</ele>
        <time>2018-07-01T11:38:22Z</time>
      </trkpt>
      <trkpt lat="45.34006" lon="6.05027">
        <ele>1241</ele>
        <time>2018-07-01T11:38:25Z</time>
      </trkpt>
      <trkpt lat="45.34009" lon="6.05034">
        <ele>1241</ele>
        <time>2018-07-01T11:38:28Z</time>
      </trkpt>
      <trkpt lat="45.34012" lon="6.05041">
        <ele>1241</ele>
        <time>2018-07-01T11:38:31Z</time>
      </trkpt>
      <trkpt lat="45.34015" lon="6.05048">
        <ele>1241</ele>
        <time>2018-07-01T11:38:34Z</time>
      </trkpt>
      <trkpt lat="45.34017" lon="6.05055">
        <ele>1241</ele>
        <time>2018-07-01T11:38:37Z</time>
      </trkpt>
      <trkpt lat="45.34019" lon="6.05061">
        <ele>1241</ele>
        <time>2018-07-01T11:38:40Z</time>
      </trkpt>
      <trkpt lat="45.3402" lon="6.05067">
        <ele>1242</ele>
        <time>2018-07-01T11:38:44Z</time>
      </trkpt>
      <trkpt lat="45.34021" lon="6.05073">
        <ele>1242</ele>
        <time>2018-07-01T11:38:47Z</time>
      </trkpt>
      <trkpt lat="45.34023" lon="6.05081">
        <ele>1242</ele>
        <time>2018-07-01T11:38:50Z</time>
      </trkpt>
      <trkpt lat="45.34023" lon="6.05089">
        <ele>1242</ele>
        <time>2018-07-01T11:38:53Z</time>
      </trkpt>
      <trkpt lat="45.34024" lon="6.05096">
        <ele>1242</ele>
        <time>2018-07-01T11:38:56Z</time>
      </trkpt>
      <trkpt lat="45.34027" lon="6.05102">
        <ele>1242</ele>
        <time>2018-07-01T11:38:59Z</time>
      </trkpt>
      <trkpt lat="45.34029" lon="6.05108">
        <ele>1241</ele>
        <time>2018-07-01T11:39:02Z</time>
      </trkpt>
      <trkpt lat="45.3403" lon="6.05115">
        <ele>1241</ele>
        <time>2018-07-01T11:39:05Z</time>
      </trkpt>
      <trkpt lat="45.34031" lon="6.05122">
        <ele>1241</ele>
        <time>2018-07-01T11:39:08Z</time>
      </trkpt>
      <trkpt lat="45.34031" lon="6.05129">
        <ele>1242</ele>
        <time>2018-07-01T11:39:11Z</time>
      </trkpt>
      <trkpt lat="45.34034" lon="6.05136">
        <ele>1241</ele>
        <time>2018-07-01T11:39:14Z</time>
      </trkpt>
      <trkpt lat="45.34037" lon="6.05143">
        <ele>1240</ele>
        <time>2018-07-01T11:39:17Z</time>
      </trkpt>
      <trkpt lat="45.34039" lon="6.05151">
        <ele>1239</ele>
        <time>2018-07-01T11:39:20Z</time>
      </trkpt>
      <trkpt lat="45.34039" lon="6.05159">
        <ele>1239</ele>
        <time>2018-07-01T11:39:23Z</time>
      </trkpt>
      <trkpt lat="45.34039" lon="6.05169">
        <ele>1239</ele>
        <time>2018-07-01T11:39:26Z</time>
      </trkpt>
      <trkpt lat="45.34037" lon="6.05177">
        <ele>1240</ele>
        <time>2018-07-01T11:39:29Z</time>
      </trkpt>
      <trkpt lat="45.34034" lon="6.05184">
        <ele>1241</ele>
        <time>2018-07-01T11:39:32Z</time>
      </trkpt>
      <trkpt lat="45.34029" lon="6.05189">
        <ele>1243</ele>
        <time>2018-07-01T11:39:35Z</time>
      </trkpt>
      <trkpt lat="45.34024" lon="6.0519">
        <ele>1245</ele>
        <time>2018-07-01T11:39:38Z</time>
      </trkpt>
      <trkpt lat="45.34019" lon="6.05186">
        <ele>1247</ele>
        <time>2018-07-01T11:39:41Z</time>
      </trkpt>
      <trkpt lat="45.34019" lon="6.05179">
        <ele>1247</ele>
        <time>2018-07-01T11:39:48Z</time>
      </trkpt>
      <trkpt lat="45.34018" lon="6.05182">
        <ele>1248</ele>
        <time>2018-07-01T11:40:09Z</time>
      </trkpt>
      <trkpt lat="45.34018" lon="6.05182">
        <ele>1248</ele>
        <time>2018-07-01T11:40:12Z</time>
      </trkpt>
      <trkpt lat="45.34018" lon="6.05182">
        <ele>1248</ele>
        <time>2018-07-01T11:40:57Z</time>
      </trkpt>
      <trkpt lat="45.34018" lon="6.05182">
        <ele>1248</ele>
        <time>2018-07-01T11:41:29Z</time>
      </trkpt>
      <trkpt lat="45.34018" lon="6.05182">
        <ele>1248</ele>
        <time>2018-07-01T11:41:31Z</time>
      </trkpt>
      <trkpt lat="45.34018" lon="6.05182">
        <ele>1248</ele>
        <time>2018-07-01T11:41:45Z</time>
      </trkpt>
      <trkpt lat="45.34018" lon="6.05182">
        <ele>1248</ele>
        <time>2018-07-01T11:41:48Z</time>
      </trkpt>
      <trkpt lat="45.34018" lon="6.05182">
        <ele>1248</ele>
        <time>2018-07-01T11:42:03Z</time>
      </trkpt>
      <trkpt lat="45.34019" lon="6.05182">
        <ele>1247</ele>
        <time>2018-07-01T11:42:31Z</time>
      </trkpt>
      <trkpt lat="45.34022" lon="6.05176">
        <ele>1246</ele>
        <time>2018-07-01T11:42:51Z</time>
      </trkpt>
      <trkpt lat="45.34022" lon="6.05168">
        <ele>1246</ele>
        <time>2018-07-01T11:42:55Z</time>
      </trkpt>
      <trkpt lat="45.34021" lon="6.05161">
        <ele>1247</ele>
        <time>2018-07-01T11:42:58Z</time>
      </trkpt>
      <trkpt lat="45.3402" lon="6.05153">
        <ele>1248</ele>
        <time>2018-07-01T11:43:02Z</time>
      </trkpt>
      <trkpt lat="45.34019" lon="6.05145">
        <ele>1248</ele>
        <time>2018-07-01T11:43:06Z</time>
      </trkpt>
      <trkpt lat="45.34019" lon="6.05138">
        <ele>1248</ele>
        <time>2018-07-01T11:43:09Z</time>
      </trkpt>
      <trkpt lat="45.34018" lon="6.05131">
        <ele>1248</ele>
        <time>2018-07-01T11:43:12Z</time>
      </trkpt>
      <trkpt lat="45.34018" lon="6.05125">
        <ele>1247</ele>
        <time>2018-07-01T11:43:15Z</time>
      </trkpt>
      <trkpt lat="45.34015" lon="6.05119">
        <ele>1248</ele>
        <time>2018-07-01T11:43:18Z</time>
      </trkpt>
      <trkpt lat="45.34013" lon="6.05113">
        <ele>1248</ele>
        <time>2018-07-01T11:43:21Z</time>
      </trkpt>
      <trkpt lat="45.34012" lon="6.05107">
        <ele>1248</ele>
        <time>2018-07-01T11:43:24Z</time>
      </trkpt>
      <trkpt lat="45.34011" lon="6.05101">
        <ele>1248</ele>
        <time>2018-07-01T11:43:27Z</time>
      </trkpt>
      <trkpt lat="45.34009" lon="6.05094">
        <ele>1249</ele>
        <time>2018-07-01T11:43:30Z</time>
      </trkpt>
      <trkpt lat="45.34007" lon="6.05086">
        <ele>1249</ele>
        <time>2018-07-01T11:43:34Z</time>
      </trkpt>
      <trkpt lat="45.34005" lon="6.0508">
        <ele>1249</ele>
        <time>2018-07-01T11:43:37Z</time>
      </trkpt>
      <trkpt lat="45.34002" lon="6.05074">
        <ele>1250</ele>
        <time>2018-07-01T11:43:40Z</time>
      </trkpt>
      <trkpt lat="45.33999" lon="6.05068">
        <ele>1251</ele>
        <time>2018-07-01T11:43:43Z</time>
      </trkpt>
      <trkpt lat="45.33995" lon="6.05063">
        <ele>1251</ele>
        <time>2018-07-01T11:43:46Z</time>
      </trkpt>
      <trkpt lat="45.33992" lon="6.05059">
        <ele>1252</ele>
        <time>2018-07-01T11:43:49Z</time>
      </trkpt>
      <trkpt lat="45.33989" lon="6.05051">
        <ele>1252</ele>
        <time>2018-07-01T11:43:53Z</time>
      </trkpt>
      <trkpt lat="45.33986" lon="6.05046">
        <ele>1252</ele>
        <time>2018-07-01T11:43:56Z</time>
      </trkpt>
      <trkpt lat="45.33983" lon="6.05041">
        <ele>1252</ele>
        <time>2018-07-01T11:43:59Z</time>
      </trkpt>
      <trkpt lat="45.33979" lon="6.05036">
        <ele>1253</ele>
        <time>2018-07-01T11:44:02Z</time>
      </trkpt>
      <trkpt lat="45.33975" lon="6.05031">
        <ele>1254</ele>
        <time>2018-07-01T11:44:05Z</time>
      </trkpt>
      <trkpt lat="45.33972" lon="6.05025">
        <ele>1254</ele>
        <time>2018-07-01T11:44:08Z</time>
      </trkpt>
      <trkpt lat="45.3397" lon="6.0502">
        <ele>1254</ele>
        <time>2018-07-01T11:44:11Z</time>
      </trkpt>
      <trkpt lat="45.33966" lon="6.05015">
        <ele>1255</ele>
        <time>2018-07-01T11:44:14Z</time>
      </trkpt>
      <trkpt lat="45.33963" lon="6.05009">
        <ele>1255</ele>
        <time>2018-07-01T11:44:18Z</time>
      </trkpt>
      <trkpt lat="45.33959" lon="6.05005">
        <ele>1256</ele>
        <time>2018-07-01T11:44:21Z</time>
      </trkpt>
      <trkpt lat="45.33955" lon="6.05002">
        <ele>1257</ele>
        <time>2018-07-01T11:44:24Z</time>
      </trkpt>
      <trkpt lat="45.3395" lon="6.04998">
        <ele>1258</ele>
        <time>2018-07-01T11:44:27Z</time>
      </trkpt>
      <trkpt lat="45.33946" lon="6.04992">
        <ele>1259</ele>
        <time>2018-07-01T11:44:30Z</time>
      </trkpt>
      <trkpt lat="45.33942" lon="6.04988">
        <ele>1259</ele>
        <time>2018-07-01T11:44:33Z</time>
      </trkpt>
      <trkpt lat="45.33937" lon="6.04985">
        <ele>1261</ele>
        <time>2018-07-01T11:44:36Z</time>
      </trkpt>
      <trkpt lat="45.33933" lon="6.04981">
        <ele>1261</ele>
        <time>2018-07-01T11:44:39Z</time>
      </trkpt>
      <trkpt lat="45.3393" lon="6.04975">
        <ele>1261</ele>
        <time>2018-07-01T11:44:42Z</time>
      </trkpt>
      <trkpt lat="45.33926" lon="6.0497">
        <ele>1262</ele>
        <time>2018-07-01T11:44:45Z</time>
      </trkpt>
      <trkpt lat="45.33921" lon="6.04966">
        <ele>1263</ele>
        <time>2018-07-01T11:44:48Z</time>
      </trkpt>
      <trkpt lat="45.33918" lon="6.04962">
        <ele>1263</ele>
        <time>2018-07-01T11:44:51Z</time>
      </trkpt>
      <trkpt lat="45.33914" lon="6.04958">
        <ele>1263</ele>
        <time>2018-07-01T11:44:54Z</time>
      </trkpt>
      <trkpt lat="45.3391" lon="6.04954">
        <ele>1263</ele>
        <time>2018-07-01T11:44:57Z</time>
      </trkpt>
      <trkpt lat="45.33906" lon="6.04951">
        <ele>1263</ele>
        <time>2018-07-01T11:45:00Z</time>
      </trkpt>
      <trkpt lat="45.33903" lon="6.04946">
        <ele>1263</ele>
        <time>2018-07-01T11:45:03Z</time>
      </trkpt>
      <trkpt lat="45.33899" lon="6.04942">
        <ele>1263</ele>
        <time>2018-07-01T11:45:06Z</time>
      </trkpt>
      <trkpt lat="45.33894" lon="6.04939">
        <ele>1264</ele>
        <time>2018-07-01T11:45:09Z</time>
      </trkpt>
      <trkpt lat="45.33889" lon="6.04937">
        <ele>1264</ele>
        <time>2018-07-01T11:45:12Z</time>
      </trkpt>
      <trkpt lat="45.33885" lon="6.04934">
        <ele>1265</ele>
        <time>2018-07-01T11:45:15Z</time>
      </trkpt>
      <trkpt lat="45.3388" lon="6.04932">
        <ele>1265</ele>
        <time>2018-07-01T11:45:20Z</time>
      </trkpt>
      <trkpt lat="45.33875" lon="6.04928">
        <ele>1265</ele>
        <time>2018-07-01T11:45:23Z</time>
      </trkpt>
      <trkpt lat="45.33871" lon="6.04926">
        <ele>1265</ele>
        <time>2018-07-01T11:45:25Z</time>
      </trkpt>
      <trkpt lat="45.33865" lon="6.04924">
        <ele>1266</ele>
        <time>2018-07-01T11:45:28Z</time>
      </trkpt>
      <trkpt lat="45.3386" lon="6.0492">
        <ele>1266</ele>
        <time>2018-07-01T11:45:31Z</time>
      </trkpt>
      <trkpt lat="45.33855" lon="6.04918">
        <ele>1267</ele>
        <time>2018-07-01T11:45:33Z</time>
      </trkpt>
      <trkpt lat="45.3385" lon="6.04916">
        <ele>1267</ele>
        <time>2018-07-01T11:45:36Z</time>
      </trkpt>
      <trkpt lat="45.33845" lon="6.04915">
        <ele>1266</ele>
        <time>2018-07-01T11:45:39Z</time>
      </trkpt>
      <trkpt lat="45.33839" lon="6.04914">
        <ele>1265</ele>
        <time>2018-07-01T11:45:42Z</time>
      </trkpt>
      <trkpt lat="45.33835" lon="6.04918">
        <ele>1266</ele>
        <time>2018-07-01T11:45:45Z</time>
      </trkpt>
      <trkpt lat="45.3383" lon="6.0492">
        <ele>1267</ele>
        <time>2018-07-01T11:45:50Z</time>
      </trkpt>
      <trkpt lat="45.33825" lon="6.04923">
        <ele>1268</ele>
        <time>2018-07-01T11:45:55Z</time>
      </trkpt>
      <trkpt lat="45.33818" lon="6.04925">
        <ele>1268</ele>
        <time>2018-07-01T11:46:00Z</time>
      </trkpt>
      <trkpt lat="45.33814" lon="6.04926">
        <ele>1269</ele>
        <time>2018-07-01T11:46:02Z</time>
      </trkpt>
      <trkpt lat="45.33809" lon="6.04925">
        <ele>1268</ele>
        <time>2018-07-01T11:46:04Z</time>
      </trkpt>
      <trkpt lat="45.33804" lon="6.04924">
        <ele>1267</ele>
        <time>2018-07-01T11:46:07Z</time>
      </trkpt>
      <trkpt lat="45.33798" lon="6.04922">
        <ele>1266</ele>
        <time>2018-07-01T11:46:10Z</time>
      </trkpt>
      <trkpt lat="45.33793" lon="6.04923">
        <ele>1267</ele>
        <time>2018-07-01T11:46:13Z</time>
      </trkpt>
      <trkpt lat="45.33788" lon="6.04926">
        <ele>1267</ele>
        <time>2018-07-01T11:46:16Z</time>
      </trkpt>
      <trkpt lat="45.33785" lon="6.04931">
        <ele>1269</ele>
        <time>2018-07-01T11:46:21Z</time>
      </trkpt>
      <trkpt lat="45.3378" lon="6.04934">
        <ele>1270</ele>
        <time>2018-07-01T11:46:25Z</time>
      </trkpt>
      <trkpt lat="45.3377" lon="6.04943">
        <ele>1273</ele>
        <time>2018-07-01T11:46:30Z</time>
      </trkpt>
      <trkpt lat="45.33764" lon="6.04943">
        <ele>1272</ele>
        <time>2018-07-01T11:46:33Z</time>
      </trkpt>
      <trkpt lat="45.33751" lon="6.04949">
        <ele>1273</ele>
        <time>2018-07-01T11:46:41Z</time>
      </trkpt>
      <trkpt lat="45.33748" lon="6.04955">
        <ele>1276</ele>
        <time>2018-07-01T11:46:44Z</time>
      </trkpt>
      <trkpt lat="45.33743" lon="6.04958">
        <ele>1276</ele>
        <time>2018-07-01T11:46:48Z</time>
      </trkpt>
      <trkpt lat="45.33738" lon="6.04962">
        <ele>1278</ele>
        <time>2018-07-01T11:46:52Z</time>
      </trkpt>
      <trkpt lat="45.33735" lon="6.04965">
        <ele>1279</ele>
        <time>2018-07-01T11:46:55Z</time>
      </trkpt>
      <trkpt lat="45.3373" lon="6.0497">
        <ele>1280</ele>
        <time>2018-07-01T11:46:58Z</time>
      </trkpt>
      <trkpt lat="45.33725" lon="6.04971">
        <ele>1280</ele>
        <time>2018-07-01T11:47:01Z</time>
      </trkpt>
      <trkpt lat="45.33721" lon="6.04975">
        <ele>1282</ele>
        <time>2018-07-01T11:47:04Z</time>
      </trkpt>
      <trkpt lat="45.33717" lon="6.0498">
        <ele>1284</ele>
        <time>2018-07-01T11:47:07Z</time>
      </trkpt>
      <trkpt lat="45.33712" lon="6.04984">
        <ele>1285</ele>
        <time>2018-07-01T11:47:10Z</time>
      </trkpt>
      <trkpt lat="45.33707" lon="6.04988">
        <ele>1286</ele>
        <time>2018-07-01T11:47:13Z</time>
      </trkpt>
      <trkpt lat="45.33703" lon="6.04991">
        <ele>1287</ele>
        <time>2018-07-01T11:47:16Z</time>
      </trkpt>
      <trkpt lat="45.33699" lon="6.04994">
        <ele>1289</ele>
        <time>2018-07-01T11:47:19Z</time>
      </trkpt>
      <trkpt lat="45.33694" lon="6.04997">
        <ele>1290</ele>
        <time>2018-07-01T11:47:22Z</time>
      </trkpt>
      <trkpt lat="45.3369" lon="6.05001">
        <ele>1291</ele>
        <time>2018-07-01T11:47:25Z</time>
      </trkpt>
      <trkpt lat="45.33686" lon="6.05004">
        <ele>1292</ele>
        <time>2018-07-01T11:47:28Z</time>
      </trkpt>
      <trkpt lat="45.3368" lon="6.05007">
        <ele>1293</ele>
        <time>2018-07-01T11:47:31Z</time>
      </trkpt>
      <trkpt lat="45.33675" lon="6.05009">
        <ele>1293</ele>
        <time>2018-07-01T11:47:34Z</time>
      </trkpt>
      <trkpt lat="45.3364" lon="6.05">
        <ele>1288</ele>
        <time>2018-07-01T11:47:54Z</time>
      </trkpt>
      <trkpt lat="45.33632" lon="6.04999">
        <ele>1288</ele>
        <time>2018-07-01T11:47:58Z</time>
      </trkpt>
      <trkpt lat="45.33622" lon="6.04996">
        <ele>1288</ele>
        <time>2018-07-01T11:48:04Z</time>
      </trkpt>
      <trkpt lat="45.33617" lon="6.04996">
        <ele>1288</ele>
        <time>2018-07-01T11:48:07Z</time>
      </trkpt>
      <trkpt lat="45.33612" lon="6.04995">
        <ele>1288</ele>
        <time>2018-07-01T11:48:11Z</time>
      </trkpt>
      <trkpt lat="45.33609" lon="6.04988">
        <ele>1285</ele>
        <time>2018-07-01T11:48:13Z</time>
      </trkpt>
      <trkpt lat="45.33605" lon="6.04983">
        <ele>1284</ele>
        <time>2018-07-01T11:48:15Z</time>
      </trkpt>
      <trkpt lat="45.336" lon="6.04988">
        <ele>1286</ele>
        <time>2018-07-01T11:48:18Z</time>
      </trkpt>
      <trkpt lat="45.33594" lon="6.04992">
        <ele>1287</ele>
        <time>2018-07-01T11:48:21Z</time>
      </trkpt>
      <trkpt lat="45.3359" lon="6.04996">
        <ele>1288</ele>
        <time>2018-07-01T11:48:23Z</time>
      </trkpt>
      <trkpt lat="45.33584" lon="6.04999">
        <ele>1290</ele>
        <time>2018-07-01T11:48:26Z</time>
      </trkpt>
      <trkpt lat="45.33579" lon="6.05004">
        <ele>1292</ele>
        <time>2018-07-01T11:48:29Z</time>
      </trkpt>
      <trkpt lat="45.33574" lon="6.05006">
        <ele>1293</ele>
        <time>2018-07-01T11:48:32Z</time>
      </trkpt>
      <trkpt lat="45.33569" lon="6.05009">
        <ele>1295</ele>
        <time>2018-07-01T11:48:36Z</time>
      </trkpt>
      <trkpt lat="45.33564" lon="6.05011">
        <ele>1297</ele>
        <time>2018-07-01T11:48:40Z</time>
      </trkpt>
      <trkpt lat="45.33558" lon="6.0501">
        <ele>1297</ele>
        <time>2018-07-01T11:48:44Z</time>
      </trkpt>
      <trkpt lat="45.33553" lon="6.05006">
        <ele>1297</ele>
        <time>2018-07-01T11:48:47Z</time>
      </trkpt>
      <trkpt lat="45.33548" lon="6.05003">
        <ele>1297</ele>
        <time>2018-07-01T11:48:50Z</time>
      </trkpt>
      <trkpt lat="45.33543" lon="6.05003">
        <ele>1298</ele>
        <time>2018-07-01T11:48:53Z</time>
      </trkpt>
      <trkpt lat="45.33539" lon="6.05">
        <ele>1298</ele>
        <time>2018-07-01T11:48:57Z</time>
      </trkpt>
      <trkpt lat="45.33532" lon="6.04996">
        <ele>1298</ele>
        <time>2018-07-01T11:49:01Z</time>
      </trkpt>
      <trkpt lat="45.33529" lon="6.05004">
        <ele>1301</ele>
        <time>2018-07-01T11:49:04Z</time>
      </trkpt>
      <trkpt lat="45.33524" lon="6.05009">
        <ele>1303</ele>
        <time>2018-07-01T11:49:08Z</time>
      </trkpt>
      <trkpt lat="45.3352" lon="6.05009">
        <ele>1304</ele>
        <time>2018-07-01T11:49:11Z</time>
      </trkpt>
      <trkpt lat="45.33513" lon="6.05006">
        <ele>1304</ele>
        <time>2018-07-01T11:49:14Z</time>
      </trkpt>
      <trkpt lat="45.33508" lon="6.05001">
        <ele>1304</ele>
        <time>2018-07-01T11:49:17Z</time>
      </trkpt>
      <trkpt lat="45.33505" lon="6.04995">
        <ele>1302</ele>
        <time>2018-07-01T11:49:22Z</time>
      </trkpt>
      <trkpt lat="45.33499" lon="6.0499">
        <ele>1302</ele>
        <time>2018-07-01T11:49:24Z</time>
      </trkpt>
      <trkpt lat="45.33494" lon="6.04989">
        <ele>1303</ele>
        <time>2018-07-01T11:49:26Z</time>
      </trkpt>
      <trkpt lat="45.33489" lon="6.04987">
        <ele>1303</ele>
        <time>2018-07-01T11:49:29Z</time>
      </trkpt>
      <trkpt lat="45.33483" lon="6.04987">
        <ele>1304</ele>
        <time>2018-07-01T11:49:32Z</time>
      </trkpt>
      <trkpt lat="45.33478" lon="6.04987">
        <ele>1306</ele>
        <time>2018-07-01T11:49:35Z</time>
      </trkpt>
      <trkpt lat="45.33472" lon="6.04986">
        <ele>1306</ele>
        <time>2018-07-01T11:49:39Z</time>
      </trkpt>
      <trkpt lat="45.33468" lon="6.04991">
        <ele>1309</ele>
        <time>2018-07-01T11:49:42Z</time>
      </trkpt>
      <trkpt lat="45.33464" lon="6.04994">
        <ele>1311</ele>
        <time>2018-07-01T11:49:45Z</time>
      </trkpt>
      <trkpt lat="45.33458" lon="6.04996">
        <ele>1313</ele>
        <time>2018-07-01T11:49:48Z</time>
      </trkpt>
      <trkpt lat="45.33454" lon="6.04993">
        <ele>1312</ele>
        <time>2018-07-01T11:49:50Z</time>
      </trkpt>
      <trkpt lat="45.33448" lon="6.04988">
        <ele>1312</ele>
        <time>2018-07-01T11:49:53Z</time>
      </trkpt>
      <trkpt lat="45.33444" lon="6.04984">
        <ele>1312</ele>
        <time>2018-07-01T11:49:56Z</time>
      </trkpt>
      <trkpt lat="45.3344" lon="6.04979">
        <ele>1311</ele>
        <time>2018-07-01T11:49:59Z</time>
      </trkpt>
      <trkpt lat="45.33437" lon="6.04974">
        <ele>1311</ele>
        <time>2018-07-01T11:50:02Z</time>
      </trkpt>
      <trkpt lat="45.33433" lon="6.04968">
        <ele>1310</ele>
        <time>2018-07-01T11:50:06Z</time>
      </trkpt>
      <trkpt lat="45.33428" lon="6.04966">
        <ele>1311</ele>
        <time>2018-07-01T11:50:09Z</time>
      </trkpt>
      <trkpt lat="45.33423" lon="6.04967">
        <ele>1313</ele>
        <time>2018-07-01T11:50:12Z</time>
      </trkpt>
      <trkpt lat="45.33418" lon="6.04967">
        <ele>1314</ele>
        <time>2018-07-01T11:50:15Z</time>
      </trkpt>
      <trkpt lat="45.33413" lon="6.04963">
        <ele>1314</ele>
        <time>2018-07-01T11:50:18Z</time>
      </trkpt>
      <trkpt lat="45.3341" lon="6.04957">
        <ele>1313</ele>
        <time>2018-07-01T11:50:20Z</time>
      </trkpt>
      <trkpt lat="45.33406" lon="6.04953">
        <ele>1313</ele>
        <time>2018-07-01T11:50:22Z</time>
      </trkpt>
      <trkpt lat="45.33402" lon="6.0495">
        <ele>1314</ele>
        <time>2018-07-01T11:50:24Z</time>
      </trkpt>
      <trkpt lat="45.33397" lon="6.04947">
        <ele>1314</ele>
        <time>2018-07-01T11:50:27Z</time>
      </trkpt>
      <trkpt lat="45.33393" lon="6.04943">
        <ele>1314</ele>
        <time>2018-07-01T11:50:30Z</time>
      </trkpt>
      <trkpt lat="45.33389" lon="6.0494">
        <ele>1315</ele>
        <time>2018-07-01T11:50:33Z</time>
      </trkpt>
      <trkpt lat="45.33386" lon="6.04934">
        <ele>1314</ele>
        <time>2018-07-01T11:50:36Z</time>
      </trkpt>
      <trkpt lat="45.33384" lon="6.04928">
        <ele>1313</ele>
        <time>2018-07-01T11:50:39Z</time>
      </trkpt>
      <trkpt lat="45.3338" lon="6.04924">
        <ele>1313</ele>
        <time>2018-07-01T11:50:42Z</time>
      </trkpt>
      <trkpt lat="45.33378" lon="6.04917">
        <ele>1312</ele>
        <time>2018-07-01T11:50:47Z</time>
      </trkpt>
      <trkpt lat="45.33373" lon="6.04915">
        <ele>1313</ele>
        <time>2018-07-01T11:50:50Z</time>
      </trkpt>
      <trkpt lat="45.33368" lon="6.04912">
        <ele>1313</ele>
        <time>2018-07-01T11:50:52Z</time>
      </trkpt>
      <trkpt lat="45.33361" lon="6.04911">
        <ele>1315</ele>
        <time>2018-07-01T11:50:55Z</time>
      </trkpt>
      <trkpt lat="45.33357" lon="6.0491">
        <ele>1316</ele>
        <time>2018-07-01T11:50:58Z</time>
      </trkpt>
      <trkpt lat="45.33352" lon="6.04905">
        <ele>1315</ele>
        <time>2018-07-01T11:51:01Z</time>
      </trkpt>
      <trkpt lat="45.33346" lon="6.04901">
        <ele>1316</ele>
        <time>2018-07-01T11:51:04Z</time>
      </trkpt>
      <trkpt lat="45.33341" lon="6.04895">
        <ele>1315</ele>
        <time>2018-07-01T11:51:07Z</time>
      </trkpt>
      <trkpt lat="45.33336" lon="6.04889">
        <ele>1315</ele>
        <time>2018-07-01T11:51:10Z</time>
      </trkpt>
      <trkpt lat="45.33331" lon="6.04883">
        <ele>1314</ele>
        <time>2018-07-01T11:51:13Z</time>
      </trkpt>
      <trkpt lat="45.33326" lon="6.04878">
        <ele>1314</ele>
        <time>2018-07-01T11:51:16Z</time>
      </trkpt>
      <trkpt lat="45.33321" lon="6.04875">
        <ele>1315</ele>
        <time>2018-07-01T11:51:19Z</time>
      </trkpt>
      <trkpt lat="45.33316" lon="6.04871">
        <ele>1315</ele>
        <time>2018-07-01T11:51:22Z</time>
      </trkpt>
      <trkpt lat="45.3331" lon="6.04868">
        <ele>1315</ele>
        <time>2018-07-01T11:51:25Z</time>
      </trkpt>
      <trkpt lat="45.33305" lon="6.04867">
        <ele>1316</ele>
        <time>2018-07-01T11:51:28Z</time>
      </trkpt>
      <trkpt lat="45.333" lon="6.04864">
        <ele>1316</ele>
        <time>2018-07-01T11:51:31Z</time>
      </trkpt>
      <trkpt lat="45.33294" lon="6.04864">
        <ele>1317</ele>
        <time>2018-07-01T11:51:34Z</time>
      </trkpt>
      <trkpt lat="45.33288" lon="6.04864">
        <ele>1318</ele>
        <time>2018-07-01T11:51:37Z</time>
      </trkpt>
      <trkpt lat="45.33283" lon="6.04863">
        <ele>1319</ele>
        <time>2018-07-01T11:51:40Z</time>
      </trkpt>
      <trkpt lat="45.33277" lon="6.04863">
        <ele>1320</ele>
        <time>2018-07-01T11:51:43Z</time>
      </trkpt>
      <trkpt lat="45.33271" lon="6.04865">
        <ele>1321</ele>
        <time>2018-07-01T11:51:46Z</time>
      </trkpt>
      <trkpt lat="45.33265" lon="6.04865">
        <ele>1322</ele>
        <time>2018-07-01T11:51:49Z</time>
      </trkpt>
      <trkpt lat="45.33259" lon="6.04863">
        <ele>1323</ele>
        <time>2018-07-01T11:51:52Z</time>
      </trkpt>
      <trkpt lat="45.33253" lon="6.04859">
        <ele>1323</ele>
        <time>2018-07-01T11:51:55Z</time>
      </trkpt>
      <trkpt lat="45.33249" lon="6.04855">
        <ele>1322</ele>
        <time>2018-07-01T11:51:57Z</time>
      </trkpt>
      <trkpt lat="45.33245" lon="6.04851">
        <ele>1322</ele>
        <time>2018-07-01T11:51:59Z</time>
      </trkpt>
      <trkpt lat="45.33239" lon="6.04849">
        <ele>1322</ele>
        <time>2018-07-01T11:52:02Z</time>
      </trkpt>
      <trkpt lat="45.33233" lon="6.04847">
        <ele>1323</ele>
        <time>2018-07-01T11:52:05Z</time>
      </trkpt>
      <trkpt lat="45.33226" lon="6.04845">
        <ele>1323</ele>
        <time>2018-07-01T11:52:08Z</time>
      </trkpt>
      <trkpt lat="45.33221" lon="6.04844">
        <ele>1323</ele>
        <time>2018-07-01T11:52:10Z</time>
      </trkpt>
      <trkpt lat="45.33217" lon="6.04842">
        <ele>1323</ele>
        <time>2018-07-01T11:52:12Z</time>
      </trkpt>
      <trkpt lat="45.3321" lon="6.04842">
        <ele>1323</ele>
        <time>2018-07-01T11:52:15Z</time>
      </trkpt>
      <trkpt lat="45.33204" lon="6.04842">
        <ele>1324</ele>
        <time>2018-07-01T11:52:18Z</time>
      </trkpt>
      <trkpt lat="45.33198" lon="6.04844">
        <ele>1325</ele>
        <time>2018-07-01T11:52:21Z</time>
      </trkpt>
      <trkpt lat="45.33194" lon="6.04849">
        <ele>1326</ele>
        <time>2018-07-01T11:52:24Z</time>
      </trkpt>
      <trkpt lat="45.33189" lon="6.04854">
        <ele>1328</ele>
        <time>2018-07-01T11:52:27Z</time>
      </trkpt>
      <trkpt lat="45.33184" lon="6.0486">
        <ele>1329</ele>
        <time>2018-07-01T11:52:30Z</time>
      </trkpt>
      <trkpt lat="45.33179" lon="6.04866">
        <ele>1331</ele>
        <time>2018-07-01T11:52:33Z</time>
      </trkpt>
      <trkpt lat="45.33175" lon="6.04873">
        <ele>1333</ele>
        <time>2018-07-01T11:52:36Z</time>
      </trkpt>
      <trkpt lat="45.33171" lon="6.04879">
        <ele>1334</ele>
        <time>2018-07-01T11:52:39Z</time>
      </trkpt>
      <trkpt lat="45.33167" lon="6.04882">
        <ele>1335</ele>
        <time>2018-07-01T11:52:42Z</time>
      </trkpt>
      <trkpt lat="45.33162" lon="6.04883">
        <ele>1336</ele>
        <time>2018-07-01T11:52:45Z</time>
      </trkpt>
      <trkpt lat="45.33157" lon="6.04886">
        <ele>1337</ele>
        <time>2018-07-01T11:52:48Z</time>
      </trkpt>
      <trkpt lat="45.33152" lon="6.04886">
        <ele>1338</ele>
        <time>2018-07-01T11:52:51Z</time>
      </trkpt>
      <trkpt lat="45.33147" lon="6.04886">
        <ele>1338</ele>
        <time>2018-07-01T11:52:54Z</time>
      </trkpt>
      <trkpt lat="45.33141" lon="6.04886">
        <ele>1339</ele>
        <time>2018-07-01T11:52:57Z</time>
      </trkpt>
      <trkpt lat="45.33136" lon="6.04889">
        <ele>1340</ele>
        <time>2018-07-01T11:53:00Z</time>
      </trkpt>
      <trkpt lat="45.33131" lon="6.04891">
        <ele>1341</ele>
        <time>2018-07-01T11:53:03Z</time>
      </trkpt>
      <trkpt lat="45.33126" lon="6.04891">
        <ele>1341</ele>
        <time>2018-07-01T11:53:06Z</time>
      </trkpt>
      <trkpt lat="45.33122" lon="6.04893">
        <ele>1343</ele>
        <time>2018-07-01T11:53:09Z</time>
      </trkpt>
      <trkpt lat="45.33115" lon="6.04892">
        <ele>1343</ele>
        <time>2018-07-01T11:53:13Z</time>
      </trkpt>
      <trkpt lat="45.33111" lon="6.0489">
        <ele>1343</ele>
        <time>2018-07-01T11:53:16Z</time>
      </trkpt>
      <trkpt lat="45.33106" lon="6.04892">
        <ele>1344</ele>
        <time>2018-07-01T11:53:20Z</time>
      </trkpt>
      <trkpt lat="45.33101" lon="6.04892">
        <ele>1344</ele>
        <time>2018-07-01T11:53:24Z</time>
      </trkpt>
      <trkpt lat="45.33095" lon="6.0489">
        <ele>1345</ele>
        <time>2018-07-01T11:53:28Z</time>
      </trkpt>
      <trkpt lat="45.3309" lon="6.04887">
        <ele>1345</ele>
        <time>2018-07-01T11:53:31Z</time>
      </trkpt>
      <trkpt lat="45.33085" lon="6.04885">
        <ele>1346</ele>
        <time>2018-07-01T11:53:34Z</time>
      </trkpt>
      <trkpt lat="45.3308" lon="6.04879">
        <ele>1346</ele>
        <time>2018-07-01T11:53:37Z</time>
      </trkpt>
      <trkpt lat="45.33075" lon="6.04876">
        <ele>1347</ele>
        <time>2018-07-01T11:53:47Z</time>
      </trkpt>
      <trkpt lat="45.33069" lon="6.04872">
        <ele>1347</ele>
        <time>2018-07-01T11:53:50Z</time>
      </trkpt>
      <trkpt lat="45.33065" lon="6.04868">
        <ele>1347</ele>
        <time>2018-07-01T11:53:52Z</time>
      </trkpt>
      <trkpt lat="45.3306" lon="6.04863">
        <ele>1347</ele>
        <time>2018-07-01T11:53:55Z</time>
      </trkpt>
      <trkpt lat="45.33054" lon="6.04864">
        <ele>1349</ele>
        <time>2018-07-01T11:53:58Z</time>
      </trkpt>
      <trkpt lat="45.3305" lon="6.04869">
        <ele>1351</ele>
        <time>2018-07-01T11:54:01Z</time>
      </trkpt>
      <trkpt lat="45.33045" lon="6.04873">
        <ele>1354</ele>
        <time>2018-07-01T11:54:04Z</time>
      </trkpt>
      <trkpt lat="45.33043" lon="6.0488">
        <ele>1356</ele>
        <time>2018-07-01T11:54:07Z</time>
      </trkpt>
      <trkpt lat="45.33045" lon="6.04887">
        <ele>1357</ele>
        <time>2018-07-01T11:54:10Z</time>
      </trkpt>
      <trkpt lat="45.33049" lon="6.04891">
        <ele>1357</ele>
        <time>2018-07-01T11:54:14Z</time>
      </trkpt>
      <trkpt lat="45.33053" lon="6.04895">
        <ele>1357</ele>
        <time>2018-07-01T11:54:17Z</time>
      </trkpt>
      <trkpt lat="45.33057" lon="6.049">
        <ele>1357</ele>
        <time>2018-07-01T11:54:20Z</time>
      </trkpt>
      <trkpt lat="45.33061" lon="6.04904">
        <ele>1357</ele>
        <time>2018-07-01T11:54:23Z</time>
      </trkpt>
      <trkpt lat="45.33065" lon="6.04909">
        <ele>1357</ele>
        <time>2018-07-01T11:54:26Z</time>
      </trkpt>
      <trkpt lat="45.3307" lon="6.04912">
        <ele>1357</ele>
        <time>2018-07-01T11:54:30Z</time>
      </trkpt>
      <trkpt lat="45.33075" lon="6.04915">
        <ele>1356</ele>
        <time>2018-07-01T11:54:34Z</time>
      </trkpt>
      <trkpt lat="45.3308" lon="6.04919">
        <ele>1356</ele>
        <time>2018-07-01T11:54:37Z</time>
      </trkpt>
      <trkpt lat="45.33084" lon="6.04926">
        <ele>1356</ele>
        <time>2018-07-01T11:54:41Z</time>
      </trkpt>
      <trkpt lat="45.33086" lon="6.04933">
        <ele>1358</ele>
        <time>2018-07-01T11:54:44Z</time>
      </trkpt>
      <trkpt lat="45.33089" lon="6.04939">
        <ele>1359</ele>
        <time>2018-07-01T11:54:48Z</time>
      </trkpt>
      <trkpt lat="45.33091" lon="6.04945">
        <ele>1360</ele>
        <time>2018-07-01T11:54:53Z</time>
      </trkpt>
      <trkpt lat="45.33094" lon="6.0495">
        <ele>1361</ele>
        <time>2018-07-01T11:54:57Z</time>
      </trkpt>
      <trkpt lat="45.33099" lon="6.04953">
        <ele>1361</ele>
        <time>2018-07-01T11:55:00Z</time>
      </trkpt>
      <trkpt lat="45.33105" lon="6.04955">
        <ele>1360</ele>
        <time>2018-07-01T11:55:03Z</time>
      </trkpt>
      <trkpt lat="45.33112" lon="6.04956">
        <ele>1360</ele>
        <time>2018-07-01T11:55:06Z</time>
      </trkpt>
      <trkpt lat="45.33117" lon="6.04957">
        <ele>1360</ele>
        <time>2018-07-01T11:55:09Z</time>
      </trkpt>
      <trkpt lat="45.33122" lon="6.0496">
        <ele>1360</ele>
        <time>2018-07-01T11:55:12Z</time>
      </trkpt>
      <trkpt lat="45.33127" lon="6.04962">
        <ele>1360</ele>
        <time>2018-07-01T11:55:15Z</time>
      </trkpt>
      <trkpt lat="45.33132" lon="6.04963">
        <ele>1360</ele>
        <time>2018-07-01T11:55:18Z</time>
      </trkpt>
      <trkpt lat="45.33137" lon="6.04962">
        <ele>1359</ele>
        <time>2018-07-01T11:55:21Z</time>
      </trkpt>
      <trkpt lat="45.33142" lon="6.04961">
        <ele>1358</ele>
        <time>2018-07-01T11:55:24Z</time>
      </trkpt>
      <trkpt lat="45.33147" lon="6.04961">
        <ele>1358</ele>
        <time>2018-07-01T11:55:27Z</time>
      </trkpt>
      <trkpt lat="45.33152" lon="6.0496">
        <ele>1357</ele>
        <time>2018-07-01T11:55:30Z</time>
      </trkpt>
      <trkpt lat="45.33158" lon="6.04959">
        <ele>1356</ele>
        <time>2018-07-01T11:55:33Z</time>
      </trkpt>
      <trkpt lat="45.33162" lon="6.04959">
        <ele>1356</ele>
        <time>2018-07-01T11:55:36Z</time>
      </trkpt>
      <trkpt lat="45.33168" lon="6.04959">
        <ele>1355</ele>
        <time>2018-07-01T11:55:39Z</time>
      </trkpt>
      <trkpt lat="45.33173" lon="6.04957">
        <ele>1354</ele>
        <time>2018-07-01T11:55:42Z</time>
      </trkpt>
      <trkpt lat="45.33179" lon="6.04959">
        <ele>1354</ele>
        <time>2018-07-01T11:55:45Z</time>
      </trkpt>
      <trkpt lat="45.33185" lon="6.0496">
        <ele>1354</ele>
        <time>2018-07-01T11:55:48Z</time>
      </trkpt>
      <trkpt lat="45.33193" lon="6.04961">
        <ele>1354</ele>
        <time>2018-07-01T11:55:52Z</time>
      </trkpt>
      <trkpt lat="45.33198" lon="6.04964">
        <ele>1354</ele>
        <time>2018-07-01T11:55:55Z</time>
      </trkpt>
      <trkpt lat="45.33201" lon="6.04969">
        <ele>1356</ele>
        <time>2018-07-01T11:55:58Z</time>
      </trkpt>
      <trkpt lat="45.33204" lon="6.04976">
        <ele>1357</ele>
        <time>2018-07-01T11:56:01Z</time>
      </trkpt>
      <trkpt lat="45.33205" lon="6.04984">
        <ele>1359</ele>
        <time>2018-07-01T11:56:04Z</time>
      </trkpt>
      <trkpt lat="45.33205" lon="6.04991">
        <ele>1361</ele>
        <time>2018-07-01T11:56:07Z</time>
      </trkpt>
      <trkpt lat="45.33202" lon="6.04998">
        <ele>1364</ele>
        <time>2018-07-01T11:56:10Z</time>
      </trkpt>
      <trkpt lat="45.33199" lon="6.05002">
        <ele>1365</ele>
        <time>2018-07-01T11:56:13Z</time>
      </trkpt>
      <trkpt lat="45.33194" lon="6.05004">
        <ele>1366</ele>
        <time>2018-07-01T11:56:16Z</time>
      </trkpt>
      <trkpt lat="45.33189" lon="6.05005">
        <ele>1367</ele>
        <time>2018-07-01T11:56:19Z</time>
      </trkpt>
      <trkpt lat="45.33184" lon="6.05004">
        <ele>1367</ele>
        <time>2018-07-01T11:56:23Z</time>
      </trkpt>
      <trkpt lat="45.33178" lon="6.05002">
        <ele>1368</ele>
        <time>2018-07-01T11:56:27Z</time>
      </trkpt>
      <trkpt lat="45.33173" lon="6.05004">
        <ele>1369</ele>
        <time>2018-07-01T11:56:31Z</time>
      </trkpt>
      <trkpt lat="45.33168" lon="6.05006">
        <ele>1370</ele>
        <time>2018-07-01T11:56:35Z</time>
      </trkpt>
      <trkpt lat="45.33163" lon="6.05004">
        <ele>1370</ele>
        <time>2018-07-01T11:56:38Z</time>
      </trkpt>
      <trkpt lat="45.33159" lon="6.05">
        <ele>1369</ele>
        <time>2018-07-01T11:56:41Z</time>
      </trkpt>
      <trkpt lat="45.33154" lon="6.04999">
        <ele>1369</ele>
        <time>2018-07-01T11:56:44Z</time>
      </trkpt>
      <trkpt lat="45.33149" lon="6.04996">
        <ele>1369</ele>
        <time>2018-07-01T11:56:47Z</time>
      </trkpt>
      <trkpt lat="45.33144" lon="6.04993">
        <ele>1368</ele>
        <time>2018-07-01T11:56:50Z</time>
      </trkpt>
      <trkpt lat="45.33138" lon="6.0499">
        <ele>1368</ele>
        <time>2018-07-01T11:56:54Z</time>
      </trkpt>
      <trkpt lat="45.33133" lon="6.04992">
        <ele>1369</ele>
        <time>2018-07-01T11:56:58Z</time>
      </trkpt>
      <trkpt lat="45.33128" lon="6.04994">
        <ele>1370</ele>
        <time>2018-07-01T11:57:01Z</time>
      </trkpt>
      <trkpt lat="45.33123" lon="6.04994">
        <ele>1370</ele>
        <time>2018-07-01T11:57:04Z</time>
      </trkpt>
      <trkpt lat="45.33118" lon="6.04996">
        <ele>1371</ele>
        <time>2018-07-01T11:57:07Z</time>
      </trkpt>
      <trkpt lat="45.33113" lon="6.04993">
        <ele>1371</ele>
        <time>2018-07-01T11:57:10Z</time>
      </trkpt>
      <trkpt lat="45.33108" lon="6.04993">
        <ele>1371</ele>
        <time>2018-07-01T11:57:13Z</time>
      </trkpt>
      <trkpt lat="45.33102" lon="6.04999">
        <ele>1374</ele>
        <time>2018-07-01T11:57:17Z</time>
      </trkpt>
      <trkpt lat="45.33097" lon="6.05002">
        <ele>1375</ele>
        <time>2018-07-01T11:57:20Z</time>
      </trkpt>
      <trkpt lat="45.33092" lon="6.05006">
        <ele>1377</ele>
        <time>2018-07-01T11:57:23Z</time>
      </trkpt>
      <trkpt lat="45.33087" lon="6.05007">
        <ele>1378</ele>
        <time>2018-07-01T11:57:26Z</time>
      </trkpt>
      <trkpt lat="45.33082" lon="6.05003">
        <ele>1379</ele>
        <time>2018-07-01T11:57:30Z</time>
      </trkpt>
      <trkpt lat="45.33077" lon="6.05004">
        <ele>1380</ele>
        <time>2018-07-01T11:57:33Z</time>
      </trkpt>
      <trkpt lat="45.33072" lon="6.05005">
        <ele>1381</ele>
        <time>2018-07-01T11:57:36Z</time>
      </trkpt>
      <trkpt lat="45.33066" lon="6.05006">
        <ele>1383</ele>
        <time>2018-07-01T11:57:39Z</time>
      </trkpt>
      <trkpt lat="45.33061" lon="6.05003">
        <ele>1383</ele>
        <time>2018-07-01T11:57:43Z</time>
      </trkpt>
      <trkpt lat="45.33057" lon="6.04996">
        <ele>1382</ele>
        <time>2018-07-01T11:57:46Z</time>
      </trkpt>
      <trkpt lat="45.33052" lon="6.04993">
        <ele>1382</ele>
        <time>2018-07-01T11:57:49Z</time>
      </trkpt>
      <trkpt lat="45.33048" lon="6.04989">
        <ele>1382</ele>
        <time>2018-07-01T11:57:52Z</time>
      </trkpt>
      <trkpt lat="45.33043" lon="6.04987">
        <ele>1383</ele>
        <time>2018-07-01T11:57:55Z</time>
      </trkpt>
      <trkpt lat="45.33037" lon="6.04986">
        <ele>1384</ele>
        <time>2018-07-01T11:57:58Z</time>
      </trkpt>
      <trkpt lat="45.33031" lon="6.04984">
        <ele>1385</ele>
        <time>2018-07-01T11:58:01Z</time>
      </trkpt>
      <trkpt lat="45.33025" lon="6.04982">
        <ele>1386</ele>
        <time>2018-07-01T11:58:04Z</time>
      </trkpt>
      <trkpt lat="45.3302" lon="6.04979">
        <ele>1387</ele>
        <time>2018-07-01T11:58:07Z</time>
      </trkpt>
      <trkpt lat="45.33016" lon="6.04975">
        <ele>1388</ele>
        <time>2018-07-01T11:58:10Z</time>
      </trkpt>
      <trkpt lat="45.3301" lon="6.04968">
        <ele>1388</ele>
        <time>2018-07-01T11:58:13Z</time>
      </trkpt>
      <trkpt lat="45.33007" lon="6.04964">
        <ele>1388</ele>
        <time>2018-07-01T11:58:15Z</time>
      </trkpt>
      <trkpt lat="45.33004" lon="6.04958">
        <ele>1388</ele>
        <time>2018-07-01T11:58:17Z</time>
      </trkpt>
      <trkpt lat="45.32999" lon="6.04952">
        <ele>1388</ele>
        <time>2018-07-01T11:58:20Z</time>
      </trkpt>
      <trkpt lat="45.32995" lon="6.04946">
        <ele>1388</ele>
        <time>2018-07-01T11:58:24Z</time>
      </trkpt>
      <trkpt lat="45.3299" lon="6.04941">
        <ele>1389</ele>
        <time>2018-07-01T11:58:26Z</time>
      </trkpt>
      <trkpt lat="45.32986" lon="6.04936">
        <ele>1389</ele>
        <time>2018-07-01T11:58:28Z</time>
      </trkpt>
      <trkpt lat="45.32982" lon="6.04931">
        <ele>1390</ele>
        <time>2018-07-01T11:58:30Z</time>
      </trkpt>
      <trkpt lat="45.32979" lon="6.04925">
        <ele>1390</ele>
        <time>2018-07-01T11:58:32Z</time>
      </trkpt>
      <trkpt lat="45.32976" lon="6.0492">
        <ele>1390</ele>
        <time>2018-07-01T11:58:34Z</time>
      </trkpt>
      <trkpt lat="45.32972" lon="6.04915">
        <ele>1390</ele>
        <time>2018-07-01T11:58:36Z</time>
      </trkpt>
      <trkpt lat="45.32967" lon="6.04909">
        <ele>1391</ele>
        <time>2018-07-01T11:58:39Z</time>
      </trkpt>
      <trkpt lat="45.32964" lon="6.04906">
        <ele>1392</ele>
        <time>2018-07-01T11:58:41Z</time>
      </trkpt>
      <trkpt lat="45.3296" lon="6.04901">
        <ele>1392</ele>
        <time>2018-07-01T11:58:43Z</time>
      </trkpt>
      <trkpt lat="45.32956" lon="6.04896">
        <ele>1393</ele>
        <time>2018-07-01T11:58:45Z</time>
      </trkpt>
      <trkpt lat="45.32953" lon="6.0489">
        <ele>1393</ele>
        <time>2018-07-01T11:58:47Z</time>
      </trkpt>
      <trkpt lat="45.3295" lon="6.04884">
        <ele>1394</ele>
        <time>2018-07-01T11:58:49Z</time>
      </trkpt>
      <trkpt lat="45.32947" lon="6.04879">
        <ele>1394</ele>
        <time>2018-07-01T11:58:51Z</time>
      </trkpt>
      <trkpt lat="45.32943" lon="6.04872">
        <ele>1395</ele>
        <time>2018-07-01T11:58:54Z</time>
      </trkpt>
      <trkpt lat="45.32941" lon="6.04865">
        <ele>1394</ele>
        <time>2018-07-01T11:58:57Z</time>
      </trkpt>
      <trkpt lat="45.3294" lon="6.04857">
        <ele>1393</ele>
        <time>2018-07-01T11:59:00Z</time>
      </trkpt>
      <trkpt lat="45.3294" lon="6.04851">
        <ele>1392</ele>
        <time>2018-07-01T11:59:03Z</time>
      </trkpt>
      <trkpt lat="45.32937" lon="6.04843">
        <ele>1392</ele>
        <time>2018-07-01T11:59:07Z</time>
      </trkpt>
      <trkpt lat="45.32934" lon="6.04836">
        <ele>1392</ele>
        <time>2018-07-01T11:59:10Z</time>
      </trkpt>
      <trkpt lat="45.32933" lon="6.0483">
        <ele>1392</ele>
        <time>2018-07-01T11:59:13Z</time>
      </trkpt>
      <trkpt lat="45.32932" lon="6.04822">
        <ele>1391</ele>
        <time>2018-07-01T11:59:16Z</time>
      </trkpt>
      <trkpt lat="45.32929" lon="6.04815">
        <ele>1391</ele>
        <time>2018-07-01T11:59:19Z</time>
      </trkpt>
      <trkpt lat="45.32925" lon="6.04808">
        <ele>1391</ele>
        <time>2018-07-01T11:59:22Z</time>
      </trkpt>
      <trkpt lat="45.32922" lon="6.048">
        <ele>1391</ele>
        <time>2018-07-01T11:59:25Z</time>
      </trkpt>
      <trkpt lat="45.32918" lon="6.04793">
        <ele>1392</ele>
        <time>2018-07-01T11:59:28Z</time>
      </trkpt>
      <trkpt lat="45.32914" lon="6.04785">
        <ele>1392</ele>
        <time>2018-07-01T11:59:31Z</time>
      </trkpt>
      <trkpt lat="45.32911" lon="6.04778">
        <ele>1392</ele>
        <time>2018-07-01T11:59:34Z</time>
      </trkpt>
      <trkpt lat="45.32906" lon="6.04771">
        <ele>1393</ele>
        <time>2018-07-01T11:59:37Z</time>
      </trkpt>
      <trkpt lat="45.32902" lon="6.04765">
        <ele>1393</ele>
        <time>2018-07-01T11:59:40Z</time>
      </trkpt>
      <trkpt lat="45.32896" lon="6.04761">
        <ele>1395</ele>
        <time>2018-07-01T11:59:43Z</time>
      </trkpt>
      <trkpt lat="45.32892" lon="6.04755">
        <ele>1396</ele>
        <time>2018-07-01T11:59:46Z</time>
      </trkpt>
      <trkpt lat="45.32887" lon="6.04749">
        <ele>1397</ele>
        <time>2018-07-01T11:59:49Z</time>
      </trkpt>
      <trkpt lat="45.3288" lon="6.04743">
        <ele>1398</ele>
        <time>2018-07-01T11:59:53Z</time>
      </trkpt>
      <trkpt lat="45.32875" lon="6.04738">
        <ele>1399</ele>
        <time>2018-07-01T11:59:56Z</time>
      </trkpt>
      <trkpt lat="45.3287" lon="6.04735">
        <ele>1400</ele>
        <time>2018-07-01T11:59:59Z</time>
      </trkpt>
      <trkpt lat="45.32864" lon="6.04732">
        <ele>1402</ele>
        <time>2018-07-01T12:00:02Z</time>
      </trkpt>
      <trkpt lat="45.3286" lon="6.0473">
        <ele>1403</ele>
        <time>2018-07-01T12:00:04Z</time>
      </trkpt>
      <trkpt lat="45.32854" lon="6.04726">
        <ele>1404</ele>
        <time>2018-07-01T12:00:07Z</time>
      </trkpt>
      <trkpt lat="45.32848" lon="6.04722">
        <ele>1405</ele>
        <time>2018-07-01T12:00:10Z</time>
      </trkpt>
      <trkpt lat="45.32843" lon="6.04718">
        <ele>1406</ele>
        <time>2018-07-01T12:00:13Z</time>
      </trkpt>
      <trkpt lat="45.32838" lon="6.04713">
        <ele>1406</ele>
        <time>2018-07-01T12:00:16Z</time>
      </trkpt>
      <trkpt lat="45.32833" lon="6.04709">
        <ele>1407</ele>
        <time>2018-07-01T12:00:19Z</time>
      </trkpt>
      <trkpt lat="45.32827" lon="6.04706">
        <ele>1408</ele>
        <time>2018-07-01T12:00:22Z</time>
      </trkpt>
      <trkpt lat="45.32821" lon="6.04704">
        <ele>1409</ele>
        <time>2018-07-01T12:00:25Z</time>
      </trkpt>
      <trkpt lat="45.32815" lon="6.047">
        <ele>1410</ele>
        <time>2018-07-01T12:00:28Z</time>
      </trkpt>
      <trkpt lat="45.3281" lon="6.04697">
        <ele>1410</ele>
        <time>2018-07-01T12:00:31Z</time>
      </trkpt>
      <trkpt lat="45.32805" lon="6.04694">
        <ele>1411</ele>
        <time>2018-07-01T12:00:34Z</time>
      </trkpt>
      <trkpt lat="45.32799" lon="6.04691">
        <ele>1411</ele>
        <time>2018-07-01T12:00:37Z</time>
      </trkpt>
      <trkpt lat="45.32793" lon="6.04688">
        <ele>1411</ele>
        <time>2018-07-01T12:00:40Z</time>
      </trkpt>
      <trkpt lat="45.32787" lon="6.04685">
        <ele>1412</ele>
        <time>2018-07-01T12:00:43Z</time>
      </trkpt>
      <trkpt lat="45.32782" lon="6.04683">
        <ele>1412</ele>
        <time>2018-07-01T12:00:46Z</time>
      </trkpt>
      <trkpt lat="45.32776" lon="6.04681">
        <ele>1413</ele>
        <time>2018-07-01T12:00:49Z</time>
      </trkpt>
      <trkpt lat="45.3277" lon="6.04678">
        <ele>1413</ele>
        <time>2018-07-01T12:00:52Z</time>
      </trkpt>
      <trkpt lat="45.32764" lon="6.04676">
        <ele>1414</ele>
        <time>2018-07-01T12:00:55Z</time>
      </trkpt>
      <trkpt lat="45.32758" lon="6.04675">
        <ele>1415</ele>
        <time>2018-07-01T12:00:58Z</time>
      </trkpt>
      <trkpt lat="45.32753" lon="6.04675">
        <ele>1416</ele>
        <time>2018-07-01T12:01:01Z</time>
      </trkpt>
      <trkpt lat="45.32748" lon="6.04672">
        <ele>1415</ele>
        <time>2018-07-01T12:01:04Z</time>
      </trkpt>
      <trkpt lat="45.32744" lon="6.04672">
        <ele>1415</ele>
        <time>2018-07-01T12:01:07Z</time>
      </trkpt>
      <trkpt lat="45.32738" lon="6.04671">
        <ele>1414</ele>
        <time>2018-07-01T12:01:10Z</time>
      </trkpt>
      <trkpt lat="45.32733" lon="6.04671">
        <ele>1414</ele>
        <time>2018-07-01T12:01:13Z</time>
      </trkpt>
      <trkpt lat="45.32728" lon="6.04675">
        <ele>1415</ele>
        <time>2018-07-01T12:01:16Z</time>
      </trkpt>
      <trkpt lat="45.32722" lon="6.04678">
        <ele>1416</ele>
        <time>2018-07-01T12:01:19Z</time>
      </trkpt>
      <trkpt lat="45.32716" lon="6.04678">
        <ele>1416</ele>
        <time>2018-07-01T12:01:22Z</time>
      </trkpt>
      <trkpt lat="45.3271" lon="6.04675">
        <ele>1414</ele>
        <time>2018-07-01T12:01:25Z</time>
      </trkpt>
      <trkpt lat="45.32703" lon="6.04674">
        <ele>1414</ele>
        <time>2018-07-01T12:01:28Z</time>
      </trkpt>
      <trkpt lat="45.32697" lon="6.04676">
        <ele>1414</ele>
        <time>2018-07-01T12:01:31Z</time>
      </trkpt>
      <trkpt lat="45.32692" lon="6.04676">
        <ele>1414</ele>
        <time>2018-07-01T12:01:34Z</time>
      </trkpt>
      <trkpt lat="45.32686" lon="6.04677">
        <ele>1414</ele>
        <time>2018-07-01T12:01:37Z</time>
      </trkpt>
      <trkpt lat="45.32681" lon="6.04677">
        <ele>1414</ele>
        <time>2018-07-01T12:01:40Z</time>
      </trkpt>
      <trkpt lat="45.32675" lon="6.04674">
        <ele>1412</ele>
        <time>2018-07-01T12:01:43Z</time>
      </trkpt>
      <trkpt lat="45.3267" lon="6.04675">
        <ele>1412</ele>
        <time>2018-07-01T12:01:46Z</time>
      </trkpt>
      <trkpt lat="45.32665" lon="6.04676">
        <ele>1412</ele>
        <time>2018-07-01T12:01:49Z</time>
      </trkpt>
      <trkpt lat="45.3266" lon="6.04681">
        <ele>1414</ele>
        <time>2018-07-01T12:01:52Z</time>
      </trkpt>
      <trkpt lat="45.32655" lon="6.04684">
        <ele>1415</ele>
        <time>2018-07-01T12:01:55Z</time>
      </trkpt>
      <trkpt lat="45.32649" lon="6.04683">
        <ele>1414</ele>
        <time>2018-07-01T12:01:58Z</time>
      </trkpt>
      <trkpt lat="45.32642" lon="6.04683">
        <ele>1413</ele>
        <time>2018-07-01T12:02:01Z</time>
      </trkpt>
      <trkpt lat="45.32637" lon="6.04685">
        <ele>1413</ele>
        <time>2018-07-01T12:02:04Z</time>
      </trkpt>
      <trkpt lat="45.32631" lon="6.04686">
        <ele>1413</ele>
        <time>2018-07-01T12:02:07Z</time>
      </trkpt>
      <trkpt lat="45.32625" lon="6.04686">
        <ele>1413</ele>
        <time>2018-07-01T12:02:10Z</time>
      </trkpt>
      <trkpt lat="45.32619" lon="6.04686">
        <ele>1412</ele>
        <time>2018-07-01T12:02:13Z</time>
      </trkpt>
      <trkpt lat="45.32613" lon="6.04688">
        <ele>1413</ele>
        <time>2018-07-01T12:02:16Z</time>
      </trkpt>
      <trkpt lat="45.32607" lon="6.0469">
        <ele>1414</ele>
        <time>2018-07-01T12:02:19Z</time>
      </trkpt>
      <trkpt lat="45.326" lon="6.04691">
        <ele>1415</ele>
        <time>2018-07-01T12:02:22Z</time>
      </trkpt>
      <trkpt lat="45.32595" lon="6.04693">
        <ele>1416</ele>
        <time>2018-07-01T12:02:25Z</time>
      </trkpt>
      <trkpt lat="45.32589" lon="6.04694">
        <ele>1417</ele>
        <time>2018-07-01T12:02:28Z</time>
      </trkpt>
      <trkpt lat="45.32583" lon="6.04695">
        <ele>1417</ele>
        <time>2018-07-01T12:02:31Z</time>
      </trkpt>
      <trkpt lat="45.32577" lon="6.04696">
        <ele>1418</ele>
        <time>2018-07-01T12:02:34Z</time>
      </trkpt>
      <trkpt lat="45.32571" lon="6.04698">
        <ele>1419</ele>
        <time>2018-07-01T12:02:37Z</time>
      </trkpt>
      <trkpt lat="45.32565" lon="6.04701">
        <ele>1420</ele>
        <time>2018-07-01T12:02:40Z</time>
      </trkpt>
      <trkpt lat="45.3256" lon="6.04705">
        <ele>1422</ele>
        <time>2018-07-01T12:02:43Z</time>
      </trkpt>
      <trkpt lat="45.32554" lon="6.04707">
        <ele>1423</ele>
        <time>2018-07-01T12:02:46Z</time>
      </trkpt>
      <trkpt lat="45.32549" lon="6.04712">
        <ele>1424</ele>
        <time>2018-07-01T12:02:49Z</time>
      </trkpt>
      <trkpt lat="45.32544" lon="6.04718">
        <ele>1427</ele>
        <time>2018-07-01T12:02:52Z</time>
      </trkpt>
      <trkpt lat="45.32539" lon="6.04724">
        <ele>1429</ele>
        <time>2018-07-01T12:02:55Z</time>
      </trkpt>
      <trkpt lat="45.32535" lon="6.0473">
        <ele>1432</ele>
        <time>2018-07-01T12:02:58Z</time>
      </trkpt>
      <trkpt lat="45.3253" lon="6.04735">
        <ele>1433</ele>
        <time>2018-07-01T12:03:01Z</time>
      </trkpt>
      <trkpt lat="45.32525" lon="6.04739">
        <ele>1435</ele>
        <time>2018-07-01T12:03:04Z</time>
      </trkpt>
      <trkpt lat="45.32519" lon="6.04742">
        <ele>1437</ele>
        <time>2018-07-01T12:03:07Z</time>
      </trkpt>
      <trkpt lat="45.32513" lon="6.04742">
        <ele>1437</ele>
        <time>2018-07-01T12:03:10Z</time>
      </trkpt>
      <trkpt lat="45.32507" lon="6.04743">
        <ele>1438</ele>
        <time>2018-07-01T12:03:13Z</time>
      </trkpt>
      <trkpt lat="45.32502" lon="6.0474">
        <ele>1438</ele>
        <time>2018-07-01T12:03:16Z</time>
      </trkpt>
      <trkpt lat="45.32499" lon="6.04734">
        <ele>1438</ele>
        <time>2018-07-01T12:03:19Z</time>
      </trkpt>
      <trkpt lat="45.32496" lon="6.04728">
        <ele>1437</ele>
        <time>2018-07-01T12:03:22Z</time>
      </trkpt>
      <trkpt lat="45.32494" lon="6.0472">
        <ele>1435</ele>
        <time>2018-07-01T12:03:25Z</time>
      </trkpt>
      <trkpt lat="45.32495" lon="6.04711">
        <ele>1433</ele>
        <time>2018-07-01T12:03:28Z</time>
      </trkpt>
      <trkpt lat="45.32491" lon="6.04704">
        <ele>1433</ele>
        <time>2018-07-01T12:03:31Z</time>
      </trkpt>
      <trkpt lat="45.32486" lon="6.04703">
        <ele>1434</ele>
        <time>2018-07-01T12:03:35Z</time>
      </trkpt>
      <trkpt lat="45.32481" lon="6.04704">
        <ele>1435</ele>
        <time>2018-07-01T12:03:39Z</time>
      </trkpt>
      <trkpt lat="45.32476" lon="6.04705">
        <ele>1436</ele>
        <time>2018-07-01T12:03:42Z</time>
      </trkpt>
      <trkpt lat="45.32472" lon="6.04707">
        <ele>1438</ele>
        <time>2018-07-01T12:03:45Z</time>
      </trkpt>
      <trkpt lat="45.32467" lon="6.04703">
        <ele>1438</ele>
        <time>2018-07-01T12:03:49Z</time>
      </trkpt>
      <trkpt lat="45.32462" lon="6.047">
        <ele>1439</ele>
        <time>2018-07-01T12:03:53Z</time>
      </trkpt>
      <trkpt lat="45.32455" lon="6.04697">
        <ele>1440</ele>
        <time>2018-07-01T12:03:56Z</time>
      </trkpt>
      <trkpt lat="45.32453" lon="6.04703">
        <ele>1442</ele>
        <time>2018-07-01T12:03:59Z</time>
      </trkpt>
      <trkpt lat="45.32452" lon="6.04701">
        <ele>1441</ele>
        <time>2018-07-01T12:04:15Z</time>
      </trkpt>
      <trkpt lat="45.32451" lon="6.04703">
        <ele>1442</ele>
        <time>2018-07-01T12:04:33Z</time>
      </trkpt>
      <trkpt lat="45.32452" lon="6.04704">
        <ele>1442</ele>
        <time>2018-07-01T12:05:04Z</time>
      </trkpt>
      <trkpt lat="45.32452" lon="6.04704">
        <ele>1442</ele>
        <time>2018-07-01T12:05:07Z</time>
      </trkpt>
      <trkpt lat="45.32452" lon="6.04704">
        <ele>1442</ele>
        <time>2018-07-01T12:05:22Z</time>
      </trkpt>
      <trkpt lat="45.32452" lon="6.04704">
        <ele>1442</ele>
        <time>2018-07-01T12:05:24Z</time>
      </trkpt>
      <trkpt lat="45.32452" lon="6.04703">
        <ele>1442</ele>
        <time>2018-07-01T12:05:40Z</time>
      </trkpt>
      <trkpt lat="45.32454" lon="6.04701">
        <ele>1441</ele>
        <time>2018-07-01T12:05:55Z</time>
      </trkpt>
      <trkpt lat="45.32456" lon="6.04698">
        <ele>1440</ele>
        <time>2018-07-01T12:06:11Z</time>
      </trkpt>
      <trkpt lat="45.32456" lon="6.04699">
        <ele>1440</ele>
        <time>2018-07-01T12:06:15Z</time>
      </trkpt>
      <trkpt lat="45.32456" lon="6.04699">
        <ele>1440</ele>
        <time>2018-07-01T12:06:32Z</time>
      </trkpt>
      <trkpt lat="45.32456" lon="6.04699">
        <ele>1440</ele>
        <time>2018-07-01T12:06:34Z</time>
      </trkpt>
      <trkpt lat="45.32459" lon="6.04699">
        <ele>1439</ele>
        <time>2018-07-01T12:06:51Z</time>
      </trkpt>
      <trkpt lat="45.3246" lon="6.04699">
        <ele>1439</ele>
        <time>2018-07-01T12:06:53Z</time>
      </trkpt>
      <trkpt lat="45.3246" lon="6.04699">
        <ele>1439</ele>
        <time>2018-07-01T12:07:21Z</time>
      </trkpt>
      <trkpt lat="45.3246" lon="6.04699">
        <ele>1439</ele>
        <time>2018-07-01T12:07:23Z</time>
      </trkpt>
      <trkpt lat="45.3246" lon="6.04699">
        <ele>1439</ele>
        <time>2018-07-01T12:07:51Z</time>
      </trkpt>
      <trkpt lat="45.3246" lon="6.04699">
        <ele>1439</ele>
        <time>2018-07-01T12:07:54Z</time>
      </trkpt>
      <trkpt lat="45.32456" lon="6.04698">
        <ele>1440</ele>
        <time>2018-07-01T12:08:16Z</time>
      </trkpt>
      <trkpt lat="45.32459" lon="6.04696">
        <ele>1439</ele>
        <time>2018-07-01T12:08:38Z</time>
      </trkpt>
      <trkpt lat="45.32459" lon="6.04696">
        <ele>1439</ele>
        <time>2018-07-01T12:08:41Z</time>
      </trkpt>
      <trkpt lat="45.32463" lon="6.04696">
        <ele>1438</ele>
        <time>2018-07-01T12:08:57Z</time>
      </trkpt>
      <trkpt lat="45.32464" lon="6.04696">
        <ele>1438</ele>
        <time>2018-07-01T12:09:00Z</time>
      </trkpt>
      <trkpt lat="45.32458" lon="6.04697">
        <ele>1439</ele>
        <time>2018-07-01T12:09:09Z</time>
      </trkpt>
      <trkpt lat="45.32463" lon="6.04696">
        <ele>1438</ele>
        <time>2018-07-01T12:09:24Z</time>
      </trkpt>
      <trkpt lat="45.32469" lon="6.04697">
        <ele>1436</ele>
        <time>2018-07-01T12:09:27Z</time>
      </trkpt>
      <trkpt lat="45.32473" lon="6.047">
        <ele>1436</ele>
        <time>2018-07-01T12:09:29Z</time>
      </trkpt>
      <trkpt lat="45.32479" lon="6.04702">
        <ele>1435</ele>
        <time>2018-07-01T12:09:32Z</time>
      </trkpt>
      <trkpt lat="45.32483" lon="6.04708">
        <ele>1435</ele>
        <time>2018-07-01T12:09:36Z</time>
      </trkpt>
      <trkpt lat="45.32488" lon="6.04713">
        <ele>1435</ele>
        <time>2018-07-01T12:09:39Z</time>
      </trkpt>
      <trkpt lat="45.32492" lon="6.04718">
        <ele>1435</ele>
        <time>2018-07-01T12:09:42Z</time>
      </trkpt>
      <trkpt lat="45.32497" lon="6.04725">
        <ele>1436</ele>
        <time>2018-07-01T12:09:45Z</time>
      </trkpt>
      <trkpt lat="45.32502" lon="6.0473">
        <ele>1436</ele>
        <time>2018-07-01T12:09:47Z</time>
      </trkpt>
      <trkpt lat="45.32505" lon="6.04736">
        <ele>1437</ele>
        <time>2018-07-01T12:09:49Z</time>
      </trkpt>
      <trkpt lat="45.32511" lon="6.04739">
        <ele>1437</ele>
        <time>2018-07-01T12:09:51Z</time>
      </trkpt>
      <trkpt lat="45.32517" lon="6.04741">
        <ele>1437</ele>
        <time>2018-07-01T12:09:53Z</time>
      </trkpt>
      <trkpt lat="45.32523" lon="6.04739">
        <ele>1435</ele>
        <time>2018-07-01T12:09:55Z</time>
      </trkpt>
      <trkpt lat="45.3253" lon="6.04733">
        <ele>1433</ele>
        <time>2018-07-01T12:09:57Z</time>
      </trkpt>
      <trkpt lat="45.32538" lon="6.04726">
        <ele>1430</ele>
        <time>2018-07-01T12:09:59Z</time>
      </trkpt>
      <trkpt lat="45.32546" lon="6.04724">
        <ele>1428</ele>
        <time>2018-07-01T12:10:01Z</time>
      </trkpt>
      <trkpt lat="45.32554" lon="6.04722">
        <ele>1427</ele>
        <time>2018-07-01T12:10:03Z</time>
      </trkpt>
      <trkpt lat="45.32562" lon="6.04721">
        <ele>1427</ele>
        <time>2018-07-01T12:10:05Z</time>
      </trkpt>
      <trkpt lat="45.32565" lon="6.04716">
        <ele>1425</ele>
        <time>2018-07-01T12:10:09Z</time>
      </trkpt>
      <trkpt lat="45.3257" lon="6.04719">
        <ele>1426</ele>
        <time>2018-07-01T12:10:25Z</time>
      </trkpt>
      <trkpt lat="45.32574" lon="6.04719">
        <ele>1426</ele>
        <time>2018-07-01T12:10:28Z</time>
      </trkpt>
      <trkpt lat="45.32579" lon="6.04721">
        <ele>1427</ele>
        <time>2018-07-01T12:10:31Z</time>
      </trkpt>
      <trkpt lat="45.32585" lon="6.0472">
        <ele>1426</ele>
        <time>2018-07-01T12:10:36Z</time>
      </trkpt>
      <trkpt lat="45.3259" lon="6.04721">
        <ele>1427</ele>
        <time>2018-07-01T12:10:41Z</time>
      </trkpt>
      <trkpt lat="45.32595" lon="6.0472">
        <ele>1426</ele>
        <time>2018-07-01T12:10:45Z</time>
      </trkpt>
      <trkpt lat="45.326" lon="6.04719">
        <ele>1426</ele>
        <time>2018-07-01T12:10:49Z</time>
      </trkpt>
      <trkpt lat="45.32606" lon="6.0472">
        <ele>1426</ele>
        <time>2018-07-01T12:10:54Z</time>
      </trkpt>
      <trkpt lat="45.32611" lon="6.04718">
        <ele>1425</ele>
        <time>2018-07-01T12:10:58Z</time>
      </trkpt>
      <trkpt lat="45.32615" lon="6.04722">
        <ele>1427</ele>
        <time>2018-07-01T12:11:02Z</time>
      </trkpt>
      <trkpt lat="45.32619" lon="6.04726">
        <ele>1429</ele>
        <time>2018-07-01T12:11:06Z</time>
      </trkpt>
      <trkpt lat="45.32625" lon="6.04727">
        <ele>1430</ele>
        <time>2018-07-01T12:11:10Z</time>
      </trkpt>
      <trkpt lat="45.3263" lon="6.04726">
        <ele>1430</ele>
        <time>2018-07-01T12:11:13Z</time>
      </trkpt>
      <trkpt lat="45.32634" lon="6.04727">
        <ele>1431</ele>
        <time>2018-07-01T12:11:16Z</time>
      </trkpt>
      <trkpt lat="45.3264" lon="6.04728">
        <ele>1432</ele>
        <time>2018-07-01T12:11:19Z</time>
      </trkpt>
      <trkpt lat="45.32645" lon="6.04729">
        <ele>1433</ele>
        <time>2018-07-01T12:11:22Z</time>
      </trkpt>
      <trkpt lat="45.3265" lon="6.04726">
        <ele>1432</ele>
        <time>2018-07-01T12:11:25Z</time>
      </trkpt>
      <trkpt lat="45.32655" lon="6.04731">
        <ele>1434</ele>
        <time>2018-07-01T12:11:29Z</time>
      </trkpt>
      <trkpt lat="45.32658" lon="6.04737">
        <ele>1437</ele>
        <time>2018-07-01T12:11:33Z</time>
      </trkpt>
      <trkpt lat="45.32663" lon="6.04737">
        <ele>1437</ele>
        <time>2018-07-01T12:11:38Z</time>
      </trkpt>
      <trkpt lat="45.32668" lon="6.0474">
        <ele>1439</ele>
        <time>2018-07-01T12:11:43Z</time>
      </trkpt>
      <trkpt lat="45.32673" lon="6.04741">
        <ele>1440</ele>
        <time>2018-07-01T12:11:47Z</time>
      </trkpt>
      <trkpt lat="45.32679" lon="6.04743">
        <ele>1441</ele>
        <time>2018-07-01T12:11:50Z</time>
      </trkpt>
      <trkpt lat="45.32684" lon="6.04743">
        <ele>1441</ele>
        <time>2018-07-01T12:11:53Z</time>
      </trkpt>
      <trkpt lat="45.32688" lon="6.04746">
        <ele>1443</ele>
        <time>2018-07-01T12:11:57Z</time>
      </trkpt>
      <trkpt lat="45.32692" lon="6.04747">
        <ele>1443</ele>
        <time>2018-07-01T12:12:01Z</time>
      </trkpt>
      <trkpt lat="45.32698" lon="6.04747">
        <ele>1443</ele>
        <time>2018-07-01T12:12:06Z</time>
      </trkpt>
      <trkpt lat="45.32703" lon="6.04745">
        <ele>1442</ele>
        <time>2018-07-01T12:12:11Z</time>
      </trkpt>
      <trkpt lat="45.32708" lon="6.04744">
        <ele>1442</ele>
        <time>2018-07-01T12:12:15Z</time>
      </trkpt>
      <trkpt lat="45.32711" lon="6.04749">
        <ele>1444</ele>
        <time>2018-07-01T12:12:19Z</time>
      </trkpt>
      <trkpt lat="45.32716" lon="6.04753">
        <ele>1445</ele>
        <time>2018-07-01T12:12:23Z</time>
      </trkpt>
      <trkpt lat="45.32722" lon="6.04753">
        <ele>1445</ele>
        <time>2018-07-01T12:12:26Z</time>
      </trkpt>
      <trkpt lat="45.32726" lon="6.04754">
        <ele>1445</ele>
        <time>2018-07-01T12:12:29Z</time>
      </trkpt>
      <trkpt lat="45.32731" lon="6.04758">
        <ele>1446</ele>
        <time>2018-07-01T12:12:34Z</time>
      </trkpt>
      <trkpt lat="45.32735" lon="6.0476">
        <ele>1447</ele>
        <time>2018-07-01T12:12:37Z</time>
      </trkpt>
      <trkpt lat="45.3274" lon="6.04758">
        <ele>1446</ele>
        <time>2018-07-01T12:12:40Z</time>
      </trkpt>
      <trkpt lat="45.32745" lon="6.04755">
        <ele>1445</ele>
        <time>2018-07-01T12:12:43Z</time>
      </trkpt>
      <trkpt lat="45.32748" lon="6.04761">
        <ele>1447</ele>
        <time>2018-07-01T12:12:45Z</time>
      </trkpt>
      <trkpt lat="45.32753" lon="6.04762">
        <ele>1447</ele>
        <time>2018-07-01T12:12:47Z</time>
      </trkpt>
      <trkpt lat="45.32758" lon="6.04764">
        <ele>1446</ele>
        <time>2018-07-01T12:12:50Z</time>
      </trkpt>
      <trkpt lat="45.32761" lon="6.04771">
        <ele>1447</ele>
        <time>2018-07-01T12:12:53Z</time>
      </trkpt>
      <trkpt lat="45.32761" lon="6.04777">
        <ele>1449</ele>
        <time>2018-07-01T12:12:57Z</time>
      </trkpt>
      <trkpt lat="45.32763" lon="6.04784">
        <ele>1451</ele>
        <time>2018-07-01T12:13:01Z</time>
      </trkpt>
      <trkpt lat="45.32763" lon="6.04791">
        <ele>1453</ele>
        <time>2018-07-01T12:13:04Z</time>
      </trkpt>
      <trkpt lat="45.32767" lon="6.04797">
        <ele>1453</ele>
        <time>2018-07-01T12:13:09Z</time>
      </trkpt>
      <trkpt lat="45.32768" lon="6.04803">
        <ele>1455</ele>
        <time>2018-07-01T12:13:12Z</time>
      </trkpt>
      <trkpt lat="45.32772" lon="6.04808">
        <ele>1455</ele>
        <time>2018-07-01T12:13:16Z</time>
      </trkpt>
      <trkpt lat="45.32777" lon="6.04813">
        <ele>1455</ele>
        <time>2018-07-01T12:13:20Z</time>
      </trkpt>
      <trkpt lat="45.32781" lon="6.04818">
        <ele>1455</ele>
        <time>2018-07-01T12:13:24Z</time>
      </trkpt>
      <trkpt lat="45.32784" lon="6.04824">
        <ele>1455</ele>
        <time>2018-07-01T12:13:28Z</time>
      </trkpt>
      <trkpt lat="45.32788" lon="6.04829">
        <ele>1455</ele>
        <time>2018-07-01T12:13:32Z</time>
      </trkpt>
      <trkpt lat="45.32791" lon="6.04834">
        <ele>1456</ele>
        <time>2018-07-01T12:13:36Z</time>
      </trkpt>
      <trkpt lat="45.32795" lon="6.04839">
        <ele>1456</ele>
        <time>2018-07-01T12:13:40Z</time>
      </trkpt>
      <trkpt lat="45.32799" lon="6.04843">
        <ele>1456</ele>
        <time>2018-07-01T12:13:44Z</time>
      </trkpt>
      <trkpt lat="45.32803" lon="6.0485">
        <ele>1456</ele>
        <time>2018-07-01T12:13:48Z</time>
      </trkpt>
      <trkpt lat="45.32806" lon="6.04855">
        <ele>1457</ele>
        <time>2018-07-01T12:13:52Z</time>
      </trkpt>
      <trkpt lat="45.3281" lon="6.0486">
        <ele>1457</ele>
        <time>2018-07-01T12:13:57Z</time>
      </trkpt>
      <trkpt lat="45.32814" lon="6.04864">
        <ele>1456</ele>
        <time>2018-07-01T12:14:01Z</time>
      </trkpt>
      <trkpt lat="45.32817" lon="6.04871">
        <ele>1457</ele>
        <time>2018-07-01T12:14:05Z</time>
      </trkpt>
      <trkpt lat="45.32819" lon="6.04878">
        <ele>1458</ele>
        <time>2018-07-01T12:14:09Z</time>
      </trkpt>
      <trkpt lat="45.32821" lon="6.04884">
        <ele>1458</ele>
        <time>2018-07-01T12:14:13Z</time>
      </trkpt>
      <trkpt lat="45.32822" lon="6.04892">
        <ele>1460</ele>
        <time>2018-07-01T12:14:17Z</time>
      </trkpt>
      <trkpt lat="45.32824" lon="6.04899">
        <ele>1460</ele>
        <time>2018-07-01T12:14:21Z</time>
      </trkpt>
      <trkpt lat="45.32826" lon="6.04906">
        <ele>1460</ele>
        <time>2018-07-01T12:14:25Z</time>
      </trkpt>
      <trkpt lat="45.32827" lon="6.04915">
        <ele>1462</ele>
        <time>2018-07-01T12:14:29Z</time>
      </trkpt>
      <trkpt lat="45.32827" lon="6.04923">
        <ele>1463</ele>
        <time>2018-07-01T12:14:33Z</time>
      </trkpt>
      <trkpt lat="45.32826" lon="6.0493">
        <ele>1465</ele>
        <time>2018-07-01T12:14:37Z</time>
      </trkpt>
      <trkpt lat="45.32829" lon="6.04936">
        <ele>1465</ele>
        <time>2018-07-01T12:14:41Z</time>
      </trkpt>
      <trkpt lat="45.32832" lon="6.04943">
        <ele>1465</ele>
        <time>2018-07-01T12:14:45Z</time>
      </trkpt>
      <trkpt lat="45.32833" lon="6.0495">
        <ele>1466</ele>
        <time>2018-07-01T12:14:49Z</time>
      </trkpt>
      <trkpt lat="45.32831" lon="6.04957">
        <ele>1468</ele>
        <time>2018-07-01T12:14:53Z</time>
      </trkpt>
      <trkpt lat="45.3283" lon="6.04964">
        <ele>1470</ele>
        <time>2018-07-01T12:14:56Z</time>
      </trkpt>
      <trkpt lat="45.3283" lon="6.04971">
        <ele>1471</ele>
        <time>2018-07-01T12:14:59Z</time>
      </trkpt>
      <trkpt lat="45.32834" lon="6.04976">
        <ele>1471</ele>
        <time>2018-07-01T12:15:02Z</time>
      </trkpt>
      <trkpt lat="45.32839" lon="6.04981">
        <ele>1469</ele>
        <time>2018-07-01T12:15:05Z</time>
      </trkpt>
      <trkpt lat="45.32841" lon="6.04988">
        <ele>1470</ele>
        <time>2018-07-01T12:15:09Z</time>
      </trkpt>
      <trkpt lat="45.32843" lon="6.04995">
        <ele>1470</ele>
        <time>2018-07-01T12:15:13Z</time>
      </trkpt>
      <trkpt lat="45.32843" lon="6.05002">
        <ele>1472</ele>
        <time>2018-07-01T12:15:16Z</time>
      </trkpt>
      <trkpt lat="45.32843" lon="6.05009">
        <ele>1474</ele>
        <time>2018-07-01T12:15:19Z</time>
      </trkpt>
      <trkpt lat="45.32843" lon="6.05016">
        <ele>1475</ele>
        <time>2018-07-01T12:15:22Z</time>
      </trkpt>
      <trkpt lat="45.32842" lon="6.05022">
        <ele>1477</ele>
        <time>2018-07-01T12:15:29Z</time>
      </trkpt>
      <trkpt lat="45.32845" lon="6.05028">
        <ele>1477</ele>
        <time>2018-07-01T12:15:35Z</time>
      </trkpt>
      <trkpt lat="45.3285" lon="6.05032">
        <ele>1476</ele>
        <time>2018-07-01T12:15:37Z</time>
      </trkpt>
      <trkpt lat="45.32853" lon="6.05039">
        <ele>1476</ele>
        <time>2018-07-01T12:15:39Z</time>
      </trkpt>
      <trkpt lat="45.32856" lon="6.05045">
        <ele>1477</ele>
        <time>2018-07-01T12:15:42Z</time>
      </trkpt>
      <trkpt lat="45.32862" lon="6.05047">
        <ele>1474</ele>
        <time>2018-07-01T12:15:45Z</time>
      </trkpt>
      <trkpt lat="45.32866" lon="6.05051">
        <ele>1474</ele>
        <time>2018-07-01T12:15:48Z</time>
      </trkpt>
      <trkpt lat="45.3287" lon="6.05056">
        <ele>1473</ele>
        <time>2018-07-01T12:15:52Z</time>
      </trkpt>
      <trkpt lat="45.32873" lon="6.05062">
        <ele>1473</ele>
        <time>2018-07-01T12:15:55Z</time>
      </trkpt>
      <trkpt lat="45.32875" lon="6.05067">
        <ele>1474</ele>
        <time>2018-07-01T12:15:58Z</time>
      </trkpt>
      <trkpt lat="45.32877" lon="6.05075">
        <ele>1475</ele>
        <time>2018-07-01T12:16:02Z</time>
      </trkpt>
      <trkpt lat="45.3288" lon="6.05081">
        <ele>1475</ele>
        <time>2018-07-01T12:16:05Z</time>
      </trkpt>
      <trkpt lat="45.32882" lon="6.05086">
        <ele>1476</ele>
        <time>2018-07-01T12:16:08Z</time>
      </trkpt>
      <trkpt lat="45.32885" lon="6.05093">
        <ele>1477</ele>
        <time>2018-07-01T12:16:11Z</time>
      </trkpt>
      <trkpt lat="45.32888" lon="6.051">
        <ele>1477</ele>
        <time>2018-07-01T12:16:14Z</time>
      </trkpt>
      <trkpt lat="45.32889" lon="6.05107">
        <ele>1479</ele>
        <time>2018-07-01T12:16:17Z</time>
      </trkpt>
      <trkpt lat="45.3289" lon="6.05113">
        <ele>1480</ele>
        <time>2018-07-01T12:16:20Z</time>
      </trkpt>
      <trkpt lat="45.32894" lon="6.05119">
        <ele>1480</ele>
        <time>2018-07-01T12:16:23Z</time>
      </trkpt>
      <trkpt lat="45.32897" lon="6.05125">
        <ele>1480</ele>
        <time>2018-07-01T12:16:26Z</time>
      </trkpt>
      <trkpt lat="45.32899" lon="6.05131">
        <ele>1480</ele>
        <time>2018-07-01T12:16:29Z</time>
      </trkpt>
      <trkpt lat="45.32901" lon="6.05138">
        <ele>1481</ele>
        <time>2018-07-01T12:16:33Z</time>
      </trkpt>
      <trkpt lat="45.32903" lon="6.05146">
        <ele>1482</ele>
        <time>2018-07-01T12:16:37Z</time>
      </trkpt>
      <trkpt lat="45.32903" lon="6.05154">
        <ele>1484</ele>
        <time>2018-07-01T12:16:41Z</time>
      </trkpt>
      <trkpt lat="45.32903" lon="6.05162">
        <ele>1485</ele>
        <time>2018-07-01T12:16:45Z</time>
      </trkpt>
      <trkpt lat="45.32905" lon="6.0517">
        <ele>1486</ele>
        <time>2018-07-01T12:16:49Z</time>
      </trkpt>
      <trkpt lat="45.32907" lon="6.05176">
        <ele>1486</ele>
        <time>2018-07-01T12:16:53Z</time>
      </trkpt>
      <trkpt lat="45.32909" lon="6.05183">
        <ele>1487</ele>
        <time>2018-07-01T12:16:57Z</time>
      </trkpt>
      <trkpt lat="45.32909" lon="6.05191">
        <ele>1488</ele>
        <time>2018-07-01T12:17:01Z</time>
      </trkpt>
      <trkpt lat="45.32911" lon="6.05197">
        <ele>1489</ele>
        <time>2018-07-01T12:17:04Z</time>
      </trkpt>
      <trkpt lat="45.32911" lon="6.05205">
        <ele>1490</ele>
        <time>2018-07-01T12:17:08Z</time>
      </trkpt>
      <trkpt lat="45.32911" lon="6.05213">
        <ele>1492</ele>
        <time>2018-07-01T12:17:12Z</time>
      </trkpt>
      <trkpt lat="45.32911" lon="6.05219">
        <ele>1493</ele>
        <time>2018-07-01T12:17:15Z</time>
      </trkpt>
      <trkpt lat="45.32912" lon="6.05226">
        <ele>1494</ele>
        <time>2018-07-01T12:17:18Z</time>
      </trkpt>
      <trkpt lat="45.32913" lon="6.05233">
        <ele>1495</ele>
        <time>2018-07-01T12:17:21Z</time>
      </trkpt>
      <trkpt lat="45.32915" lon="6.0524">
        <ele>1496</ele>
        <time>2018-07-01T12:17:24Z</time>
      </trkpt>
      <trkpt lat="45.32916" lon="6.05246">
        <ele>1496</ele>
        <time>2018-07-01T12:17:27Z</time>
      </trkpt>
      <trkpt lat="45.32916" lon="6.05254">
        <ele>1498</ele>
        <time>2018-07-01T12:17:31Z</time>
      </trkpt>
      <trkpt lat="45.32919" lon="6.05262">
        <ele>1498</ele>
        <time>2018-07-01T12:17:35Z</time>
      </trkpt>
      <trkpt lat="45.32921" lon="6.0527">
        <ele>1498</ele>
        <time>2018-07-01T12:17:39Z</time>
      </trkpt>
      <trkpt lat="45.32923" lon="6.05276">
        <ele>1499</ele>
        <time>2018-07-01T12:17:42Z</time>
      </trkpt>
      <trkpt lat="45.32925" lon="6.05283">
        <ele>1499</ele>
        <time>2018-07-01T12:17:46Z</time>
      </trkpt>
      <trkpt lat="45.32927" lon="6.05289">
        <ele>1499</ele>
        <time>2018-07-01T12:17:49Z</time>
      </trkpt>
      <trkpt lat="45.32932" lon="6.05295">
        <ele>1498</ele>
        <time>2018-07-01T12:17:52Z</time>
      </trkpt>
      <trkpt lat="45.32935" lon="6.05301">
        <ele>1497</ele>
        <time>2018-07-01T12:17:55Z</time>
      </trkpt>
      <trkpt lat="45.32937" lon="6.05307">
        <ele>1497</ele>
        <time>2018-07-01T12:17:58Z</time>
      </trkpt>
      <trkpt lat="45.32939" lon="6.05313">
        <ele>1497</ele>
        <time>2018-07-01T12:18:01Z</time>
      </trkpt>
      <trkpt lat="45.32941" lon="6.05319">
        <ele>1498</ele>
        <time>2018-07-01T12:18:04Z</time>
      </trkpt>
      <trkpt lat="45.3294" lon="6.05327">
        <ele>1500</ele>
        <time>2018-07-01T12:18:08Z</time>
      </trkpt>
      <trkpt lat="45.32935" lon="6.05329">
        <ele>1503</ele>
        <time>2018-07-01T12:18:13Z</time>
      </trkpt>
      <trkpt lat="45.32932" lon="6.05324">
        <ele>1504</ele>
        <time>2018-07-01T12:18:16Z</time>
      </trkpt>
      <trkpt lat="45.3293" lon="6.05317">
        <ele>1503</ele>
        <time>2018-07-01T12:18:20Z</time>
      </trkpt>
      <trkpt lat="45.32929" lon="6.05309">
        <ele>1503</ele>
        <time>2018-07-01T12:18:25Z</time>
      </trkpt>
      <trkpt lat="45.32926" lon="6.05304">
        <ele>1503</ele>
        <time>2018-07-01T12:18:29Z</time>
      </trkpt>
      <trkpt lat="45.32924" lon="6.05297">
        <ele>1503</ele>
        <time>2018-07-01T12:18:33Z</time>
      </trkpt>
      <trkpt lat="45.32921" lon="6.05291">
        <ele>1503</ele>
        <time>2018-07-01T12:18:37Z</time>
      </trkpt>
      <trkpt lat="45.32919" lon="6.05285">
        <ele>1503</ele>
        <time>2018-07-01T12:18:41Z</time>
      </trkpt>
      <trkpt lat="45.32916" lon="6.05279">
        <ele>1504</ele>
        <time>2018-07-01T12:18:45Z</time>
      </trkpt>
      <trkpt lat="45.32912" lon="6.05273">
        <ele>1504</ele>
        <time>2018-07-01T12:18:49Z</time>
      </trkpt>
      <trkpt lat="45.32909" lon="6.05267">
        <ele>1505</ele>
        <time>2018-07-01T12:18:53Z</time>
      </trkpt>
      <trkpt lat="45.32908" lon="6.05261">
        <ele>1504</ele>
        <time>2018-07-01T12:18:57Z</time>
      </trkpt>
      <trkpt lat="45.32905" lon="6.05255">
        <ele>1504</ele>
        <time>2018-07-01T12:19:01Z</time>
      </trkpt>
      <trkpt lat="45.32901" lon="6.0525">
        <ele>1505</ele>
        <time>2018-07-01T12:19:05Z</time>
      </trkpt>
      <trkpt lat="45.32899" lon="6.05242">
        <ele>1505</ele>
        <time>2018-07-01T12:19:09Z</time>
      </trkpt>
      <trkpt lat="45.32896" lon="6.05236">
        <ele>1505</ele>
        <time>2018-07-01T12:19:13Z</time>
      </trkpt>
      <trkpt lat="45.32895" lon="6.05228">
        <ele>1504</ele>
        <time>2018-07-01T12:19:17Z</time>
      </trkpt>
      <trkpt lat="45.32892" lon="6.05222">
        <ele>1504</ele>
        <time>2018-07-01T12:19:20Z</time>
      </trkpt>
      <trkpt lat="45.3289" lon="6.05216">
        <ele>1504</ele>
        <time>2018-07-01T12:19:23Z</time>
      </trkpt>
      <trkpt lat="45.32886" lon="6.0521">
        <ele>1505</ele>
        <time>2018-07-01T12:19:26Z</time>
      </trkpt>
      <trkpt lat="45.32882" lon="6.05204">
        <ele>1506</ele>
        <time>2018-07-01T12:19:29Z</time>
      </trkpt>
      <trkpt lat="45.3288" lon="6.05198">
        <ele>1505</ele>
        <time>2018-07-01T12:19:32Z</time>
      </trkpt>
      <trkpt lat="45.3288" lon="6.05191">
        <ele>1504</ele>
        <time>2018-07-01T12:19:36Z</time>
      </trkpt>
      <trkpt lat="45.32877" lon="6.05184">
        <ele>1504</ele>
        <time>2018-07-01T12:19:40Z</time>
      </trkpt>
      <trkpt lat="45.32875" lon="6.05176">
        <ele>1503</ele>
        <time>2018-07-01T12:19:44Z</time>
      </trkpt>
      <trkpt lat="45.32872" lon="6.05169">
        <ele>1503</ele>
        <time>2018-07-01T12:19:48Z</time>
      </trkpt>
      <trkpt lat="45.32869" lon="6.05163">
        <ele>1503</ele>
        <time>2018-07-01T12:19:52Z</time>
      </trkpt>
      <trkpt lat="45.32866" lon="6.05156">
        <ele>1503</ele>
        <time>2018-07-01T12:19:56Z</time>
      </trkpt>
      <trkpt lat="45.32862" lon="6.0515">
        <ele>1503</ele>
        <time>2018-07-01T12:20:00Z</time>
      </trkpt>
      <trkpt lat="45.32859" lon="6.05144">
        <ele>1503</ele>
        <time>2018-07-01T12:20:04Z</time>
      </trkpt>
      <trkpt lat="45.32855" lon="6.0514">
        <ele>1504</ele>
        <time>2018-07-01T12:20:08Z</time>
      </trkpt>
      <trkpt lat="45.3285" lon="6.05136">
        <ele>1505</ele>
        <time>2018-07-01T12:20:12Z</time>
      </trkpt>
      <trkpt lat="45.32847" lon="6.0513">
        <ele>1504</ele>
        <time>2018-07-01T12:20:16Z</time>
      </trkpt>
      <trkpt lat="45.32842" lon="6.05125">
        <ele>1505</ele>
        <time>2018-07-01T12:20:20Z</time>
      </trkpt>
      <trkpt lat="45.32837" lon="6.05122">
        <ele>1507</ele>
        <time>2018-07-01T12:20:24Z</time>
      </trkpt>
      <trkpt lat="45.32831" lon="6.05121">
        <ele>1509</ele>
        <time>2018-07-01T12:20:28Z</time>
      </trkpt>
      <trkpt lat="45.32826" lon="6.05122">
        <ele>1512</ele>
        <time>2018-07-01T12:20:32Z</time>
      </trkpt>
      <trkpt lat="45.3282" lon="6.05122">
        <ele>1514</ele>
        <time>2018-07-01T12:20:36Z</time>
      </trkpt>
      <trkpt lat="45.32815" lon="6.05125">
        <ele>1517</ele>
        <time>2018-07-01T12:20:40Z</time>
      </trkpt>
      <trkpt lat="45.3281" lon="6.05127">
        <ele>1519</ele>
        <time>2018-07-01T12:20:44Z</time>
      </trkpt>
      <trkpt lat="45.32805" lon="6.05125">
        <ele>1520</ele>
        <time>2018-07-01T12:20:48Z</time>
      </trkpt>
      <trkpt lat="45.328" lon="6.05122">
        <ele>1521</ele>
        <time>2018-07-01T12:20:52Z</time>
      </trkpt>
      <trkpt lat="45.32796" lon="6.05116">
        <ele>1520</ele>
        <time>2018-07-01T12:20:56Z</time>
      </trkpt>
      <trkpt lat="45.32792" lon="6.0511">
        <ele>1520</ele>
        <time>2018-07-01T12:21:00Z</time>
      </trkpt>
      <trkpt lat="45.32788" lon="6.05106">
        <ele>1520</ele>
        <time>2018-07-01T12:21:04Z</time>
      </trkpt>
      <trkpt lat="45.32784" lon="6.05101">
        <ele>1520</ele>
        <time>2018-07-01T12:21:09Z</time>
      </trkpt>
      <trkpt lat="45.32779" lon="6.05096">
        <ele>1521</ele>
        <time>2018-07-01T12:21:13Z</time>
      </trkpt>
      <trkpt lat="45.32778" lon="6.0509">
        <ele>1520</ele>
        <time>2018-07-01T12:21:21Z</time>
      </trkpt>
      <trkpt lat="45.32774" lon="6.05083">
        <ele>1519</ele>
        <time>2018-07-01T12:21:24Z</time>
      </trkpt>
      <trkpt lat="45.32771" lon="6.05077">
        <ele>1519</ele>
        <time>2018-07-01T12:21:27Z</time>
      </trkpt>
      <trkpt lat="45.32768" lon="6.05072">
        <ele>1519</ele>
        <time>2018-07-01T12:21:30Z</time>
      </trkpt>
      <trkpt lat="45.32763" lon="6.05067">
        <ele>1519</ele>
        <time>2018-07-01T12:21:33Z</time>
      </trkpt>
      <trkpt lat="45.32759" lon="6.05063">
        <ele>1520</ele>
        <time>2018-07-01T12:21:36Z</time>
      </trkpt>
      <trkpt lat="45.32755" lon="6.05059">
        <ele>1521</ele>
        <time>2018-07-01T12:21:39Z</time>
      </trkpt>
      <trkpt lat="45.3275" lon="6.05053">
        <ele>1521</ele>
        <time>2018-07-01T12:21:43Z</time>
      </trkpt>
      <trkpt lat="45.32746" lon="6.05051">
        <ele>1521</ele>
        <time>2018-07-01T12:21:46Z</time>
      </trkpt>
      <trkpt lat="45.32742" lon="6.05047">
        <ele>1520</ele>
        <time>2018-07-01T12:21:49Z</time>
      </trkpt>
      <trkpt lat="45.32737" lon="6.05044">
        <ele>1520</ele>
        <time>2018-07-01T12:21:52Z</time>
      </trkpt>
      <trkpt lat="45.32733" lon="6.05042">
        <ele>1520</ele>
        <time>2018-07-01T12:21:55Z</time>
      </trkpt>
      <trkpt lat="45.32729" lon="6.05037">
        <ele>1520</ele>
        <time>2018-07-01T12:21:59Z</time>
      </trkpt>
      <trkpt lat="45.32723" lon="6.05034">
        <ele>1520</ele>
        <time>2018-07-01T12:22:03Z</time>
      </trkpt>
      <trkpt lat="45.32719" lon="6.05031">
        <ele>1520</ele>
        <time>2018-07-01T12:22:07Z</time>
      </trkpt>
      <trkpt lat="45.32714" lon="6.05026">
        <ele>1519</ele>
        <time>2018-07-01T12:22:11Z</time>
      </trkpt>
      <trkpt lat="45.32709" lon="6.05021">
        <ele>1519</ele>
        <time>2018-07-01T12:22:15Z</time>
      </trkpt>
      <trkpt lat="45.32705" lon="6.05019">
        <ele>1519</ele>
        <time>2018-07-01T12:22:18Z</time>
      </trkpt>
      <trkpt lat="45.32699" lon="6.05017">
        <ele>1519</ele>
        <time>2018-07-01T12:22:22Z</time>
      </trkpt>
      <trkpt lat="45.32694" lon="6.05013">
        <ele>1519</ele>
        <time>2018-07-01T12:22:26Z</time>
      </trkpt>
      <trkpt lat="45.3269" lon="6.05011">
        <ele>1519</ele>
        <time>2018-07-01T12:22:30Z</time>
      </trkpt>
      <trkpt lat="45.32685" lon="6.0501">
        <ele>1520</ele>
        <time>2018-07-01T12:22:34Z</time>
      </trkpt>
      <trkpt lat="45.32681" lon="6.05006">
        <ele>1518</ele>
        <time>2018-07-01T12:22:38Z</time>
      </trkpt>
      <trkpt lat="45.32677" lon="6.05002">
        <ele>1517</ele>
        <time>2018-07-01T12:22:42Z</time>
      </trkpt>
      <trkpt lat="45.32671" lon="6.05001">
        <ele>1516</ele>
        <time>2018-07-01T12:22:46Z</time>
      </trkpt>
      <trkpt lat="45.32666" lon="6.05002">
        <ele>1515</ele>
        <time>2018-07-01T12:22:49Z</time>
      </trkpt>
      <trkpt lat="45.32661" lon="6.05003">
        <ele>1514</ele>
        <time>2018-07-01T12:22:53Z</time>
      </trkpt>
      <trkpt lat="45.32656" lon="6.05005">
        <ele>1514</ele>
        <time>2018-07-01T12:22:56Z</time>
      </trkpt>
      <trkpt lat="45.32651" lon="6.05007">
        <ele>1513</ele>
        <time>2018-07-01T12:22:59Z</time>
      </trkpt>
      <trkpt lat="45.32645" lon="6.05011">
        <ele>1513</ele>
        <time>2018-07-01T12:23:02Z</time>
      </trkpt>
      <trkpt lat="45.32642" lon="6.05018">
        <ele>1514</ele>
        <time>2018-07-01T12:23:05Z</time>
      </trkpt>
      <trkpt lat="45.32638" lon="6.05025">
        <ele>1515</ele>
        <time>2018-07-01T12:23:08Z</time>
      </trkpt>
      <trkpt lat="45.32634" lon="6.0503">
        <ele>1516</ele>
        <time>2018-07-01T12:23:11Z</time>
      </trkpt>
      <trkpt lat="45.32629" lon="6.05037">
        <ele>1517</ele>
        <time>2018-07-01T12:23:15Z</time>
      </trkpt>
      <trkpt lat="45.32626" lon="6.05043">
        <ele>1518</ele>
        <time>2018-07-01T12:23:18Z</time>
      </trkpt>
      <trkpt lat="45.32624" lon="6.0505">
        <ele>1519</ele>
        <time>2018-07-01T12:23:22Z</time>
      </trkpt>
      <trkpt lat="45.3262" lon="6.05055">
        <ele>1520</ele>
        <time>2018-07-01T12:23:26Z</time>
      </trkpt>
      <trkpt lat="45.32617" lon="6.05063">
        <ele>1521</ele>
        <time>2018-07-01T12:23:30Z</time>
      </trkpt>
      <trkpt lat="45.32615" lon="6.05069">
        <ele>1523</ele>
        <time>2018-07-01T12:23:33Z</time>
      </trkpt>
      <trkpt lat="45.32611" lon="6.05075">
        <ele>1524</ele>
        <time>2018-07-01T12:23:36Z</time>
      </trkpt>
      <trkpt lat="45.32608" lon="6.0508">
        <ele>1524</ele>
        <time>2018-07-01T12:23:39Z</time>
      </trkpt>
      <trkpt lat="45.32605" lon="6.05085">
        <ele>1525</ele>
        <time>2018-07-01T12:23:42Z</time>
      </trkpt>
      <trkpt lat="45.32602" lon="6.0509">
        <ele>1526</ele>
        <time>2018-07-01T12:23:45Z</time>
      </trkpt>
      <trkpt lat="45.32597" lon="6.05095">
        <ele>1527</ele>
        <time>2018-07-01T12:23:49Z</time>
      </trkpt>
      <trkpt lat="45.32593" lon="6.05099">
        <ele>1527</ele>
        <time>2018-07-01T12:23:53Z</time>
      </trkpt>
      <trkpt lat="45.32589" lon="6.05103">
        <ele>1528</ele>
        <time>2018-07-01T12:23:57Z</time>
      </trkpt>
      <trkpt lat="45.32584" lon="6.05106">
        <ele>1528</ele>
        <time>2018-07-01T12:24:01Z</time>
      </trkpt>
      <trkpt lat="45.3258" lon="6.05112">
        <ele>1529</ele>
        <time>2018-07-01T12:24:05Z</time>
      </trkpt>
      <trkpt lat="45.32576" lon="6.05116">
        <ele>1529</ele>
        <time>2018-07-01T12:24:09Z</time>
      </trkpt>
      <trkpt lat="45.32573" lon="6.05124">
        <ele>1531</ele>
        <time>2018-07-01T12:24:13Z</time>
      </trkpt>
      <trkpt lat="45.32571" lon="6.05131">
        <ele>1533</ele>
        <time>2018-07-01T12:24:16Z</time>
      </trkpt>
      <trkpt lat="45.32569" lon="6.05138">
        <ele>1534</ele>
        <time>2018-07-01T12:24:20Z</time>
      </trkpt>
      <trkpt lat="45.32567" lon="6.05145">
        <ele>1536</ele>
        <time>2018-07-01T12:24:23Z</time>
      </trkpt>
      <trkpt lat="45.32563" lon="6.05151">
        <ele>1537</ele>
        <time>2018-07-01T12:24:27Z</time>
      </trkpt>
      <trkpt lat="45.3256" lon="6.05157">
        <ele>1538</ele>
        <time>2018-07-01T12:24:31Z</time>
      </trkpt>
      <trkpt lat="45.32557" lon="6.05162">
        <ele>1539</ele>
        <time>2018-07-01T12:24:34Z</time>
      </trkpt>
      <trkpt lat="45.32553" lon="6.05168">
        <ele>1540</ele>
        <time>2018-07-01T12:24:37Z</time>
      </trkpt>
      <trkpt lat="45.32551" lon="6.05174">
        <ele>1541</ele>
        <time>2018-07-01T12:24:40Z</time>
      </trkpt>
      <trkpt lat="45.32553" lon="6.05182">
        <ele>1544</ele>
        <time>2018-07-01T12:24:43Z</time>
      </trkpt>
      <trkpt lat="45.32557" lon="6.05189">
        <ele>1546</ele>
        <time>2018-07-01T12:24:46Z</time>
      </trkpt>
      <trkpt lat="45.32563" lon="6.05191">
        <ele>1548</ele>
        <time>2018-07-01T12:24:49Z</time>
      </trkpt>
      <trkpt lat="45.32568" lon="6.0519">
        <ele>1549</ele>
        <time>2018-07-01T12:24:52Z</time>
      </trkpt>
      <trkpt lat="45.32572" lon="6.05186">
        <ele>1548</ele>
        <time>2018-07-01T12:24:55Z</time>
      </trkpt>
      <trkpt lat="45.32576" lon="6.0518">
        <ele>1547</ele>
        <time>2018-07-01T12:24:58Z</time>
      </trkpt>
      <trkpt lat="45.32581" lon="6.05176">
        <ele>1547</ele>
        <time>2018-07-01T12:25:01Z</time>
      </trkpt>
      <trkpt lat="45.32585" lon="6.05173">
        <ele>1547</ele>
        <time>2018-07-01T12:25:04Z</time>
      </trkpt>
      <trkpt lat="45.3259" lon="6.05171">
        <ele>1547</ele>
        <time>2018-07-01T12:25:08Z</time>
      </trkpt>
      <trkpt lat="45.32594" lon="6.05167">
        <ele>1546</ele>
        <time>2018-07-01T12:25:12Z</time>
      </trkpt>
      <trkpt lat="45.32598" lon="6.05162">
        <ele>1546</ele>
        <time>2018-07-01T12:25:15Z</time>
      </trkpt>
      <trkpt lat="45.32602" lon="6.05158">
        <ele>1545</ele>
        <time>2018-07-01T12:25:18Z</time>
      </trkpt>
      <trkpt lat="45.32607" lon="6.05157">
        <ele>1546</ele>
        <time>2018-07-01T12:25:21Z</time>
      </trkpt>
      <trkpt lat="45.32612" lon="6.05155">
        <ele>1546</ele>
        <time>2018-07-01T12:25:26Z</time>
      </trkpt>
      <trkpt lat="45.32616" lon="6.05151">
        <ele>1545</ele>
        <time>2018-07-01T12:25:31Z</time>
      </trkpt>
      <trkpt lat="45.3262" lon="6.05147">
        <ele>1545</ele>
        <time>2018-07-01T12:25:36Z</time>
      </trkpt>
      <trkpt lat="45.32625" lon="6.0515">
        <ele>1546</ele>
        <time>2018-07-01T12:25:41Z</time>
      </trkpt>
      <trkpt lat="45.3263" lon="6.0515">
        <ele>1547</ele>
        <time>2018-07-01T12:25:45Z</time>
      </trkpt>
      <trkpt lat="45.32636" lon="6.05152">
        <ele>1548</ele>
        <time>2018-07-01T12:25:50Z</time>
      </trkpt>
      <trkpt lat="45.32641" lon="6.05153">
        <ele>1549</ele>
        <time>2018-07-01T12:25:54Z</time>
      </trkpt>
      <trkpt lat="45.32647" lon="6.05156">
        <ele>1550</ele>
        <time>2018-07-01T12:25:58Z</time>
      </trkpt>
      <trkpt lat="45.32651" lon="6.05158">
        <ele>1551</ele>
        <time>2018-07-01T12:26:01Z</time>
      </trkpt>
      <trkpt lat="45.32657" lon="6.05161">
        <ele>1553</ele>
        <time>2018-07-01T12:26:05Z</time>
      </trkpt>
      <trkpt lat="45.32662" lon="6.05163">
        <ele>1554</ele>
        <time>2018-07-01T12:26:08Z</time>
      </trkpt>
      <trkpt lat="45.32666" lon="6.05167">
        <ele>1555</ele>
        <time>2018-07-01T12:26:11Z</time>
      </trkpt>
      <trkpt lat="45.3267" lon="6.05175">
        <ele>1558</ele>
        <time>2018-07-01T12:26:14Z</time>
      </trkpt>
      <trkpt lat="45.32674" lon="6.05179">
        <ele>1559</ele>
        <time>2018-07-01T12:26:17Z</time>
      </trkpt>
      <trkpt lat="45.32678" lon="6.05183">
        <ele>1561</ele>
        <time>2018-07-01T12:26:20Z</time>
      </trkpt>
      <trkpt lat="45.32683" lon="6.05188">
        <ele>1563</ele>
        <time>2018-07-01T12:26:24Z</time>
      </trkpt>
      <trkpt lat="45.32688" lon="6.05195">
        <ele>1564</ele>
        <time>2018-07-01T12:26:29Z</time>
      </trkpt>
      <trkpt lat="45.32693" lon="6.05198">
        <ele>1564</ele>
        <time>2018-07-01T12:26:32Z</time>
      </trkpt>
      <trkpt lat="45.32697" lon="6.05204">
        <ele>1565</ele>
        <time>2018-07-01T12:26:36Z</time>
      </trkpt>
      <trkpt lat="45.32702" lon="6.05207">
        <ele>1566</ele>
        <time>2018-07-01T12:26:39Z</time>
      </trkpt>
      <trkpt lat="45.32707" lon="6.05209">
        <ele>1566</ele>
        <time>2018-07-01T12:26:42Z</time>
      </trkpt>
      <trkpt lat="45.32711" lon="6.05212">
        <ele>1566</ele>
        <time>2018-07-01T12:26:45Z</time>
      </trkpt>
      <trkpt lat="45.32716" lon="6.05217">
        <ele>1566</ele>
        <time>2018-07-01T12:26:48Z</time>
      </trkpt>
      <trkpt lat="45.32719" lon="6.05222">
        <ele>1567</ele>
        <time>2018-07-01T12:26:51Z</time>
      </trkpt>
      <trkpt lat="45.32722" lon="6.05228">
        <ele>1568</ele>
        <time>2018-07-01T12:26:54Z</time>
      </trkpt>
      <trkpt lat="45.32726" lon="6.05234">
        <ele>1569</ele>
        <time>2018-07-01T12:26:58Z</time>
      </trkpt>
      <trkpt lat="45.32728" lon="6.0524">
        <ele>1571</ele>
        <time>2018-07-01T12:27:01Z</time>
      </trkpt>
      <trkpt lat="45.32732" lon="6.05245">
        <ele>1571</ele>
        <time>2018-07-01T12:27:05Z</time>
      </trkpt>
      <trkpt lat="45.32737" lon="6.0525">
        <ele>1572</ele>
        <time>2018-07-01T12:27:08Z</time>
      </trkpt>
      <trkpt lat="45.32741" lon="6.05254">
        <ele>1572</ele>
        <time>2018-07-01T12:27:11Z</time>
      </trkpt>
      <trkpt lat="45.32744" lon="6.05258">
        <ele>1573</ele>
        <time>2018-07-01T12:27:14Z</time>
      </trkpt>
      <trkpt lat="45.32747" lon="6.05264">
        <ele>1574</ele>
        <time>2018-07-01T12:27:17Z</time>
      </trkpt>
      <trkpt lat="45.32751" lon="6.05269">
        <ele>1575</ele>
        <time>2018-07-01T12:27:20Z</time>
      </trkpt>
      <trkpt lat="45.32755" lon="6.05273">
        <ele>1575</ele>
        <time>2018-07-01T12:27:23Z</time>
      </trkpt>
      <trkpt lat="45.32758" lon="6.05276">
        <ele>1575</ele>
        <time>2018-07-01T12:27:26Z</time>
      </trkpt>
      <trkpt lat="45.3276" lon="6.05284">
        <ele>1576</ele>
        <time>2018-07-01T12:27:30Z</time>
      </trkpt>
      <trkpt lat="45.32758" lon="6.05291">
        <ele>1578</ele>
        <time>2018-07-01T12:27:34Z</time>
      </trkpt>
      <trkpt lat="45.32754" lon="6.05292">
        <ele>1580</ele>
        <time>2018-07-01T12:27:37Z</time>
      </trkpt>
      <trkpt lat="45.32749" lon="6.05288">
        <ele>1580</ele>
        <time>2018-07-01T12:27:40Z</time>
      </trkpt>
      <trkpt lat="45.32746" lon="6.05282">
        <ele>1579</ele>
        <time>2018-07-01T12:27:43Z</time>
      </trkpt>
      <trkpt lat="45.32744" lon="6.05275">
        <ele>1577</ele>
        <time>2018-07-01T12:27:46Z</time>
      </trkpt>
      <trkpt lat="45.32743" lon="6.05268">
        <ele>1575</ele>
        <time>2018-07-01T12:27:49Z</time>
      </trkpt>
      <trkpt lat="45.32739" lon="6.05263">
        <ele>1575</ele>
        <time>2018-07-01T12:27:53Z</time>
      </trkpt>
      <trkpt lat="45.32735" lon="6.0526">
        <ele>1575</ele>
        <time>2018-07-01T12:27:56Z</time>
      </trkpt>
      <trkpt lat="45.32731" lon="6.05257">
        <ele>1575</ele>
        <time>2018-07-01T12:27:59Z</time>
      </trkpt>
      <trkpt lat="45.32726" lon="6.05254">
        <ele>1574</ele>
        <time>2018-07-01T12:28:02Z</time>
      </trkpt>
      <trkpt lat="45.32722" lon="6.05251">
        <ele>1574</ele>
        <time>2018-07-01T12:28:05Z</time>
      </trkpt>
      <trkpt lat="45.32717" lon="6.05246">
        <ele>1574</ele>
        <time>2018-07-01T12:28:09Z</time>
      </trkpt>
      <trkpt lat="45.32711" lon="6.05245">
        <ele>1574</ele>
        <time>2018-07-01T12:28:13Z</time>
      </trkpt>
      <trkpt lat="45.32707" lon="6.05242">
        <ele>1574</ele>
        <time>2018-07-01T12:28:17Z</time>
      </trkpt>
      <trkpt lat="45.32701" lon="6.0524">
        <ele>1574</ele>
        <time>2018-07-01T12:28:21Z</time>
      </trkpt>
      <trkpt lat="45.32694" lon="6.05236">
        <ele>1574</ele>
        <time>2018-07-01T12:28:26Z</time>
      </trkpt>
      <trkpt lat="45.32689" lon="6.05235">
        <ele>1575</ele>
        <time>2018-07-01T12:28:30Z</time>
      </trkpt>
      <trkpt lat="45.32683" lon="6.05234">
        <ele>1575</ele>
        <time>2018-07-01T12:28:34Z</time>
      </trkpt>
      <trkpt lat="45.32678" lon="6.05232">
        <ele>1574</ele>
        <time>2018-07-01T12:28:37Z</time>
      </trkpt>
      <trkpt lat="45.32673" lon="6.0523">
        <ele>1573</ele>
        <time>2018-07-01T12:28:40Z</time>
      </trkpt>
      <trkpt lat="45.32668" lon="6.05229">
        <ele>1572</ele>
        <time>2018-07-01T12:28:43Z</time>
      </trkpt>
      <trkpt lat="45.32663" lon="6.05226">
        <ele>1571</ele>
        <time>2018-07-01T12:28:46Z</time>
      </trkpt>
      <trkpt lat="45.32659" lon="6.05223">
        <ele>1569</ele>
        <time>2018-07-01T12:28:49Z</time>
      </trkpt>
      <trkpt lat="45.32654" lon="6.0522">
        <ele>1568</ele>
        <time>2018-07-01T12:28:52Z</time>
      </trkpt>
      <trkpt lat="45.3265" lon="6.05219">
        <ele>1567</ele>
        <time>2018-07-01T12:28:55Z</time>
      </trkpt>
      <trkpt lat="45.32644" lon="6.0522">
        <ele>1567</ele>
        <time>2018-07-01T12:28:58Z</time>
      </trkpt>
      <trkpt lat="45.32639" lon="6.05223">
        <ele>1567</ele>
        <time>2018-07-01T12:29:01Z</time>
      </trkpt>
      <trkpt lat="45.32635" lon="6.05226">
        <ele>1568</ele>
        <time>2018-07-01T12:29:04Z</time>
      </trkpt>
      <trkpt lat="45.3263" lon="6.05229">
        <ele>1568</ele>
        <time>2018-07-01T12:29:07Z</time>
      </trkpt>
      <trkpt lat="45.32626" lon="6.05233">
        <ele>1568</ele>
        <time>2018-07-01T12:29:11Z</time>
      </trkpt>
      <trkpt lat="45.32621" lon="6.05238">
        <ele>1569</ele>
        <time>2018-07-01T12:29:15Z</time>
      </trkpt>
      <trkpt lat="45.32619" lon="6.05244">
        <ele>1570</ele>
        <time>2018-07-01T12:29:18Z</time>
      </trkpt>
      <trkpt lat="45.32616" lon="6.0525">
        <ele>1572</ele>
        <time>2018-07-01T12:29:21Z</time>
      </trkpt>
      <trkpt lat="45.32613" lon="6.05255">
        <ele>1572</ele>
        <time>2018-07-01T12:29:24Z</time>
      </trkpt>
      <trkpt lat="45.32611" lon="6.05262">
        <ele>1574</ele>
        <time>2018-07-01T12:29:27Z</time>
      </trkpt>
      <trkpt lat="45.32607" lon="6.05267">
        <ele>1574</ele>
        <time>2018-07-01T12:29:30Z</time>
      </trkpt>
      <trkpt lat="45.32604" lon="6.05271">
        <ele>1575</ele>
        <time>2018-07-01T12:29:33Z</time>
      </trkpt>
      <trkpt lat="45.32601" lon="6.05276">
        <ele>1576</ele>
        <time>2018-07-01T12:29:36Z</time>
      </trkpt>
      <trkpt lat="45.32597" lon="6.05282">
        <ele>1577</ele>
        <time>2018-07-01T12:29:39Z</time>
      </trkpt>
      <trkpt lat="45.32594" lon="6.05286">
        <ele>1577</ele>
        <time>2018-07-01T12:29:42Z</time>
      </trkpt>
      <trkpt lat="45.3259" lon="6.05292">
        <ele>1578</ele>
        <time>2018-07-01T12:29:46Z</time>
      </trkpt>
      <trkpt lat="45.32587" lon="6.05297">
        <ele>1579</ele>
        <time>2018-07-01T12:29:49Z</time>
      </trkpt>
      <trkpt lat="45.32584" lon="6.05303">
        <ele>1580</ele>
        <time>2018-07-01T12:29:53Z</time>
      </trkpt>
      <trkpt lat="45.32581" lon="6.05309">
        <ele>1581</ele>
        <time>2018-07-01T12:29:57Z</time>
      </trkpt>
      <trkpt lat="45.32578" lon="6.05314">
        <ele>1582</ele>
        <time>2018-07-01T12:30:00Z</time>
      </trkpt>
      <trkpt lat="45.32574" lon="6.0532">
        <ele>1583</ele>
        <time>2018-07-01T12:30:03Z</time>
      </trkpt>
      <trkpt lat="45.3257" lon="6.05324">
        <ele>1583</ele>
        <time>2018-07-01T12:30:06Z</time>
      </trkpt>
      <trkpt lat="45.32568" lon="6.0533">
        <ele>1585</ele>
        <time>2018-07-01T12:30:09Z</time>
      </trkpt>
      <trkpt lat="45.32567" lon="6.05338">
        <ele>1587</ele>
        <time>2018-07-01T12:30:12Z</time>
      </trkpt>
      <trkpt lat="45.32565" lon="6.05345">
        <ele>1588</ele>
        <time>2018-07-01T12:30:15Z</time>
      </trkpt>
      <trkpt lat="45.32564" lon="6.05352">
        <ele>1590</ele>
        <time>2018-07-01T12:30:18Z</time>
      </trkpt>
      <trkpt lat="45.32562" lon="6.05358">
        <ele>1591</ele>
        <time>2018-07-01T12:30:21Z</time>
      </trkpt>
      <trkpt lat="45.32559" lon="6.05364">
        <ele>1593</ele>
        <time>2018-07-01T12:30:24Z</time>
      </trkpt>
      <trkpt lat="45.32555" lon="6.05368">
        <ele>1594</ele>
        <time>2018-07-01T12:30:27Z</time>
      </trkpt>
      <trkpt lat="45.32552" lon="6.05373">
        <ele>1594</ele>
        <time>2018-07-01T12:30:30Z</time>
      </trkpt>
      <trkpt lat="45.32548" lon="6.05377">
        <ele>1595</ele>
        <time>2018-07-01T12:30:33Z</time>
      </trkpt>
      <trkpt lat="45.32544" lon="6.05381">
        <ele>1596</ele>
        <time>2018-07-01T12:30:36Z</time>
      </trkpt>
      <trkpt lat="45.3254" lon="6.05383">
        <ele>1597</ele>
        <time>2018-07-01T12:30:39Z</time>
      </trkpt>
      <trkpt lat="45.32534" lon="6.05385">
        <ele>1597</ele>
        <time>2018-07-01T12:30:43Z</time>
      </trkpt>
      <trkpt lat="45.32529" lon="6.05386">
        <ele>1598</ele>
        <time>2018-07-01T12:30:46Z</time>
      </trkpt>
      <trkpt lat="45.32525" lon="6.05386">
        <ele>1597</ele>
        <time>2018-07-01T12:30:49Z</time>
      </trkpt>
      <trkpt lat="45.3252" lon="6.05385">
        <ele>1597</ele>
        <time>2018-07-01T12:30:53Z</time>
      </trkpt>
      <trkpt lat="45.32515" lon="6.05388">
        <ele>1598</ele>
        <time>2018-07-01T12:30:57Z</time>
      </trkpt>
      <trkpt lat="45.3251" lon="6.05389">
        <ele>1598</ele>
        <time>2018-07-01T12:31:01Z</time>
      </trkpt>
      <trkpt lat="45.32505" lon="6.05391">
        <ele>1599</ele>
        <time>2018-07-01T12:31:05Z</time>
      </trkpt>
      <trkpt lat="45.325" lon="6.05393">
        <ele>1599</ele>
        <time>2018-07-01T12:31:09Z</time>
      </trkpt>
      <trkpt lat="45.32494" lon="6.05396">
        <ele>1600</ele>
        <time>2018-07-01T12:31:13Z</time>
      </trkpt>
      <trkpt lat="45.32489" lon="6.05398">
        <ele>1600</ele>
        <time>2018-07-01T12:31:16Z</time>
      </trkpt>
      <trkpt lat="45.32485" lon="6.054">
        <ele>1601</ele>
        <time>2018-07-01T12:31:19Z</time>
      </trkpt>
      <trkpt lat="45.3248" lon="6.05402">
        <ele>1601</ele>
        <time>2018-07-01T12:31:22Z</time>
      </trkpt>
      <trkpt lat="45.32476" lon="6.05403">
        <ele>1602</ele>
        <time>2018-07-01T12:31:25Z</time>
      </trkpt>
      <trkpt lat="45.32472" lon="6.05407">
        <ele>1603</ele>
        <time>2018-07-01T12:31:28Z</time>
      </trkpt>
      <trkpt lat="45.32467" lon="6.05409">
        <ele>1604</ele>
        <time>2018-07-01T12:31:31Z</time>
      </trkpt>
      <trkpt lat="45.32462" lon="6.05407">
        <ele>1604</ele>
        <time>2018-07-01T12:31:34Z</time>
      </trkpt>
      <trkpt lat="45.32456" lon="6.05409">
        <ele>1604</ele>
        <time>2018-07-01T12:31:39Z</time>
      </trkpt>
      <trkpt lat="45.32451" lon="6.05413">
        <ele>1606</ele>
        <time>2018-07-01T12:31:43Z</time>
      </trkpt>
      <trkpt lat="45.32445" lon="6.05415">
        <ele>1607</ele>
        <time>2018-07-01T12:31:47Z</time>
      </trkpt>
      <trkpt lat="45.3244" lon="6.05418">
        <ele>1608</ele>
        <time>2018-07-01T12:31:51Z</time>
      </trkpt>
      <trkpt lat="45.32435" lon="6.05417">
        <ele>1608</ele>
        <time>2018-07-01T12:31:54Z</time>
      </trkpt>
      <trkpt lat="45.3243" lon="6.05416">
        <ele>1608</ele>
        <time>2018-07-01T12:31:57Z</time>
      </trkpt>
      <trkpt lat="45.32424" lon="6.05418">
        <ele>1609</ele>
        <time>2018-07-01T12:32:01Z</time>
      </trkpt>
      <trkpt lat="45.32419" lon="6.05419">
        <ele>1609</ele>
        <time>2018-07-01T12:32:04Z</time>
      </trkpt>
      <trkpt lat="45.32414" lon="6.05419">
        <ele>1610</ele>
        <time>2018-07-01T12:32:07Z</time>
      </trkpt>
      <trkpt lat="45.32409" lon="6.05417">
        <ele>1609</ele>
        <time>2018-07-01T12:32:11Z</time>
      </trkpt>
      <trkpt lat="45.32404" lon="6.05416">
        <ele>1609</ele>
        <time>2018-07-01T12:32:14Z</time>
      </trkpt>
      <trkpt lat="45.32398" lon="6.05417">
        <ele>1610</ele>
        <time>2018-07-01T12:32:18Z</time>
      </trkpt>
      <trkpt lat="45.32391" lon="6.05414">
        <ele>1609</ele>
        <time>2018-07-01T12:32:22Z</time>
      </trkpt>
      <trkpt lat="45.32386" lon="6.05418">
        <ele>1611</ele>
        <time>2018-07-01T12:32:27Z</time>
      </trkpt>
      <trkpt lat="45.32381" lon="6.0542">
        <ele>1612</ele>
        <time>2018-07-01T12:32:31Z</time>
      </trkpt>
      <trkpt lat="45.32376" lon="6.0542">
        <ele>1613</ele>
        <time>2018-07-01T12:32:34Z</time>
      </trkpt>
      <trkpt lat="45.3237" lon="6.0542">
        <ele>1613</ele>
        <time>2018-07-01T12:32:37Z</time>
      </trkpt>
      <trkpt lat="45.32364" lon="6.0542">
        <ele>1614</ele>
        <time>2018-07-01T12:32:40Z</time>
      </trkpt>
      <trkpt lat="45.32359" lon="6.05419">
        <ele>1614</ele>
        <time>2018-07-01T12:32:43Z</time>
      </trkpt>
      <trkpt lat="45.32353" lon="6.05418">
        <ele>1614</ele>
        <time>2018-07-01T12:32:46Z</time>
      </trkpt>
      <trkpt lat="45.32349" lon="6.05418">
        <ele>1614</ele>
        <time>2018-07-01T12:32:49Z</time>
      </trkpt>
      <trkpt lat="45.32344" lon="6.0542">
        <ele>1615</ele>
        <time>2018-07-01T12:32:52Z</time>
      </trkpt>
      <trkpt lat="45.32338" lon="6.05421">
        <ele>1616</ele>
        <time>2018-07-01T12:32:56Z</time>
      </trkpt>
      <trkpt lat="45.32333" lon="6.05419">
        <ele>1616</ele>
        <time>2018-07-01T12:32:59Z</time>
      </trkpt>
      <trkpt lat="45.32329" lon="6.05417">
        <ele>1616</ele>
        <time>2018-07-01T12:33:02Z</time>
      </trkpt>
      <trkpt lat="45.32324" lon="6.05417">
        <ele>1617</ele>
        <time>2018-07-01T12:33:05Z</time>
      </trkpt>
      <trkpt lat="45.32319" lon="6.05418">
        <ele>1619</ele>
        <time>2018-07-01T12:33:08Z</time>
      </trkpt>
      <trkpt lat="45.32314" lon="6.05421">
        <ele>1621</ele>
        <time>2018-07-01T12:33:11Z</time>
      </trkpt>
      <trkpt lat="45.32308" lon="6.05422">
        <ele>1622</ele>
        <time>2018-07-01T12:33:14Z</time>
      </trkpt>
      <trkpt lat="45.32303" lon="6.05423">
        <ele>1623</ele>
        <time>2018-07-01T12:33:17Z</time>
      </trkpt>
      <trkpt lat="45.32298" lon="6.05423">
        <ele>1624</ele>
        <time>2018-07-01T12:33:20Z</time>
      </trkpt>
      <trkpt lat="45.32293" lon="6.05424">
        <ele>1626</ele>
        <time>2018-07-01T12:33:23Z</time>
      </trkpt>
      <trkpt lat="45.32288" lon="6.05424">
        <ele>1627</ele>
        <time>2018-07-01T12:33:26Z</time>
      </trkpt>
      <trkpt lat="45.32283" lon="6.05423">
        <ele>1627</ele>
        <time>2018-07-01T12:33:29Z</time>
      </trkpt>
      <trkpt lat="45.32278" lon="6.05422">
        <ele>1628</ele>
        <time>2018-07-01T12:33:32Z</time>
      </trkpt>
      <trkpt lat="45.32274" lon="6.05421">
        <ele>1628</ele>
        <time>2018-07-01T12:33:35Z</time>
      </trkpt>
      <trkpt lat="45.32269" lon="6.0542">
        <ele>1629</ele>
        <time>2018-07-01T12:33:38Z</time>
      </trkpt>
      <trkpt lat="45.32264" lon="6.05418">
        <ele>1630</ele>
        <time>2018-07-01T12:33:41Z</time>
      </trkpt>
      <trkpt lat="45.32259" lon="6.05415">
        <ele>1630</ele>
        <time>2018-07-01T12:33:44Z</time>
      </trkpt>
      <trkpt lat="45.32254" lon="6.05413">
        <ele>1631</ele>
        <time>2018-07-01T12:33:47Z</time>
      </trkpt>
      <trkpt lat="45.3225" lon="6.05409">
        <ele>1631</ele>
        <time>2018-07-01T12:33:51Z</time>
      </trkpt>
      <trkpt lat="45.32245" lon="6.05403">
        <ele>1631</ele>
        <time>2018-07-01T12:33:55Z</time>
      </trkpt>
      <trkpt lat="45.32244" lon="6.05397">
        <ele>1629</ele>
        <time>2018-07-01T12:33:58Z</time>
      </trkpt>
      <trkpt lat="45.32242" lon="6.0539">
        <ele>1628</ele>
        <time>2018-07-01T12:34:02Z</time>
      </trkpt>
      <trkpt lat="45.32239" lon="6.05383">
        <ele>1627</ele>
        <time>2018-07-01T12:34:06Z</time>
      </trkpt>
      <trkpt lat="45.32235" lon="6.05378">
        <ele>1627</ele>
        <time>2018-07-01T12:34:10Z</time>
      </trkpt>
      <trkpt lat="45.32231" lon="6.05375">
        <ele>1628</ele>
        <time>2018-07-01T12:34:13Z</time>
      </trkpt>
      <trkpt lat="45.32227" lon="6.05369">
        <ele>1627</ele>
        <time>2018-07-01T12:34:23Z</time>
      </trkpt>
      <trkpt lat="45.32224" lon="6.05363">
        <ele>1627</ele>
        <time>2018-07-01T12:34:29Z</time>
      </trkpt>
      <trkpt lat="45.32225" lon="6.05363">
        <ele>1626</ele>
        <time>2018-07-01T12:34:55Z</time>
      </trkpt>
      <trkpt lat="45.32225" lon="6.05363">
        <ele>1626</ele>
        <time>2018-07-01T12:34:59Z</time>
      </trkpt>
      <trkpt lat="45.32225" lon="6.0536">
        <ele>1626</ele>
        <time>2018-07-01T12:35:27Z</time>
      </trkpt>
      <trkpt lat="45.32225" lon="6.0536">
        <ele>1626</ele>
        <time>2018-07-01T12:35:29Z</time>
      </trkpt>
      <trkpt lat="45.32227" lon="6.05365">
        <ele>1626</ele>
        <time>2018-07-01T12:35:45Z</time>
      </trkpt>
      <trkpt lat="45.32227" lon="6.05366">
        <ele>1627</ele>
        <time>2018-07-01T12:36:04Z</time>
      </trkpt>
      <trkpt lat="45.32227" lon="6.05366">
        <ele>1627</ele>
        <time>2018-07-01T12:36:07Z</time>
      </trkpt>
      <trkpt lat="45.32225" lon="6.05373">
        <ele>1629</ele>
        <time>2018-07-01T12:36:16Z</time>
      </trkpt>
      <trkpt lat="45.32229" lon="6.05375">
        <ele>1629</ele>
        <time>2018-07-01T12:36:40Z</time>
      </trkpt>
      <trkpt lat="45.32229" lon="6.05376">
        <ele>1629</ele>
        <time>2018-07-01T12:36:56Z</time>
      </trkpt>
      <trkpt lat="45.32232" lon="6.05384">
        <ele>1630</ele>
        <time>2018-07-01T12:37:00Z</time>
      </trkpt>
      <trkpt lat="45.32236" lon="6.05391">
        <ele>1630</ele>
        <time>2018-07-01T12:37:02Z</time>
      </trkpt>
      <trkpt lat="45.32239" lon="6.05399">
        <ele>1631</ele>
        <time>2018-07-01T12:37:05Z</time>
      </trkpt>
      <trkpt lat="45.3224" lon="6.05405">
        <ele>1632</ele>
        <time>2018-07-01T12:37:07Z</time>
      </trkpt>
      <trkpt lat="45.32241" lon="6.05412">
        <ele>1634</ele>
        <time>2018-07-01T12:37:09Z</time>
      </trkpt>
      <trkpt lat="45.32243" lon="6.05418">
        <ele>1635</ele>
        <time>2018-07-01T12:37:11Z</time>
      </trkpt>
      <trkpt lat="45.32245" lon="6.05425">
        <ele>1637</ele>
        <time>2018-07-01T12:37:13Z</time>
      </trkpt>
      <trkpt lat="45.32249" lon="6.05432">
        <ele>1638</ele>
        <time>2018-07-01T12:37:16Z</time>
      </trkpt>
      <trkpt lat="45.32253" lon="6.05436">
        <ele>1638</ele>
        <time>2018-07-01T12:37:19Z</time>
      </trkpt>
      <trkpt lat="45.32257" lon="6.05441">
        <ele>1639</ele>
        <time>2018-07-01T12:37:22Z</time>
      </trkpt>
      <trkpt lat="45.32262" lon="6.05443">
        <ele>1638</ele>
        <time>2018-07-01T12:37:24Z</time>
      </trkpt>
      <trkpt lat="45.32268" lon="6.05445">
        <ele>1638</ele>
        <time>2018-07-01T12:37:27Z</time>
      </trkpt>
      <trkpt lat="45.32274" lon="6.05446">
        <ele>1637</ele>
        <time>2018-07-01T12:37:30Z</time>
      </trkpt>
      <trkpt lat="45.32279" lon="6.05448">
        <ele>1636</ele>
        <time>2018-07-01T12:37:33Z</time>
      </trkpt>
      <trkpt lat="45.32285" lon="6.05443">
        <ele>1634</ele>
        <time>2018-07-01T12:37:35Z</time>
      </trkpt>
      <trkpt lat="45.32289" lon="6.0544">
        <ele>1632</ele>
        <time>2018-07-01T12:37:37Z</time>
      </trkpt>
      <trkpt lat="45.32294" lon="6.05441">
        <ele>1631</ele>
        <time>2018-07-01T12:37:40Z</time>
      </trkpt>
      <trkpt lat="45.32298" lon="6.05447">
        <ele>1633</ele>
        <time>2018-07-01T12:37:43Z</time>
      </trkpt>
      <trkpt lat="45.32303" lon="6.05451">
        <ele>1633</ele>
        <time>2018-07-01T12:37:46Z</time>
      </trkpt>
      <trkpt lat="45.32307" lon="6.05455">
        <ele>1634</ele>
        <time>2018-07-01T12:37:49Z</time>
      </trkpt>
      <trkpt lat="45.32311" lon="6.05459">
        <ele>1635</ele>
        <time>2018-07-01T12:37:54Z</time>
      </trkpt>
      <trkpt lat="45.32314" lon="6.05465">
        <ele>1637</ele>
        <time>2018-07-01T12:37:57Z</time>
      </trkpt>
      <trkpt lat="45.32319" lon="6.05468">
        <ele>1637</ele>
        <time>2018-07-01T12:38:01Z</time>
      </trkpt>
      <trkpt lat="45.32323" lon="6.05473">
        <ele>1638</ele>
        <time>2018-07-01T12:38:05Z</time>
      </trkpt>
      <trkpt lat="45.32328" lon="6.05477">
        <ele>1639</ele>
        <time>2018-07-01T12:38:09Z</time>
      </trkpt>
      <trkpt lat="45.32332" lon="6.05479">
        <ele>1639</ele>
        <time>2018-07-01T12:38:12Z</time>
      </trkpt>
      <trkpt lat="45.32337" lon="6.05481">
        <ele>1639</ele>
        <time>2018-07-01T12:38:15Z</time>
      </trkpt>
      <trkpt lat="45.32342" lon="6.05482">
        <ele>1639</ele>
        <time>2018-07-01T12:38:18Z</time>
      </trkpt>
      <trkpt lat="45.32347" lon="6.05482">
        <ele>1638</ele>
        <time>2018-07-01T12:38:22Z</time>
      </trkpt>
      <trkpt lat="45.32353" lon="6.0548">
        <ele>1637</ele>
        <time>2018-07-01T12:38:25Z</time>
      </trkpt>
      <trkpt lat="45.32359" lon="6.0548">
        <ele>1637</ele>
        <time>2018-07-01T12:38:29Z</time>
      </trkpt>
      <trkpt lat="45.32364" lon="6.05481">
        <ele>1636</ele>
        <time>2018-07-01T12:38:33Z</time>
      </trkpt>
      <trkpt lat="45.3237" lon="6.0548">
        <ele>1636</ele>
        <time>2018-07-01T12:38:37Z</time>
      </trkpt>
      <trkpt lat="45.32373" lon="6.05485">
        <ele>1638</ele>
        <time>2018-07-01T12:38:40Z</time>
      </trkpt>
      <trkpt lat="45.32377" lon="6.05491">
        <ele>1639</ele>
        <time>2018-07-01T12:38:45Z</time>
      </trkpt>
      <trkpt lat="45.32381" lon="6.05493">
        <ele>1640</ele>
        <time>2018-07-01T12:38:49Z</time>
      </trkpt>
      <trkpt lat="45.32386" lon="6.05492">
        <ele>1639</ele>
        <time>2018-07-01T12:38:52Z</time>
      </trkpt>
      <trkpt lat="45.32392" lon="6.05492">
        <ele>1638</ele>
        <time>2018-07-01T12:38:55Z</time>
      </trkpt>
      <trkpt lat="45.32397" lon="6.05493">
        <ele>1638</ele>
        <time>2018-07-01T12:38:58Z</time>
      </trkpt>
      <trkpt lat="45.32402" lon="6.05493">
        <ele>1638</ele>
        <time>2018-07-01T12:39:01Z</time>
      </trkpt>
      <trkpt lat="45.32406" lon="6.05493">
        <ele>1638</ele>
        <time>2018-07-01T12:39:04Z</time>
      </trkpt>
      <trkpt lat="45.32412" lon="6.05494">
        <ele>1638</ele>
        <time>2018-07-01T12:39:08Z</time>
      </trkpt>
      <trkpt lat="45.32417" lon="6.05494">
        <ele>1637</ele>
        <time>2018-07-01T12:39:11Z</time>
      </trkpt>
      <trkpt lat="45.32423" lon="6.05492">
        <ele>1637</ele>
        <time>2018-07-01T12:39:14Z</time>
      </trkpt>
      <trkpt lat="45.32429" lon="6.05492">
        <ele>1637</ele>
        <time>2018-07-01T12:39:17Z</time>
      </trkpt>
      <trkpt lat="45.32435" lon="6.05494">
        <ele>1637</ele>
        <time>2018-07-01T12:39:20Z</time>
      </trkpt>
      <trkpt lat="45.32439" lon="6.05497">
        <ele>1638</ele>
        <time>2018-07-01T12:39:23Z</time>
      </trkpt>
      <trkpt lat="45.32444" lon="6.05499">
        <ele>1639</ele>
        <time>2018-07-01T12:39:26Z</time>
      </trkpt>
      <trkpt lat="45.32447" lon="6.05502">
        <ele>1640</ele>
        <time>2018-07-01T12:39:29Z</time>
      </trkpt>
      <trkpt lat="45.32452" lon="6.05505">
        <ele>1641</ele>
        <time>2018-07-01T12:39:32Z</time>
      </trkpt>
      <trkpt lat="45.32457" lon="6.05506">
        <ele>1641</ele>
        <time>2018-07-01T12:39:35Z</time>
      </trkpt>
      <trkpt lat="45.32462" lon="6.05508">
        <ele>1641</ele>
        <time>2018-07-01T12:39:38Z</time>
      </trkpt>
      <trkpt lat="45.32466" lon="6.0551">
        <ele>1642</ele>
        <time>2018-07-01T12:39:41Z</time>
      </trkpt>
      <trkpt lat="45.32471" lon="6.05511">
        <ele>1642</ele>
        <time>2018-07-01T12:39:44Z</time>
      </trkpt>
      <trkpt lat="45.32476" lon="6.05509">
        <ele>1642</ele>
        <time>2018-07-01T12:39:47Z</time>
      </trkpt>
      <trkpt lat="45.32482" lon="6.0551">
        <ele>1642</ele>
        <time>2018-07-01T12:39:50Z</time>
      </trkpt>
      <trkpt lat="45.32488" lon="6.05511">
        <ele>1642</ele>
        <time>2018-07-01T12:39:53Z</time>
      </trkpt>
      <trkpt lat="45.32493" lon="6.0551">
        <ele>1642</ele>
        <time>2018-07-01T12:39:56Z</time>
      </trkpt>
      <trkpt lat="45.32496" lon="6.05518">
        <ele>1644</ele>
        <time>2018-07-01T12:40:00Z</time>
      </trkpt>
      <trkpt lat="45.32499" lon="6.05523">
        <ele>1646</ele>
        <time>2018-07-01T12:40:03Z</time>
      </trkpt>
      <trkpt lat="45.32505" lon="6.05526">
        <ele>1647</ele>
        <time>2018-07-01T12:40:07Z</time>
      </trkpt>
      <trkpt lat="45.3251" lon="6.05525">
        <ele>1646</ele>
        <time>2018-07-01T12:40:10Z</time>
      </trkpt>
      <trkpt lat="45.32516" lon="6.05526">
        <ele>1646</ele>
        <time>2018-07-01T12:40:13Z</time>
      </trkpt>
      <trkpt lat="45.32521" lon="6.05526">
        <ele>1646</ele>
        <time>2018-07-01T12:40:16Z</time>
      </trkpt>
      <trkpt lat="45.32526" lon="6.05529">
        <ele>1647</ele>
        <time>2018-07-01T12:40:19Z</time>
      </trkpt>
      <trkpt lat="45.32532" lon="6.0553">
        <ele>1647</ele>
        <time>2018-07-01T12:40:22Z</time>
      </trkpt>
      <trkpt lat="45.32537" lon="6.05531">
        <ele>1648</ele>
        <time>2018-07-01T12:40:25Z</time>
      </trkpt>
      <trkpt lat="45.32543" lon="6.05531">
        <ele>1648</ele>
        <time>2018-07-01T12:40:28Z</time>
      </trkpt>
      <trkpt lat="45.32549" lon="6.05532">
        <ele>1648</ele>
        <time>2018-07-01T12:40:31Z</time>
      </trkpt>
      <trkpt lat="45.32554" lon="6.05533">
        <ele>1648</ele>
        <time>2018-07-01T12:40:34Z</time>
      </trkpt>
      <trkpt lat="45.32559" lon="6.05534">
        <ele>1648</ele>
        <time>2018-07-01T12:40:37Z</time>
      </trkpt>
      <trkpt lat="45.32564" lon="6.05535">
        <ele>1649</ele>
        <time>2018-07-01T12:40:41Z</time>
      </trkpt>
      <trkpt lat="45.32569" lon="6.05535">
        <ele>1649</ele>
        <time>2018-07-01T12:40:44Z</time>
      </trkpt>
      <trkpt lat="45.32575" lon="6.05537">
        <ele>1649</ele>
        <time>2018-07-01T12:40:48Z</time>
      </trkpt>
      <trkpt lat="45.32579" lon="6.0554">
        <ele>1650</ele>
        <time>2018-07-01T12:40:51Z</time>
      </trkpt>
      <trkpt lat="45.32583" lon="6.05542">
        <ele>1651</ele>
        <time>2018-07-01T12:40:54Z</time>
      </trkpt>
      <trkpt lat="45.32587" lon="6.05546">
        <ele>1652</ele>
        <time>2018-07-01T12:40:57Z</time>
      </trkpt>
      <trkpt lat="45.32592" lon="6.05548">
        <ele>1652</ele>
        <time>2018-07-01T12:41:00Z</time>
      </trkpt>
      <trkpt lat="45.32597" lon="6.05551">
        <ele>1653</ele>
        <time>2018-07-01T12:41:03Z</time>
      </trkpt>
      <trkpt lat="45.32602" lon="6.05554">
        <ele>1654</ele>
        <time>2018-07-01T12:41:07Z</time>
      </trkpt>
      <trkpt lat="45.32607" lon="6.05556">
        <ele>1654</ele>
        <time>2018-07-01T12:41:12Z</time>
      </trkpt>
      <trkpt lat="45.32613" lon="6.05557">
        <ele>1655</ele>
        <time>2018-07-01T12:41:15Z</time>
      </trkpt>
      <trkpt lat="45.32618" lon="6.05558">
        <ele>1655</ele>
        <time>2018-07-01T12:41:18Z</time>
      </trkpt>
      <trkpt lat="45.32623" lon="6.05559">
        <ele>1655</ele>
        <time>2018-07-01T12:41:20Z</time>
      </trkpt>
      <trkpt lat="45.32629" lon="6.0556">
        <ele>1655</ele>
        <time>2018-07-01T12:41:23Z</time>
      </trkpt>
      <trkpt lat="45.32634" lon="6.05562">
        <ele>1655</ele>
        <time>2018-07-01T12:41:26Z</time>
      </trkpt>
      <trkpt lat="45.32638" lon="6.05565">
        <ele>1656</ele>
        <time>2018-07-01T12:41:29Z</time>
      </trkpt>
      <trkpt lat="45.32639" lon="6.05572">
        <ele>1658</ele>
        <time>2018-07-01T12:41:32Z</time>
      </trkpt>
      <trkpt lat="45.32637" lon="6.05579">
        <ele>1659</ele>
        <time>2018-07-01T12:41:35Z</time>
      </trkpt>
      <trkpt lat="45.32632" lon="6.0558">
        <ele>1660</ele>
        <time>2018-07-01T12:41:38Z</time>
      </trkpt>
      <trkpt lat="45.32626" lon="6.05578">
        <ele>1659</ele>
        <time>2018-07-01T12:41:41Z</time>
      </trkpt>
      <trkpt lat="45.32621" lon="6.05577">
        <ele>1659</ele>
        <time>2018-07-01T12:41:44Z</time>
      </trkpt>
      <trkpt lat="45.32615" lon="6.05577">
        <ele>1659</ele>
        <time>2018-07-01T12:41:47Z</time>
      </trkpt>
      <trkpt lat="45.3261" lon="6.05577">
        <ele>1659</ele>
        <time>2018-07-01T12:41:50Z</time>
      </trkpt>
      <trkpt lat="45.32605" lon="6.05575">
        <ele>1659</ele>
        <time>2018-07-01T12:41:53Z</time>
      </trkpt>
      <trkpt lat="45.32599" lon="6.05575">
        <ele>1659</ele>
        <time>2018-07-01T12:41:56Z</time>
      </trkpt>
      <trkpt lat="45.32594" lon="6.05576">
        <ele>1659</ele>
        <time>2018-07-01T12:41:59Z</time>
      </trkpt>
      <trkpt lat="45.32589" lon="6.0558">
        <ele>1660</ele>
        <time>2018-07-01T12:42:02Z</time>
      </trkpt>
      <trkpt lat="45.32584" lon="6.05582">
        <ele>1661</ele>
        <time>2018-07-01T12:42:05Z</time>
      </trkpt>
      <trkpt lat="45.32579" lon="6.05581">
        <ele>1661</ele>
        <time>2018-07-01T12:42:08Z</time>
      </trkpt>
      <trkpt lat="45.32574" lon="6.05583">
        <ele>1661</ele>
        <time>2018-07-01T12:42:12Z</time>
      </trkpt>
      <trkpt lat="45.32569" lon="6.05583">
        <ele>1662</ele>
        <time>2018-07-01T12:42:16Z</time>
      </trkpt>
      <trkpt lat="45.32564" lon="6.05582">
        <ele>1661</ele>
        <time>2018-07-01T12:42:20Z</time>
      </trkpt>
      <trkpt lat="45.32559" lon="6.0558">
        <ele>1661</ele>
        <time>2018-07-01T12:42:24Z</time>
      </trkpt>
      <trkpt lat="45.32554" lon="6.0558">
        <ele>1661</ele>
        <time>2018-07-01T12:42:27Z</time>
      </trkpt>
      <trkpt lat="45.32549" lon="6.05581">
        <ele>1661</ele>
        <time>2018-07-01T12:42:30Z</time>
      </trkpt>
      <trkpt lat="45.32543" lon="6.05582">
        <ele>1662</ele>
        <time>2018-07-01T12:42:33Z</time>
      </trkpt>
      <trkpt lat="45.32538" lon="6.05582">
        <ele>1662</ele>
        <time>2018-07-01T12:42:36Z</time>
      </trkpt>
      <trkpt lat="45.32533" lon="6.05583">
        <ele>1662</ele>
        <time>2018-07-01T12:42:39Z</time>
      </trkpt>
      <trkpt lat="45.32527" lon="6.05585">
        <ele>1663</ele>
        <time>2018-07-01T12:42:42Z</time>
      </trkpt>
      <trkpt lat="45.32522" lon="6.05587">
        <ele>1664</ele>
        <time>2018-07-01T12:42:45Z</time>
      </trkpt>
      <trkpt lat="45.32517" lon="6.0559">
        <ele>1665</ele>
        <time>2018-07-01T12:42:48Z</time>
      </trkpt>
      <trkpt lat="45.32512" lon="6.05593">
        <ele>1666</ele>
        <time>2018-07-01T12:42:51Z</time>
      </trkpt>
      <trkpt lat="45.32507" lon="6.05597">
        <ele>1667</ele>
        <time>2018-07-01T12:42:54Z</time>
      </trkpt>
      <trkpt lat="45.32502" lon="6.05599">
        <ele>1668</ele>
        <time>2018-07-01T12:42:57Z</time>
      </trkpt>
      <trkpt lat="45.32499" lon="6.05604">
        <ele>1669</ele>
        <time>2018-07-01T12:43:13Z</time>
      </trkpt>
      <trkpt lat="45.32423" lon="6.0564">
        <ele>1680</ele>
        <time>2018-07-01T12:45:48Z</time>
      </trkpt>
      <trkpt lat="45.32421" lon="6.05653">
        <ele>1683</ele>
        <time>2018-07-01T12:45:50Z</time>
      </trkpt>
      <trkpt lat="45.32438" lon="6.05656">
        <ele>1684</ele>
        <time>2018-07-01T12:45:50Z</time>
      </trkpt>
      <trkpt lat="45.32444" lon="6.05658">
        <ele>1684</ele>
        <time>2018-07-01T12:45:52Z</time>
      </trkpt>
      <trkpt lat="45.32449" lon="6.05659">
        <ele>1684</ele>
        <time>2018-07-01T12:45:54Z</time>
      </trkpt>
      <trkpt lat="45.32456" lon="6.05659">
        <ele>1684</ele>
        <time>2018-07-01T12:45:57Z</time>
      </trkpt>
      <trkpt lat="45.32462" lon="6.05661">
        <ele>1685</ele>
        <time>2018-07-01T12:46:00Z</time>
      </trkpt>
      <trkpt lat="45.32469" lon="6.05662">
        <ele>1685</ele>
        <time>2018-07-01T12:46:03Z</time>
      </trkpt>
      <trkpt lat="45.32475" lon="6.05664">
        <ele>1685</ele>
        <time>2018-07-01T12:46:06Z</time>
      </trkpt>
      <trkpt lat="45.32481" lon="6.05666">
        <ele>1685</ele>
        <time>2018-07-01T12:46:09Z</time>
      </trkpt>
      <trkpt lat="45.32487" lon="6.05669">
        <ele>1686</ele>
        <time>2018-07-01T12:46:12Z</time>
      </trkpt>
      <trkpt lat="45.32493" lon="6.05672">
        <ele>1686</ele>
        <time>2018-07-01T12:46:15Z</time>
      </trkpt>
      <trkpt lat="45.32498" lon="6.05676">
        <ele>1686</ele>
        <time>2018-07-01T12:46:18Z</time>
      </trkpt>
      <trkpt lat="45.32504" lon="6.05682">
        <ele>1687</ele>
        <time>2018-07-01T12:46:21Z</time>
      </trkpt>
      <trkpt lat="45.32509" lon="6.05687">
        <ele>1688</ele>
        <time>2018-07-01T12:46:24Z</time>
      </trkpt>
      <trkpt lat="45.32514" lon="6.05691">
        <ele>1688</ele>
        <time>2018-07-01T12:46:27Z</time>
      </trkpt>
      <trkpt lat="45.32519" lon="6.05697">
        <ele>1689</ele>
        <time>2018-07-01T12:46:30Z</time>
      </trkpt>
      <trkpt lat="45.32523" lon="6.057">
        <ele>1689</ele>
        <time>2018-07-01T12:46:32Z</time>
      </trkpt>
      <trkpt lat="45.32528" lon="6.05705">
        <ele>1689</ele>
        <time>2018-07-01T12:46:34Z</time>
      </trkpt>
      <trkpt lat="45.32533" lon="6.0571">
        <ele>1689</ele>
        <time>2018-07-01T12:46:36Z</time>
      </trkpt>
      <trkpt lat="45.32538" lon="6.05714">
        <ele>1690</ele>
        <time>2018-07-01T12:46:38Z</time>
      </trkpt>
      <trkpt lat="45.32542" lon="6.05717">
        <ele>1690</ele>
        <time>2018-07-01T12:46:40Z</time>
      </trkpt>
      <trkpt lat="45.32547" lon="6.05721">
        <ele>1690</ele>
        <time>2018-07-01T12:46:43Z</time>
      </trkpt>
      <trkpt lat="45.3255" lon="6.05726">
        <ele>1691</ele>
        <time>2018-07-01T12:46:45Z</time>
      </trkpt>
      <trkpt lat="45.32555" lon="6.05731">
        <ele>1691</ele>
        <time>2018-07-01T12:46:47Z</time>
      </trkpt>
      <trkpt lat="45.32559" lon="6.05736">
        <ele>1691</ele>
        <time>2018-07-01T12:46:49Z</time>
      </trkpt>
      <trkpt lat="45.32564" lon="6.05741">
        <ele>1692</ele>
        <time>2018-07-01T12:46:51Z</time>
      </trkpt>
      <trkpt lat="45.32568" lon="6.05746">
        <ele>1692</ele>
        <time>2018-07-01T12:46:53Z</time>
      </trkpt>
      <trkpt lat="45.32573" lon="6.05751">
        <ele>1693</ele>
        <time>2018-07-01T12:46:55Z</time>
      </trkpt>
      <trkpt lat="45.32581" lon="6.05757">
        <ele>1693</ele>
        <time>2018-07-01T12:46:58Z</time>
      </trkpt>
      <trkpt lat="45.32586" lon="6.0576">
        <ele>1693</ele>
        <time>2018-07-01T12:47:00Z</time>
      </trkpt>
      <trkpt lat="45.32591" lon="6.05763">
        <ele>1692</ele>
        <time>2018-07-01T12:47:02Z</time>
      </trkpt>
      <trkpt lat="45.32596" lon="6.05766">
        <ele>1692</ele>
        <time>2018-07-01T12:47:04Z</time>
      </trkpt>
      <trkpt lat="45.326" lon="6.0577">
        <ele>1692</ele>
        <time>2018-07-01T12:47:06Z</time>
      </trkpt>
      <trkpt lat="45.32605" lon="6.05775">
        <ele>1692</ele>
        <time>2018-07-01T12:47:08Z</time>
      </trkpt>
      <trkpt lat="45.32608" lon="6.05782">
        <ele>1693</ele>
        <time>2018-07-01T12:47:10Z</time>
      </trkpt>
      <trkpt lat="45.3261" lon="6.05789">
        <ele>1693</ele>
        <time>2018-07-01T12:47:12Z</time>
      </trkpt>
      <trkpt lat="45.32613" lon="6.05797">
        <ele>1694</ele>
        <time>2018-07-01T12:47:14Z</time>
      </trkpt>
      <trkpt lat="45.32615" lon="6.05805">
        <ele>1694</ele>
        <time>2018-07-01T12:47:16Z</time>
      </trkpt>
      <trkpt lat="45.32616" lon="6.05812">
        <ele>1695</ele>
        <time>2018-07-01T12:47:18Z</time>
      </trkpt>
      <trkpt lat="45.32619" lon="6.05819">
        <ele>1695</ele>
        <time>2018-07-01T12:47:20Z</time>
      </trkpt>
      <trkpt lat="45.32623" lon="6.05826">
        <ele>1696</ele>
        <time>2018-07-01T12:47:22Z</time>
      </trkpt>
      <trkpt lat="45.32626" lon="6.05832">
        <ele>1696</ele>
        <time>2018-07-01T12:47:24Z</time>
      </trkpt>
      <trkpt lat="45.32632" lon="6.05836">
        <ele>1696</ele>
        <time>2018-07-01T12:47:26Z</time>
      </trkpt>
      <trkpt lat="45.32638" lon="6.05839">
        <ele>1696</ele>
        <time>2018-07-01T12:47:28Z</time>
      </trkpt>
      <trkpt lat="45.32644" lon="6.05841">
        <ele>1696</ele>
        <time>2018-07-01T12:47:30Z</time>
      </trkpt>
      <trkpt lat="45.32651" lon="6.05842">
        <ele>1695</ele>
        <time>2018-07-01T12:47:32Z</time>
      </trkpt>
      <trkpt lat="45.32657" lon="6.05842">
        <ele>1695</ele>
        <time>2018-07-01T12:47:34Z</time>
      </trkpt>
      <trkpt lat="45.32663" lon="6.05841">
        <ele>1694</ele>
        <time>2018-07-01T12:47:36Z</time>
      </trkpt>
      <trkpt lat="45.32669" lon="6.05841">
        <ele>1694</ele>
        <time>2018-07-01T12:47:38Z</time>
      </trkpt>
      <trkpt lat="45.32675" lon="6.0584">
        <ele>1694</ele>
        <time>2018-07-01T12:47:41Z</time>
      </trkpt>
      <trkpt lat="45.32681" lon="6.0584">
        <ele>1693</ele>
        <time>2018-07-01T12:47:44Z</time>
      </trkpt>
      <trkpt lat="45.32686" lon="6.0584">
        <ele>1693</ele>
        <time>2018-07-01T12:47:46Z</time>
      </trkpt>
      <trkpt lat="45.32691" lon="6.0584">
        <ele>1693</ele>
        <time>2018-07-01T12:47:48Z</time>
      </trkpt>
      <trkpt lat="45.32697" lon="6.0584">
        <ele>1692</ele>
        <time>2018-07-01T12:47:50Z</time>
      </trkpt>
      <trkpt lat="45.32703" lon="6.0584">
        <ele>1692</ele>
        <time>2018-07-01T12:47:52Z</time>
      </trkpt>
      <trkpt lat="45.32714" lon="6.05842">
        <ele>1691</ele>
        <time>2018-07-01T12:47:55Z</time>
      </trkpt>
      <trkpt lat="45.32721" lon="6.05842">
        <ele>1691</ele>
        <time>2018-07-01T12:47:57Z</time>
      </trkpt>
      <trkpt lat="45.32729" lon="6.05843">
        <ele>1690</ele>
        <time>2018-07-01T12:47:59Z</time>
      </trkpt>
      <trkpt lat="45.32737" lon="6.05843">
        <ele>1690</ele>
        <time>2018-07-01T12:48:01Z</time>
      </trkpt>
      <trkpt lat="45.32745" lon="6.05841">
        <ele>1689</ele>
        <time>2018-07-01T12:48:03Z</time>
      </trkpt>
      <trkpt lat="45.32753" lon="6.05838">
        <ele>1688</ele>
        <time>2018-07-01T12:48:05Z</time>
      </trkpt>
      <trkpt lat="45.3276" lon="6.05836">
        <ele>1688</ele>
        <time>2018-07-01T12:48:07Z</time>
      </trkpt>
      <trkpt lat="45.32766" lon="6.05835">
        <ele>1689</ele>
        <time>2018-07-01T12:48:09Z</time>
      </trkpt>
      <trkpt lat="45.32771" lon="6.05835">
        <ele>1689</ele>
        <time>2018-07-01T12:48:11Z</time>
      </trkpt>
      <trkpt lat="45.32775" lon="6.05838">
        <ele>1689</ele>
        <time>2018-07-01T12:48:13Z</time>
      </trkpt>
      <trkpt lat="45.32779" lon="6.05843">
        <ele>1690</ele>
        <time>2018-07-01T12:48:15Z</time>
      </trkpt>
      <trkpt lat="45.32782" lon="6.0585">
        <ele>1690</ele>
        <time>2018-07-01T12:48:17Z</time>
      </trkpt>
      <trkpt lat="45.32784" lon="6.05857">
        <ele>1691</ele>
        <time>2018-07-01T12:48:19Z</time>
      </trkpt>
      <trkpt lat="45.32787" lon="6.05864">
        <ele>1691</ele>
        <time>2018-07-01T12:48:21Z</time>
      </trkpt>
      <trkpt lat="45.3279" lon="6.0587">
        <ele>1692</ele>
        <time>2018-07-01T12:48:23Z</time>
      </trkpt>
      <trkpt lat="45.32793" lon="6.05876">
        <ele>1692</ele>
        <time>2018-07-01T12:48:25Z</time>
      </trkpt>
      <trkpt lat="45.32798" lon="6.05881">
        <ele>1693</ele>
        <time>2018-07-01T12:48:27Z</time>
      </trkpt>
      <trkpt lat="45.32802" lon="6.05887">
        <ele>1693</ele>
        <time>2018-07-01T12:48:29Z</time>
      </trkpt>
      <trkpt lat="45.32806" lon="6.05893">
        <ele>1694</ele>
        <time>2018-07-01T12:48:31Z</time>
      </trkpt>
      <trkpt lat="45.3281" lon="6.05899">
        <ele>1694</ele>
        <time>2018-07-01T12:48:33Z</time>
      </trkpt>
      <trkpt lat="45.32813" lon="6.05905">
        <ele>1694</ele>
        <time>2018-07-01T12:48:35Z</time>
      </trkpt>
      <trkpt lat="45.32817" lon="6.05911">
        <ele>1695</ele>
        <time>2018-07-01T12:48:37Z</time>
      </trkpt>
      <trkpt lat="45.32822" lon="6.05917">
        <ele>1695</ele>
        <time>2018-07-01T12:48:39Z</time>
      </trkpt>
      <trkpt lat="45.32827" lon="6.05922">
        <ele>1695</ele>
        <time>2018-07-01T12:48:41Z</time>
      </trkpt>
      <trkpt lat="45.32831" lon="6.05926">
        <ele>1696</ele>
        <time>2018-07-01T12:48:43Z</time>
      </trkpt>
      <trkpt lat="45.32837" lon="6.05931">
        <ele>1697</ele>
        <time>2018-07-01T12:48:46Z</time>
      </trkpt>
      <trkpt lat="45.32841" lon="6.05937">
        <ele>1697</ele>
        <time>2018-07-01T12:48:49Z</time>
      </trkpt>
      <trkpt lat="45.32845" lon="6.05944">
        <ele>1698</ele>
        <time>2018-07-01T12:48:52Z</time>
      </trkpt>
      <trkpt lat="45.32848" lon="6.05949">
        <ele>1698</ele>
        <time>2018-07-01T12:48:54Z</time>
      </trkpt>
      <trkpt lat="45.32852" lon="6.05956">
        <ele>1698</ele>
        <time>2018-07-01T12:48:57Z</time>
      </trkpt>
      <trkpt lat="45.32856" lon="6.05962">
        <ele>1699</ele>
        <time>2018-07-01T12:49:00Z</time>
      </trkpt>
      <trkpt lat="45.32859" lon="6.05968">
        <ele>1699</ele>
        <time>2018-07-01T12:49:03Z</time>
      </trkpt>
      <trkpt lat="45.32863" lon="6.05967">
        <ele>1699</ele>
        <time>2018-07-01T12:49:17Z</time>
      </trkpt>
      <trkpt lat="45.32866" lon="6.05963">
        <ele>1699</ele>
        <time>2018-07-01T12:49:34Z</time>
      </trkpt>
      <trkpt lat="45.32866" lon="6.05964">
        <ele>1699</ele>
        <time>2018-07-01T12:50:01Z</time>
      </trkpt>
      <trkpt lat="45.32871" lon="6.05964">
        <ele>1700</ele>
        <time>2018-07-01T12:50:05Z</time>
      </trkpt>
      <trkpt lat="45.32866" lon="6.05966">
        <ele>1699</ele>
        <time>2018-07-01T12:50:23Z</time>
      </trkpt>
      <trkpt lat="45.32866" lon="6.05966">
        <ele>1699</ele>
        <time>2018-07-01T12:50:49Z</time>
      </trkpt>
      <trkpt lat="45.32734" lon="6.06042">
        <ele>1697</ele>
        <time>2018-07-01T12:52:49Z</time>
      </trkpt>
      <trkpt lat="45.32736" lon="6.06052">
        <ele>1696</ele>
        <time>2018-07-01T12:52:51Z</time>
      </trkpt>
      <trkpt lat="45.32732" lon="6.06045">
        <ele>1697</ele>
        <time>2018-07-01T12:52:52Z</time>
      </trkpt>
      <trkpt lat="45.32726" lon="6.06047">
        <ele>1696</ele>
        <time>2018-07-01T12:52:54Z</time>
      </trkpt>
      <trkpt lat="45.32731" lon="6.06049">
        <ele>1696</ele>
        <time>2018-07-01T12:52:55Z</time>
      </trkpt>
      <trkpt lat="45.32724" lon="6.0605">
        <ele>1696</ele>
        <time>2018-07-01T12:52:56Z</time>
      </trkpt>
      <trkpt lat="45.32734" lon="6.06047">
        <ele>1697</ele>
        <time>2018-07-01T12:52:56Z</time>
      </trkpt>
      <trkpt lat="45.32727" lon="6.0605">
        <ele>1696</ele>
        <time>2018-07-01T12:52:58Z</time>
      </trkpt>
      <trkpt lat="45.32722" lon="6.06043">
        <ele>1697</ele>
        <time>2018-07-01T12:53:01Z</time>
      </trkpt>
      <trkpt lat="45.32718" lon="6.06036">
        <ele>1697</ele>
        <time>2018-07-01T12:53:04Z</time>
      </trkpt>
      <trkpt lat="45.32714" lon="6.06031">
        <ele>1697</ele>
        <time>2018-07-01T12:53:07Z</time>
      </trkpt>
      <trkpt lat="45.3271" lon="6.06027">
        <ele>1697</ele>
        <time>2018-07-01T12:53:10Z</time>
      </trkpt>
      <trkpt lat="45.32705" lon="6.06022">
        <ele>1697</ele>
        <time>2018-07-01T12:53:14Z</time>
      </trkpt>
      <trkpt lat="45.327" lon="6.06018">
        <ele>1697</ele>
        <time>2018-07-01T12:53:18Z</time>
      </trkpt>
      <trkpt lat="45.32696" lon="6.06016">
        <ele>1697</ele>
        <time>2018-07-01T12:53:21Z</time>
      </trkpt>
      <trkpt lat="45.32692" lon="6.06013">
        <ele>1697</ele>
        <time>2018-07-01T12:53:24Z</time>
      </trkpt>
      <trkpt lat="45.32688" lon="6.06008">
        <ele>1697</ele>
        <time>2018-07-01T12:53:28Z</time>
      </trkpt>
      <trkpt lat="45.32683" lon="6.06004">
        <ele>1697</ele>
        <time>2018-07-01T12:53:32Z</time>
      </trkpt>
      <trkpt lat="45.32679" lon="6.06001">
        <ele>1697</ele>
        <time>2018-07-01T12:53:37Z</time>
      </trkpt>
      <trkpt lat="45.32674" lon="6.05996">
        <ele>1697</ele>
        <time>2018-07-01T12:53:42Z</time>
      </trkpt>
      <trkpt lat="45.32671" lon="6.05991">
        <ele>1698</ele>
        <time>2018-07-01T12:53:46Z</time>
      </trkpt>
      <trkpt lat="45.32668" lon="6.05986">
        <ele>1698</ele>
        <time>2018-07-01T12:53:50Z</time>
      </trkpt>
      <trkpt lat="45.32664" lon="6.05982">
        <ele>1698</ele>
        <time>2018-07-01T12:53:54Z</time>
      </trkpt>
      <trkpt lat="45.32658" lon="6.0598">
        <ele>1698</ele>
        <time>2018-07-01T12:53:58Z</time>
      </trkpt>
      <trkpt lat="45.32654" lon="6.05977">
        <ele>1698</ele>
        <time>2018-07-01T12:54:02Z</time>
      </trkpt>
      <trkpt lat="45.3265" lon="6.05973">
        <ele>1698</ele>
        <time>2018-07-01T12:54:06Z</time>
      </trkpt>
      <trkpt lat="45.32645" lon="6.05971">
        <ele>1698</ele>
        <time>2018-07-01T12:54:09Z</time>
      </trkpt>
      <trkpt lat="45.32641" lon="6.05969">
        <ele>1698</ele>
        <time>2018-07-01T12:54:12Z</time>
      </trkpt>
      <trkpt lat="45.32636" lon="6.05965">
        <ele>1698</ele>
        <time>2018-07-01T12:54:16Z</time>
      </trkpt>
      <trkpt lat="45.32632" lon="6.05961">
        <ele>1699</ele>
        <time>2018-07-01T12:54:20Z</time>
      </trkpt>
      <trkpt lat="45.32628" lon="6.05957">
        <ele>1699</ele>
        <time>2018-07-01T12:54:24Z</time>
      </trkpt>
      <trkpt lat="45.32623" lon="6.05953">
        <ele>1699</ele>
        <time>2018-07-01T12:54:27Z</time>
      </trkpt>
      <trkpt lat="45.32618" lon="6.0595">
        <ele>1699</ele>
        <time>2018-07-01T12:54:29Z</time>
      </trkpt>
      <trkpt lat="45.32613" lon="6.05948">
        <ele>1699</ele>
        <time>2018-07-01T12:54:31Z</time>
      </trkpt>
      <trkpt lat="45.32607" lon="6.05945">
        <ele>1699</ele>
        <time>2018-07-01T12:54:33Z</time>
      </trkpt>
      <trkpt lat="45.32598" lon="6.05938">
        <ele>1699</ele>
        <time>2018-07-01T12:54:35Z</time>
      </trkpt>
      <trkpt lat="45.32589" lon="6.05935">
        <ele>1699</ele>
        <time>2018-07-01T12:54:36Z</time>
      </trkpt>
      <trkpt lat="45.32583" lon="6.05931">
        <ele>1699</ele>
        <time>2018-07-01T12:54:37Z</time>
      </trkpt>
      <trkpt lat="45.32577" lon="6.05928">
        <ele>1700</ele>
        <time>2018-07-01T12:54:38Z</time>
      </trkpt>
      <trkpt lat="45.32569" lon="6.0592">
        <ele>1700</ele>
        <time>2018-07-01T12:54:40Z</time>
      </trkpt>
      <trkpt lat="45.32564" lon="6.05916">
        <ele>1701</ele>
        <time>2018-07-01T12:54:41Z</time>
      </trkpt>
      <trkpt lat="45.32554" lon="6.05905">
        <ele>1702</ele>
        <time>2018-07-01T12:54:42Z</time>
      </trkpt>
      <trkpt lat="45.32546" lon="6.05899">
        <ele>1702</ele>
        <time>2018-07-01T12:54:43Z</time>
      </trkpt>
      <trkpt lat="45.32537" lon="6.05894">
        <ele>1703</ele>
        <time>2018-07-01T12:54:44Z</time>
      </trkpt>
      <trkpt lat="45.32531" lon="6.05891">
        <ele>1703</ele>
        <time>2018-07-01T12:54:45Z</time>
      </trkpt>
      <trkpt lat="45.32524" lon="6.05885">
        <ele>1704</ele>
        <time>2018-07-01T12:54:46Z</time>
      </trkpt>
      <trkpt lat="45.32517" lon="6.05883">
        <ele>1704</ele>
        <time>2018-07-01T12:54:47Z</time>
      </trkpt>
      <trkpt lat="45.32511" lon="6.05877">
        <ele>1705</ele>
        <time>2018-07-01T12:54:48Z</time>
      </trkpt>
      <trkpt lat="45.32506" lon="6.05871">
        <ele>1706</ele>
        <time>2018-07-01T12:54:50Z</time>
      </trkpt>
      <trkpt lat="45.32501" lon="6.05868">
        <ele>1706</ele>
        <time>2018-07-01T12:54:53Z</time>
      </trkpt>
      <trkpt lat="45.32497" lon="6.05863">
        <ele>1707</ele>
        <time>2018-07-01T12:54:56Z</time>
      </trkpt>
      <trkpt lat="45.32492" lon="6.05856">
        <ele>1708</ele>
        <time>2018-07-01T12:54:59Z</time>
      </trkpt>
      <trkpt lat="45.32489" lon="6.05851">
        <ele>1708</ele>
        <time>2018-07-01T12:55:02Z</time>
      </trkpt>
      <trkpt lat="45.32487" lon="6.05846">
        <ele>1709</ele>
        <time>2018-07-01T12:55:05Z</time>
      </trkpt>
      <trkpt lat="45.32481" lon="6.05842">
        <ele>1710</ele>
        <time>2018-07-01T12:55:09Z</time>
      </trkpt>
      <trkpt lat="45.32476" lon="6.05841">
        <ele>1710</ele>
        <time>2018-07-01T12:55:12Z</time>
      </trkpt>
      <trkpt lat="45.32471" lon="6.0584">
        <ele>1711</ele>
        <time>2018-07-01T12:55:15Z</time>
      </trkpt>
      <trkpt lat="45.32465" lon="6.05839">
        <ele>1711</ele>
        <time>2018-07-01T12:55:18Z</time>
      </trkpt>
      <trkpt lat="45.3246" lon="6.05839">
        <ele>1711</ele>
        <time>2018-07-01T12:55:21Z</time>
      </trkpt>
      <trkpt lat="45.32455" lon="6.05839">
        <ele>1711</ele>
        <time>2018-07-01T12:55:24Z</time>
      </trkpt>
      <trkpt lat="45.32451" lon="6.05841">
        <ele>1711</ele>
        <time>2018-07-01T12:55:27Z</time>
      </trkpt>
      <trkpt lat="45.32446" lon="6.05845">
        <ele>1711</ele>
        <time>2018-07-01T12:55:31Z</time>
      </trkpt>
      <trkpt lat="45.32441" lon="6.0585">
        <ele>1710</ele>
        <time>2018-07-01T12:55:35Z</time>
      </trkpt>
      <trkpt lat="45.32436" lon="6.05854">
        <ele>1710</ele>
        <time>2018-07-01T12:55:39Z</time>
      </trkpt>
      <trkpt lat="45.32431" lon="6.05858">
        <ele>1710</ele>
        <time>2018-07-01T12:55:43Z</time>
      </trkpt>
      <trkpt lat="45.32425" lon="6.05861">
        <ele>1709</ele>
        <time>2018-07-01T12:55:46Z</time>
      </trkpt>
      <trkpt lat="45.32418" lon="6.05861">
        <ele>1709</ele>
        <time>2018-07-01T12:55:48Z</time>
      </trkpt>
      <trkpt lat="45.32414" lon="6.0586">
        <ele>1710</ele>
        <time>2018-07-01T12:55:49Z</time>
      </trkpt>
      <trkpt lat="45.32408" lon="6.05858">
        <ele>1710</ele>
        <time>2018-07-01T12:55:50Z</time>
      </trkpt>
      <trkpt lat="45.32401" lon="6.05854">
        <ele>1710</ele>
        <time>2018-07-01T12:55:51Z</time>
      </trkpt>
      <trkpt lat="45.32396" lon="6.05853">
        <ele>1710</ele>
        <time>2018-07-01T12:55:52Z</time>
      </trkpt>
      <trkpt lat="45.32391" lon="6.05852">
        <ele>1710</ele>
        <time>2018-07-01T12:55:53Z</time>
      </trkpt>
      <trkpt lat="45.32386" lon="6.05849">
        <ele>1710</ele>
        <time>2018-07-01T12:55:54Z</time>
      </trkpt>
      <trkpt lat="45.32382" lon="6.05845">
        <ele>1711</ele>
        <time>2018-07-01T12:55:55Z</time>
      </trkpt>
      <trkpt lat="45.32378" lon="6.05841">
        <ele>1711</ele>
        <time>2018-07-01T12:55:56Z</time>
      </trkpt>
      <trkpt lat="45.32373" lon="6.05837">
        <ele>1711</ele>
        <time>2018-07-01T12:55:57Z</time>
      </trkpt>
      <trkpt lat="45.32369" lon="6.05834">
        <ele>1712</ele>
        <time>2018-07-01T12:55:58Z</time>
      </trkpt>
      <trkpt lat="45.3236" lon="6.05837">
        <ele>1711</ele>
        <time>2018-07-01T12:56:00Z</time>
      </trkpt>
      <trkpt lat="45.32352" lon="6.05836">
        <ele>1711</ele>
        <time>2018-07-01T12:56:02Z</time>
      </trkpt>
      <trkpt lat="45.32344" lon="6.05831">
        <ele>1711</ele>
        <time>2018-07-01T12:56:04Z</time>
      </trkpt>
      <trkpt lat="45.32339" lon="6.05827">
        <ele>1711</ele>
        <time>2018-07-01T12:56:05Z</time>
      </trkpt>
      <trkpt lat="45.32334" lon="6.05823">
        <ele>1711</ele>
        <time>2018-07-01T12:56:06Z</time>
      </trkpt>
      <trkpt lat="45.32329" lon="6.0582">
        <ele>1711</ele>
        <time>2018-07-01T12:56:07Z</time>
      </trkpt>
      <trkpt lat="45.32324" lon="6.05816">
        <ele>1711</ele>
        <time>2018-07-01T12:56:08Z</time>
      </trkpt>
      <trkpt lat="45.32319" lon="6.05812">
        <ele>1711</ele>
        <time>2018-07-01T12:56:09Z</time>
      </trkpt>
      <trkpt lat="45.32315" lon="6.05807">
        <ele>1711</ele>
        <time>2018-07-01T12:56:10Z</time>
      </trkpt>
      <trkpt lat="45.3231" lon="6.05804">
        <ele>1711</ele>
        <time>2018-07-01T12:56:15Z</time>
      </trkpt>
      <trkpt lat="45.32306" lon="6.05803">
        <ele>1711</ele>
        <time>2018-07-01T12:56:17Z</time>
      </trkpt>
      <trkpt lat="45.32301" lon="6.05801">
        <ele>1711</ele>
        <time>2018-07-01T12:56:21Z</time>
      </trkpt>
      <trkpt lat="45.32296" lon="6.05802">
        <ele>1711</ele>
        <time>2018-07-01T12:56:28Z</time>
      </trkpt>
      <trkpt lat="45.32291" lon="6.05799">
        <ele>1711</ele>
        <time>2018-07-01T12:56:38Z</time>
      </trkpt>
      <trkpt lat="45.32287" lon="6.05796">
        <ele>1711</ele>
        <time>2018-07-01T12:56:49Z</time>
      </trkpt>
      <trkpt lat="45.32281" lon="6.05795">
        <ele>1712</ele>
        <time>2018-07-01T12:56:52Z</time>
      </trkpt>
      <trkpt lat="45.32275" lon="6.05793">
        <ele>1712</ele>
        <time>2018-07-01T12:56:55Z</time>
      </trkpt>
      <trkpt lat="45.3227" lon="6.05791">
        <ele>1712</ele>
        <time>2018-07-01T12:56:58Z</time>
      </trkpt>
      <trkpt lat="45.32266" lon="6.0579">
        <ele>1712</ele>
        <time>2018-07-01T12:57:00Z</time>
      </trkpt>
      <trkpt lat="45.32261" lon="6.05788">
        <ele>1712</ele>
        <time>2018-07-01T12:57:05Z</time>
      </trkpt>
      <trkpt lat="45.32258" lon="6.05784">
        <ele>1713</ele>
        <time>2018-07-01T12:57:15Z</time>
      </trkpt>
      <trkpt lat="45.32253" lon="6.05782">
        <ele>1713</ele>
        <time>2018-07-01T12:57:18Z</time>
      </trkpt>
      <trkpt lat="45.32249" lon="6.05778">
        <ele>1713</ele>
        <time>2018-07-01T12:57:21Z</time>
      </trkpt>
      <trkpt lat="45.32245" lon="6.05776">
        <ele>1713</ele>
        <time>2018-07-01T12:57:26Z</time>
      </trkpt>
      <trkpt lat="45.3224" lon="6.05772">
        <ele>1714</ele>
        <time>2018-07-01T12:57:33Z</time>
      </trkpt>
      <trkpt lat="45.32234" lon="6.05769">
        <ele>1714</ele>
        <time>2018-07-01T12:57:36Z</time>
      </trkpt>
      <trkpt lat="45.32228" lon="6.05767">
        <ele>1715</ele>
        <time>2018-07-01T12:57:39Z</time>
      </trkpt>
      <trkpt lat="45.32222" lon="6.05766">
        <ele>1715</ele>
        <time>2018-07-01T12:57:42Z</time>
      </trkpt>
      <trkpt lat="45.32217" lon="6.05766">
        <ele>1715</ele>
        <time>2018-07-01T12:57:45Z</time>
      </trkpt>
      <trkpt lat="45.32212" lon="6.05764">
        <ele>1716</ele>
        <time>2018-07-01T12:57:48Z</time>
      </trkpt>
      <trkpt lat="45.32208" lon="6.05761">
        <ele>1716</ele>
        <time>2018-07-01T12:57:51Z</time>
      </trkpt>
      <trkpt lat="45.32204" lon="6.05758">
        <ele>1716</ele>
        <time>2018-07-01T12:57:54Z</time>
      </trkpt>
      <trkpt lat="45.322" lon="6.05754">
        <ele>1716</ele>
        <time>2018-07-01T12:57:57Z</time>
      </trkpt>
      <trkpt lat="45.32195" lon="6.05753">
        <ele>1717</ele>
        <time>2018-07-01T12:58:00Z</time>
      </trkpt>
      <trkpt lat="45.3219" lon="6.0575">
        <ele>1717</ele>
        <time>2018-07-01T12:58:04Z</time>
      </trkpt>
      <trkpt lat="45.32187" lon="6.05745">
        <ele>1717</ele>
        <time>2018-07-01T12:58:08Z</time>
      </trkpt>
      <trkpt lat="45.32182" lon="6.05739">
        <ele>1717</ele>
        <time>2018-07-01T12:58:12Z</time>
      </trkpt>
      <trkpt lat="45.32179" lon="6.05733">
        <ele>1717</ele>
        <time>2018-07-01T12:58:16Z</time>
      </trkpt>
      <trkpt lat="45.32174" lon="6.05728">
        <ele>1717</ele>
        <time>2018-07-01T12:58:20Z</time>
      </trkpt>
      <trkpt lat="45.32169" lon="6.05726">
        <ele>1718</ele>
        <time>2018-07-01T12:58:24Z</time>
      </trkpt>
      <trkpt lat="45.32164" lon="6.05725">
        <ele>1718</ele>
        <time>2018-07-01T12:58:29Z</time>
      </trkpt>
      <trkpt lat="45.32159" lon="6.05727">
        <ele>1718</ele>
        <time>2018-07-01T12:58:34Z</time>
      </trkpt>
      <trkpt lat="45.32155" lon="6.05727">
        <ele>1719</ele>
        <time>2018-07-01T12:58:38Z</time>
      </trkpt>
      <trkpt lat="45.3215" lon="6.05723">
        <ele>1719</ele>
        <time>2018-07-01T12:58:41Z</time>
      </trkpt>
      <trkpt lat="45.32145" lon="6.05719">
        <ele>1719</ele>
        <time>2018-07-01T12:58:45Z</time>
      </trkpt>
      <trkpt lat="45.32142" lon="6.05713">
        <ele>1720</ele>
        <time>2018-07-01T12:58:56Z</time>
      </trkpt>
      <trkpt lat="45.32136" lon="6.05714">
        <ele>1720</ele>
        <time>2018-07-01T12:59:05Z</time>
      </trkpt>
      <trkpt lat="45.32132" lon="6.05711">
        <ele>1721</ele>
        <time>2018-07-01T12:59:08Z</time>
      </trkpt>
      <trkpt lat="45.32127" lon="6.05708">
        <ele>1721</ele>
        <time>2018-07-01T12:59:12Z</time>
      </trkpt>
      <trkpt lat="45.32122" lon="6.05704">
        <ele>1722</ele>
        <time>2018-07-01T12:59:16Z</time>
      </trkpt>
      <trkpt lat="45.32117" lon="6.057">
        <ele>1722</ele>
        <time>2018-07-01T12:59:18Z</time>
      </trkpt>
      <trkpt lat="45.32111" lon="6.05698">
        <ele>1723</ele>
        <time>2018-07-01T12:59:20Z</time>
      </trkpt>
      <trkpt lat="45.32105" lon="6.05699">
        <ele>1724</ele>
        <time>2018-07-01T12:59:22Z</time>
      </trkpt>
      <trkpt lat="45.32099" lon="6.057">
        <ele>1724</ele>
        <time>2018-07-01T12:59:24Z</time>
      </trkpt>
      <trkpt lat="45.32094" lon="6.05699">
        <ele>1724</ele>
        <time>2018-07-01T12:59:26Z</time>
      </trkpt>
      <trkpt lat="45.3209" lon="6.05696">
        <ele>1725</ele>
        <time>2018-07-01T12:59:32Z</time>
      </trkpt>
      <trkpt lat="45.32085" lon="6.05695">
        <ele>1725</ele>
        <time>2018-07-01T12:59:36Z</time>
      </trkpt>
      <trkpt lat="45.3208" lon="6.05695">
        <ele>1726</ele>
        <time>2018-07-01T12:59:46Z</time>
      </trkpt>
      <trkpt lat="45.32076" lon="6.05692">
        <ele>1726</ele>
        <time>2018-07-01T12:59:51Z</time>
      </trkpt>
      <trkpt lat="45.32071" lon="6.05691">
        <ele>1727</ele>
        <time>2018-07-01T12:59:55Z</time>
      </trkpt>
      <trkpt lat="45.32066" lon="6.0569">
        <ele>1728</ele>
        <time>2018-07-01T12:59:59Z</time>
      </trkpt>
      <trkpt lat="45.32061" lon="6.05689">
        <ele>1728</ele>
        <time>2018-07-01T13:00:04Z</time>
      </trkpt>
      <trkpt lat="45.32056" lon="6.05687">
        <ele>1729</ele>
        <time>2018-07-01T13:00:13Z</time>
      </trkpt>
      <trkpt lat="45.32052" lon="6.05684">
        <ele>1729</ele>
        <time>2018-07-01T13:00:16Z</time>
      </trkpt>
      <trkpt lat="45.32048" lon="6.0568">
        <ele>1730</ele>
        <time>2018-07-01T13:00:19Z</time>
      </trkpt>
      <trkpt lat="45.32044" lon="6.05676">
        <ele>1730</ele>
        <time>2018-07-01T13:00:23Z</time>
      </trkpt>
      <trkpt lat="45.32039" lon="6.05672">
        <ele>1731</ele>
        <time>2018-07-01T13:00:27Z</time>
      </trkpt>
      <trkpt lat="45.32034" lon="6.05669">
        <ele>1731</ele>
        <time>2018-07-01T13:00:32Z</time>
      </trkpt>
      <trkpt lat="45.32031" lon="6.05666">
        <ele>1732</ele>
        <time>2018-07-01T13:00:36Z</time>
      </trkpt>
      <trkpt lat="45.32026" lon="6.05662">
        <ele>1732</ele>
        <time>2018-07-01T13:00:41Z</time>
      </trkpt>
      <trkpt lat="45.32021" lon="6.05659">
        <ele>1733</ele>
        <time>2018-07-01T13:00:46Z</time>
      </trkpt>
      <trkpt lat="45.32017" lon="6.05656">
        <ele>1734</ele>
        <time>2018-07-01T13:00:50Z</time>
      </trkpt>
      <trkpt lat="45.32013" lon="6.05652">
        <ele>1734</ele>
        <time>2018-07-01T13:00:55Z</time>
      </trkpt>
      <trkpt lat="45.3201" lon="6.05648">
        <ele>1735</ele>
        <time>2018-07-01T13:00:59Z</time>
      </trkpt>
      <trkpt lat="45.32005" lon="6.05645">
        <ele>1736</ele>
        <time>2018-07-01T13:01:03Z</time>
      </trkpt>
      <trkpt lat="45.32001" lon="6.05642">
        <ele>1736</ele>
        <time>2018-07-01T13:01:07Z</time>
      </trkpt>
      <trkpt lat="45.31995" lon="6.0564">
        <ele>1737</ele>
        <time>2018-07-01T13:01:11Z</time>
      </trkpt>
      <trkpt lat="45.3199" lon="6.05639">
        <ele>1738</ele>
        <time>2018-07-01T13:01:15Z</time>
      </trkpt>
      <trkpt lat="45.31985" lon="6.05636">
        <ele>1738</ele>
        <time>2018-07-01T13:01:19Z</time>
      </trkpt>
      <trkpt lat="45.31979" lon="6.05637">
        <ele>1739</ele>
        <time>2018-07-01T13:01:23Z</time>
      </trkpt>
      <trkpt lat="45.31974" lon="6.05638">
        <ele>1740</ele>
        <time>2018-07-01T13:01:25Z</time>
      </trkpt>
      <trkpt lat="45.31969" lon="6.05638">
        <ele>1740</ele>
        <time>2018-07-01T13:01:27Z</time>
      </trkpt>
      <trkpt lat="45.31964" lon="6.05639">
        <ele>1741</ele>
        <time>2018-07-01T13:01:28Z</time>
      </trkpt>
      <trkpt lat="45.31959" lon="6.0564">
        <ele>1741</ele>
        <time>2018-07-01T13:01:29Z</time>
      </trkpt>
      <trkpt lat="45.31948" lon="6.0564">
        <ele>1742</ele>
        <time>2018-07-01T13:01:31Z</time>
      </trkpt>
      <trkpt lat="45.31941" lon="6.05636">
        <ele>1743</ele>
        <time>2018-07-01T13:01:33Z</time>
      </trkpt>
      <trkpt lat="45.31936" lon="6.05634">
        <ele>1744</ele>
        <time>2018-07-01T13:01:36Z</time>
      </trkpt>
      <trkpt lat="45.31931" lon="6.05635">
        <ele>1745</ele>
        <time>2018-07-01T13:01:40Z</time>
      </trkpt>
      <trkpt lat="45.31926" lon="6.05638">
        <ele>1745</ele>
        <time>2018-07-01T13:01:45Z</time>
      </trkpt>
      <trkpt lat="45.31921" lon="6.05638">
        <ele>1746</ele>
        <time>2018-07-01T13:01:49Z</time>
      </trkpt>
      <trkpt lat="45.31916" lon="6.05639">
        <ele>1747</ele>
        <time>2018-07-01T13:01:53Z</time>
      </trkpt>
      <trkpt lat="45.31911" lon="6.05641">
        <ele>1748</ele>
        <time>2018-07-01T13:01:56Z</time>
      </trkpt>
      <trkpt lat="45.31905" lon="6.05642">
        <ele>1749</ele>
        <time>2018-07-01T13:02:00Z</time>
      </trkpt>
      <trkpt lat="45.319" lon="6.05641">
        <ele>1750</ele>
        <time>2018-07-01T13:02:04Z</time>
      </trkpt>
      <trkpt lat="45.31894" lon="6.0564">
        <ele>1751</ele>
        <time>2018-07-01T13:02:08Z</time>
      </trkpt>
      <trkpt lat="45.3189" lon="6.05638">
        <ele>1752</ele>
        <time>2018-07-01T13:02:12Z</time>
      </trkpt>
      <trkpt lat="45.31886" lon="6.05632">
        <ele>1754</ele>
        <time>2018-07-01T13:02:16Z</time>
      </trkpt>
      <trkpt lat="45.31882" lon="6.05628">
        <ele>1755</ele>
        <time>2018-07-01T13:02:20Z</time>
      </trkpt>
      <trkpt lat="45.31878" lon="6.05625">
        <ele>1756</ele>
        <time>2018-07-01T13:02:27Z</time>
      </trkpt>
      <trkpt lat="45.31876" lon="6.0562">
        <ele>1757</ele>
        <time>2018-07-01T13:02:43Z</time>
      </trkpt>
      <trkpt lat="45.31875" lon="6.05618">
        <ele>1758</ele>
        <time>2018-07-01T13:02:48Z</time>
      </trkpt>
      <trkpt lat="45.31873" lon="6.05618">
        <ele>1758</ele>
        <time>2018-07-01T13:03:03Z</time>
      </trkpt>
      <trkpt lat="45.31873" lon="6.05618">
        <ele>1758</ele>
        <time>2018-07-01T13:03:04Z</time>
      </trkpt>
      <trkpt lat="45.31867" lon="6.05616">
        <ele>1760</ele>
        <time>2018-07-01T13:03:21Z</time>
      </trkpt>
      <trkpt lat="45.31862" lon="6.05614">
        <ele>1761</ele>
        <time>2018-07-01T13:03:25Z</time>
      </trkpt>
      <trkpt lat="45.31858" lon="6.0561">
        <ele>1762</ele>
        <time>2018-07-01T13:03:30Z</time>
      </trkpt>
      <trkpt lat="45.31853" lon="6.0561">
        <ele>1762</ele>
        <time>2018-07-01T13:03:37Z</time>
      </trkpt>
      <trkpt lat="45.3185" lon="6.05604">
        <ele>1763</ele>
        <time>2018-07-01T13:03:45Z</time>
      </trkpt>
      <trkpt lat="45.31846" lon="6.05602">
        <ele>1764</ele>
        <time>2018-07-01T13:04:00Z</time>
      </trkpt>
      <trkpt lat="45.31843" lon="6.05596">
        <ele>1764</ele>
        <time>2018-07-01T13:04:08Z</time>
      </trkpt>
      <trkpt lat="45.31839" lon="6.05592">
        <ele>1765</ele>
        <time>2018-07-01T13:04:12Z</time>
      </trkpt>
      <trkpt lat="45.31835" lon="6.05587">
        <ele>1766</ele>
        <time>2018-07-01T13:04:15Z</time>
      </trkpt>
      <trkpt lat="45.31831" lon="6.05583">
        <ele>1767</ele>
        <time>2018-07-01T13:04:18Z</time>
      </trkpt>
      <trkpt lat="45.31828" lon="6.05577">
        <ele>1768</ele>
        <time>2018-07-01T13:04:22Z</time>
      </trkpt>
      <trkpt lat="45.31824" lon="6.05572">
        <ele>1769</ele>
        <time>2018-07-01T13:04:25Z</time>
      </trkpt>
      <trkpt lat="45.31819" lon="6.05567">
        <ele>1770</ele>
        <time>2018-07-01T13:04:28Z</time>
      </trkpt>
      <trkpt lat="45.31814" lon="6.05562">
        <ele>1771</ele>
        <time>2018-07-01T13:04:31Z</time>
      </trkpt>
      <trkpt lat="45.31809" lon="6.0556">
        <ele>1771</ele>
        <time>2018-07-01T13:04:34Z</time>
      </trkpt>
      <trkpt lat="45.31802" lon="6.05561">
        <ele>1772</ele>
        <time>2018-07-01T13:04:37Z</time>
      </trkpt>
      <trkpt lat="45.31798" lon="6.05561">
        <ele>1772</ele>
        <time>2018-07-01T13:04:40Z</time>
      </trkpt>
      <trkpt lat="45.31793" lon="6.05558">
        <ele>1773</ele>
        <time>2018-07-01T13:04:43Z</time>
      </trkpt>
      <trkpt lat="45.31788" lon="6.05554">
        <ele>1773</ele>
        <time>2018-07-01T13:04:47Z</time>
      </trkpt>
      <trkpt lat="45.31779" lon="6.0555">
        <ele>1773</ele>
        <time>2018-07-01T13:04:49Z</time>
      </trkpt>
      <trkpt lat="45.31774" lon="6.05547">
        <ele>1773</ele>
        <time>2018-07-01T13:04:50Z</time>
      </trkpt>
      <trkpt lat="45.3177" lon="6.05545">
        <ele>1773</ele>
        <time>2018-07-01T13:04:51Z</time>
      </trkpt>
      <trkpt lat="45.31761" lon="6.05541">
        <ele>1772</ele>
        <time>2018-07-01T13:04:53Z</time>
      </trkpt>
      <trkpt lat="45.31755" lon="6.05537">
        <ele>1772</ele>
        <time>2018-07-01T13:04:55Z</time>
      </trkpt>
      <trkpt lat="45.31749" lon="6.05533">
        <ele>1772</ele>
        <time>2018-07-01T13:04:57Z</time>
      </trkpt>
      <trkpt lat="45.31744" lon="6.05531">
        <ele>1772</ele>
        <time>2018-07-01T13:05:00Z</time>
      </trkpt>
      <trkpt lat="45.31739" lon="6.0553">
        <ele>1771</ele>
        <time>2018-07-01T13:05:06Z</time>
      </trkpt>
      <trkpt lat="45.3174" lon="6.05522">
        <ele>1772</ele>
        <time>2018-07-01T13:05:10Z</time>
      </trkpt>
      <trkpt lat="45.31743" lon="6.05517">
        <ele>1773</ele>
        <time>2018-07-01T13:05:13Z</time>
      </trkpt>
      <trkpt lat="45.31742" lon="6.0551">
        <ele>1773</ele>
        <time>2018-07-01T13:05:17Z</time>
      </trkpt>
      <trkpt lat="45.31738" lon="6.05505">
        <ele>1773</ele>
        <time>2018-07-01T13:05:21Z</time>
      </trkpt>
      <trkpt lat="45.31733" lon="6.05502">
        <ele>1773</ele>
        <time>2018-07-01T13:05:25Z</time>
      </trkpt>
      <trkpt lat="45.31728" lon="6.05498">
        <ele>1772</ele>
        <time>2018-07-01T13:05:29Z</time>
      </trkpt>
      <trkpt lat="45.31722" lon="6.05497">
        <ele>1772</ele>
        <time>2018-07-01T13:05:32Z</time>
      </trkpt>
      <trkpt lat="45.31716" lon="6.05496">
        <ele>1771</ele>
        <time>2018-07-01T13:05:35Z</time>
      </trkpt>
      <trkpt lat="45.31711" lon="6.05491">
        <ele>1771</ele>
        <time>2018-07-01T13:05:38Z</time>
      </trkpt>
      <trkpt lat="45.31707" lon="6.05486">
        <ele>1771</ele>
        <time>2018-07-01T13:05:41Z</time>
      </trkpt>
      <trkpt lat="45.31704" lon="6.0548">
        <ele>1771</ele>
        <time>2018-07-01T13:05:45Z</time>
      </trkpt>
      <trkpt lat="45.317" lon="6.05475">
        <ele>1770</ele>
        <time>2018-07-01T13:05:49Z</time>
      </trkpt>
      <trkpt lat="45.31696" lon="6.0547">
        <ele>1770</ele>
        <time>2018-07-01T13:05:53Z</time>
      </trkpt>
      <trkpt lat="45.31694" lon="6.05464">
        <ele>1770</ele>
        <time>2018-07-01T13:05:57Z</time>
      </trkpt>
      <trkpt lat="45.3169" lon="6.05459">
        <ele>1769</ele>
        <time>2018-07-01T13:06:01Z</time>
      </trkpt>
      <trkpt lat="45.31686" lon="6.05457">
        <ele>1769</ele>
        <time>2018-07-01T13:06:04Z</time>
      </trkpt>
      <trkpt lat="45.31681" lon="6.05454">
        <ele>1768</ele>
        <time>2018-07-01T13:06:07Z</time>
      </trkpt>
      <trkpt lat="45.3168" lon="6.05448">
        <ele>1768</ele>
        <time>2018-07-01T13:06:12Z</time>
      </trkpt>
      <trkpt lat="45.31678" lon="6.05442">
        <ele>1768</ele>
        <time>2018-07-01T13:06:16Z</time>
      </trkpt>
      <trkpt lat="45.31673" lon="6.0544">
        <ele>1767</ele>
        <time>2018-07-01T13:06:20Z</time>
      </trkpt>
      <trkpt lat="45.31668" lon="6.05435">
        <ele>1766</ele>
        <time>2018-07-01T13:06:24Z</time>
      </trkpt>
      <trkpt lat="45.31663" lon="6.05432">
        <ele>1766</ele>
        <time>2018-07-01T13:06:28Z</time>
      </trkpt>
      <trkpt lat="45.31659" lon="6.05429">
        <ele>1765</ele>
        <time>2018-07-01T13:06:31Z</time>
      </trkpt>
      <trkpt lat="45.31658" lon="6.05422">
        <ele>1765</ele>
        <time>2018-07-01T13:06:35Z</time>
      </trkpt>
      <trkpt lat="45.31658" lon="6.05415">
        <ele>1765</ele>
        <time>2018-07-01T13:06:39Z</time>
      </trkpt>
      <trkpt lat="45.31654" lon="6.05409">
        <ele>1764</ele>
        <time>2018-07-01T13:06:43Z</time>
      </trkpt>
      <trkpt lat="45.31649" lon="6.05407">
        <ele>1764</ele>
        <time>2018-07-01T13:06:47Z</time>
      </trkpt>
      <trkpt lat="45.31644" lon="6.05407">
        <ele>1765</ele>
        <time>2018-07-01T13:06:51Z</time>
      </trkpt>
      <trkpt lat="45.31645" lon="6.0541">
        <ele>1765</ele>
        <time>2018-07-01T13:07:11Z</time>
      </trkpt>
      <trkpt lat="45.31645" lon="6.0541">
        <ele>1765</ele>
        <time>2018-07-01T13:07:34Z</time>
      </trkpt>
      <trkpt lat="45.31646" lon="6.05409">
        <ele>1765</ele>
        <time>2018-07-01T13:08:00Z</time>
      </trkpt>
      <trkpt lat="45.31628" lon="6.05405">
        <ele>1768</ele>
        <time>2018-07-01T13:08:54Z</time>
      </trkpt>
      <trkpt lat="45.31611" lon="6.05398">
        <ele>1770</ele>
        <time>2018-07-01T13:08:55Z</time>
      </trkpt>
      <trkpt lat="45.31609" lon="6.05385">
        <ele>1769</ele>
        <time>2018-07-01T13:09:01Z</time>
      </trkpt>
      <trkpt lat="45.31616" lon="6.05397">
        <ele>1769</ele>
        <time>2018-07-01T13:09:02Z</time>
      </trkpt>
      <trkpt lat="45.3161" lon="6.05392">
        <ele>1769</ele>
        <time>2018-07-01T13:09:04Z</time>
      </trkpt>
      <trkpt lat="45.31604" lon="6.05387">
        <ele>1770</ele>
        <time>2018-07-01T13:09:06Z</time>
      </trkpt>
      <trkpt lat="45.31598" lon="6.05381">
        <ele>1770</ele>
        <time>2018-07-01T13:09:08Z</time>
      </trkpt>
      <trkpt lat="45.31584" lon="6.0537">
        <ele>1771</ele>
        <time>2018-07-01T13:09:10Z</time>
      </trkpt>
      <trkpt lat="45.3158" lon="6.05363">
        <ele>1772</ele>
        <time>2018-07-01T13:09:12Z</time>
      </trkpt>
      <trkpt lat="45.31576" lon="6.05359">
        <ele>1772</ele>
        <time>2018-07-01T13:09:13Z</time>
      </trkpt>
      <trkpt lat="45.31573" lon="6.05353">
        <ele>1773</ele>
        <time>2018-07-01T13:09:17Z</time>
      </trkpt>
      <trkpt lat="45.31567" lon="6.05351">
        <ele>1774</ele>
        <time>2018-07-01T13:09:21Z</time>
      </trkpt>
      <trkpt lat="45.31562" lon="6.05348">
        <ele>1775</ele>
        <time>2018-07-01T13:09:24Z</time>
      </trkpt>
      <trkpt lat="45.31558" lon="6.05344">
        <ele>1776</ele>
        <time>2018-07-01T13:09:27Z</time>
      </trkpt>
      <trkpt lat="45.31553" lon="6.05342">
        <ele>1776</ele>
        <time>2018-07-01T13:09:30Z</time>
      </trkpt>
      <trkpt lat="45.31548" lon="6.05339">
        <ele>1777</ele>
        <time>2018-07-01T13:09:34Z</time>
      </trkpt>
      <trkpt lat="45.31543" lon="6.05336">
        <ele>1778</ele>
        <time>2018-07-01T13:09:37Z</time>
      </trkpt>
      <trkpt lat="45.31538" lon="6.05333">
        <ele>1779</ele>
        <time>2018-07-01T13:09:41Z</time>
      </trkpt>
      <trkpt lat="45.31532" lon="6.05329">
        <ele>1780</ele>
        <time>2018-07-01T13:09:45Z</time>
      </trkpt>
      <trkpt lat="45.31527" lon="6.05325">
        <ele>1780</ele>
        <time>2018-07-01T13:09:49Z</time>
      </trkpt>
      <trkpt lat="45.31522" lon="6.05321">
        <ele>1781</ele>
        <time>2018-07-01T13:09:53Z</time>
      </trkpt>
      <trkpt lat="45.31519" lon="6.05316">
        <ele>1781</ele>
        <time>2018-07-01T13:09:57Z</time>
      </trkpt>
      <trkpt lat="45.31514" lon="6.05313">
        <ele>1782</ele>
        <time>2018-07-01T13:10:09Z</time>
      </trkpt>
      <trkpt lat="45.31509" lon="6.05311">
        <ele>1783</ele>
        <time>2018-07-01T13:10:17Z</time>
      </trkpt>
      <trkpt lat="45.31505" lon="6.0531">
        <ele>1784</ele>
        <time>2018-07-01T13:10:22Z</time>
      </trkpt>
      <trkpt lat="45.31499" lon="6.05309">
        <ele>1786</ele>
        <time>2018-07-01T13:10:29Z</time>
      </trkpt>
      <trkpt lat="45.31495" lon="6.05306">
        <ele>1787</ele>
        <time>2018-07-01T13:10:33Z</time>
      </trkpt>
      <trkpt lat="45.3149" lon="6.05303">
        <ele>1788</ele>
        <time>2018-07-01T13:10:39Z</time>
      </trkpt>
      <trkpt lat="45.31486" lon="6.05301">
        <ele>1789</ele>
        <time>2018-07-01T13:10:48Z</time>
      </trkpt>
      <trkpt lat="45.31481" lon="6.05299">
        <ele>1790</ele>
        <time>2018-07-01T13:10:56Z</time>
      </trkpt>
      <trkpt lat="45.31477" lon="6.05295">
        <ele>1790</ele>
        <time>2018-07-01T13:11:01Z</time>
      </trkpt>
      <trkpt lat="45.31472" lon="6.05293">
        <ele>1792</ele>
        <time>2018-07-01T13:11:09Z</time>
      </trkpt>
      <trkpt lat="45.31468" lon="6.0529">
        <ele>1792</ele>
        <time>2018-07-01T13:11:15Z</time>
      </trkpt>
      <trkpt lat="45.31467" lon="6.0529">
        <ele>1793</ele>
        <time>2018-07-01T13:11:48Z</time>
      </trkpt>
      <trkpt lat="45.31403" lon="6.05254">
        <ele>1805</ele>
        <time>2018-07-01T13:12:46Z</time>
      </trkpt>
      <trkpt lat="45.31406" lon="6.05248">
        <ele>1803</ele>
        <time>2018-07-01T13:12:47Z</time>
      </trkpt>
      <trkpt lat="45.31405" lon="6.05239">
        <ele>1802</ele>
        <time>2018-07-01T13:12:50Z</time>
      </trkpt>
      <trkpt lat="45.31377" lon="6.05246">
        <ele>1810</ele>
        <time>2018-07-01T13:12:50Z</time>
      </trkpt>
      <trkpt lat="45.31395" lon="6.05231">
        <ele>1803</ele>
        <time>2018-07-01T13:12:52Z</time>
      </trkpt>
      <trkpt lat="45.31392" lon="6.05225">
        <ele>1803</ele>
        <time>2018-07-01T13:12:56Z</time>
      </trkpt>
      <trkpt lat="45.31388" lon="6.0522">
        <ele>1804</ele>
        <time>2018-07-01T13:13:01Z</time>
      </trkpt>
      <trkpt lat="45.31384" lon="6.05216">
        <ele>1804</ele>
        <time>2018-07-01T13:13:05Z</time>
      </trkpt>
      <trkpt lat="45.31382" lon="6.0521">
        <ele>1804</ele>
        <time>2018-07-01T13:13:09Z</time>
      </trkpt>
      <trkpt lat="45.31377" lon="6.05208">
        <ele>1805</ele>
        <time>2018-07-01T13:13:12Z</time>
      </trkpt>
      <trkpt lat="45.31373" lon="6.05203">
        <ele>1805</ele>
        <time>2018-07-01T13:13:16Z</time>
      </trkpt>
      <trkpt lat="45.31369" lon="6.05198">
        <ele>1804</ele>
        <time>2018-07-01T13:13:25Z</time>
      </trkpt>
      <trkpt lat="45.31365" lon="6.05194">
        <ele>1804</ele>
        <time>2018-07-01T13:13:37Z</time>
      </trkpt>
      <trkpt lat="45.31361" lon="6.05191">
        <ele>1805</ele>
        <time>2018-07-01T13:13:43Z</time>
      </trkpt>
      <trkpt lat="45.31356" lon="6.05188">
        <ele>1805</ele>
        <time>2018-07-01T13:13:48Z</time>
      </trkpt>
      <trkpt lat="45.31352" lon="6.05187">
        <ele>1806</ele>
        <time>2018-07-01T13:14:05Z</time>
      </trkpt>
      <trkpt lat="45.31347" lon="6.05185">
        <ele>1806</ele>
        <time>2018-07-01T13:14:08Z</time>
      </trkpt>
      <trkpt lat="45.31342" lon="6.05183">
        <ele>1807</ele>
        <time>2018-07-01T13:14:12Z</time>
      </trkpt>
      <trkpt lat="45.31337" lon="6.05179">
        <ele>1807</ele>
        <time>2018-07-01T13:14:16Z</time>
      </trkpt>
      <trkpt lat="45.31333" lon="6.05176">
        <ele>1808</ele>
        <time>2018-07-01T13:14:19Z</time>
      </trkpt>
      <trkpt lat="45.31329" lon="6.05171">
        <ele>1808</ele>
        <time>2018-07-01T13:14:22Z</time>
      </trkpt>
      <trkpt lat="45.31326" lon="6.05167">
        <ele>1808</ele>
        <time>2018-07-01T13:14:25Z</time>
      </trkpt>
      <trkpt lat="45.31321" lon="6.05163">
        <ele>1808</ele>
        <time>2018-07-01T13:14:28Z</time>
      </trkpt>
      <trkpt lat="45.31315" lon="6.0516">
        <ele>1809</ele>
        <time>2018-07-01T13:14:31Z</time>
      </trkpt>
      <trkpt lat="45.31309" lon="6.05157">
        <ele>1809</ele>
        <time>2018-07-01T13:14:34Z</time>
      </trkpt>
      <trkpt lat="45.31303" lon="6.05154">
        <ele>1810</ele>
        <time>2018-07-01T13:14:37Z</time>
      </trkpt>
      <trkpt lat="45.31299" lon="6.05151">
        <ele>1810</ele>
        <time>2018-07-01T13:14:40Z</time>
      </trkpt>
      <trkpt lat="45.31294" lon="6.05148">
        <ele>1810</ele>
        <time>2018-07-01T13:14:43Z</time>
      </trkpt>
      <trkpt lat="45.31289" lon="6.05144">
        <ele>1810</ele>
        <time>2018-07-01T13:14:46Z</time>
      </trkpt>
      <trkpt lat="45.31284" lon="6.05141">
        <ele>1810</ele>
        <time>2018-07-01T13:14:49Z</time>
      </trkpt>
      <trkpt lat="45.3128" lon="6.05136">
        <ele>1809</ele>
        <time>2018-07-01T13:14:52Z</time>
      </trkpt>
      <trkpt lat="45.31276" lon="6.05132">
        <ele>1809</ele>
        <time>2018-07-01T13:14:55Z</time>
      </trkpt>
      <trkpt lat="45.31271" lon="6.05128">
        <ele>1809</ele>
        <time>2018-07-01T13:14:58Z</time>
      </trkpt>
      <trkpt lat="45.31265" lon="6.05124">
        <ele>1809</ele>
        <time>2018-07-01T13:15:01Z</time>
      </trkpt>
      <trkpt lat="45.31259" lon="6.0512">
        <ele>1810</ele>
        <time>2018-07-01T13:15:04Z</time>
      </trkpt>
      <trkpt lat="45.31253" lon="6.05117">
        <ele>1810</ele>
        <time>2018-07-01T13:15:07Z</time>
      </trkpt>
      <trkpt lat="45.31247" lon="6.05115">
        <ele>1811</ele>
        <time>2018-07-01T13:15:10Z</time>
      </trkpt>
      <trkpt lat="45.31242" lon="6.05113">
        <ele>1811</ele>
        <time>2018-07-01T13:15:13Z</time>
      </trkpt>
      <trkpt lat="45.31237" lon="6.05111">
        <ele>1811</ele>
        <time>2018-07-01T13:15:16Z</time>
      </trkpt>
      <trkpt lat="45.31233" lon="6.05108">
        <ele>1811</ele>
        <time>2018-07-01T13:15:19Z</time>
      </trkpt>
      <trkpt lat="45.31228" lon="6.05104">
        <ele>1811</ele>
        <time>2018-07-01T13:15:22Z</time>
      </trkpt>
      <trkpt lat="45.31223" lon="6.05102">
        <ele>1812</ele>
        <time>2018-07-01T13:15:25Z</time>
      </trkpt>
      <trkpt lat="45.31217" lon="6.051">
        <ele>1812</ele>
        <time>2018-07-01T13:15:28Z</time>
      </trkpt>
      <trkpt lat="45.31212" lon="6.05099">
        <ele>1812</ele>
        <time>2018-07-01T13:15:31Z</time>
      </trkpt>
      <trkpt lat="45.31206" lon="6.05098">
        <ele>1813</ele>
        <time>2018-07-01T13:15:34Z</time>
      </trkpt>
      <trkpt lat="45.312" lon="6.05097">
        <ele>1813</ele>
        <time>2018-07-01T13:15:37Z</time>
      </trkpt>
      <trkpt lat="45.31194" lon="6.05097">
        <ele>1814</ele>
        <time>2018-07-01T13:15:40Z</time>
      </trkpt>
      <trkpt lat="45.31188" lon="6.05098">
        <ele>1815</ele>
        <time>2018-07-01T13:15:43Z</time>
      </trkpt>
      <trkpt lat="45.31183" lon="6.05098">
        <ele>1815</ele>
        <time>2018-07-01T13:15:45Z</time>
      </trkpt>
      <trkpt lat="45.31176" lon="6.05096">
        <ele>1816</ele>
        <time>2018-07-01T13:15:47Z</time>
      </trkpt>
      <trkpt lat="45.31172" lon="6.05094">
        <ele>1816</ele>
        <time>2018-07-01T13:15:49Z</time>
      </trkpt>
      <trkpt lat="45.31168" lon="6.05092">
        <ele>1816</ele>
        <time>2018-07-01T13:15:53Z</time>
      </trkpt>
      <trkpt lat="45.31162" lon="6.05089">
        <ele>1815</ele>
        <time>2018-07-01T13:15:56Z</time>
      </trkpt>
      <trkpt lat="45.31157" lon="6.05086">
        <ele>1815</ele>
        <time>2018-07-01T13:15:58Z</time>
      </trkpt>
      <trkpt lat="45.31153" lon="6.05084">
        <ele>1815</ele>
        <time>2018-07-01T13:16:00Z</time>
      </trkpt>
      <trkpt lat="45.31148" lon="6.05082">
        <ele>1815</ele>
        <time>2018-07-01T13:16:03Z</time>
      </trkpt>
      <trkpt lat="45.31142" lon="6.05078">
        <ele>1815</ele>
        <time>2018-07-01T13:16:06Z</time>
      </trkpt>
      <trkpt lat="45.31137" lon="6.05074">
        <ele>1815</ele>
        <time>2018-07-01T13:16:09Z</time>
      </trkpt>
      <trkpt lat="45.31131" lon="6.05071">
        <ele>1815</ele>
        <time>2018-07-01T13:16:12Z</time>
      </trkpt>
      <trkpt lat="45.31125" lon="6.05069">
        <ele>1815</ele>
        <time>2018-07-01T13:16:15Z</time>
      </trkpt>
      <trkpt lat="45.31118" lon="6.05068">
        <ele>1815</ele>
        <time>2018-07-01T13:16:18Z</time>
      </trkpt>
      <trkpt lat="45.31112" lon="6.05066">
        <ele>1816</ele>
        <time>2018-07-01T13:16:21Z</time>
      </trkpt>
      <trkpt lat="45.31105" lon="6.05067">
        <ele>1816</ele>
        <time>2018-07-01T13:16:24Z</time>
      </trkpt>
      <trkpt lat="45.31099" lon="6.05068">
        <ele>1816</ele>
        <time>2018-07-01T13:16:27Z</time>
      </trkpt>
      <trkpt lat="45.31092" lon="6.05068">
        <ele>1817</ele>
        <time>2018-07-01T13:16:31Z</time>
      </trkpt>
      <trkpt lat="45.31086" lon="6.05067">
        <ele>1817</ele>
        <time>2018-07-01T13:16:34Z</time>
      </trkpt>
      <trkpt lat="45.3108" lon="6.05066">
        <ele>1817</ele>
        <time>2018-07-01T13:16:37Z</time>
      </trkpt>
      <trkpt lat="45.31074" lon="6.05064">
        <ele>1817</ele>
        <time>2018-07-01T13:16:40Z</time>
      </trkpt>
      <trkpt lat="45.3107" lon="6.05061">
        <ele>1817</ele>
        <time>2018-07-01T13:16:44Z</time>
      </trkpt>
      <trkpt lat="45.31065" lon="6.05061">
        <ele>1817</ele>
        <time>2018-07-01T13:16:47Z</time>
      </trkpt>
      <trkpt lat="45.31061" lon="6.0506">
        <ele>1817</ele>
        <time>2018-07-01T13:16:53Z</time>
      </trkpt>
      <trkpt lat="45.31056" lon="6.05056">
        <ele>1817</ele>
        <time>2018-07-01T13:16:59Z</time>
      </trkpt>
      <trkpt lat="45.31052" lon="6.05053">
        <ele>1817</ele>
        <time>2018-07-01T13:17:10Z</time>
      </trkpt>
      <trkpt lat="45.31047" lon="6.05051">
        <ele>1817</ele>
        <time>2018-07-01T13:17:15Z</time>
      </trkpt>
      <trkpt lat="45.31043" lon="6.05048">
        <ele>1818</ele>
        <time>2018-07-01T13:17:20Z</time>
      </trkpt>
      <trkpt lat="45.31038" lon="6.05047">
        <ele>1818</ele>
        <time>2018-07-01T13:17:27Z</time>
      </trkpt>
      <trkpt lat="45.31033" lon="6.05047">
        <ele>1818</ele>
        <time>2018-07-01T13:17:43Z</time>
      </trkpt>
      <trkpt lat="45.31029" lon="6.05045">
        <ele>1818</ele>
        <time>2018-07-01T13:17:50Z</time>
      </trkpt>
      <trkpt lat="45.31024" lon="6.05044">
        <ele>1818</ele>
        <time>2018-07-01T13:17:53Z</time>
      </trkpt>
      <trkpt lat="45.31019" lon="6.05044">
        <ele>1818</ele>
        <time>2018-07-01T13:17:56Z</time>
      </trkpt>
      <trkpt lat="45.31014" lon="6.05044">
        <ele>1818</ele>
        <time>2018-07-01T13:18:00Z</time>
      </trkpt>
      <trkpt lat="45.3101" lon="6.05043">
        <ele>1818</ele>
        <time>2018-07-01T13:18:04Z</time>
      </trkpt>
      <trkpt lat="45.31005" lon="6.05042">
        <ele>1818</ele>
        <time>2018-07-01T13:18:08Z</time>
      </trkpt>
      <trkpt lat="45.30999" lon="6.05042">
        <ele>1818</ele>
        <time>2018-07-01T13:18:12Z</time>
      </trkpt>
      <trkpt lat="45.30994" lon="6.05043">
        <ele>1819</ele>
        <time>2018-07-01T13:18:16Z</time>
      </trkpt>
      <trkpt lat="45.3099" lon="6.05047">
        <ele>1819</ele>
        <time>2018-07-01T13:18:19Z</time>
      </trkpt>
      <trkpt lat="45.30986" lon="6.05051">
        <ele>1819</ele>
        <time>2018-07-01T13:18:21Z</time>
      </trkpt>
      <trkpt lat="45.30982" lon="6.05058">
        <ele>1820</ele>
        <time>2018-07-01T13:18:23Z</time>
      </trkpt>
      <trkpt lat="45.30978" lon="6.05067">
        <ele>1820</ele>
        <time>2018-07-01T13:18:25Z</time>
      </trkpt>
      <trkpt lat="45.30972" lon="6.05072">
        <ele>1820</ele>
        <time>2018-07-01T13:18:27Z</time>
      </trkpt>
      <trkpt lat="45.30965" lon="6.05077">
        <ele>1821</ele>
        <time>2018-07-01T13:18:29Z</time>
      </trkpt>
      <trkpt lat="45.30958" lon="6.05082">
        <ele>1822</ele>
        <time>2018-07-01T13:18:31Z</time>
      </trkpt>
      <trkpt lat="45.3095" lon="6.05085">
        <ele>1823</ele>
        <time>2018-07-01T13:18:33Z</time>
      </trkpt>
      <trkpt lat="45.30942" lon="6.0509">
        <ele>1823</ele>
        <time>2018-07-01T13:18:35Z</time>
      </trkpt>
      <trkpt lat="45.30934" lon="6.05094">
        <ele>1824</ele>
        <time>2018-07-01T13:18:37Z</time>
      </trkpt>
      <trkpt lat="45.3093" lon="6.05097">
        <ele>1825</ele>
        <time>2018-07-01T13:18:39Z</time>
      </trkpt>
      <trkpt lat="45.30926" lon="6.051">
        <ele>1825</ele>
        <time>2018-07-01T13:18:44Z</time>
      </trkpt>
      <trkpt lat="45.30921" lon="6.05103">
        <ele>1826</ele>
        <time>2018-07-01T13:18:54Z</time>
      </trkpt>
      <trkpt lat="45.30916" lon="6.05105">
        <ele>1827</ele>
        <time>2018-07-01T13:19:02Z</time>
      </trkpt>
      <trkpt lat="45.30911" lon="6.05106">
        <ele>1827</ele>
        <time>2018-07-01T13:19:05Z</time>
      </trkpt>
      <trkpt lat="45.30908" lon="6.05111">
        <ele>1828</ele>
        <time>2018-07-01T13:19:13Z</time>
      </trkpt>
      <trkpt lat="45.30903" lon="6.05107">
        <ele>1828</ele>
        <time>2018-07-01T13:19:18Z</time>
      </trkpt>
      <trkpt lat="45.30898" lon="6.05108">
        <ele>1829</ele>
        <time>2018-07-01T13:19:23Z</time>
      </trkpt>
      <trkpt lat="45.30893" lon="6.05107">
        <ele>1830</ele>
        <time>2018-07-01T13:19:28Z</time>
      </trkpt>
      <trkpt lat="45.30888" lon="6.05107">
        <ele>1831</ele>
        <time>2018-07-01T13:19:33Z</time>
      </trkpt>
      <trkpt lat="45.30884" lon="6.05107">
        <ele>1832</ele>
        <time>2018-07-01T13:19:41Z</time>
      </trkpt>
      <trkpt lat="45.30879" lon="6.05106">
        <ele>1833</ele>
        <time>2018-07-01T13:19:44Z</time>
      </trkpt>
      <trkpt lat="45.30875" lon="6.05105">
        <ele>1834</ele>
        <time>2018-07-01T13:19:47Z</time>
      </trkpt>
      <trkpt lat="45.30869" lon="6.05104">
        <ele>1835</ele>
        <time>2018-07-01T13:19:51Z</time>
      </trkpt>
      <trkpt lat="45.30865" lon="6.05098">
        <ele>1835</ele>
        <time>2018-07-01T13:19:56Z</time>
      </trkpt>
      <trkpt lat="45.3086" lon="6.05097">
        <ele>1836</ele>
        <time>2018-07-01T13:20:01Z</time>
      </trkpt>
      <trkpt lat="45.30856" lon="6.05094">
        <ele>1837</ele>
        <time>2018-07-01T13:20:05Z</time>
      </trkpt>
      <trkpt lat="45.30851" lon="6.05091">
        <ele>1838</ele>
        <time>2018-07-01T13:20:09Z</time>
      </trkpt>
      <trkpt lat="45.30848" lon="6.05088">
        <ele>1839</ele>
        <time>2018-07-01T13:20:13Z</time>
      </trkpt>
      <trkpt lat="45.30843" lon="6.05087">
        <ele>1840</ele>
        <time>2018-07-01T13:20:17Z</time>
      </trkpt>
      <trkpt lat="45.30838" lon="6.05084">
        <ele>1841</ele>
        <time>2018-07-01T13:20:33Z</time>
      </trkpt>
      <trkpt lat="45.30833" lon="6.05082">
        <ele>1842</ele>
        <time>2018-07-01T13:20:39Z</time>
      </trkpt>
      <trkpt lat="45.30828" lon="6.0508">
        <ele>1843</ele>
        <time>2018-07-01T13:20:45Z</time>
      </trkpt>
      <trkpt lat="45.30824" lon="6.05076">
        <ele>1844</ele>
        <time>2018-07-01T13:20:50Z</time>
      </trkpt>
      <trkpt lat="45.30819" lon="6.05075">
        <ele>1845</ele>
        <time>2018-07-01T13:20:57Z</time>
      </trkpt>
      <trkpt lat="45.30814" lon="6.05073">
        <ele>1846</ele>
        <time>2018-07-01T13:21:04Z</time>
      </trkpt>
      <trkpt lat="45.30809" lon="6.05071">
        <ele>1848</ele>
        <time>2018-07-01T13:21:11Z</time>
      </trkpt>
      <trkpt lat="45.30804" lon="6.05069">
        <ele>1849</ele>
        <time>2018-07-01T13:21:18Z</time>
      </trkpt>
      <trkpt lat="45.308" lon="6.05068">
        <ele>1850</ele>
        <time>2018-07-01T13:21:30Z</time>
      </trkpt>
      <trkpt lat="45.30795" lon="6.0507">
        <ele>1851</ele>
        <time>2018-07-01T13:21:37Z</time>
      </trkpt>
      <trkpt lat="45.30791" lon="6.05071">
        <ele>1853</ele>
        <time>2018-07-01T13:21:47Z</time>
      </trkpt>
      <trkpt lat="45.30786" lon="6.05071">
        <ele>1854</ele>
        <time>2018-07-01T13:21:57Z</time>
      </trkpt>
      <trkpt lat="45.30781" lon="6.05071">
        <ele>1856</ele>
        <time>2018-07-01T13:22:04Z</time>
      </trkpt>
      <trkpt lat="45.30777" lon="6.05075">
        <ele>1857</ele>
        <time>2018-07-01T13:22:11Z</time>
      </trkpt>
      <trkpt lat="45.30773" lon="6.05077">
        <ele>1859</ele>
        <time>2018-07-01T13:22:23Z</time>
      </trkpt>
      <trkpt lat="45.30769" lon="6.05074">
        <ele>1860</ele>
        <time>2018-07-01T13:22:32Z</time>
      </trkpt>
      <trkpt lat="45.30764" lon="6.05073">
        <ele>1861</ele>
        <time>2018-07-01T13:22:48Z</time>
      </trkpt>
      <trkpt lat="45.30763" lon="6.05072">
        <ele>1861</ele>
        <time>2018-07-01T13:22:51Z</time>
      </trkpt>
      <trkpt lat="45.30758" lon="6.05072">
        <ele>1862</ele>
        <time>2018-07-01T13:22:57Z</time>
      </trkpt>
      <trkpt lat="45.30753" lon="6.0507">
        <ele>1864</ele>
        <time>2018-07-01T13:23:04Z</time>
      </trkpt>
      <trkpt lat="45.30749" lon="6.05069">
        <ele>1865</ele>
        <time>2018-07-01T13:23:14Z</time>
      </trkpt>
      <trkpt lat="45.30744" lon="6.05069">
        <ele>1866</ele>
        <time>2018-07-01T13:23:27Z</time>
      </trkpt>
      <trkpt lat="45.30739" lon="6.05067">
        <ele>1867</ele>
        <time>2018-07-01T13:23:35Z</time>
      </trkpt>
      <trkpt lat="45.30737" lon="6.05064">
        <ele>1867</ele>
        <time>2018-07-01T13:24:02Z</time>
      </trkpt>
      <trkpt lat="45.30737" lon="6.05064">
        <ele>1867</ele>
        <time>2018-07-01T13:24:05Z</time>
      </trkpt>
      <trkpt lat="45.30732" lon="6.05066">
        <ele>1869</ele>
        <time>2018-07-01T13:24:24Z</time>
      </trkpt>
      <trkpt lat="45.30727" lon="6.05065">
        <ele>1870</ele>
        <time>2018-07-01T13:24:29Z</time>
      </trkpt>
      <trkpt lat="45.30722" lon="6.05065">
        <ele>1871</ele>
        <time>2018-07-01T13:24:35Z</time>
      </trkpt>
      <trkpt lat="45.30718" lon="6.05062">
        <ele>1872</ele>
        <time>2018-07-01T13:24:40Z</time>
      </trkpt>
      <trkpt lat="45.30713" lon="6.0506">
        <ele>1873</ele>
        <time>2018-07-01T13:24:47Z</time>
      </trkpt>
      <trkpt lat="45.30709" lon="6.05058">
        <ele>1874</ele>
        <time>2018-07-01T13:24:55Z</time>
      </trkpt>
      <trkpt lat="45.30705" lon="6.05056">
        <ele>1874</ele>
        <time>2018-07-01T13:25:01Z</time>
      </trkpt>
      <trkpt lat="45.307" lon="6.05056">
        <ele>1876</ele>
        <time>2018-07-01T13:25:09Z</time>
      </trkpt>
      <trkpt lat="45.30695" lon="6.05057">
        <ele>1877</ele>
        <time>2018-07-01T13:25:19Z</time>
      </trkpt>
      <trkpt lat="45.3069" lon="6.05056">
        <ele>1878</ele>
        <time>2018-07-01T13:25:29Z</time>
      </trkpt>
      <trkpt lat="45.30685" lon="6.05055">
        <ele>1879</ele>
        <time>2018-07-01T13:25:37Z</time>
      </trkpt>
      <trkpt lat="45.3068" lon="6.05055">
        <ele>1879</ele>
        <time>2018-07-01T13:25:46Z</time>
      </trkpt>
      <trkpt lat="45.30675" lon="6.05052">
        <ele>1880</ele>
        <time>2018-07-01T13:25:50Z</time>
      </trkpt>
      <trkpt lat="45.30671" lon="6.05051">
        <ele>1880</ele>
        <time>2018-07-01T13:25:56Z</time>
      </trkpt>
      <trkpt lat="45.30666" lon="6.05051">
        <ele>1881</ele>
        <time>2018-07-01T13:26:01Z</time>
      </trkpt>
      <trkpt lat="45.30661" lon="6.05051">
        <ele>1882</ele>
        <time>2018-07-01T13:26:06Z</time>
      </trkpt>
      <trkpt lat="45.30658" lon="6.05056">
        <ele>1883</ele>
        <time>2018-07-01T13:26:13Z</time>
      </trkpt>
      <trkpt lat="45.30654" lon="6.05056">
        <ele>1884</ele>
        <time>2018-07-01T13:26:27Z</time>
      </trkpt>
      <trkpt lat="45.30639" lon="6.05054">
        <ele>1886</ele>
        <time>2018-07-01T13:26:50Z</time>
      </trkpt>
      <trkpt lat="45.30635" lon="6.05053">
        <ele>1887</ele>
        <time>2018-07-01T13:26:55Z</time>
      </trkpt>
      <trkpt lat="45.3063" lon="6.05054">
        <ele>1888</ele>
        <time>2018-07-01T13:27:02Z</time>
      </trkpt>
      <trkpt lat="45.30625" lon="6.05055">
        <ele>1889</ele>
        <time>2018-07-01T13:27:12Z</time>
      </trkpt>
      <trkpt lat="45.30621" lon="6.05054">
        <ele>1889</ele>
        <time>2018-07-01T13:27:19Z</time>
      </trkpt>
      <trkpt lat="45.30616" lon="6.05055">
        <ele>1889</ele>
        <time>2018-07-01T13:27:26Z</time>
      </trkpt>
      <trkpt lat="45.30611" lon="6.05056">
        <ele>1889</ele>
        <time>2018-07-01T13:27:34Z</time>
      </trkpt>
      <trkpt lat="45.30607" lon="6.0506">
        <ele>1890</ele>
        <time>2018-07-01T13:27:43Z</time>
      </trkpt>
      <trkpt lat="45.30602" lon="6.05056">
        <ele>1889</ele>
        <time>2018-07-01T13:27:50Z</time>
      </trkpt>
      <trkpt lat="45.30598" lon="6.05056">
        <ele>1890</ele>
        <time>2018-07-01T13:27:57Z</time>
      </trkpt>
      <trkpt lat="45.30593" lon="6.05057">
        <ele>1890</ele>
        <time>2018-07-01T13:28:05Z</time>
      </trkpt>
      <trkpt lat="45.30588" lon="6.05058">
        <ele>1890</ele>
        <time>2018-07-01T13:28:13Z</time>
      </trkpt>
      <trkpt lat="45.30583" lon="6.05057">
        <ele>1890</ele>
        <time>2018-07-01T13:28:20Z</time>
      </trkpt>
      <trkpt lat="45.30578" lon="6.05055">
        <ele>1890</ele>
        <time>2018-07-01T13:28:48Z</time>
      </trkpt>
      <trkpt lat="45.30573" lon="6.05053">
        <ele>1890</ele>
        <time>2018-07-01T13:28:52Z</time>
      </trkpt>
      <trkpt lat="45.30567" lon="6.05051">
        <ele>1890</ele>
        <time>2018-07-01T13:28:56Z</time>
      </trkpt>
      <trkpt lat="45.30563" lon="6.05047">
        <ele>1891</ele>
        <time>2018-07-01T13:29:00Z</time>
      </trkpt>
      <trkpt lat="45.30558" lon="6.05044">
        <ele>1891</ele>
        <time>2018-07-01T13:29:04Z</time>
      </trkpt>
      <trkpt lat="45.30554" lon="6.0504">
        <ele>1891</ele>
        <time>2018-07-01T13:29:08Z</time>
      </trkpt>
      <trkpt lat="45.30549" lon="6.05037">
        <ele>1892</ele>
        <time>2018-07-01T13:29:12Z</time>
      </trkpt>
      <trkpt lat="45.30544" lon="6.05035">
        <ele>1892</ele>
        <time>2018-07-01T13:29:16Z</time>
      </trkpt>
      <trkpt lat="45.30539" lon="6.05033">
        <ele>1892</ele>
        <time>2018-07-01T13:29:20Z</time>
      </trkpt>
      <trkpt lat="45.30534" lon="6.05031">
        <ele>1893</ele>
        <time>2018-07-01T13:29:24Z</time>
      </trkpt>
      <trkpt lat="45.30529" lon="6.05029">
        <ele>1893</ele>
        <time>2018-07-01T13:29:28Z</time>
      </trkpt>
      <trkpt lat="45.30524" lon="6.05027">
        <ele>1894</ele>
        <time>2018-07-01T13:29:32Z</time>
      </trkpt>
      <trkpt lat="45.30519" lon="6.05023">
        <ele>1895</ele>
        <time>2018-07-01T13:29:36Z</time>
      </trkpt>
      <trkpt lat="45.30514" lon="6.05019">
        <ele>1896</ele>
        <time>2018-07-01T13:29:40Z</time>
      </trkpt>
      <trkpt lat="45.3051" lon="6.05015">
        <ele>1897</ele>
        <time>2018-07-01T13:29:43Z</time>
      </trkpt>
      <trkpt lat="45.30505" lon="6.05011">
        <ele>1898</ele>
        <time>2018-07-01T13:29:46Z</time>
      </trkpt>
      <trkpt lat="45.305" lon="6.05006">
        <ele>1900</ele>
        <time>2018-07-01T13:29:49Z</time>
      </trkpt>
      <trkpt lat="45.30496" lon="6.05002">
        <ele>1901</ele>
        <time>2018-07-01T13:29:52Z</time>
      </trkpt>
      <trkpt lat="45.30491" lon="6.04998">
        <ele>1902</ele>
        <time>2018-07-01T13:29:56Z</time>
      </trkpt>
      <trkpt lat="45.30486" lon="6.04994">
        <ele>1902</ele>
        <time>2018-07-01T13:30:00Z</time>
      </trkpt>
      <trkpt lat="45.30481" lon="6.04991">
        <ele>1903</ele>
        <time>2018-07-01T13:30:04Z</time>
      </trkpt>
      <trkpt lat="45.30476" lon="6.04988">
        <ele>1903</ele>
        <time>2018-07-01T13:30:08Z</time>
      </trkpt>
      <trkpt lat="45.30472" lon="6.04985">
        <ele>1904</ele>
        <time>2018-07-01T13:30:12Z</time>
      </trkpt>
      <trkpt lat="45.30467" lon="6.04982">
        <ele>1904</ele>
        <time>2018-07-01T13:30:16Z</time>
      </trkpt>
      <trkpt lat="45.30463" lon="6.04979">
        <ele>1905</ele>
        <time>2018-07-01T13:30:20Z</time>
      </trkpt>
      <trkpt lat="45.3046" lon="6.04975">
        <ele>1905</ele>
        <time>2018-07-01T13:30:24Z</time>
      </trkpt>
      <trkpt lat="45.30455" lon="6.04975">
        <ele>1906</ele>
        <time>2018-07-01T13:30:28Z</time>
      </trkpt>
      <trkpt lat="45.3045" lon="6.04975">
        <ele>1907</ele>
        <time>2018-07-01T13:30:32Z</time>
      </trkpt>
      <trkpt lat="45.30446" lon="6.04974">
        <ele>1908</ele>
        <time>2018-07-01T13:30:36Z</time>
      </trkpt>
      <trkpt lat="45.30441" lon="6.04974">
        <ele>1908</ele>
        <time>2018-07-01T13:30:40Z</time>
      </trkpt>
      <trkpt lat="45.30436" lon="6.04976">
        <ele>1909</ele>
        <time>2018-07-01T13:30:45Z</time>
      </trkpt>
      <trkpt lat="45.30431" lon="6.04974">
        <ele>1910</ele>
        <time>2018-07-01T13:30:50Z</time>
      </trkpt>
      <trkpt lat="45.30427" lon="6.04973">
        <ele>1911</ele>
        <time>2018-07-01T13:30:55Z</time>
      </trkpt>
      <trkpt lat="45.30423" lon="6.04968">
        <ele>1911</ele>
        <time>2018-07-01T13:31:00Z</time>
      </trkpt>
      <trkpt lat="45.30418" lon="6.04968">
        <ele>1912</ele>
        <time>2018-07-01T13:31:05Z</time>
      </trkpt>
      <trkpt lat="45.30413" lon="6.0497">
        <ele>1911</ele>
        <time>2018-07-01T13:31:09Z</time>
      </trkpt>
      <trkpt lat="45.30409" lon="6.04974">
        <ele>1911</ele>
        <time>2018-07-01T13:31:13Z</time>
      </trkpt>
      <trkpt lat="45.30404" lon="6.04977">
        <ele>1910</ele>
        <time>2018-07-01T13:31:18Z</time>
      </trkpt>
      <trkpt lat="45.30399" lon="6.04978">
        <ele>1909</ele>
        <time>2018-07-01T13:31:22Z</time>
      </trkpt>
      <trkpt lat="45.30396" lon="6.04982">
        <ele>1908</ele>
        <time>2018-07-01T13:31:27Z</time>
      </trkpt>
      <trkpt lat="45.30391" lon="6.04984">
        <ele>1907</ele>
        <time>2018-07-01T13:31:36Z</time>
      </trkpt>
      <trkpt lat="45.30386" lon="6.04986">
        <ele>1906</ele>
        <time>2018-07-01T13:31:42Z</time>
      </trkpt>
      <trkpt lat="45.30382" lon="6.04987">
        <ele>1905</ele>
        <time>2018-07-01T13:31:48Z</time>
      </trkpt>
      <trkpt lat="45.30378" lon="6.04993">
        <ele>1904</ele>
        <time>2018-07-01T13:31:58Z</time>
      </trkpt>
      <trkpt lat="45.30374" lon="6.04995">
        <ele>1903</ele>
        <time>2018-07-01T13:32:04Z</time>
      </trkpt>
      <trkpt lat="45.30369" lon="6.04997">
        <ele>1902</ele>
        <time>2018-07-01T13:32:12Z</time>
      </trkpt>
      <trkpt lat="45.30364" lon="6.04998">
        <ele>1901</ele>
        <time>2018-07-01T13:32:21Z</time>
      </trkpt>
      <trkpt lat="45.3036" lon="6.05003">
        <ele>1899</ele>
        <time>2018-07-01T13:32:30Z</time>
      </trkpt>
      <trkpt lat="45.30359" lon="6.05002">
        <ele>1899</ele>
        <time>2018-07-01T13:33:01Z</time>
      </trkpt>
      <trkpt lat="45.30359" lon="6.05002">
        <ele>1899</ele>
        <time>2018-07-01T13:33:04Z</time>
      </trkpt>
      <trkpt lat="45.30359" lon="6.05004">
        <ele>1899</ele>
        <time>2018-07-01T13:33:36Z</time>
      </trkpt>
      <trkpt lat="45.30359" lon="6.05004">
        <ele>1899</ele>
        <time>2018-07-01T13:33:39Z</time>
      </trkpt>
      <trkpt lat="45.30359" lon="6.05003">
        <ele>1899</ele>
        <time>2018-07-01T13:34:11Z</time>
      </trkpt>
      <trkpt lat="45.30359" lon="6.05003">
        <ele>1899</ele>
        <time>2018-07-01T13:34:14Z</time>
      </trkpt>
      <trkpt lat="45.30359" lon="6.05003">
        <ele>1899</ele>
        <time>2018-07-01T13:34:29Z</time>
      </trkpt>
      <trkpt lat="45.30359" lon="6.05003">
        <ele>1899</ele>
        <time>2018-07-01T13:34:32Z</time>
      </trkpt>
      <trkpt lat="45.3036" lon="6.05002">
        <ele>1899</ele>
        <time>2018-07-01T13:35:04Z</time>
      </trkpt>
      <trkpt lat="45.3036" lon="6.05002">
        <ele>1899</ele>
        <time>2018-07-01T13:35:07Z</time>
      </trkpt>
      <trkpt lat="45.30359" lon="6.05002">
        <ele>1899</ele>
        <time>2018-07-01T13:35:23Z</time>
      </trkpt>
      <trkpt lat="45.30359" lon="6.05002">
        <ele>1899</ele>
        <time>2018-07-01T13:35:26Z</time>
      </trkpt>
      <trkpt lat="45.30359" lon="6.05002">
        <ele>1899</ele>
        <time>2018-07-01T13:35:42Z</time>
      </trkpt>
      <trkpt lat="45.30359" lon="6.05002">
        <ele>1899</ele>
        <time>2018-07-01T13:35:45Z</time>
      </trkpt>
      <trkpt lat="45.30359" lon="6.05002">
        <ele>1899</ele>
        <time>2018-07-01T13:36:02Z</time>
      </trkpt>
      <trkpt lat="45.30359" lon="6.05002">
        <ele>1899</ele>
        <time>2018-07-01T13:36:05Z</time>
      </trkpt>
      <trkpt lat="45.30359" lon="6.05002">
        <ele>1899</ele>
        <time>2018-07-01T13:36:21Z</time>
      </trkpt>
      <trkpt lat="45.30359" lon="6.05002">
        <ele>1899</ele>
        <time>2018-07-01T13:36:24Z</time>
      </trkpt>
      <trkpt lat="45.30359" lon="6.05002">
        <ele>1899</ele>
        <time>2018-07-01T13:36:57Z</time>
      </trkpt>
      <trkpt lat="45.30359" lon="6.05002">
        <ele>1899</ele>
        <time>2018-07-01T13:37:00Z</time>
      </trkpt>
      <trkpt lat="45.30359" lon="6.05002">
        <ele>1899</ele>
        <time>2018-07-01T13:37:32Z</time>
      </trkpt>
      <trkpt lat="45.30359" lon="6.05002">
        <ele>1899</ele>
        <time>2018-07-01T13:37:35Z</time>
      </trkpt>
      <trkpt lat="45.30359" lon="6.05002">
        <ele>1899</ele>
        <time>2018-07-01T13:37:50Z</time>
      </trkpt>
      <trkpt lat="45.30359" lon="6.05002">
        <ele>1899</ele>
        <time>2018-07-01T13:37:53Z</time>
      </trkpt>
      <trkpt lat="45.30359" lon="6.05002">
        <ele>1899</ele>
        <time>2018-07-01T13:38:27Z</time>
      </trkpt>
      <trkpt lat="45.30365" lon="6.04984">
        <ele>1902</ele>
        <time>2018-07-01T13:42:44Z</time>
      </trkpt>
      <trkpt lat="45.30356" lon="6.04995">
        <ele>1899</ele>
        <time>2018-07-01T13:42:46Z</time>
      </trkpt>
      <trkpt lat="45.30357" lon="6.05005">
        <ele>1898</ele>
        <time>2018-07-01T13:42:47Z</time>
      </trkpt>
      <trkpt lat="45.30352" lon="6.05003">
        <ele>1897</ele>
        <time>2018-07-01T13:42:49Z</time>
      </trkpt>
      <trkpt lat="45.30359" lon="6.05002">
        <ele>1899</ele>
        <time>2018-07-01T13:42:50Z</time>
      </trkpt>
      <trkpt lat="45.30358" lon="6.05002">
        <ele>1899</ele>
        <time>2018-07-01T13:43:13Z</time>
      </trkpt>
      <trkpt lat="45.30356" lon="6.05006">
        <ele>1897</ele>
        <time>2018-07-01T13:44:19Z</time>
      </trkpt>
      <trkpt lat="45.30358" lon="6.05002">
        <ele>1899</ele>
        <time>2018-07-01T13:44:42Z</time>
      </trkpt>
      <trkpt lat="45.30358" lon="6.05002">
        <ele>1899</ele>
        <time>2018-07-01T13:44:45Z</time>
      </trkpt>
      <trkpt lat="45.30362" lon="6.05003">
        <ele>1900</ele>
        <time>2018-07-01T13:45:17Z</time>
      </trkpt>
      <trkpt lat="45.30366" lon="6.05">
        <ele>1901</ele>
        <time>2018-07-01T13:45:50Z</time>
      </trkpt>
      <trkpt lat="45.30362" lon="6.05003">
        <ele>1900</ele>
        <time>2018-07-01T13:45:50Z</time>
      </trkpt>
      <trkpt lat="45.30362" lon="6.04997">
        <ele>1900</ele>
        <time>2018-07-01T13:46:06Z</time>
      </trkpt>
      <trkpt lat="45.30367" lon="6.04997">
        <ele>1901</ele>
        <time>2018-07-01T13:46:25Z</time>
      </trkpt>
      <trkpt lat="45.30372" lon="6.04996">
        <ele>1903</ele>
        <time>2018-07-01T13:46:51Z</time>
      </trkpt>
      <trkpt lat="45.30376" lon="6.04994">
        <ele>1904</ele>
        <time>2018-07-01T13:46:53Z</time>
      </trkpt>
      <trkpt lat="45.30381" lon="6.04991">
        <ele>1905</ele>
        <time>2018-07-01T13:46:55Z</time>
      </trkpt>
      <trkpt lat="45.30385" lon="6.04989">
        <ele>1906</ele>
        <time>2018-07-01T13:46:57Z</time>
      </trkpt>
      <trkpt lat="45.3039" lon="6.04987">
        <ele>1907</ele>
        <time>2018-07-01T13:46:59Z</time>
      </trkpt>
      <trkpt lat="45.30395" lon="6.04985">
        <ele>1908</ele>
        <time>2018-07-01T13:47:00Z</time>
      </trkpt>
      <trkpt lat="45.304" lon="6.04984">
        <ele>1909</ele>
        <time>2018-07-01T13:47:01Z</time>
      </trkpt>
      <trkpt lat="45.30406" lon="6.04982">
        <ele>1910</ele>
        <time>2018-07-01T13:47:02Z</time>
      </trkpt>
      <trkpt lat="45.30413" lon="6.04978">
        <ele>1912</ele>
        <time>2018-07-01T13:47:04Z</time>
      </trkpt>
      <trkpt lat="45.3042" lon="6.04972">
        <ele>1912</ele>
        <time>2018-07-01T13:47:06Z</time>
      </trkpt>
      <trkpt lat="45.30422" lon="6.04963">
        <ele>1911</ele>
        <time>2018-07-01T13:47:08Z</time>
      </trkpt>
      <trkpt lat="45.30418" lon="6.04955">
        <ele>1911</ele>
        <time>2018-07-01T13:47:10Z</time>
      </trkpt>
      <trkpt lat="45.30412" lon="6.04947">
        <ele>1910</ele>
        <time>2018-07-01T13:47:12Z</time>
      </trkpt>
      <trkpt lat="45.30403" lon="6.0494">
        <ele>1909</ele>
        <time>2018-07-01T13:47:14Z</time>
      </trkpt>
      <trkpt lat="45.30399" lon="6.04936">
        <ele>1908</ele>
        <time>2018-07-01T13:47:15Z</time>
      </trkpt>
      <trkpt lat="45.30395" lon="6.04926">
        <ele>1907</ele>
        <time>2018-07-01T13:47:17Z</time>
      </trkpt>
      <trkpt lat="45.3039" lon="6.04916">
        <ele>1906</ele>
        <time>2018-07-01T13:47:19Z</time>
      </trkpt>
      <trkpt lat="45.30387" lon="6.04908">
        <ele>1905</ele>
        <time>2018-07-01T13:47:21Z</time>
      </trkpt>
      <trkpt lat="45.30384" lon="6.04903">
        <ele>1904</ele>
        <time>2018-07-01T13:47:36Z</time>
      </trkpt>
      <trkpt lat="45.3038" lon="6.04899">
        <ele>1904</ele>
        <time>2018-07-01T13:47:46Z</time>
      </trkpt>
      <trkpt lat="45.30376" lon="6.04898">
        <ele>1904</ele>
        <time>2018-07-01T13:47:50Z</time>
      </trkpt>
      <trkpt lat="45.30371" lon="6.04895">
        <ele>1903</ele>
        <time>2018-07-01T13:47:54Z</time>
      </trkpt>
      <trkpt lat="45.30367" lon="6.0489">
        <ele>1903</ele>
        <time>2018-07-01T13:47:58Z</time>
      </trkpt>
      <trkpt lat="45.30362" lon="6.04886">
        <ele>1903</ele>
        <time>2018-07-01T13:48:01Z</time>
      </trkpt>
      <trkpt lat="45.30358" lon="6.04878">
        <ele>1903</ele>
        <time>2018-07-01T13:48:04Z</time>
      </trkpt>
      <trkpt lat="45.30355" lon="6.04873">
        <ele>1903</ele>
        <time>2018-07-01T13:48:06Z</time>
      </trkpt>
      <trkpt lat="45.30352" lon="6.04868">
        <ele>1902</ele>
        <time>2018-07-01T13:48:08Z</time>
      </trkpt>
      <trkpt lat="45.30348" lon="6.04864">
        <ele>1902</ele>
        <time>2018-07-01T13:48:10Z</time>
      </trkpt>
      <trkpt lat="45.30344" lon="6.0486">
        <ele>1900</ele>
        <time>2018-07-01T13:48:12Z</time>
      </trkpt>
      <trkpt lat="45.3034" lon="6.04855">
        <ele>1899</ele>
        <time>2018-07-01T13:48:14Z</time>
      </trkpt>
      <trkpt lat="45.30337" lon="6.0485">
        <ele>1897</ele>
        <time>2018-07-01T13:48:16Z</time>
      </trkpt>
      <trkpt lat="45.30333" lon="6.04845">
        <ele>1896</ele>
        <time>2018-07-01T13:48:18Z</time>
      </trkpt>
      <trkpt lat="45.30329" lon="6.04841">
        <ele>1895</ele>
        <time>2018-07-01T13:48:20Z</time>
      </trkpt>
      <trkpt lat="45.30325" lon="6.04838">
        <ele>1894</ele>
        <time>2018-07-01T13:48:23Z</time>
      </trkpt>
      <trkpt lat="45.3032" lon="6.04834">
        <ele>1893</ele>
        <time>2018-07-01T13:48:26Z</time>
      </trkpt>
      <trkpt lat="45.30315" lon="6.0483">
        <ele>1892</ele>
        <time>2018-07-01T13:48:29Z</time>
      </trkpt>
      <trkpt lat="45.3031" lon="6.04827">
        <ele>1892</ele>
        <time>2018-07-01T13:48:32Z</time>
      </trkpt>
      <trkpt lat="45.30305" lon="6.04823">
        <ele>1891</ele>
        <time>2018-07-01T13:48:35Z</time>
      </trkpt>
      <trkpt lat="45.303" lon="6.04819">
        <ele>1891</ele>
        <time>2018-07-01T13:48:38Z</time>
      </trkpt>
      <trkpt lat="45.30295" lon="6.04816">
        <ele>1891</ele>
        <time>2018-07-01T13:48:41Z</time>
      </trkpt>
      <trkpt lat="45.3029" lon="6.04816">
        <ele>1890</ele>
        <time>2018-07-01T13:48:44Z</time>
      </trkpt>
      <trkpt lat="45.30284" lon="6.04817">
        <ele>1890</ele>
        <time>2018-07-01T13:48:47Z</time>
      </trkpt>
      <trkpt lat="45.3028" lon="6.04813">
        <ele>1890</ele>
        <time>2018-07-01T13:48:50Z</time>
      </trkpt>
      <trkpt lat="45.30277" lon="6.04809">
        <ele>1889</ele>
        <time>2018-07-01T13:48:53Z</time>
      </trkpt>
      <trkpt lat="45.30272" lon="6.04805">
        <ele>1889</ele>
        <time>2018-07-01T13:48:56Z</time>
      </trkpt>
      <trkpt lat="45.30268" lon="6.048">
        <ele>1888</ele>
        <time>2018-07-01T13:48:59Z</time>
      </trkpt>
      <trkpt lat="45.30264" lon="6.04797">
        <ele>1888</ele>
        <time>2018-07-01T13:49:03Z</time>
      </trkpt>
      <trkpt lat="45.30259" lon="6.04794">
        <ele>1887</ele>
        <time>2018-07-01T13:49:14Z</time>
      </trkpt>
      <trkpt lat="45.30255" lon="6.04792">
        <ele>1886</ele>
        <time>2018-07-01T13:49:17Z</time>
      </trkpt>
      <trkpt lat="45.3025" lon="6.0479">
        <ele>1885</ele>
        <time>2018-07-01T13:49:19Z</time>
      </trkpt>
      <trkpt lat="45.30244" lon="6.0479">
        <ele>1884</ele>
        <time>2018-07-01T13:49:22Z</time>
      </trkpt>
      <trkpt lat="45.30238" lon="6.0479">
        <ele>1883</ele>
        <time>2018-07-01T13:49:24Z</time>
      </trkpt>
      <trkpt lat="45.30232" lon="6.04787">
        <ele>1882</ele>
        <time>2018-07-01T13:49:26Z</time>
      </trkpt>
      <trkpt lat="45.30227" lon="6.04781">
        <ele>1882</ele>
        <time>2018-07-01T13:49:29Z</time>
      </trkpt>
      <trkpt lat="45.30222" lon="6.04777">
        <ele>1881</ele>
        <time>2018-07-01T13:49:32Z</time>
      </trkpt>
      <trkpt lat="45.30217" lon="6.04773">
        <ele>1881</ele>
        <time>2018-07-01T13:49:34Z</time>
      </trkpt>
      <trkpt lat="45.30213" lon="6.04768">
        <ele>1881</ele>
        <time>2018-07-01T13:49:36Z</time>
      </trkpt>
      <trkpt lat="45.30208" lon="6.04763">
        <ele>1881</ele>
        <time>2018-07-01T13:49:38Z</time>
      </trkpt>
      <trkpt lat="45.30204" lon="6.04759">
        <ele>1881</ele>
        <time>2018-07-01T13:49:40Z</time>
      </trkpt>
      <trkpt lat="45.30199" lon="6.04755">
        <ele>1881</ele>
        <time>2018-07-01T13:49:53Z</time>
      </trkpt>
      <trkpt lat="45.30195" lon="6.04751">
        <ele>1881</ele>
        <time>2018-07-01T13:49:56Z</time>
      </trkpt>
      <trkpt lat="45.30191" lon="6.04745">
        <ele>1882</ele>
        <time>2018-07-01T13:49:58Z</time>
      </trkpt>
      <trkpt lat="45.30187" lon="6.0474">
        <ele>1882</ele>
        <time>2018-07-01T13:50:00Z</time>
      </trkpt>
      <trkpt lat="45.30183" lon="6.04735">
        <ele>1883</ele>
        <time>2018-07-01T13:50:02Z</time>
      </trkpt>
      <trkpt lat="45.30179" lon="6.04731">
        <ele>1883</ele>
        <time>2018-07-01T13:50:04Z</time>
      </trkpt>
      <trkpt lat="45.30174" lon="6.04728">
        <ele>1883</ele>
        <time>2018-07-01T13:50:06Z</time>
      </trkpt>
      <trkpt lat="45.3017" lon="6.04724">
        <ele>1883</ele>
        <time>2018-07-01T13:50:08Z</time>
      </trkpt>
      <trkpt lat="45.30166" lon="6.04721">
        <ele>1882</ele>
        <time>2018-07-01T13:50:10Z</time>
      </trkpt>
      <trkpt lat="45.30162" lon="6.04718">
        <ele>1882</ele>
        <time>2018-07-01T13:50:12Z</time>
      </trkpt>
      <trkpt lat="45.30156" lon="6.04713">
        <ele>1882</ele>
        <time>2018-07-01T13:50:14Z</time>
      </trkpt>
      <trkpt lat="45.30149" lon="6.04709">
        <ele>1881</ele>
        <time>2018-07-01T13:50:16Z</time>
      </trkpt>
      <trkpt lat="45.30144" lon="6.04705">
        <ele>1882</ele>
        <time>2018-07-01T13:50:18Z</time>
      </trkpt>
      <trkpt lat="45.30139" lon="6.04704">
        <ele>1881</ele>
        <time>2018-07-01T13:50:25Z</time>
      </trkpt>
      <trkpt lat="45.30134" lon="6.04702">
        <ele>1882</ele>
        <time>2018-07-01T13:50:27Z</time>
      </trkpt>
      <trkpt lat="45.30129" lon="6.047">
        <ele>1882</ele>
        <time>2018-07-01T13:50:29Z</time>
      </trkpt>
      <trkpt lat="45.30125" lon="6.04698">
        <ele>1882</ele>
        <time>2018-07-01T13:50:31Z</time>
      </trkpt>
      <trkpt lat="45.3012" lon="6.04696">
        <ele>1882</ele>
        <time>2018-07-01T13:50:34Z</time>
      </trkpt>
      <trkpt lat="45.30115" lon="6.04693">
        <ele>1882</ele>
        <time>2018-07-01T13:50:37Z</time>
      </trkpt>
      <trkpt lat="45.30111" lon="6.04691">
        <ele>1883</ele>
        <time>2018-07-01T13:50:40Z</time>
      </trkpt>
      <trkpt lat="45.30106" lon="6.04691">
        <ele>1883</ele>
        <time>2018-07-01T13:50:43Z</time>
      </trkpt>
      <trkpt lat="45.301" lon="6.04691">
        <ele>1883</ele>
        <time>2018-07-01T13:50:47Z</time>
      </trkpt>
      <trkpt lat="45.30094" lon="6.04685">
        <ele>1884</ele>
        <time>2018-07-01T13:50:52Z</time>
      </trkpt>
      <trkpt lat="45.3009" lon="6.0468">
        <ele>1885</ele>
        <time>2018-07-01T13:50:55Z</time>
      </trkpt>
      <trkpt lat="45.30086" lon="6.04676">
        <ele>1886</ele>
        <time>2018-07-01T13:50:58Z</time>
      </trkpt>
      <trkpt lat="45.30082" lon="6.04675">
        <ele>1887</ele>
        <time>2018-07-01T13:51:01Z</time>
      </trkpt>
      <trkpt lat="45.30077" lon="6.04673">
        <ele>1887</ele>
        <time>2018-07-01T13:51:04Z</time>
      </trkpt>
      <trkpt lat="45.30072" lon="6.04672">
        <ele>1887</ele>
        <time>2018-07-01T13:51:08Z</time>
      </trkpt>
      <trkpt lat="45.30067" lon="6.0467">
        <ele>1886</ele>
        <time>2018-07-01T13:51:11Z</time>
      </trkpt>
      <trkpt lat="45.30062" lon="6.04668">
        <ele>1885</ele>
        <time>2018-07-01T13:51:15Z</time>
      </trkpt>
      <trkpt lat="45.30057" lon="6.04666">
        <ele>1884</ele>
        <time>2018-07-01T13:51:19Z</time>
      </trkpt>
      <trkpt lat="45.30052" lon="6.04662">
        <ele>1883</ele>
        <time>2018-07-01T13:51:22Z</time>
      </trkpt>
      <trkpt lat="45.30046" lon="6.04656">
        <ele>1882</ele>
        <time>2018-07-01T13:51:24Z</time>
      </trkpt>
      <trkpt lat="45.30039" lon="6.04649">
        <ele>1880</ele>
        <time>2018-07-01T13:51:26Z</time>
      </trkpt>
      <trkpt lat="45.30035" lon="6.04646">
        <ele>1879</ele>
        <time>2018-07-01T13:51:27Z</time>
      </trkpt>
      <trkpt lat="45.30028" lon="6.04639">
        <ele>1877</ele>
        <time>2018-07-01T13:51:29Z</time>
      </trkpt>
      <trkpt lat="45.30022" lon="6.04634">
        <ele>1876</ele>
        <time>2018-07-01T13:51:31Z</time>
      </trkpt>
      <trkpt lat="45.30017" lon="6.04626">
        <ele>1876</ele>
        <time>2018-07-01T13:51:33Z</time>
      </trkpt>
      <trkpt lat="45.30012" lon="6.04619">
        <ele>1876</ele>
        <time>2018-07-01T13:51:35Z</time>
      </trkpt>
      <trkpt lat="45.30007" lon="6.04612">
        <ele>1877</ele>
        <time>2018-07-01T13:51:37Z</time>
      </trkpt>
      <trkpt lat="45.3" lon="6.04601">
        <ele>1877</ele>
        <time>2018-07-01T13:51:39Z</time>
      </trkpt>
      <trkpt lat="45.29995" lon="6.04596">
        <ele>1877</ele>
        <time>2018-07-01T13:51:40Z</time>
      </trkpt>
      <trkpt lat="45.29987" lon="6.04588">
        <ele>1876</ele>
        <time>2018-07-01T13:51:42Z</time>
      </trkpt>
      <trkpt lat="45.29983" lon="6.04581">
        <ele>1875</ele>
        <time>2018-07-01T13:51:43Z</time>
      </trkpt>
      <trkpt lat="45.29979" lon="6.04576">
        <ele>1874</ele>
        <time>2018-07-01T13:51:44Z</time>
      </trkpt>
      <trkpt lat="45.29974" lon="6.04569">
        <ele>1874</ele>
        <time>2018-07-01T13:51:45Z</time>
      </trkpt>
      <trkpt lat="45.2997" lon="6.04566">
        <ele>1873</ele>
        <time>2018-07-01T13:51:46Z</time>
      </trkpt>
      <trkpt lat="45.29964" lon="6.04561">
        <ele>1873</ele>
        <time>2018-07-01T13:51:47Z</time>
      </trkpt>
      <trkpt lat="45.29959" lon="6.04556">
        <ele>1872</ele>
        <time>2018-07-01T13:51:48Z</time>
      </trkpt>
      <trkpt lat="45.29955" lon="6.04552">
        <ele>1872</ele>
        <time>2018-07-01T13:51:49Z</time>
      </trkpt>
      <trkpt lat="45.2995" lon="6.04547">
        <ele>1872</ele>
        <time>2018-07-01T13:51:50Z</time>
      </trkpt>
      <trkpt lat="45.29947" lon="6.04543">
        <ele>1873</ele>
        <time>2018-07-01T13:51:51Z</time>
      </trkpt>
      <trkpt lat="45.29943" lon="6.04538">
        <ele>1873</ele>
        <time>2018-07-01T13:51:52Z</time>
      </trkpt>
      <trkpt lat="45.29936" lon="6.0453">
        <ele>1873</ele>
        <time>2018-07-01T13:51:54Z</time>
      </trkpt>
      <trkpt lat="45.29929" lon="6.04524">
        <ele>1873</ele>
        <time>2018-07-01T13:51:56Z</time>
      </trkpt>
      <trkpt lat="45.29923" lon="6.0452">
        <ele>1872</ele>
        <time>2018-07-01T13:51:58Z</time>
      </trkpt>
      <trkpt lat="45.29917" lon="6.04522">
        <ele>1871</ele>
        <time>2018-07-01T13:52:01Z</time>
      </trkpt>
      <trkpt lat="45.29911" lon="6.04523">
        <ele>1870</ele>
        <time>2018-07-01T13:52:04Z</time>
      </trkpt>
      <trkpt lat="45.29906" lon="6.04522">
        <ele>1869</ele>
        <time>2018-07-01T13:52:07Z</time>
      </trkpt>
      <trkpt lat="45.299" lon="6.04521">
        <ele>1868</ele>
        <time>2018-07-01T13:52:11Z</time>
      </trkpt>
      <trkpt lat="45.29895" lon="6.04517">
        <ele>1867</ele>
        <time>2018-07-01T13:52:33Z</time>
      </trkpt>
      <trkpt lat="45.29886" lon="6.04517">
        <ele>1866</ele>
        <time>2018-07-01T13:52:36Z</time>
      </trkpt>
      <trkpt lat="45.29879" lon="6.04514">
        <ele>1865</ele>
        <time>2018-07-01T13:52:38Z</time>
      </trkpt>
      <trkpt lat="45.29873" lon="6.0451">
        <ele>1865</ele>
        <time>2018-07-01T13:52:40Z</time>
      </trkpt>
      <trkpt lat="45.29868" lon="6.04507">
        <ele>1865</ele>
        <time>2018-07-01T13:52:42Z</time>
      </trkpt>
      <trkpt lat="45.29863" lon="6.04503">
        <ele>1865</ele>
        <time>2018-07-01T13:52:44Z</time>
      </trkpt>
      <trkpt lat="45.29858" lon="6.045">
        <ele>1864</ele>
        <time>2018-07-01T13:52:46Z</time>
      </trkpt>
      <trkpt lat="45.29853" lon="6.04498">
        <ele>1864</ele>
        <time>2018-07-01T13:52:48Z</time>
      </trkpt>
      <trkpt lat="45.29849" lon="6.04495">
        <ele>1864</ele>
        <time>2018-07-01T13:52:50Z</time>
      </trkpt>
      <trkpt lat="45.29843" lon="6.0449">
        <ele>1864</ele>
        <time>2018-07-01T13:52:52Z</time>
      </trkpt>
      <trkpt lat="45.29837" lon="6.04486">
        <ele>1864</ele>
        <time>2018-07-01T13:52:54Z</time>
      </trkpt>
      <trkpt lat="45.29831" lon="6.04481">
        <ele>1864</ele>
        <time>2018-07-01T13:52:56Z</time>
      </trkpt>
      <trkpt lat="45.29826" lon="6.04475">
        <ele>1865</ele>
        <time>2018-07-01T13:52:59Z</time>
      </trkpt>
      <trkpt lat="45.2982" lon="6.0447">
        <ele>1865</ele>
        <time>2018-07-01T13:53:02Z</time>
      </trkpt>
      <trkpt lat="45.29814" lon="6.04466">
        <ele>1865</ele>
        <time>2018-07-01T13:53:04Z</time>
      </trkpt>
      <trkpt lat="45.2981" lon="6.04462">
        <ele>1866</ele>
        <time>2018-07-01T13:53:06Z</time>
      </trkpt>
      <trkpt lat="45.29806" lon="6.04456">
        <ele>1867</ele>
        <time>2018-07-01T13:53:10Z</time>
      </trkpt>
      <trkpt lat="45.29801" lon="6.04452">
        <ele>1866</ele>
        <time>2018-07-01T13:53:13Z</time>
      </trkpt>
      <trkpt lat="45.29796" lon="6.04449">
        <ele>1866</ele>
        <time>2018-07-01T13:53:16Z</time>
      </trkpt>
      <trkpt lat="45.29792" lon="6.04445">
        <ele>1866</ele>
        <time>2018-07-01T13:53:19Z</time>
      </trkpt>
      <trkpt lat="45.29786" lon="6.04445">
        <ele>1865</ele>
        <time>2018-07-01T13:53:24Z</time>
      </trkpt>
      <trkpt lat="45.29778" lon="6.04443">
        <ele>1865</ele>
        <time>2018-07-01T13:53:28Z</time>
      </trkpt>
      <trkpt lat="45.29774" lon="6.0444">
        <ele>1864</ele>
        <time>2018-07-01T13:53:30Z</time>
      </trkpt>
      <trkpt lat="45.29768" lon="6.04438">
        <ele>1864</ele>
        <time>2018-07-01T13:53:32Z</time>
      </trkpt>
      <trkpt lat="45.29762" lon="6.04438">
        <ele>1863</ele>
        <time>2018-07-01T13:53:34Z</time>
      </trkpt>
      <trkpt lat="45.29756" lon="6.04437">
        <ele>1863</ele>
        <time>2018-07-01T13:53:36Z</time>
      </trkpt>
      <trkpt lat="45.29749" lon="6.04437">
        <ele>1862</ele>
        <time>2018-07-01T13:53:38Z</time>
      </trkpt>
      <trkpt lat="45.29742" lon="6.04437">
        <ele>1862</ele>
        <time>2018-07-01T13:53:40Z</time>
      </trkpt>
      <trkpt lat="45.29736" lon="6.04439">
        <ele>1861</ele>
        <time>2018-07-01T13:53:42Z</time>
      </trkpt>
      <trkpt lat="45.2973" lon="6.04437">
        <ele>1861</ele>
        <time>2018-07-01T13:53:44Z</time>
      </trkpt>
      <trkpt lat="45.29724" lon="6.04434">
        <ele>1861</ele>
        <time>2018-07-01T13:53:46Z</time>
      </trkpt>
      <trkpt lat="45.29717" lon="6.04431">
        <ele>1860</ele>
        <time>2018-07-01T13:53:48Z</time>
      </trkpt>
      <trkpt lat="45.29709" lon="6.04428">
        <ele>1860</ele>
        <time>2018-07-01T13:53:50Z</time>
      </trkpt>
      <trkpt lat="45.29703" lon="6.04424">
        <ele>1860</ele>
        <time>2018-07-01T13:53:52Z</time>
      </trkpt>
      <trkpt lat="45.29697" lon="6.0442">
        <ele>1859</ele>
        <time>2018-07-01T13:53:54Z</time>
      </trkpt>
      <trkpt lat="45.2969" lon="6.04417">
        <ele>1859</ele>
        <time>2018-07-01T13:53:56Z</time>
      </trkpt>
      <trkpt lat="45.29683" lon="6.04415">
        <ele>1859</ele>
        <time>2018-07-01T13:53:58Z</time>
      </trkpt>
      <trkpt lat="45.29676" lon="6.04411">
        <ele>1859</ele>
        <time>2018-07-01T13:54:00Z</time>
      </trkpt>
      <trkpt lat="45.29669" lon="6.04407">
        <ele>1860</ele>
        <time>2018-07-01T13:54:02Z</time>
      </trkpt>
      <trkpt lat="45.2966" lon="6.04398">
        <ele>1860</ele>
        <time>2018-07-01T13:54:04Z</time>
      </trkpt>
      <trkpt lat="45.29653" lon="6.04393">
        <ele>1859</ele>
        <time>2018-07-01T13:54:05Z</time>
      </trkpt>
      <trkpt lat="45.29647" lon="6.04389">
        <ele>1859</ele>
        <time>2018-07-01T13:54:06Z</time>
      </trkpt>
      <trkpt lat="45.29642" lon="6.04384">
        <ele>1858</ele>
        <time>2018-07-01T13:54:07Z</time>
      </trkpt>
      <trkpt lat="45.29635" lon="6.04381">
        <ele>1857</ele>
        <time>2018-07-01T13:54:08Z</time>
      </trkpt>
      <trkpt lat="45.29629" lon="6.04375">
        <ele>1856</ele>
        <time>2018-07-01T13:54:09Z</time>
      </trkpt>
      <trkpt lat="45.29622" lon="6.0437">
        <ele>1855</ele>
        <time>2018-07-01T13:54:10Z</time>
      </trkpt>
      <trkpt lat="45.29616" lon="6.04366">
        <ele>1854</ele>
        <time>2018-07-01T13:54:11Z</time>
      </trkpt>
      <trkpt lat="45.29609" lon="6.0436">
        <ele>1854</ele>
        <time>2018-07-01T13:54:12Z</time>
      </trkpt>
      <trkpt lat="45.29603" lon="6.04359">
        <ele>1853</ele>
        <time>2018-07-01T13:54:13Z</time>
      </trkpt>
      <trkpt lat="45.29595" lon="6.04353">
        <ele>1852</ele>
        <time>2018-07-01T13:54:14Z</time>
      </trkpt>
      <trkpt lat="45.29588" lon="6.04349">
        <ele>1851</ele>
        <time>2018-07-01T13:54:15Z</time>
      </trkpt>
      <trkpt lat="45.29582" lon="6.04344">
        <ele>1851</ele>
        <time>2018-07-01T13:54:16Z</time>
      </trkpt>
      <trkpt lat="45.29577" lon="6.04338">
        <ele>1850</ele>
        <time>2018-07-01T13:54:17Z</time>
      </trkpt>
      <trkpt lat="45.29571" lon="6.04334">
        <ele>1850</ele>
        <time>2018-07-01T13:54:18Z</time>
      </trkpt>
      <trkpt lat="45.29564" lon="6.04325">
        <ele>1849</ele>
        <time>2018-07-01T13:54:19Z</time>
      </trkpt>
      <trkpt lat="45.29558" lon="6.04316">
        <ele>1849</ele>
        <time>2018-07-01T13:54:20Z</time>
      </trkpt>
      <trkpt lat="45.29553" lon="6.04306">
        <ele>1849</ele>
        <time>2018-07-01T13:54:21Z</time>
      </trkpt>
      <trkpt lat="45.29548" lon="6.04298">
        <ele>1848</ele>
        <time>2018-07-01T13:54:22Z</time>
      </trkpt>
      <trkpt lat="45.29543" lon="6.0429">
        <ele>1848</ele>
        <time>2018-07-01T13:54:23Z</time>
      </trkpt>
      <trkpt lat="45.29538" lon="6.04285">
        <ele>1848</ele>
        <time>2018-07-01T13:54:24Z</time>
      </trkpt>
      <trkpt lat="45.29533" lon="6.04279">
        <ele>1848</ele>
        <time>2018-07-01T13:54:25Z</time>
      </trkpt>
      <trkpt lat="45.29529" lon="6.04276">
        <ele>1848</ele>
        <time>2018-07-01T13:54:26Z</time>
      </trkpt>
      <trkpt lat="45.29525" lon="6.04272">
        <ele>1848</ele>
        <time>2018-07-01T13:54:27Z</time>
      </trkpt>
      <trkpt lat="45.2952" lon="6.04268">
        <ele>1847</ele>
        <time>2018-07-01T13:54:28Z</time>
      </trkpt>
      <trkpt lat="45.29516" lon="6.04263">
        <ele>1846</ele>
        <time>2018-07-01T13:54:29Z</time>
      </trkpt>
      <trkpt lat="45.29511" lon="6.04258">
        <ele>1846</ele>
        <time>2018-07-01T13:54:30Z</time>
      </trkpt>
      <trkpt lat="45.29506" lon="6.04252">
        <ele>1846</ele>
        <time>2018-07-01T13:54:31Z</time>
      </trkpt>
      <trkpt lat="45.29503" lon="6.04245">
        <ele>1845</ele>
        <time>2018-07-01T13:54:32Z</time>
      </trkpt>
      <trkpt lat="45.29497" lon="6.04241">
        <ele>1845</ele>
        <time>2018-07-01T13:54:33Z</time>
      </trkpt>
      <trkpt lat="45.29488" lon="6.04239">
        <ele>1843</ele>
        <time>2018-07-01T13:54:35Z</time>
      </trkpt>
      <trkpt lat="45.29483" lon="6.04234">
        <ele>1843</ele>
        <time>2018-07-01T13:54:36Z</time>
      </trkpt>
      <trkpt lat="45.29475" lon="6.04228">
        <ele>1842</ele>
        <time>2018-07-01T13:54:38Z</time>
      </trkpt>
      <trkpt lat="45.29472" lon="6.04222">
        <ele>1842</ele>
        <time>2018-07-01T13:54:39Z</time>
      </trkpt>
      <trkpt lat="45.29468" lon="6.04217">
        <ele>1842</ele>
        <time>2018-07-01T13:54:40Z</time>
      </trkpt>
      <trkpt lat="45.29465" lon="6.04212">
        <ele>1843</ele>
        <time>2018-07-01T13:54:41Z</time>
      </trkpt>
      <trkpt lat="45.2946" lon="6.04205">
        <ele>1843</ele>
        <time>2018-07-01T13:54:43Z</time>
      </trkpt>
      <trkpt lat="45.29455" lon="6.04195">
        <ele>1843</ele>
        <time>2018-07-01T13:54:45Z</time>
      </trkpt>
      <trkpt lat="45.29448" lon="6.04188">
        <ele>1843</ele>
        <time>2018-07-01T13:54:47Z</time>
      </trkpt>
      <trkpt lat="45.2944" lon="6.04181">
        <ele>1843</ele>
        <time>2018-07-01T13:54:49Z</time>
      </trkpt>
      <trkpt lat="45.29437" lon="6.04176">
        <ele>1842</ele>
        <time>2018-07-01T13:54:50Z</time>
      </trkpt>
      <trkpt lat="45.29432" lon="6.04175">
        <ele>1841</ele>
        <time>2018-07-01T13:54:51Z</time>
      </trkpt>
      <trkpt lat="45.29428" lon="6.04172">
        <ele>1841</ele>
        <time>2018-07-01T13:54:52Z</time>
      </trkpt>
      <trkpt lat="45.29419" lon="6.04166">
        <ele>1840</ele>
        <time>2018-07-01T13:54:54Z</time>
      </trkpt>
      <trkpt lat="45.29413" lon="6.04161">
        <ele>1839</ele>
        <time>2018-07-01T13:54:56Z</time>
      </trkpt>
      <trkpt lat="45.29407" lon="6.04156">
        <ele>1838</ele>
        <time>2018-07-01T13:54:58Z</time>
      </trkpt>
      <trkpt lat="45.29406" lon="6.04149">
        <ele>1838</ele>
        <time>2018-07-01T13:55:02Z</time>
      </trkpt>
      <trkpt lat="45.29401" lon="6.04145">
        <ele>1838</ele>
        <time>2018-07-01T13:55:08Z</time>
      </trkpt>
      <trkpt lat="45.29396" lon="6.04143">
        <ele>1838</ele>
        <time>2018-07-01T13:55:10Z</time>
      </trkpt>
      <trkpt lat="45.29391" lon="6.04146">
        <ele>1837</ele>
        <time>2018-07-01T13:55:30Z</time>
      </trkpt>
      <trkpt lat="45.29387" lon="6.04144">
        <ele>1837</ele>
        <time>2018-07-01T13:55:32Z</time>
      </trkpt>
      <trkpt lat="45.2938" lon="6.04142">
        <ele>1836</ele>
        <time>2018-07-01T13:55:34Z</time>
      </trkpt>
      <trkpt lat="45.29374" lon="6.04139">
        <ele>1836</ele>
        <time>2018-07-01T13:55:36Z</time>
      </trkpt>
      <trkpt lat="45.29366" lon="6.04135">
        <ele>1836</ele>
        <time>2018-07-01T13:55:38Z</time>
      </trkpt>
      <trkpt lat="45.29358" lon="6.04131">
        <ele>1835</ele>
        <time>2018-07-01T13:55:40Z</time>
      </trkpt>
      <trkpt lat="45.29353" lon="6.04129">
        <ele>1835</ele>
        <time>2018-07-01T13:55:42Z</time>
      </trkpt>
      <trkpt lat="45.29348" lon="6.04127">
        <ele>1835</ele>
        <time>2018-07-01T13:55:44Z</time>
      </trkpt>
      <trkpt lat="45.29342" lon="6.04124">
        <ele>1835</ele>
        <time>2018-07-01T13:55:46Z</time>
      </trkpt>
      <trkpt lat="45.29337" lon="6.04122">
        <ele>1835</ele>
        <time>2018-07-01T13:55:48Z</time>
      </trkpt>
      <trkpt lat="45.29332" lon="6.0412">
        <ele>1835</ele>
        <time>2018-07-01T13:55:57Z</time>
      </trkpt>
      <trkpt lat="45.29326" lon="6.04119">
        <ele>1835</ele>
        <time>2018-07-01T13:55:59Z</time>
      </trkpt>
      <trkpt lat="45.29321" lon="6.04117">
        <ele>1835</ele>
        <time>2018-07-01T13:56:01Z</time>
      </trkpt>
      <trkpt lat="45.29317" lon="6.04115">
        <ele>1835</ele>
        <time>2018-07-01T13:56:03Z</time>
      </trkpt>
      <trkpt lat="45.29313" lon="6.04112">
        <ele>1835</ele>
        <time>2018-07-01T13:56:05Z</time>
      </trkpt>
      <trkpt lat="45.29307" lon="6.04108">
        <ele>1835</ele>
        <time>2018-07-01T13:56:08Z</time>
      </trkpt>
      <trkpt lat="45.29303" lon="6.04104">
        <ele>1835</ele>
        <time>2018-07-01T13:56:16Z</time>
      </trkpt>
      <trkpt lat="45.29298" lon="6.04102">
        <ele>1835</ele>
        <time>2018-07-01T13:56:25Z</time>
      </trkpt>
      <trkpt lat="45.29295" lon="6.04102">
        <ele>1835</ele>
        <time>2018-07-01T13:56:47Z</time>
      </trkpt>
      <trkpt lat="45.29294" lon="6.04101">
        <ele>1835</ele>
        <time>2018-07-01T13:56:50Z</time>
      </trkpt>
      <trkpt lat="45.2929" lon="6.04096">
        <ele>1835</ele>
        <time>2018-07-01T13:56:59Z</time>
      </trkpt>
      <trkpt lat="45.29286" lon="6.04093">
        <ele>1835</ele>
        <time>2018-07-01T13:57:01Z</time>
      </trkpt>
      <trkpt lat="45.29281" lon="6.0409">
        <ele>1835</ele>
        <time>2018-07-01T13:57:03Z</time>
      </trkpt>
      <trkpt lat="45.29277" lon="6.04086">
        <ele>1835</ele>
        <time>2018-07-01T13:57:05Z</time>
      </trkpt>
      <trkpt lat="45.29273" lon="6.04082">
        <ele>1835</ele>
        <time>2018-07-01T13:57:07Z</time>
      </trkpt>
      <trkpt lat="45.29269" lon="6.04079">
        <ele>1835</ele>
        <time>2018-07-01T13:57:09Z</time>
      </trkpt>
      <trkpt lat="45.29264" lon="6.04077">
        <ele>1835</ele>
        <time>2018-07-01T13:57:11Z</time>
      </trkpt>
      <trkpt lat="45.29259" lon="6.04075">
        <ele>1835</ele>
        <time>2018-07-01T13:57:13Z</time>
      </trkpt>
      <trkpt lat="45.29254" lon="6.04073">
        <ele>1835</ele>
        <time>2018-07-01T13:57:15Z</time>
      </trkpt>
      <trkpt lat="45.2925" lon="6.04072">
        <ele>1835</ele>
        <time>2018-07-01T13:57:17Z</time>
      </trkpt>
      <trkpt lat="45.29245" lon="6.04072">
        <ele>1835</ele>
        <time>2018-07-01T13:57:20Z</time>
      </trkpt>
      <trkpt lat="45.2924" lon="6.04073">
        <ele>1835</ele>
        <time>2018-07-01T13:57:24Z</time>
      </trkpt>
      <trkpt lat="45.29235" lon="6.04077">
        <ele>1835</ele>
        <time>2018-07-01T13:57:28Z</time>
      </trkpt>
      <trkpt lat="45.29232" lon="6.04082">
        <ele>1835</ele>
        <time>2018-07-01T13:57:31Z</time>
      </trkpt>
      <trkpt lat="45.29226" lon="6.04084">
        <ele>1835</ele>
        <time>2018-07-01T13:57:35Z</time>
      </trkpt>
      <trkpt lat="45.29221" lon="6.04084">
        <ele>1835</ele>
        <time>2018-07-01T13:57:38Z</time>
      </trkpt>
      <trkpt lat="45.29216" lon="6.04081">
        <ele>1835</ele>
        <time>2018-07-01T13:57:53Z</time>
      </trkpt>
      <trkpt lat="45.29212" lon="6.0408">
        <ele>1835</ele>
        <time>2018-07-01T13:57:58Z</time>
      </trkpt>
      <trkpt lat="45.29207" lon="6.04079">
        <ele>1835</ele>
        <time>2018-07-01T13:58:03Z</time>
      </trkpt>
      <trkpt lat="45.29202" lon="6.04075">
        <ele>1835</ele>
        <time>2018-07-01T13:58:07Z</time>
      </trkpt>
      <trkpt lat="45.29197" lon="6.04075">
        <ele>1836</ele>
        <time>2018-07-01T13:58:12Z</time>
      </trkpt>
      <trkpt lat="45.29192" lon="6.04072">
        <ele>1836</ele>
        <time>2018-07-01T13:58:23Z</time>
      </trkpt>
      <trkpt lat="45.29187" lon="6.04071">
        <ele>1836</ele>
        <time>2018-07-01T13:58:26Z</time>
      </trkpt>
      <trkpt lat="45.29182" lon="6.0407">
        <ele>1836</ele>
        <time>2018-07-01T13:58:28Z</time>
      </trkpt>
      <trkpt lat="45.29178" lon="6.04067">
        <ele>1836</ele>
        <time>2018-07-01T13:58:30Z</time>
      </trkpt>
      <trkpt lat="45.29174" lon="6.04065">
        <ele>1837</ele>
        <time>2018-07-01T13:58:32Z</time>
      </trkpt>
      <trkpt lat="45.2917" lon="6.04062">
        <ele>1837</ele>
        <time>2018-07-01T13:58:41Z</time>
      </trkpt>
      <trkpt lat="45.29165" lon="6.04063">
        <ele>1837</ele>
        <time>2018-07-01T13:58:55Z</time>
      </trkpt>
      <trkpt lat="45.29123" lon="6.04067">
        <ele>1837</ele>
        <time>2018-07-01T13:59:42Z</time>
      </trkpt>
      <trkpt lat="45.29165" lon="6.04062">
        <ele>1837</ele>
        <time>2018-07-01T13:59:42Z</time>
      </trkpt>
      <trkpt lat="45.29111" lon="6.04079">
        <ele>1837</ele>
        <time>2018-07-01T13:59:44Z</time>
      </trkpt>
      <trkpt lat="45.29113" lon="6.0407">
        <ele>1837</ele>
        <time>2018-07-01T13:59:46Z</time>
      </trkpt>
      <trkpt lat="45.29111" lon="6.04064">
        <ele>1838</ele>
        <time>2018-07-01T13:59:50Z</time>
      </trkpt>
      <trkpt lat="45.29107" lon="6.04058">
        <ele>1838</ele>
        <time>2018-07-01T13:59:54Z</time>
      </trkpt>
      <trkpt lat="45.29103" lon="6.04054">
        <ele>1838</ele>
        <time>2018-07-01T13:59:58Z</time>
      </trkpt>
      <trkpt lat="45.29097" lon="6.04053">
        <ele>1838</ele>
        <time>2018-07-01T14:00:02Z</time>
      </trkpt>
      <trkpt lat="45.29091" lon="6.04052">
        <ele>1838</ele>
        <time>2018-07-01T14:00:06Z</time>
      </trkpt>
      <trkpt lat="45.29086" lon="6.04052">
        <ele>1838</ele>
        <time>2018-07-01T14:00:10Z</time>
      </trkpt>
      <trkpt lat="45.29078" lon="6.04055">
        <ele>1838</ele>
        <time>2018-07-01T14:00:14Z</time>
      </trkpt>
      <trkpt lat="45.29072" lon="6.04058">
        <ele>1838</ele>
        <time>2018-07-01T14:00:17Z</time>
      </trkpt>
      <trkpt lat="45.29065" lon="6.04059">
        <ele>1838</ele>
        <time>2018-07-01T14:00:19Z</time>
      </trkpt>
      <trkpt lat="45.29058" lon="6.04061">
        <ele>1838</ele>
        <time>2018-07-01T14:00:21Z</time>
      </trkpt>
      <trkpt lat="45.29052" lon="6.04062">
        <ele>1838</ele>
        <time>2018-07-01T14:00:23Z</time>
      </trkpt>
      <trkpt lat="45.29047" lon="6.04063">
        <ele>1838</ele>
        <time>2018-07-01T14:00:25Z</time>
      </trkpt>
      <trkpt lat="45.29042" lon="6.04064">
        <ele>1838</ele>
        <time>2018-07-01T14:00:27Z</time>
      </trkpt>
      <trkpt lat="45.29037" lon="6.04064">
        <ele>1838</ele>
        <time>2018-07-01T14:00:29Z</time>
      </trkpt>
      <trkpt lat="45.29029" lon="6.04063">
        <ele>1838</ele>
        <time>2018-07-01T14:00:32Z</time>
      </trkpt>
      <trkpt lat="45.29024" lon="6.04062">
        <ele>1838</ele>
        <time>2018-07-01T14:00:34Z</time>
      </trkpt>
      <trkpt lat="45.29019" lon="6.04061">
        <ele>1838</ele>
        <time>2018-07-01T14:00:36Z</time>
      </trkpt>
      <trkpt lat="45.29015" lon="6.0406">
        <ele>1838</ele>
        <time>2018-07-01T14:00:38Z</time>
      </trkpt>
      <trkpt lat="45.2901" lon="6.04058">
        <ele>1839</ele>
        <time>2018-07-01T14:00:40Z</time>
      </trkpt>
      <trkpt lat="45.29006" lon="6.04056">
        <ele>1839</ele>
        <time>2018-07-01T14:00:42Z</time>
      </trkpt>
      <trkpt lat="45.29002" lon="6.04053">
        <ele>1839</ele>
        <time>2018-07-01T14:00:44Z</time>
      </trkpt>
      <trkpt lat="45.28998" lon="6.04048">
        <ele>1839</ele>
        <time>2018-07-01T14:00:46Z</time>
      </trkpt>
      <trkpt lat="45.28994" lon="6.04045">
        <ele>1839</ele>
        <time>2018-07-01T14:00:48Z</time>
      </trkpt>
      <trkpt lat="45.2899" lon="6.04044">
        <ele>1839</ele>
        <time>2018-07-01T14:00:50Z</time>
      </trkpt>
      <trkpt lat="45.28984" lon="6.04042">
        <ele>1838</ele>
        <time>2018-07-01T14:00:53Z</time>
      </trkpt>
      <trkpt lat="45.28978" lon="6.0404">
        <ele>1838</ele>
        <time>2018-07-01T14:00:56Z</time>
      </trkpt>
      <trkpt lat="45.28972" lon="6.04039">
        <ele>1838</ele>
        <time>2018-07-01T14:00:59Z</time>
      </trkpt>
      <trkpt lat="45.28967" lon="6.04039">
        <ele>1838</ele>
        <time>2018-07-01T14:01:01Z</time>
      </trkpt>
      <trkpt lat="45.28961" lon="6.04037">
        <ele>1838</ele>
        <time>2018-07-01T14:01:04Z</time>
      </trkpt>
      <trkpt lat="45.28955" lon="6.04034">
        <ele>1838</ele>
        <time>2018-07-01T14:01:07Z</time>
      </trkpt>
      <trkpt lat="45.28949" lon="6.0403">
        <ele>1838</ele>
        <time>2018-07-01T14:01:10Z</time>
      </trkpt>
      <trkpt lat="45.28944" lon="6.04029">
        <ele>1838</ele>
        <time>2018-07-01T14:01:12Z</time>
      </trkpt>
      <trkpt lat="45.28938" lon="6.04027">
        <ele>1838</ele>
        <time>2018-07-01T14:01:15Z</time>
      </trkpt>
      <trkpt lat="45.28931" lon="6.04026">
        <ele>1838</ele>
        <time>2018-07-01T14:01:18Z</time>
      </trkpt>
      <trkpt lat="45.28927" lon="6.04023">
        <ele>1838</ele>
        <time>2018-07-01T14:01:20Z</time>
      </trkpt>
      <trkpt lat="45.28922" lon="6.04021">
        <ele>1838</ele>
        <time>2018-07-01T14:01:22Z</time>
      </trkpt>
      <trkpt lat="45.28918" lon="6.04018">
        <ele>1838</ele>
        <time>2018-07-01T14:01:24Z</time>
      </trkpt>
      <trkpt lat="45.28914" lon="6.04016">
        <ele>1838</ele>
        <time>2018-07-01T14:01:26Z</time>
      </trkpt>
      <trkpt lat="45.28909" lon="6.04013">
        <ele>1837</ele>
        <time>2018-07-01T14:01:28Z</time>
      </trkpt>
      <trkpt lat="45.28905" lon="6.04012">
        <ele>1837</ele>
        <time>2018-07-01T14:01:30Z</time>
      </trkpt>
      <trkpt lat="45.28899" lon="6.0401">
        <ele>1837</ele>
        <time>2018-07-01T14:01:33Z</time>
      </trkpt>
      <trkpt lat="45.28893" lon="6.04009">
        <ele>1837</ele>
        <time>2018-07-01T14:01:36Z</time>
      </trkpt>
      <trkpt lat="45.28887" lon="6.04007">
        <ele>1837</ele>
        <time>2018-07-01T14:01:39Z</time>
      </trkpt>
      <trkpt lat="45.28882" lon="6.04005">
        <ele>1837</ele>
        <time>2018-07-01T14:01:42Z</time>
      </trkpt>
      <trkpt lat="45.28876" lon="6.04004">
        <ele>1837</ele>
        <time>2018-07-01T14:01:45Z</time>
      </trkpt>
      <trkpt lat="45.28872" lon="6.04003">
        <ele>1837</ele>
        <time>2018-07-01T14:01:47Z</time>
      </trkpt>
      <trkpt lat="45.28865" lon="6.04002">
        <ele>1837</ele>
        <time>2018-07-01T14:01:50Z</time>
      </trkpt>
      <trkpt lat="45.28858" lon="6.04002">
        <ele>1837</ele>
        <time>2018-07-01T14:01:52Z</time>
      </trkpt>
      <trkpt lat="45.28852" lon="6.04001">
        <ele>1837</ele>
        <time>2018-07-01T14:01:54Z</time>
      </trkpt>
      <trkpt lat="45.28845" lon="6.03999">
        <ele>1837</ele>
        <time>2018-07-01T14:01:56Z</time>
      </trkpt>
      <trkpt lat="45.28838" lon="6.03998">
        <ele>1837</ele>
        <time>2018-07-01T14:01:58Z</time>
      </trkpt>
      <trkpt lat="45.28833" lon="6.03996">
        <ele>1837</ele>
        <time>2018-07-01T14:02:00Z</time>
      </trkpt>
      <trkpt lat="45.28826" lon="6.03993">
        <ele>1837</ele>
        <time>2018-07-01T14:02:02Z</time>
      </trkpt>
      <trkpt lat="45.28818" lon="6.0399">
        <ele>1837</ele>
        <time>2018-07-01T14:02:04Z</time>
      </trkpt>
      <trkpt lat="45.2881" lon="6.03987">
        <ele>1837</ele>
        <time>2018-07-01T14:02:06Z</time>
      </trkpt>
      <trkpt lat="45.28802" lon="6.03984">
        <ele>1837</ele>
        <time>2018-07-01T14:02:08Z</time>
      </trkpt>
      <trkpt lat="45.28794" lon="6.03982">
        <ele>1837</ele>
        <time>2018-07-01T14:02:10Z</time>
      </trkpt>
      <trkpt lat="45.28785" lon="6.03981">
        <ele>1837</ele>
        <time>2018-07-01T14:02:12Z</time>
      </trkpt>
      <trkpt lat="45.28777" lon="6.0398">
        <ele>1837</ele>
        <time>2018-07-01T14:02:14Z</time>
      </trkpt>
      <trkpt lat="45.28769" lon="6.03979">
        <ele>1837</ele>
        <time>2018-07-01T14:02:16Z</time>
      </trkpt>
      <trkpt lat="45.28761" lon="6.03977">
        <ele>1837</ele>
        <time>2018-07-01T14:02:18Z</time>
      </trkpt>
      <trkpt lat="45.28753" lon="6.03976">
        <ele>1837</ele>
        <time>2018-07-01T14:02:20Z</time>
      </trkpt>
      <trkpt lat="45.28744" lon="6.03975">
        <ele>1837</ele>
        <time>2018-07-01T14:02:22Z</time>
      </trkpt>
      <trkpt lat="45.28736" lon="6.03973">
        <ele>1836</ele>
        <time>2018-07-01T14:02:24Z</time>
      </trkpt>
      <trkpt lat="45.28727" lon="6.03972">
        <ele>1836</ele>
        <time>2018-07-01T14:02:26Z</time>
      </trkpt>
      <trkpt lat="45.2872" lon="6.03971">
        <ele>1836</ele>
        <time>2018-07-01T14:02:28Z</time>
      </trkpt>
      <trkpt lat="45.2871" lon="6.03968">
        <ele>1836</ele>
        <time>2018-07-01T14:02:31Z</time>
      </trkpt>
      <trkpt lat="45.28704" lon="6.03966">
        <ele>1836</ele>
        <time>2018-07-01T14:02:33Z</time>
      </trkpt>
      <trkpt lat="45.28698" lon="6.03965">
        <ele>1835</ele>
        <time>2018-07-01T14:02:35Z</time>
      </trkpt>
      <trkpt lat="45.28692" lon="6.03963">
        <ele>1835</ele>
        <time>2018-07-01T14:02:37Z</time>
      </trkpt>
      <trkpt lat="45.28686" lon="6.03961">
        <ele>1835</ele>
        <time>2018-07-01T14:02:39Z</time>
      </trkpt>
      <trkpt lat="45.2868" lon="6.03959">
        <ele>1834</ele>
        <time>2018-07-01T14:02:41Z</time>
      </trkpt>
      <trkpt lat="45.28673" lon="6.03957">
        <ele>1834</ele>
        <time>2018-07-01T14:02:43Z</time>
      </trkpt>
      <trkpt lat="45.28668" lon="6.03956">
        <ele>1833</ele>
        <time>2018-07-01T14:02:44Z</time>
      </trkpt>
      <trkpt lat="45.28664" lon="6.03955">
        <ele>1833</ele>
        <time>2018-07-01T14:02:45Z</time>
      </trkpt>
      <trkpt lat="45.28659" lon="6.03954">
        <ele>1833</ele>
        <time>2018-07-01T14:02:46Z</time>
      </trkpt>
      <trkpt lat="45.28654" lon="6.03953">
        <ele>1833</ele>
        <time>2018-07-01T14:02:47Z</time>
      </trkpt>
      <trkpt lat="45.2865" lon="6.03951">
        <ele>1832</ele>
        <time>2018-07-01T14:02:48Z</time>
      </trkpt>
      <trkpt lat="45.28645" lon="6.0395">
        <ele>1832</ele>
        <time>2018-07-01T14:02:49Z</time>
      </trkpt>
      <trkpt lat="45.28636" lon="6.03946">
        <ele>1831</ele>
        <time>2018-07-01T14:02:51Z</time>
      </trkpt>
      <trkpt lat="45.2863" lon="6.03945">
        <ele>1831</ele>
        <time>2018-07-01T14:02:52Z</time>
      </trkpt>
      <trkpt lat="45.28626" lon="6.03944">
        <ele>1831</ele>
        <time>2018-07-01T14:02:53Z</time>
      </trkpt>
      <trkpt lat="45.28621" lon="6.03942">
        <ele>1830</ele>
        <time>2018-07-01T14:02:54Z</time>
      </trkpt>
      <trkpt lat="45.28613" lon="6.03941">
        <ele>1829</ele>
        <time>2018-07-01T14:02:56Z</time>
      </trkpt>
      <trkpt lat="45.28608" lon="6.03941">
        <ele>1829</ele>
        <time>2018-07-01T14:02:57Z</time>
      </trkpt>
      <trkpt lat="45.286" lon="6.03941">
        <ele>1828</ele>
        <time>2018-07-01T14:02:59Z</time>
      </trkpt>
      <trkpt lat="45.28595" lon="6.0394">
        <ele>1828</ele>
        <time>2018-07-01T14:03:00Z</time>
      </trkpt>
      <trkpt lat="45.2859" lon="6.03939">
        <ele>1827</ele>
        <time>2018-07-01T14:03:01Z</time>
      </trkpt>
      <trkpt lat="45.28582" lon="6.03939">
        <ele>1827</ele>
        <time>2018-07-01T14:03:03Z</time>
      </trkpt>
      <trkpt lat="45.28578" lon="6.0394">
        <ele>1827</ele>
        <time>2018-07-01T14:03:04Z</time>
      </trkpt>
      <trkpt lat="45.2857" lon="6.03943">
        <ele>1826</ele>
        <time>2018-07-01T14:03:06Z</time>
      </trkpt>
      <trkpt lat="45.28563" lon="6.03946">
        <ele>1826</ele>
        <time>2018-07-01T14:03:08Z</time>
      </trkpt>
      <trkpt lat="45.28556" lon="6.03946">
        <ele>1825</ele>
        <time>2018-07-01T14:03:10Z</time>
      </trkpt>
      <trkpt lat="45.28549" lon="6.03946">
        <ele>1825</ele>
        <time>2018-07-01T14:03:12Z</time>
      </trkpt>
      <trkpt lat="45.2854" lon="6.03949">
        <ele>1824</ele>
        <time>2018-07-01T14:03:14Z</time>
      </trkpt>
      <trkpt lat="45.28535" lon="6.03951">
        <ele>1824</ele>
        <time>2018-07-01T14:03:15Z</time>
      </trkpt>
      <trkpt lat="45.2853" lon="6.0395">
        <ele>1823</ele>
        <time>2018-07-01T14:03:16Z</time>
      </trkpt>
      <trkpt lat="45.28521" lon="6.03952">
        <ele>1822</ele>
        <time>2018-07-01T14:03:18Z</time>
      </trkpt>
      <trkpt lat="45.28517" lon="6.03953">
        <ele>1822</ele>
        <time>2018-07-01T14:03:19Z</time>
      </trkpt>
      <trkpt lat="45.28512" lon="6.03954">
        <ele>1822</ele>
        <time>2018-07-01T14:03:20Z</time>
      </trkpt>
      <trkpt lat="45.28507" lon="6.03954">
        <ele>1821</ele>
        <time>2018-07-01T14:03:21Z</time>
      </trkpt>
      <trkpt lat="45.28502" lon="6.03955">
        <ele>1821</ele>
        <time>2018-07-01T14:03:22Z</time>
      </trkpt>
      <trkpt lat="45.28497" lon="6.03956">
        <ele>1820</ele>
        <time>2018-07-01T14:03:23Z</time>
      </trkpt>
      <trkpt lat="45.28491" lon="6.03956">
        <ele>1819</ele>
        <time>2018-07-01T14:03:24Z</time>
      </trkpt>
      <trkpt lat="45.28486" lon="6.03957">
        <ele>1818</ele>
        <time>2018-07-01T14:03:25Z</time>
      </trkpt>
      <trkpt lat="45.2848" lon="6.03958">
        <ele>1817</ele>
        <time>2018-07-01T14:03:26Z</time>
      </trkpt>
      <trkpt lat="45.28475" lon="6.03959">
        <ele>1816</ele>
        <time>2018-07-01T14:03:27Z</time>
      </trkpt>
      <trkpt lat="45.28469" lon="6.03961">
        <ele>1815</ele>
        <time>2018-07-01T14:03:29Z</time>
      </trkpt>
      <trkpt lat="45.28464" lon="6.03964">
        <ele>1815</ele>
        <time>2018-07-01T14:03:32Z</time>
      </trkpt>
      <trkpt lat="45.28458" lon="6.03964">
        <ele>1814</ele>
        <time>2018-07-01T14:03:34Z</time>
      </trkpt>
      <trkpt lat="45.28453" lon="6.03963">
        <ele>1813</ele>
        <time>2018-07-01T14:03:36Z</time>
      </trkpt>
      <trkpt lat="45.28448" lon="6.03964">
        <ele>1812</ele>
        <time>2018-07-01T14:03:38Z</time>
      </trkpt>
      <trkpt lat="45.28445" lon="6.03963">
        <ele>1811</ele>
        <time>2018-07-01T14:04:01Z</time>
      </trkpt>
      <trkpt lat="45.28445" lon="6.03963">
        <ele>1811</ele>
        <time>2018-07-01T14:04:04Z</time>
      </trkpt>
      <trkpt lat="45.28445" lon="6.03963">
        <ele>1811</ele>
        <time>2018-07-01T14:04:19Z</time>
      </trkpt>
      <trkpt lat="45.28445" lon="6.03963">
        <ele>1811</ele>
        <time>2018-07-01T14:04:21Z</time>
      </trkpt>
      <trkpt lat="45.28445" lon="6.03963">
        <ele>1811</ele>
        <time>2018-07-01T14:04:50Z</time>
      </trkpt>
      <trkpt lat="45.28445" lon="6.03963">
        <ele>1811</ele>
        <time>2018-07-01T14:04:51Z</time>
      </trkpt>
      <trkpt lat="45.28445" lon="6.03963">
        <ele>1811</ele>
        <time>2018-07-01T14:05:07Z</time>
      </trkpt>
      <trkpt lat="45.28289" lon="6.04084">
        <ele>1796</ele>
        <time>2018-07-01T14:06:09Z</time>
      </trkpt>
      <trkpt lat="45.28285" lon="6.04088">
        <ele>1796</ele>
        <time>2018-07-01T14:06:16Z</time>
      </trkpt>
      <trkpt lat="45.28281" lon="6.04083">
        <ele>1796</ele>
        <time>2018-07-01T14:06:32Z</time>
      </trkpt>
      <trkpt lat="45.28277" lon="6.04078">
        <ele>1796</ele>
        <time>2018-07-01T14:06:34Z</time>
      </trkpt>
      <trkpt lat="45.28274" lon="6.04073">
        <ele>1797</ele>
        <time>2018-07-01T14:06:37Z</time>
      </trkpt>
      <trkpt lat="45.28275" lon="6.04064">
        <ele>1797</ele>
        <time>2018-07-01T14:06:41Z</time>
      </trkpt>
      <trkpt lat="45.28274" lon="6.04055">
        <ele>1797</ele>
        <time>2018-07-01T14:06:43Z</time>
      </trkpt>
      <trkpt lat="45.28271" lon="6.04045">
        <ele>1797</ele>
        <time>2018-07-01T14:06:45Z</time>
      </trkpt>
      <trkpt lat="45.28267" lon="6.04037">
        <ele>1796</ele>
        <time>2018-07-01T14:06:47Z</time>
      </trkpt>
      <trkpt lat="45.28262" lon="6.04028">
        <ele>1795</ele>
        <time>2018-07-01T14:06:49Z</time>
      </trkpt>
      <trkpt lat="45.28257" lon="6.04019">
        <ele>1794</ele>
        <time>2018-07-01T14:06:51Z</time>
      </trkpt>
      <trkpt lat="45.2825" lon="6.04012">
        <ele>1794</ele>
        <time>2018-07-01T14:06:53Z</time>
      </trkpt>
      <trkpt lat="45.28244" lon="6.04006">
        <ele>1793</ele>
        <time>2018-07-01T14:06:55Z</time>
      </trkpt>
      <trkpt lat="45.28238" lon="6.03999">
        <ele>1793</ele>
        <time>2018-07-01T14:06:57Z</time>
      </trkpt>
      <trkpt lat="45.28234" lon="6.03994">
        <ele>1792</ele>
        <time>2018-07-01T14:06:59Z</time>
      </trkpt>
      <trkpt lat="45.28235" lon="6.03992">
        <ele>1792</ele>
        <time>2018-07-01T14:07:19Z</time>
      </trkpt>
      <trkpt lat="45.28235" lon="6.0399">
        <ele>1792</ele>
        <time>2018-07-01T14:07:20Z</time>
      </trkpt>
      <trkpt lat="45.28235" lon="6.03984">
        <ele>1791</ele>
        <time>2018-07-01T14:07:21Z</time>
      </trkpt>
      <trkpt lat="45.28235" lon="6.03977">
        <ele>1790</ele>
        <time>2018-07-01T14:07:22Z</time>
      </trkpt>
      <trkpt lat="45.28236" lon="6.0397">
        <ele>1789</ele>
        <time>2018-07-01T14:07:23Z</time>
      </trkpt>
      <trkpt lat="45.28239" lon="6.03964">
        <ele>1788</ele>
        <time>2018-07-01T14:07:24Z</time>
      </trkpt>
      <trkpt lat="45.28243" lon="6.03958">
        <ele>1787</ele>
        <time>2018-07-01T14:07:25Z</time>
      </trkpt>
      <trkpt lat="45.28248" lon="6.03957">
        <ele>1786</ele>
        <time>2018-07-01T14:07:26Z</time>
      </trkpt>
      <trkpt lat="45.28257" lon="6.03956">
        <ele>1786</ele>
        <time>2018-07-01T14:07:28Z</time>
      </trkpt>
      <trkpt lat="45.28262" lon="6.03953">
        <ele>1785</ele>
        <time>2018-07-01T14:07:29Z</time>
      </trkpt>
      <trkpt lat="45.2827" lon="6.03948">
        <ele>1783</ele>
        <time>2018-07-01T14:07:31Z</time>
      </trkpt>
      <trkpt lat="45.28276" lon="6.03945">
        <ele>1782</ele>
        <time>2018-07-01T14:07:33Z</time>
      </trkpt>
      <trkpt lat="45.28283" lon="6.03946">
        <ele>1782</ele>
        <time>2018-07-01T14:07:35Z</time>
      </trkpt>
      <trkpt lat="45.28291" lon="6.03947">
        <ele>1782</ele>
        <time>2018-07-01T14:07:37Z</time>
      </trkpt>
      <trkpt lat="45.28299" lon="6.03946">
        <ele>1782</ele>
        <time>2018-07-01T14:07:39Z</time>
      </trkpt>
      <trkpt lat="45.28307" lon="6.03942">
        <ele>1782</ele>
        <time>2018-07-01T14:07:41Z</time>
      </trkpt>
      <trkpt lat="45.28313" lon="6.03935">
        <ele>1780</ele>
        <time>2018-07-01T14:07:43Z</time>
      </trkpt>
      <trkpt lat="45.28318" lon="6.03927">
        <ele>1779</ele>
        <time>2018-07-01T14:07:45Z</time>
      </trkpt>
      <trkpt lat="45.28321" lon="6.03918">
        <ele>1777</ele>
        <time>2018-07-01T14:07:47Z</time>
      </trkpt>
      <trkpt lat="45.28323" lon="6.03908">
        <ele>1775</ele>
        <time>2018-07-01T14:07:49Z</time>
      </trkpt>
      <trkpt lat="45.28328" lon="6.03901">
        <ele>1773</ele>
        <time>2018-07-01T14:07:51Z</time>
      </trkpt>
      <trkpt lat="45.28332" lon="6.03896">
        <ele>1772</ele>
        <time>2018-07-01T14:07:53Z</time>
      </trkpt>
      <trkpt lat="45.28338" lon="6.03889">
        <ele>1771</ele>
        <time>2018-07-01T14:08:01Z</time>
      </trkpt>
      <trkpt lat="45.28342" lon="6.03881">
        <ele>1769</ele>
        <time>2018-07-01T14:08:03Z</time>
      </trkpt>
      <trkpt lat="45.28347" lon="6.03873">
        <ele>1767</ele>
        <time>2018-07-01T14:08:05Z</time>
      </trkpt>
      <trkpt lat="45.28352" lon="6.03865">
        <ele>1765</ele>
        <time>2018-07-01T14:08:07Z</time>
      </trkpt>
      <trkpt lat="45.28356" lon="6.03857">
        <ele>1763</ele>
        <time>2018-07-01T14:08:09Z</time>
      </trkpt>
      <trkpt lat="45.2836" lon="6.03846">
        <ele>1761</ele>
        <time>2018-07-01T14:08:11Z</time>
      </trkpt>
      <trkpt lat="45.28362" lon="6.03837">
        <ele>1759</ele>
        <time>2018-07-01T14:08:12Z</time>
      </trkpt>
      <trkpt lat="45.28367" lon="6.03829">
        <ele>1758</ele>
        <time>2018-07-01T14:08:14Z</time>
      </trkpt>
      <trkpt lat="45.2837" lon="6.03817">
        <ele>1756</ele>
        <time>2018-07-01T14:08:16Z</time>
      </trkpt>
      <trkpt lat="45.2837" lon="6.03803">
        <ele>1752</ele>
        <time>2018-07-01T14:08:18Z</time>
      </trkpt>
      <trkpt lat="45.2837" lon="6.03789">
        <ele>1749</ele>
        <time>2018-07-01T14:08:20Z</time>
      </trkpt>
      <trkpt lat="45.2837" lon="6.03778">
        <ele>1746</ele>
        <time>2018-07-01T14:08:22Z</time>
      </trkpt>
      <trkpt lat="45.28371" lon="6.03769">
        <ele>1744</ele>
        <time>2018-07-01T14:08:24Z</time>
      </trkpt>
      <trkpt lat="45.28372" lon="6.03761">
        <ele>1742</ele>
        <time>2018-07-01T14:08:26Z</time>
      </trkpt>
      <trkpt lat="45.28374" lon="6.03754">
        <ele>1741</ele>
        <time>2018-07-01T14:08:28Z</time>
      </trkpt>
      <trkpt lat="45.28375" lon="6.03747">
        <ele>1739</ele>
        <time>2018-07-01T14:08:30Z</time>
      </trkpt>
      <trkpt lat="45.28376" lon="6.03739">
        <ele>1737</ele>
        <time>2018-07-01T14:08:34Z</time>
      </trkpt>
      <trkpt lat="45.28372" lon="6.03732">
        <ele>1735</ele>
        <time>2018-07-01T14:08:38Z</time>
      </trkpt>
      <trkpt lat="45.28369" lon="6.03733">
        <ele>1735</ele>
        <time>2018-07-01T14:09:09Z</time>
      </trkpt>
      <trkpt lat="45.28369" lon="6.03733">
        <ele>1735</ele>
        <time>2018-07-01T14:09:12Z</time>
      </trkpt>
      <trkpt lat="45.28369" lon="6.03733">
        <ele>1735</ele>
        <time>2018-07-01T14:09:42Z</time>
      </trkpt>
      <trkpt lat="45.28369" lon="6.03733">
        <ele>1735</ele>
        <time>2018-07-01T14:09:45Z</time>
      </trkpt>
      <trkpt lat="45.28369" lon="6.03733">
        <ele>1735</ele>
        <time>2018-07-01T14:10:01Z</time>
      </trkpt>
      <trkpt lat="45.28369" lon="6.03733">
        <ele>1735</ele>
        <time>2018-07-01T14:10:04Z</time>
      </trkpt>
      <trkpt lat="45.28375" lon="6.03737">
        <ele>1736</ele>
        <time>2018-07-01T14:10:12Z</time>
      </trkpt>
      <trkpt lat="45.2838" lon="6.03737">
        <ele>1737</ele>
        <time>2018-07-01T14:10:15Z</time>
      </trkpt>
      <trkpt lat="45.28386" lon="6.03737">
        <ele>1738</ele>
        <time>2018-07-01T14:10:18Z</time>
      </trkpt>
      <trkpt lat="45.28391" lon="6.03736">
        <ele>1738</ele>
        <time>2018-07-01T14:10:20Z</time>
      </trkpt>
      <trkpt lat="45.28399" lon="6.03734">
        <ele>1738</ele>
        <time>2018-07-01T14:10:22Z</time>
      </trkpt>
      <trkpt lat="45.28407" lon="6.03733">
        <ele>1739</ele>
        <time>2018-07-01T14:10:24Z</time>
      </trkpt>
      <trkpt lat="45.28413" lon="6.03734">
        <ele>1739</ele>
        <time>2018-07-01T14:10:26Z</time>
      </trkpt>
      <trkpt lat="45.2842" lon="6.03736">
        <ele>1741</ele>
        <time>2018-07-01T14:10:28Z</time>
      </trkpt>
      <trkpt lat="45.28426" lon="6.03738">
        <ele>1742</ele>
        <time>2018-07-01T14:10:30Z</time>
      </trkpt>
      <trkpt lat="45.28431" lon="6.03739">
        <ele>1743</ele>
        <time>2018-07-01T14:10:32Z</time>
      </trkpt>
      <trkpt lat="45.28436" lon="6.03738">
        <ele>1743</ele>
        <time>2018-07-01T14:10:34Z</time>
      </trkpt>
      <trkpt lat="45.28441" lon="6.03737">
        <ele>1742</ele>
        <time>2018-07-01T14:10:36Z</time>
      </trkpt>
      <trkpt lat="45.28446" lon="6.03734">
        <ele>1742</ele>
        <time>2018-07-01T14:10:38Z</time>
      </trkpt>
      <trkpt lat="45.28452" lon="6.03731">
        <ele>1741</ele>
        <time>2018-07-01T14:10:40Z</time>
      </trkpt>
      <trkpt lat="45.28458" lon="6.03728">
        <ele>1740</ele>
        <time>2018-07-01T14:10:42Z</time>
      </trkpt>
      <trkpt lat="45.28464" lon="6.03727">
        <ele>1740</ele>
        <time>2018-07-01T14:10:44Z</time>
      </trkpt>
      <trkpt lat="45.2847" lon="6.03725">
        <ele>1740</ele>
        <time>2018-07-01T14:10:47Z</time>
      </trkpt>
      <trkpt lat="45.28475" lon="6.03723">
        <ele>1739</ele>
        <time>2018-07-01T14:10:49Z</time>
      </trkpt>
      <trkpt lat="45.28482" lon="6.03721">
        <ele>1739</ele>
        <time>2018-07-01T14:10:51Z</time>
      </trkpt>
      <trkpt lat="45.28488" lon="6.03719">
        <ele>1738</ele>
        <time>2018-07-01T14:10:53Z</time>
      </trkpt>
      <trkpt lat="45.28493" lon="6.03716">
        <ele>1737</ele>
        <time>2018-07-01T14:10:55Z</time>
      </trkpt>
      <trkpt lat="45.28499" lon="6.03713">
        <ele>1736</ele>
        <time>2018-07-01T14:10:57Z</time>
      </trkpt>
      <trkpt lat="45.28505" lon="6.03709">
        <ele>1735</ele>
        <time>2018-07-01T14:10:59Z</time>
      </trkpt>
      <trkpt lat="45.28513" lon="6.03708">
        <ele>1735</ele>
        <time>2018-07-01T14:11:01Z</time>
      </trkpt>
      <trkpt lat="45.28519" lon="6.03704">
        <ele>1734</ele>
        <time>2018-07-01T14:11:03Z</time>
      </trkpt>
      <trkpt lat="45.28525" lon="6.03699">
        <ele>1732</ele>
        <time>2018-07-01T14:11:05Z</time>
      </trkpt>
      <trkpt lat="45.28532" lon="6.03695">
        <ele>1731</ele>
        <time>2018-07-01T14:11:07Z</time>
      </trkpt>
      <trkpt lat="45.28538" lon="6.03692">
        <ele>1730</ele>
        <time>2018-07-01T14:11:09Z</time>
      </trkpt>
      <trkpt lat="45.28544" lon="6.03688">
        <ele>1728</ele>
        <time>2018-07-01T14:11:11Z</time>
      </trkpt>
      <trkpt lat="45.2855" lon="6.03687">
        <ele>1728</ele>
        <time>2018-07-01T14:11:13Z</time>
      </trkpt>
      <trkpt lat="45.28556" lon="6.03687">
        <ele>1728</ele>
        <time>2018-07-01T14:11:15Z</time>
      </trkpt>
      <trkpt lat="45.28563" lon="6.03684">
        <ele>1727</ele>
        <time>2018-07-01T14:11:18Z</time>
      </trkpt>
      <trkpt lat="45.28568" lon="6.03682">
        <ele>1726</ele>
        <time>2018-07-01T14:11:20Z</time>
      </trkpt>
      <trkpt lat="45.28574" lon="6.03678">
        <ele>1725</ele>
        <time>2018-07-01T14:11:22Z</time>
      </trkpt>
      <trkpt lat="45.28577" lon="6.03673">
        <ele>1722</ele>
        <time>2018-07-01T14:11:24Z</time>
      </trkpt>
      <trkpt lat="45.28583" lon="6.0367">
        <ele>1721</ele>
        <time>2018-07-01T14:11:28Z</time>
      </trkpt>
      <trkpt lat="45.28589" lon="6.03666">
        <ele>1719</ele>
        <time>2018-07-01T14:11:31Z</time>
      </trkpt>
      <trkpt lat="45.28595" lon="6.03664">
        <ele>1718</ele>
        <time>2018-07-01T14:11:34Z</time>
      </trkpt>
      <trkpt lat="45.286" lon="6.03662">
        <ele>1717</ele>
        <time>2018-07-01T14:11:36Z</time>
      </trkpt>
      <trkpt lat="45.28605" lon="6.03661">
        <ele>1716</ele>
        <time>2018-07-01T14:11:38Z</time>
      </trkpt>
      <trkpt lat="45.2861" lon="6.0366">
        <ele>1716</ele>
        <time>2018-07-01T14:11:40Z</time>
      </trkpt>
      <trkpt lat="45.28615" lon="6.03659">
        <ele>1715</ele>
        <time>2018-07-01T14:11:42Z</time>
      </trkpt>
      <trkpt lat="45.28621" lon="6.03657">
        <ele>1714</ele>
        <time>2018-07-01T14:11:44Z</time>
      </trkpt>
      <trkpt lat="45.28627" lon="6.03656">
        <ele>1713</ele>
        <time>2018-07-01T14:11:46Z</time>
      </trkpt>
      <trkpt lat="45.28633" lon="6.03654">
        <ele>1712</ele>
        <time>2018-07-01T14:11:48Z</time>
      </trkpt>
      <trkpt lat="45.28639" lon="6.03652">
        <ele>1710</ele>
        <time>2018-07-01T14:11:50Z</time>
      </trkpt>
      <trkpt lat="45.28645" lon="6.0365">
        <ele>1709</ele>
        <time>2018-07-01T14:11:52Z</time>
      </trkpt>
      <trkpt lat="45.2865" lon="6.03648">
        <ele>1708</ele>
        <time>2018-07-01T14:11:54Z</time>
      </trkpt>
      <trkpt lat="45.28655" lon="6.03646">
        <ele>1707</ele>
        <time>2018-07-01T14:11:57Z</time>
      </trkpt>
      <trkpt lat="45.28661" lon="6.03647">
        <ele>1707</ele>
        <time>2018-07-01T14:12:00Z</time>
      </trkpt>
      <trkpt lat="45.28663" lon="6.03645">
        <ele>1706</ele>
        <time>2018-07-01T14:12:29Z</time>
      </trkpt>
      <trkpt lat="45.28663" lon="6.03645">
        <ele>1706</ele>
        <time>2018-07-01T14:12:32Z</time>
      </trkpt>
      <trkpt lat="45.28663" lon="6.03646">
        <ele>1706</ele>
        <time>2018-07-01T14:13:00Z</time>
      </trkpt>
      <trkpt lat="45.28837" lon="6.03607">
        <ele>1687</ele>
        <time>2018-07-01T14:15:48Z</time>
      </trkpt>
      <trkpt lat="45.2884" lon="6.03581">
        <ele>1672</ele>
        <time>2018-07-01T14:15:54Z</time>
      </trkpt>
      <trkpt lat="45.28844" lon="6.03577">
        <ele>1671</ele>
        <time>2018-07-01T14:15:57Z</time>
      </trkpt>
      <trkpt lat="45.28848" lon="6.03581">
        <ele>1674</ele>
        <time>2018-07-01T14:16:03Z</time>
      </trkpt>
      <trkpt lat="45.28852" lon="6.03581">
        <ele>1674</ele>
        <time>2018-07-01T14:16:18Z</time>
      </trkpt>
      <trkpt lat="45.28856" lon="6.03576">
        <ele>1672</ele>
        <time>2018-07-01T14:16:22Z</time>
      </trkpt>
      <trkpt lat="45.28862" lon="6.03576">
        <ele>1674</ele>
        <time>2018-07-01T14:16:26Z</time>
      </trkpt>
      <trkpt lat="45.28866" lon="6.03573">
        <ele>1673</ele>
        <time>2018-07-01T14:16:31Z</time>
      </trkpt>
      <trkpt lat="45.28868" lon="6.03567">
        <ele>1670</ele>
        <time>2018-07-01T14:16:38Z</time>
      </trkpt>
      <trkpt lat="45.28871" lon="6.0356">
        <ele>1666</ele>
        <time>2018-07-01T14:16:43Z</time>
      </trkpt>
      <trkpt lat="45.28872" lon="6.03554">
        <ele>1663</ele>
        <time>2018-07-01T14:16:50Z</time>
      </trkpt>
      <trkpt lat="45.28876" lon="6.03549">
        <ele>1661</ele>
        <time>2018-07-01T14:16:53Z</time>
      </trkpt>
      <trkpt lat="45.28879" lon="6.03543">
        <ele>1659</ele>
        <time>2018-07-01T14:16:56Z</time>
      </trkpt>
      <trkpt lat="45.28883" lon="6.0354">
        <ele>1658</ele>
        <time>2018-07-01T14:17:17Z</time>
      </trkpt>
      <trkpt lat="45.28885" lon="6.03531">
        <ele>1654</ele>
        <time>2018-07-01T14:17:20Z</time>
      </trkpt>
      <trkpt lat="45.28888" lon="6.03522">
        <ele>1650</ele>
        <time>2018-07-01T14:17:22Z</time>
      </trkpt>
      <trkpt lat="45.2889" lon="6.03516">
        <ele>1647</ele>
        <time>2018-07-01T14:17:24Z</time>
      </trkpt>
      <trkpt lat="45.28892" lon="6.0351">
        <ele>1644</ele>
        <time>2018-07-01T14:17:27Z</time>
      </trkpt>
      <trkpt lat="45.28895" lon="6.03504">
        <ele>1642</ele>
        <time>2018-07-01T14:17:30Z</time>
      </trkpt>
      <trkpt lat="45.28898" lon="6.03497">
        <ele>1640</ele>
        <time>2018-07-01T14:17:33Z</time>
      </trkpt>
      <trkpt lat="45.28901" lon="6.03489">
        <ele>1636</ele>
        <time>2018-07-01T14:17:36Z</time>
      </trkpt>
      <trkpt lat="45.28904" lon="6.03484">
        <ele>1635</ele>
        <time>2018-07-01T14:17:43Z</time>
      </trkpt>
      <trkpt lat="45.28908" lon="6.03478">
        <ele>1633</ele>
        <time>2018-07-01T14:17:47Z</time>
      </trkpt>
      <trkpt lat="45.28913" lon="6.03472">
        <ele>1633</ele>
        <time>2018-07-01T14:17:50Z</time>
      </trkpt>
      <trkpt lat="45.28915" lon="6.03465">
        <ele>1630</ele>
        <time>2018-07-01T14:17:53Z</time>
      </trkpt>
      <trkpt lat="45.2892" lon="6.03456">
        <ele>1628</ele>
        <time>2018-07-01T14:17:56Z</time>
      </trkpt>
      <trkpt lat="45.28925" lon="6.03451">
        <ele>1628</ele>
        <time>2018-07-01T14:17:58Z</time>
      </trkpt>
      <trkpt lat="45.2893" lon="6.03447">
        <ele>1629</ele>
        <time>2018-07-01T14:18:00Z</time>
      </trkpt>
      <trkpt lat="45.28935" lon="6.03446">
        <ele>1631</ele>
        <time>2018-07-01T14:18:02Z</time>
      </trkpt>
      <trkpt lat="45.2894" lon="6.03445">
        <ele>1633</ele>
        <time>2018-07-01T14:18:07Z</time>
      </trkpt>
      <trkpt lat="45.28944" lon="6.03441">
        <ele>1633</ele>
        <time>2018-07-01T14:18:12Z</time>
      </trkpt>
      <trkpt lat="45.28949" lon="6.03439">
        <ele>1635</ele>
        <time>2018-07-01T14:18:19Z</time>
      </trkpt>
      <trkpt lat="45.28952" lon="6.03436">
        <ele>1635</ele>
        <time>2018-07-01T14:18:33Z</time>
      </trkpt>
      <trkpt lat="45.28958" lon="6.03435">
        <ele>1638</ele>
        <time>2018-07-01T14:18:35Z</time>
      </trkpt>
      <trkpt lat="45.28964" lon="6.03433">
        <ele>1639</ele>
        <time>2018-07-01T14:18:37Z</time>
      </trkpt>
      <trkpt lat="45.28968" lon="6.03432">
        <ele>1642</ele>
        <time>2018-07-01T14:18:39Z</time>
      </trkpt>
      <trkpt lat="45.28973" lon="6.03429">
        <ele>1643</ele>
        <time>2018-07-01T14:18:41Z</time>
      </trkpt>
      <trkpt lat="45.28977" lon="6.03427">
        <ele>1644</ele>
        <time>2018-07-01T14:18:43Z</time>
      </trkpt>
      <trkpt lat="45.28982" lon="6.03425">
        <ele>1644</ele>
        <time>2018-07-01T14:18:45Z</time>
      </trkpt>
      <trkpt lat="45.28987" lon="6.03424">
        <ele>1644</ele>
        <time>2018-07-01T14:18:47Z</time>
      </trkpt>
      <trkpt lat="45.28993" lon="6.03423">
        <ele>1645</ele>
        <time>2018-07-01T14:18:49Z</time>
      </trkpt>
      <trkpt lat="45.28998" lon="6.03423">
        <ele>1646</ele>
        <time>2018-07-01T14:18:51Z</time>
      </trkpt>
      <trkpt lat="45.29002" lon="6.03425">
        <ele>1647</ele>
        <time>2018-07-01T14:18:53Z</time>
      </trkpt>
      <trkpt lat="45.29009" lon="6.03424">
        <ele>1648</ele>
        <time>2018-07-01T14:18:56Z</time>
      </trkpt>
      <trkpt lat="45.29013" lon="6.03422">
        <ele>1648</ele>
        <time>2018-07-01T14:18:58Z</time>
      </trkpt>
      <trkpt lat="45.29017" lon="6.03418">
        <ele>1646</ele>
        <time>2018-07-01T14:19:00Z</time>
      </trkpt>
      <trkpt lat="45.29023" lon="6.03416">
        <ele>1646</ele>
        <time>2018-07-01T14:19:02Z</time>
      </trkpt>
      <trkpt lat="45.29028" lon="6.03414">
        <ele>1646</ele>
        <time>2018-07-01T14:19:03Z</time>
      </trkpt>
      <trkpt lat="45.29032" lon="6.03413">
        <ele>1646</ele>
        <time>2018-07-01T14:19:04Z</time>
      </trkpt>
      <trkpt lat="45.2904" lon="6.0341">
        <ele>1645</ele>
        <time>2018-07-01T14:19:06Z</time>
      </trkpt>
      <trkpt lat="45.29047" lon="6.03408">
        <ele>1645</ele>
        <time>2018-07-01T14:19:08Z</time>
      </trkpt>
      <trkpt lat="45.29051" lon="6.03405">
        <ele>1643</ele>
        <time>2018-07-01T14:19:11Z</time>
      </trkpt>
      <trkpt lat="45.29055" lon="6.03404">
        <ele>1642</ele>
        <time>2018-07-01T14:19:14Z</time>
      </trkpt>
      <trkpt lat="45.2906" lon="6.03401">
        <ele>1640</ele>
        <time>2018-07-01T14:19:18Z</time>
      </trkpt>
      <trkpt lat="45.29067" lon="6.03398">
        <ele>1638</ele>
        <time>2018-07-01T14:19:36Z</time>
      </trkpt>
      <trkpt lat="45.29075" lon="6.03395">
        <ele>1636</ele>
        <time>2018-07-01T14:19:38Z</time>
      </trkpt>
      <trkpt lat="45.29082" lon="6.03395">
        <ele>1636</ele>
        <time>2018-07-01T14:19:40Z</time>
      </trkpt>
      <trkpt lat="45.29087" lon="6.03394">
        <ele>1635</ele>
        <time>2018-07-01T14:19:42Z</time>
      </trkpt>
      <trkpt lat="45.29093" lon="6.03395">
        <ele>1635</ele>
        <time>2018-07-01T14:19:45Z</time>
      </trkpt>
      <trkpt lat="45.29099" lon="6.03394">
        <ele>1634</ele>
        <time>2018-07-01T14:19:48Z</time>
      </trkpt>
      <trkpt lat="45.29104" lon="6.03394">
        <ele>1634</ele>
        <time>2018-07-01T14:19:50Z</time>
      </trkpt>
      <trkpt lat="45.29108" lon="6.03395">
        <ele>1635</ele>
        <time>2018-07-01T14:19:53Z</time>
      </trkpt>
      <trkpt lat="45.29113" lon="6.03393">
        <ele>1633</ele>
        <time>2018-07-01T14:20:00Z</time>
      </trkpt>
      <trkpt lat="45.29118" lon="6.03394">
        <ele>1634</ele>
        <time>2018-07-01T14:20:07Z</time>
      </trkpt>
      <trkpt lat="45.29121" lon="6.03396">
        <ele>1634</ele>
        <time>2018-07-01T14:20:38Z</time>
      </trkpt>
      <trkpt lat="45.29121" lon="6.03396">
        <ele>1634</ele>
        <time>2018-07-01T14:20:41Z</time>
      </trkpt>
      <trkpt lat="45.29121" lon="6.03396">
        <ele>1634</ele>
        <time>2018-07-01T14:20:56Z</time>
      </trkpt>
      <trkpt lat="45.29121" lon="6.03396">
        <ele>1634</ele>
        <time>2018-07-01T14:20:59Z</time>
      </trkpt>
      <trkpt lat="45.29126" lon="6.0339">
        <ele>1631</ele>
        <time>2018-07-01T14:21:05Z</time>
      </trkpt>
      <trkpt lat="45.29133" lon="6.03384">
        <ele>1628</ele>
        <time>2018-07-01T14:21:07Z</time>
      </trkpt>
      <trkpt lat="45.29141" lon="6.03382">
        <ele>1627</ele>
        <time>2018-07-01T14:21:09Z</time>
      </trkpt>
      <trkpt lat="45.29147" lon="6.03382">
        <ele>1627</ele>
        <time>2018-07-01T14:21:11Z</time>
      </trkpt>
      <trkpt lat="45.29154" lon="6.03382">
        <ele>1626</ele>
        <time>2018-07-01T14:21:13Z</time>
      </trkpt>
      <trkpt lat="45.29162" lon="6.0338">
        <ele>1625</ele>
        <time>2018-07-01T14:21:15Z</time>
      </trkpt>
      <trkpt lat="45.29167" lon="6.03377">
        <ele>1624</ele>
        <time>2018-07-01T14:21:17Z</time>
      </trkpt>
      <trkpt lat="45.29171" lon="6.03373">
        <ele>1622</ele>
        <time>2018-07-01T14:21:19Z</time>
      </trkpt>
      <trkpt lat="45.29175" lon="6.03366">
        <ele>1619</ele>
        <time>2018-07-01T14:21:21Z</time>
      </trkpt>
      <trkpt lat="45.29177" lon="6.03359">
        <ele>1616</ele>
        <time>2018-07-01T14:21:23Z</time>
      </trkpt>
      <trkpt lat="45.29178" lon="6.03352">
        <ele>1613</ele>
        <time>2018-07-01T14:21:25Z</time>
      </trkpt>
      <trkpt lat="45.29181" lon="6.03346">
        <ele>1611</ele>
        <time>2018-07-01T14:21:28Z</time>
      </trkpt>
      <trkpt lat="45.29185" lon="6.03344">
        <ele>1611</ele>
        <time>2018-07-01T14:21:31Z</time>
      </trkpt>
      <trkpt lat="45.29189" lon="6.03342">
        <ele>1612</ele>
        <time>2018-07-01T14:21:39Z</time>
      </trkpt>
      <trkpt lat="45.29192" lon="6.03335">
        <ele>1611</ele>
        <time>2018-07-01T14:21:44Z</time>
      </trkpt>
      <trkpt lat="45.29195" lon="6.03329">
        <ele>1610</ele>
        <time>2018-07-01T14:21:47Z</time>
      </trkpt>
      <trkpt lat="45.29198" lon="6.03322">
        <ele>1608</ele>
        <time>2018-07-01T14:21:51Z</time>
      </trkpt>
      <trkpt lat="45.29201" lon="6.03316">
        <ele>1608</ele>
        <time>2018-07-01T14:21:58Z</time>
      </trkpt>
      <trkpt lat="45.292" lon="6.03309">
        <ele>1605</ele>
        <time>2018-07-01T14:22:00Z</time>
      </trkpt>
      <trkpt lat="45.292" lon="6.03302">
        <ele>1602</ele>
        <time>2018-07-01T14:22:02Z</time>
      </trkpt>
      <trkpt lat="45.29199" lon="6.03294">
        <ele>1599</ele>
        <time>2018-07-01T14:22:04Z</time>
      </trkpt>
      <trkpt lat="45.29199" lon="6.03287">
        <ele>1597</ele>
        <time>2018-07-01T14:22:06Z</time>
      </trkpt>
      <trkpt lat="45.292" lon="6.0328">
        <ele>1595</ele>
        <time>2018-07-01T14:22:08Z</time>
      </trkpt>
      <trkpt lat="45.292" lon="6.03272">
        <ele>1592</ele>
        <time>2018-07-01T14:22:11Z</time>
      </trkpt>
      <trkpt lat="45.292" lon="6.03265">
        <ele>1590</ele>
        <time>2018-07-01T14:22:13Z</time>
      </trkpt>
      <trkpt lat="45.292" lon="6.03254">
        <ele>1587</ele>
        <time>2018-07-01T14:22:15Z</time>
      </trkpt>
      <trkpt lat="45.292" lon="6.03245">
        <ele>1584</ele>
        <time>2018-07-01T14:22:17Z</time>
      </trkpt>
      <trkpt lat="45.29203" lon="6.03236">
        <ele>1583</ele>
        <time>2018-07-01T14:22:20Z</time>
      </trkpt>
      <trkpt lat="45.292" lon="6.03242">
        <ele>1583</ele>
        <time>2018-07-01T14:22:33Z</time>
      </trkpt>
      <trkpt lat="45.29199" lon="6.03242">
        <ele>1582</ele>
        <time>2018-07-01T14:23:01Z</time>
      </trkpt>
      <trkpt lat="45.29199" lon="6.03242">
        <ele>1582</ele>
        <time>2018-07-01T14:23:04Z</time>
      </trkpt>
      <trkpt lat="45.29199" lon="6.03242">
        <ele>1582</ele>
        <time>2018-07-01T14:23:36Z</time>
      </trkpt>
      <trkpt lat="45.29199" lon="6.03242">
        <ele>1582</ele>
        <time>2018-07-01T14:23:38Z</time>
      </trkpt>
      <trkpt lat="45.29197" lon="6.03236">
        <ele>1579</ele>
        <time>2018-07-01T14:23:55Z</time>
      </trkpt>
      <trkpt lat="45.29196" lon="6.03229">
        <ele>1576</ele>
        <time>2018-07-01T14:23:57Z</time>
      </trkpt>
      <trkpt lat="45.29196" lon="6.03221">
        <ele>1574</ele>
        <time>2018-07-01T14:23:59Z</time>
      </trkpt>
      <trkpt lat="45.29196" lon="6.03214">
        <ele>1572</ele>
        <time>2018-07-01T14:24:01Z</time>
      </trkpt>
      <trkpt lat="45.29198" lon="6.03206">
        <ele>1571</ele>
        <time>2018-07-01T14:24:05Z</time>
      </trkpt>
      <trkpt lat="45.292" lon="6.03197">
        <ele>1570</ele>
        <time>2018-07-01T14:24:08Z</time>
      </trkpt>
      <trkpt lat="45.292" lon="6.0319">
        <ele>1568</ele>
        <time>2018-07-01T14:24:10Z</time>
      </trkpt>
      <trkpt lat="45.29199" lon="6.03182">
        <ele>1565</ele>
        <time>2018-07-01T14:24:12Z</time>
      </trkpt>
      <trkpt lat="45.29199" lon="6.03173">
        <ele>1562</ele>
        <time>2018-07-01T14:24:14Z</time>
      </trkpt>
      <trkpt lat="45.29197" lon="6.03164">
        <ele>1559</ele>
        <time>2018-07-01T14:24:17Z</time>
      </trkpt>
      <trkpt lat="45.29197" lon="6.03156">
        <ele>1557</ele>
        <time>2018-07-01T14:24:20Z</time>
      </trkpt>
      <trkpt lat="45.29197" lon="6.03148">
        <ele>1555</ele>
        <time>2018-07-01T14:24:25Z</time>
      </trkpt>
      <trkpt lat="45.29198" lon="6.0314">
        <ele>1554</ele>
        <time>2018-07-01T14:24:28Z</time>
      </trkpt>
      <trkpt lat="45.292" lon="6.03133">
        <ele>1554</ele>
        <time>2018-07-01T14:24:31Z</time>
      </trkpt>
      <trkpt lat="45.29203" lon="6.03125">
        <ele>1554</ele>
        <time>2018-07-01T14:24:34Z</time>
      </trkpt>
      <trkpt lat="45.29204" lon="6.03116">
        <ele>1553</ele>
        <time>2018-07-01T14:24:37Z</time>
      </trkpt>
      <trkpt lat="45.29206" lon="6.0311">
        <ele>1553</ele>
        <time>2018-07-01T14:24:39Z</time>
      </trkpt>
      <trkpt lat="45.29207" lon="6.03103">
        <ele>1553</ele>
        <time>2018-07-01T14:24:41Z</time>
      </trkpt>
      <trkpt lat="45.2921" lon="6.03097">
        <ele>1553</ele>
        <time>2018-07-01T14:24:43Z</time>
      </trkpt>
      <trkpt lat="45.29211" lon="6.03091">
        <ele>1553</ele>
        <time>2018-07-01T14:24:45Z</time>
      </trkpt>
      <trkpt lat="45.29213" lon="6.03083">
        <ele>1552</ele>
        <time>2018-07-01T14:24:47Z</time>
      </trkpt>
      <trkpt lat="45.29215" lon="6.03075">
        <ele>1551</ele>
        <time>2018-07-01T14:24:49Z</time>
      </trkpt>
      <trkpt lat="45.29215" lon="6.03068">
        <ele>1550</ele>
        <time>2018-07-01T14:24:51Z</time>
      </trkpt>
      <trkpt lat="45.29217" lon="6.03061">
        <ele>1549</ele>
        <time>2018-07-01T14:24:54Z</time>
      </trkpt>
      <trkpt lat="45.29219" lon="6.03054">
        <ele>1549</ele>
        <time>2018-07-01T14:24:57Z</time>
      </trkpt>
      <trkpt lat="45.29219" lon="6.03046">
        <ele>1547</ele>
        <time>2018-07-01T14:25:00Z</time>
      </trkpt>
      <trkpt lat="45.29222" lon="6.0304">
        <ele>1547</ele>
        <time>2018-07-01T14:25:03Z</time>
      </trkpt>
      <trkpt lat="45.29225" lon="6.03032">
        <ele>1547</ele>
        <time>2018-07-01T14:25:06Z</time>
      </trkpt>
      <trkpt lat="45.29227" lon="6.03023">
        <ele>1546</ele>
        <time>2018-07-01T14:25:09Z</time>
      </trkpt>
      <trkpt lat="45.29231" lon="6.03019">
        <ele>1547</ele>
        <time>2018-07-01T14:25:11Z</time>
      </trkpt>
      <trkpt lat="45.29235" lon="6.03015">
        <ele>1547</ele>
        <time>2018-07-01T14:25:13Z</time>
      </trkpt>
      <trkpt lat="45.29238" lon="6.03009">
        <ele>1547</ele>
        <time>2018-07-01T14:25:15Z</time>
      </trkpt>
      <trkpt lat="45.2924" lon="6.03003">
        <ele>1546</ele>
        <time>2018-07-01T14:25:17Z</time>
      </trkpt>
      <trkpt lat="45.29244" lon="6.02998">
        <ele>1546</ele>
        <time>2018-07-01T14:25:20Z</time>
      </trkpt>
      <trkpt lat="45.2925" lon="6.02995">
        <ele>1547</ele>
        <time>2018-07-01T14:25:24Z</time>
      </trkpt>
      <trkpt lat="45.29254" lon="6.02992">
        <ele>1547</ele>
        <time>2018-07-01T14:25:26Z</time>
      </trkpt>
      <trkpt lat="45.2926" lon="6.02989">
        <ele>1547</ele>
        <time>2018-07-01T14:25:28Z</time>
      </trkpt>
      <trkpt lat="45.29267" lon="6.02985">
        <ele>1548</ele>
        <time>2018-07-01T14:25:30Z</time>
      </trkpt>
      <trkpt lat="45.29275" lon="6.02981">
        <ele>1548</ele>
        <time>2018-07-01T14:25:32Z</time>
      </trkpt>
      <trkpt lat="45.29282" lon="6.02978">
        <ele>1549</ele>
        <time>2018-07-01T14:25:34Z</time>
      </trkpt>
      <trkpt lat="45.2929" lon="6.02974">
        <ele>1549</ele>
        <time>2018-07-01T14:25:36Z</time>
      </trkpt>
      <trkpt lat="45.29297" lon="6.0297">
        <ele>1549</ele>
        <time>2018-07-01T14:25:38Z</time>
      </trkpt>
      <trkpt lat="45.29305" lon="6.02966">
        <ele>1550</ele>
        <time>2018-07-01T14:25:40Z</time>
      </trkpt>
      <trkpt lat="45.29314" lon="6.02962">
        <ele>1551</ele>
        <time>2018-07-01T14:25:42Z</time>
      </trkpt>
      <trkpt lat="45.29318" lon="6.0296">
        <ele>1551</ele>
        <time>2018-07-01T14:25:43Z</time>
      </trkpt>
      <trkpt lat="45.29323" lon="6.02957">
        <ele>1551</ele>
        <time>2018-07-01T14:25:44Z</time>
      </trkpt>
      <trkpt lat="45.29327" lon="6.02953">
        <ele>1550</ele>
        <time>2018-07-01T14:25:45Z</time>
      </trkpt>
      <trkpt lat="45.29332" lon="6.0295">
        <ele>1549</ele>
        <time>2018-07-01T14:25:46Z</time>
      </trkpt>
      <trkpt lat="45.29336" lon="6.02947">
        <ele>1548</ele>
        <time>2018-07-01T14:25:47Z</time>
      </trkpt>
      <trkpt lat="45.2934" lon="6.02943">
        <ele>1547</ele>
        <time>2018-07-01T14:25:48Z</time>
      </trkpt>
      <trkpt lat="45.29343" lon="6.02939">
        <ele>1546</ele>
        <time>2018-07-01T14:25:49Z</time>
      </trkpt>
      <trkpt lat="45.2935" lon="6.0293">
        <ele>1544</ele>
        <time>2018-07-01T14:25:51Z</time>
      </trkpt>
      <trkpt lat="45.29354" lon="6.02925">
        <ele>1543</ele>
        <time>2018-07-01T14:25:52Z</time>
      </trkpt>
      <trkpt lat="45.29363" lon="6.02917">
        <ele>1541</ele>
        <time>2018-07-01T14:25:54Z</time>
      </trkpt>
      <trkpt lat="45.29368" lon="6.02911">
        <ele>1540</ele>
        <time>2018-07-01T14:25:55Z</time>
      </trkpt>
      <trkpt lat="45.29373" lon="6.02907">
        <ele>1539</ele>
        <time>2018-07-01T14:25:56Z</time>
      </trkpt>
      <trkpt lat="45.29378" lon="6.02903">
        <ele>1539</ele>
        <time>2018-07-01T14:25:57Z</time>
      </trkpt>
      <trkpt lat="45.29383" lon="6.02899">
        <ele>1538</ele>
        <time>2018-07-01T14:25:58Z</time>
      </trkpt>
      <trkpt lat="45.29389" lon="6.02894">
        <ele>1537</ele>
        <time>2018-07-01T14:25:59Z</time>
      </trkpt>
      <trkpt lat="45.29395" lon="6.02889">
        <ele>1536</ele>
        <time>2018-07-01T14:26:00Z</time>
      </trkpt>
      <trkpt lat="45.29401" lon="6.02884">
        <ele>1534</ele>
        <time>2018-07-01T14:26:01Z</time>
      </trkpt>
      <trkpt lat="45.29406" lon="6.02884">
        <ele>1534</ele>
        <time>2018-07-01T14:26:02Z</time>
      </trkpt>
      <trkpt lat="45.29414" lon="6.02883">
        <ele>1534</ele>
        <time>2018-07-01T14:26:04Z</time>
      </trkpt>
      <trkpt lat="45.2942" lon="6.02881">
        <ele>1533</ele>
        <time>2018-07-01T14:26:05Z</time>
      </trkpt>
      <trkpt lat="45.29426" lon="6.02878">
        <ele>1533</ele>
        <time>2018-07-01T14:26:06Z</time>
      </trkpt>
      <trkpt lat="45.29433" lon="6.02875">
        <ele>1532</ele>
        <time>2018-07-01T14:26:07Z</time>
      </trkpt>
      <trkpt lat="45.2944" lon="6.02875">
        <ele>1532</ele>
        <time>2018-07-01T14:26:08Z</time>
      </trkpt>
      <trkpt lat="45.29445" lon="6.02873">
        <ele>1532</ele>
        <time>2018-07-01T14:26:09Z</time>
      </trkpt>
      <trkpt lat="45.29453" lon="6.02868">
        <ele>1531</ele>
        <time>2018-07-01T14:26:11Z</time>
      </trkpt>
      <trkpt lat="45.29458" lon="6.02868">
        <ele>1531</ele>
        <time>2018-07-01T14:26:12Z</time>
      </trkpt>
      <trkpt lat="45.29465" lon="6.02867">
        <ele>1530</ele>
        <time>2018-07-01T14:26:13Z</time>
      </trkpt>
      <trkpt lat="45.29472" lon="6.02866">
        <ele>1529</ele>
        <time>2018-07-01T14:26:14Z</time>
      </trkpt>
      <trkpt lat="45.29479" lon="6.02868">
        <ele>1529</ele>
        <time>2018-07-01T14:26:15Z</time>
      </trkpt>
      <trkpt lat="45.29485" lon="6.02868">
        <ele>1528</ele>
        <time>2018-07-01T14:26:16Z</time>
      </trkpt>
      <trkpt lat="45.29491" lon="6.02866">
        <ele>1527</ele>
        <time>2018-07-01T14:26:17Z</time>
      </trkpt>
      <trkpt lat="45.29497" lon="6.02868">
        <ele>1527</ele>
        <time>2018-07-01T14:26:18Z</time>
      </trkpt>
      <trkpt lat="45.29504" lon="6.0287">
        <ele>1527</ele>
        <time>2018-07-01T14:26:19Z</time>
      </trkpt>
      <trkpt lat="45.29509" lon="6.0287">
        <ele>1526</ele>
        <time>2018-07-01T14:26:20Z</time>
      </trkpt>
      <trkpt lat="45.29517" lon="6.02868">
        <ele>1525</ele>
        <time>2018-07-01T14:26:21Z</time>
      </trkpt>
      <trkpt lat="45.29524" lon="6.02866">
        <ele>1524</ele>
        <time>2018-07-01T14:26:22Z</time>
      </trkpt>
      <trkpt lat="45.2953" lon="6.02867">
        <ele>1523</ele>
        <time>2018-07-01T14:26:23Z</time>
      </trkpt>
      <trkpt lat="45.29536" lon="6.02868">
        <ele>1522</ele>
        <time>2018-07-01T14:26:24Z</time>
      </trkpt>
      <trkpt lat="45.29542" lon="6.02867">
        <ele>1521</ele>
        <time>2018-07-01T14:26:25Z</time>
      </trkpt>
      <trkpt lat="45.29556" lon="6.02868">
        <ele>1519</ele>
        <time>2018-07-01T14:26:28Z</time>
      </trkpt>
      <trkpt lat="45.29561" lon="6.02868">
        <ele>1519</ele>
        <time>2018-07-01T14:26:29Z</time>
      </trkpt>
      <trkpt lat="45.29567" lon="6.0287">
        <ele>1518</ele>
        <time>2018-07-01T14:26:31Z</time>
      </trkpt>
      <trkpt lat="45.29575" lon="6.02868">
        <ele>1516</ele>
        <time>2018-07-01T14:26:33Z</time>
      </trkpt>
      <trkpt lat="45.29581" lon="6.02867">
        <ele>1515</ele>
        <time>2018-07-01T14:26:34Z</time>
      </trkpt>
      <trkpt lat="45.29587" lon="6.02863">
        <ele>1513</ele>
        <time>2018-07-01T14:26:36Z</time>
      </trkpt>
      <trkpt lat="45.29591" lon="6.02862">
        <ele>1512</ele>
        <time>2018-07-01T14:26:38Z</time>
      </trkpt>
      <trkpt lat="45.29592" lon="6.02856">
        <ele>1511</ele>
        <time>2018-07-01T14:26:43Z</time>
      </trkpt>
      <trkpt lat="45.29594" lon="6.02855">
        <ele>1510</ele>
        <time>2018-07-01T14:27:14Z</time>
      </trkpt>
      <trkpt lat="45.29594" lon="6.02855">
        <ele>1510</ele>
        <time>2018-07-01T14:27:16Z</time>
      </trkpt>
      <trkpt lat="45.29594" lon="6.02855">
        <ele>1510</ele>
        <time>2018-07-01T14:27:44Z</time>
      </trkpt>
      <trkpt lat="45.29594" lon="6.02855">
        <ele>1510</ele>
        <time>2018-07-01T14:27:47Z</time>
      </trkpt>
      <trkpt lat="45.29592" lon="6.02853">
        <ele>1510</ele>
        <time>2018-07-01T14:28:15Z</time>
      </trkpt>
      <trkpt lat="45.29593" lon="6.02852">
        <ele>1510</ele>
        <time>2018-07-01T14:28:18Z</time>
      </trkpt>
      <trkpt lat="45.29599" lon="6.02852">
        <ele>1508</ele>
        <time>2018-07-01T14:28:22Z</time>
      </trkpt>
      <trkpt lat="45.29604" lon="6.02853">
        <ele>1507</ele>
        <time>2018-07-01T14:28:23Z</time>
      </trkpt>
      <trkpt lat="45.29614" lon="6.02854">
        <ele>1505</ele>
        <time>2018-07-01T14:28:25Z</time>
      </trkpt>
      <trkpt lat="45.29623" lon="6.02856">
        <ele>1502</ele>
        <time>2018-07-01T14:28:27Z</time>
      </trkpt>
      <trkpt lat="45.29635" lon="6.02856">
        <ele>1499</ele>
        <time>2018-07-01T14:28:28Z</time>
      </trkpt>
      <trkpt lat="45.29641" lon="6.02854">
        <ele>1497</ele>
        <time>2018-07-01T14:28:29Z</time>
      </trkpt>
      <trkpt lat="45.29647" lon="6.02851">
        <ele>1494</ele>
        <time>2018-07-01T14:28:30Z</time>
      </trkpt>
      <trkpt lat="45.29651" lon="6.02848">
        <ele>1492</ele>
        <time>2018-07-01T14:28:31Z</time>
      </trkpt>
      <trkpt lat="45.29657" lon="6.02843">
        <ele>1489</ele>
        <time>2018-07-01T14:28:33Z</time>
      </trkpt>
      <trkpt lat="45.29661" lon="6.02841">
        <ele>1487</ele>
        <time>2018-07-01T14:28:34Z</time>
      </trkpt>
      <trkpt lat="45.29669" lon="6.02838">
        <ele>1484</ele>
        <time>2018-07-01T14:28:36Z</time>
      </trkpt>
      <trkpt lat="45.29674" lon="6.02838">
        <ele>1483</ele>
        <time>2018-07-01T14:28:37Z</time>
      </trkpt>
      <trkpt lat="45.29679" lon="6.02838">
        <ele>1482</ele>
        <time>2018-07-01T14:28:38Z</time>
      </trkpt>
      <trkpt lat="45.29688" lon="6.02844">
        <ele>1482</ele>
        <time>2018-07-01T14:28:40Z</time>
      </trkpt>
      <trkpt lat="45.29694" lon="6.02843">
        <ele>1480</ele>
        <time>2018-07-01T14:28:42Z</time>
      </trkpt>
      <trkpt lat="45.29702" lon="6.02843">
        <ele>1478</ele>
        <time>2018-07-01T14:28:44Z</time>
      </trkpt>
      <trkpt lat="45.29711" lon="6.02844">
        <ele>1476</ele>
        <time>2018-07-01T14:28:46Z</time>
      </trkpt>
      <trkpt lat="45.29717" lon="6.02846">
        <ele>1476</ele>
        <time>2018-07-01T14:28:47Z</time>
      </trkpt>
      <trkpt lat="45.29723" lon="6.02846">
        <ele>1474</ele>
        <time>2018-07-01T14:28:48Z</time>
      </trkpt>
      <trkpt lat="45.29729" lon="6.02847">
        <ele>1473</ele>
        <time>2018-07-01T14:28:49Z</time>
      </trkpt>
      <trkpt lat="45.29734" lon="6.02849">
        <ele>1473</ele>
        <time>2018-07-01T14:28:50Z</time>
      </trkpt>
      <trkpt lat="45.29741" lon="6.02852">
        <ele>1473</ele>
        <time>2018-07-01T14:28:51Z</time>
      </trkpt>
      <trkpt lat="45.29748" lon="6.02853">
        <ele>1472</ele>
        <time>2018-07-01T14:28:52Z</time>
      </trkpt>
      <trkpt lat="45.2976" lon="6.02858">
        <ele>1471</ele>
        <time>2018-07-01T14:28:54Z</time>
      </trkpt>
      <trkpt lat="45.29766" lon="6.02859">
        <ele>1470</ele>
        <time>2018-07-01T14:28:56Z</time>
      </trkpt>
      <trkpt lat="45.29771" lon="6.02861">
        <ele>1470</ele>
        <time>2018-07-01T14:28:58Z</time>
      </trkpt>
      <trkpt lat="45.29776" lon="6.02864">
        <ele>1470</ele>
        <time>2018-07-01T14:28:59Z</time>
      </trkpt>
      <trkpt lat="45.29782" lon="6.02869">
        <ele>1471</ele>
        <time>2018-07-01T14:29:01Z</time>
      </trkpt>
      <trkpt lat="45.29789" lon="6.0287">
        <ele>1470</ele>
        <time>2018-07-01T14:29:03Z</time>
      </trkpt>
      <trkpt lat="45.29794" lon="6.02874">
        <ele>1470</ele>
        <time>2018-07-01T14:29:04Z</time>
      </trkpt>
      <trkpt lat="45.29802" lon="6.02876">
        <ele>1470</ele>
        <time>2018-07-01T14:29:06Z</time>
      </trkpt>
      <trkpt lat="45.29807" lon="6.02879">
        <ele>1469</ele>
        <time>2018-07-01T14:29:07Z</time>
      </trkpt>
      <trkpt lat="45.29818" lon="6.02876">
        <ele>1466</ele>
        <time>2018-07-01T14:29:08Z</time>
      </trkpt>
      <trkpt lat="45.29825" lon="6.02879">
        <ele>1465</ele>
        <time>2018-07-01T14:29:09Z</time>
      </trkpt>
      <trkpt lat="45.29833" lon="6.02875">
        <ele>1462</ele>
        <time>2018-07-01T14:29:10Z</time>
      </trkpt>
      <trkpt lat="45.29839" lon="6.02879">
        <ele>1461</ele>
        <time>2018-07-01T14:29:11Z</time>
      </trkpt>
      <trkpt lat="45.29844" lon="6.02885">
        <ele>1462</ele>
        <time>2018-07-01T14:29:12Z</time>
      </trkpt>
      <trkpt lat="45.29851" lon="6.02889">
        <ele>1462</ele>
        <time>2018-07-01T14:29:13Z</time>
      </trkpt>
      <trkpt lat="45.2986" lon="6.0289">
        <ele>1460</ele>
        <time>2018-07-01T14:29:16Z</time>
      </trkpt>
      <trkpt lat="45.29867" lon="6.02889">
        <ele>1458</ele>
        <time>2018-07-01T14:29:17Z</time>
      </trkpt>
      <trkpt lat="45.29874" lon="6.02898">
        <ele>1459</ele>
        <time>2018-07-01T14:29:18Z</time>
      </trkpt>
      <trkpt lat="45.29879" lon="6.029">
        <ele>1458</ele>
        <time>2018-07-01T14:29:19Z</time>
      </trkpt>
      <trkpt lat="45.29885" lon="6.02901">
        <ele>1456</ele>
        <time>2018-07-01T14:29:20Z</time>
      </trkpt>
      <trkpt lat="45.29889" lon="6.02903">
        <ele>1456</ele>
        <time>2018-07-01T14:29:21Z</time>
      </trkpt>
      <trkpt lat="45.29896" lon="6.02904">
        <ele>1454</ele>
        <time>2018-07-01T14:29:22Z</time>
      </trkpt>
      <trkpt lat="45.29902" lon="6.02907">
        <ele>1453</ele>
        <time>2018-07-01T14:29:23Z</time>
      </trkpt>
      <trkpt lat="45.29909" lon="6.02908">
        <ele>1451</ele>
        <time>2018-07-01T14:29:24Z</time>
      </trkpt>
      <trkpt lat="45.29917" lon="6.02912">
        <ele>1450</ele>
        <time>2018-07-01T14:29:25Z</time>
      </trkpt>
      <trkpt lat="45.29921" lon="6.02916">
        <ele>1450</ele>
        <time>2018-07-01T14:29:26Z</time>
      </trkpt>
      <trkpt lat="45.29925" lon="6.02921">
        <ele>1450</ele>
        <time>2018-07-01T14:29:27Z</time>
      </trkpt>
      <trkpt lat="45.29931" lon="6.0292">
        <ele>1448</ele>
        <time>2018-07-01T14:29:28Z</time>
      </trkpt>
      <trkpt lat="45.29936" lon="6.0292">
        <ele>1446</ele>
        <time>2018-07-01T14:29:29Z</time>
      </trkpt>
      <trkpt lat="45.29943" lon="6.02918">
        <ele>1444</ele>
        <time>2018-07-01T14:29:30Z</time>
      </trkpt>
      <trkpt lat="45.2995" lon="6.02917">
        <ele>1441</ele>
        <time>2018-07-01T14:29:31Z</time>
      </trkpt>
      <trkpt lat="45.29956" lon="6.02918">
        <ele>1440</ele>
        <time>2018-07-01T14:29:32Z</time>
      </trkpt>
      <trkpt lat="45.29961" lon="6.02921">
        <ele>1439</ele>
        <time>2018-07-01T14:29:33Z</time>
      </trkpt>
      <trkpt lat="45.29968" lon="6.02924">
        <ele>1439</ele>
        <time>2018-07-01T14:29:34Z</time>
      </trkpt>
      <trkpt lat="45.29976" lon="6.02924">
        <ele>1436</ele>
        <time>2018-07-01T14:29:35Z</time>
      </trkpt>
      <trkpt lat="45.29981" lon="6.02924">
        <ele>1435</ele>
        <time>2018-07-01T14:29:36Z</time>
      </trkpt>
      <trkpt lat="45.29986" lon="6.02925">
        <ele>1434</ele>
        <time>2018-07-01T14:29:37Z</time>
      </trkpt>
      <trkpt lat="45.29996" lon="6.02924">
        <ele>1431</ele>
        <time>2018-07-01T14:29:39Z</time>
      </trkpt>
      <trkpt lat="45.30001" lon="6.02922">
        <ele>1429</ele>
        <time>2018-07-01T14:29:40Z</time>
      </trkpt>
      <trkpt lat="45.30007" lon="6.02923">
        <ele>1427</ele>
        <time>2018-07-01T14:29:41Z</time>
      </trkpt>
      <trkpt lat="45.30017" lon="6.02923">
        <ele>1425</ele>
        <time>2018-07-01T14:29:43Z</time>
      </trkpt>
      <trkpt lat="45.30025" lon="6.02916">
        <ele>1422</ele>
        <time>2018-07-01T14:29:44Z</time>
      </trkpt>
      <trkpt lat="45.30034" lon="6.02919">
        <ele>1421</ele>
        <time>2018-07-01T14:29:45Z</time>
      </trkpt>
      <trkpt lat="45.30042" lon="6.02922">
        <ele>1420</ele>
        <time>2018-07-01T14:29:46Z</time>
      </trkpt>
      <trkpt lat="45.30049" lon="6.02925">
        <ele>1419</ele>
        <time>2018-07-01T14:29:47Z</time>
      </trkpt>
      <trkpt lat="45.30055" lon="6.02922">
        <ele>1418</ele>
        <time>2018-07-01T14:29:48Z</time>
      </trkpt>
      <trkpt lat="45.30063" lon="6.02923">
        <ele>1416</ele>
        <time>2018-07-01T14:29:49Z</time>
      </trkpt>
      <trkpt lat="45.30067" lon="6.02926">
        <ele>1416</ele>
        <time>2018-07-01T14:29:50Z</time>
      </trkpt>
      <trkpt lat="45.30072" lon="6.02927">
        <ele>1415</ele>
        <time>2018-07-01T14:29:51Z</time>
      </trkpt>
      <trkpt lat="45.30077" lon="6.02929">
        <ele>1414</ele>
        <time>2018-07-01T14:29:52Z</time>
      </trkpt>
      <trkpt lat="45.30082" lon="6.02934">
        <ele>1414</ele>
        <time>2018-07-01T14:29:54Z</time>
      </trkpt>
      <trkpt lat="45.30088" lon="6.02936">
        <ele>1412</ele>
        <time>2018-07-01T14:29:56Z</time>
      </trkpt>
      <trkpt lat="45.30093" lon="6.0294">
        <ele>1412</ele>
        <time>2018-07-01T14:29:58Z</time>
      </trkpt>
      <trkpt lat="45.30098" lon="6.02943">
        <ele>1410</ele>
        <time>2018-07-01T14:30:04Z</time>
      </trkpt>
      <trkpt lat="45.30095" lon="6.02938">
        <ele>1410</ele>
        <time>2018-07-01T14:30:22Z</time>
      </trkpt>
      <trkpt lat="45.30092" lon="6.02932">
        <ele>1410</ele>
        <time>2018-07-01T14:30:25Z</time>
      </trkpt>
      <trkpt lat="45.3009" lon="6.02926">
        <ele>1409</ele>
        <time>2018-07-01T14:30:28Z</time>
      </trkpt>
      <trkpt lat="45.30086" lon="6.02922">
        <ele>1410</ele>
        <time>2018-07-01T14:30:30Z</time>
      </trkpt>
      <trkpt lat="45.30082" lon="6.02917">
        <ele>1410</ele>
        <time>2018-07-01T14:30:32Z</time>
      </trkpt>
      <trkpt lat="45.30079" lon="6.02912">
        <ele>1410</ele>
        <time>2018-07-01T14:30:34Z</time>
      </trkpt>
      <trkpt lat="45.30075" lon="6.02908">
        <ele>1410</ele>
        <time>2018-07-01T14:30:36Z</time>
      </trkpt>
      <trkpt lat="45.30071" lon="6.02905">
        <ele>1410</ele>
        <time>2018-07-01T14:30:38Z</time>
      </trkpt>
      <trkpt lat="45.30067" lon="6.02903">
        <ele>1411</ele>
        <time>2018-07-01T14:30:40Z</time>
      </trkpt>
      <trkpt lat="45.30062" lon="6.02903">
        <ele>1411</ele>
        <time>2018-07-01T14:30:42Z</time>
      </trkpt>
      <trkpt lat="45.30057" lon="6.02902">
        <ele>1412</ele>
        <time>2018-07-01T14:30:44Z</time>
      </trkpt>
      <trkpt lat="45.30051" lon="6.02904">
        <ele>1414</ele>
        <time>2018-07-01T14:30:47Z</time>
      </trkpt>
      <trkpt lat="45.30045" lon="6.02904">
        <ele>1415</ele>
        <time>2018-07-01T14:30:50Z</time>
      </trkpt>
      <trkpt lat="45.30039" lon="6.02901">
        <ele>1415</ele>
        <time>2018-07-01T14:30:53Z</time>
      </trkpt>
      <trkpt lat="45.30034" lon="6.02902">
        <ele>1416</ele>
        <time>2018-07-01T14:30:55Z</time>
      </trkpt>
      <trkpt lat="45.3003" lon="6.02905">
        <ele>1418</ele>
        <time>2018-07-01T14:30:57Z</time>
      </trkpt>
      <trkpt lat="45.30024" lon="6.02905">
        <ele>1419</ele>
        <time>2018-07-01T14:31:00Z</time>
      </trkpt>
      <trkpt lat="45.30019" lon="6.02899">
        <ele>1418</ele>
        <time>2018-07-01T14:31:03Z</time>
      </trkpt>
      <trkpt lat="45.30014" lon="6.02896">
        <ele>1418</ele>
        <time>2018-07-01T14:31:05Z</time>
      </trkpt>
      <trkpt lat="45.3001" lon="6.02891">
        <ele>1418</ele>
        <time>2018-07-01T14:31:07Z</time>
      </trkpt>
      <trkpt lat="45.30005" lon="6.02887">
        <ele>1417</ele>
        <time>2018-07-01T14:31:09Z</time>
      </trkpt>
      <trkpt lat="45.3" lon="6.02886">
        <ele>1418</ele>
        <time>2018-07-01T14:31:12Z</time>
      </trkpt>
      <trkpt lat="45.29995" lon="6.02884">
        <ele>1419</ele>
        <time>2018-07-01T14:31:15Z</time>
      </trkpt>
      <trkpt lat="45.29991" lon="6.02881">
        <ele>1419</ele>
        <time>2018-07-01T14:31:17Z</time>
      </trkpt>
      <trkpt lat="45.29985" lon="6.02878">
        <ele>1420</ele>
        <time>2018-07-01T14:31:20Z</time>
      </trkpt>
      <trkpt lat="45.29981" lon="6.02877">
        <ele>1421</ele>
        <time>2018-07-01T14:31:23Z</time>
      </trkpt>
      <trkpt lat="45.29975" lon="6.02875">
        <ele>1421</ele>
        <time>2018-07-01T14:31:26Z</time>
      </trkpt>
      <trkpt lat="45.2997" lon="6.02872">
        <ele>1422</ele>
        <time>2018-07-01T14:31:29Z</time>
      </trkpt>
      <trkpt lat="45.29965" lon="6.0287">
        <ele>1422</ele>
        <time>2018-07-01T14:31:32Z</time>
      </trkpt>
      <trkpt lat="45.2996" lon="6.02866">
        <ele>1423</ele>
        <time>2018-07-01T14:31:35Z</time>
      </trkpt>
      <trkpt lat="45.29955" lon="6.02863">
        <ele>1423</ele>
        <time>2018-07-01T14:31:38Z</time>
      </trkpt>
      <trkpt lat="45.2995" lon="6.0286">
        <ele>1423</ele>
        <time>2018-07-01T14:31:41Z</time>
      </trkpt>
      <trkpt lat="45.29945" lon="6.02859">
        <ele>1424</ele>
        <time>2018-07-01T14:31:44Z</time>
      </trkpt>
      <trkpt lat="45.2994" lon="6.02854">
        <ele>1424</ele>
        <time>2018-07-01T14:31:47Z</time>
      </trkpt>
      <trkpt lat="45.29935" lon="6.02849">
        <ele>1424</ele>
        <time>2018-07-01T14:31:50Z</time>
      </trkpt>
      <trkpt lat="45.29929" lon="6.02845">
        <ele>1424</ele>
        <time>2018-07-01T14:31:53Z</time>
      </trkpt>
      <trkpt lat="45.29923" lon="6.0284">
        <ele>1425</ele>
        <time>2018-07-01T14:31:56Z</time>
      </trkpt>
      <trkpt lat="45.29918" lon="6.02837">
        <ele>1425</ele>
        <time>2018-07-01T14:31:59Z</time>
      </trkpt>
      <trkpt lat="45.29913" lon="6.02834">
        <ele>1426</ele>
        <time>2018-07-01T14:32:02Z</time>
      </trkpt>
      <trkpt lat="45.29909" lon="6.02831">
        <ele>1426</ele>
        <time>2018-07-01T14:32:05Z</time>
      </trkpt>
      <trkpt lat="45.29904" lon="6.02828">
        <ele>1427</ele>
        <time>2018-07-01T14:32:08Z</time>
      </trkpt>
      <trkpt lat="45.29899" lon="6.02827">
        <ele>1428</ele>
        <time>2018-07-01T14:32:11Z</time>
      </trkpt>
      <trkpt lat="45.29894" lon="6.02825">
        <ele>1429</ele>
        <time>2018-07-01T14:32:14Z</time>
      </trkpt>
      <trkpt lat="45.29888" lon="6.02822">
        <ele>1429</ele>
        <time>2018-07-01T14:32:17Z</time>
      </trkpt>
      <trkpt lat="45.29883" lon="6.02819">
        <ele>1430</ele>
        <time>2018-07-01T14:32:20Z</time>
      </trkpt>
      <trkpt lat="45.29878" lon="6.02816">
        <ele>1430</ele>
        <time>2018-07-01T14:32:23Z</time>
      </trkpt>
      <trkpt lat="45.29873" lon="6.02813">
        <ele>1431</ele>
        <time>2018-07-01T14:32:26Z</time>
      </trkpt>
      <trkpt lat="45.29868" lon="6.0281">
        <ele>1431</ele>
        <time>2018-07-01T14:32:29Z</time>
      </trkpt>
      <trkpt lat="45.29863" lon="6.02805">
        <ele>1431</ele>
        <time>2018-07-01T14:32:33Z</time>
      </trkpt>
      <trkpt lat="45.29858" lon="6.02804">
        <ele>1432</ele>
        <time>2018-07-01T14:32:36Z</time>
      </trkpt>
      <trkpt lat="45.29852" lon="6.02803">
        <ele>1433</ele>
        <time>2018-07-01T14:32:39Z</time>
      </trkpt>
      <trkpt lat="45.29847" lon="6.02799">
        <ele>1433</ele>
        <time>2018-07-01T14:32:42Z</time>
      </trkpt>
      <trkpt lat="45.29841" lon="6.02795">
        <ele>1433</ele>
        <time>2018-07-01T14:32:45Z</time>
      </trkpt>
      <trkpt lat="45.29836" lon="6.02792">
        <ele>1433</ele>
        <time>2018-07-01T14:32:48Z</time>
      </trkpt>
      <trkpt lat="45.29835" lon="6.02789">
        <ele>1432</ele>
        <time>2018-07-01T14:33:11Z</time>
      </trkpt>
      <trkpt lat="45.29834" lon="6.0279">
        <ele>1433</ele>
        <time>2018-07-01T14:33:38Z</time>
      </trkpt>
      <trkpt lat="45.29834" lon="6.0279">
        <ele>1433</ele>
        <time>2018-07-01T14:34:04Z</time>
      </trkpt>
      <trkpt lat="45.29947" lon="6.02382">
        <ele>1261</ele>
        <time>2018-07-01T14:39:42Z</time>
      </trkpt>
      <trkpt lat="45.29951" lon="6.02378">
        <ele>1258</ele>
        <time>2018-07-01T14:39:43Z</time>
      </trkpt>
      <trkpt lat="45.29984" lon="6.02382">
        <ele>1248</ele>
        <time>2018-07-01T14:39:43Z</time>
      </trkpt>
      <trkpt lat="45.29987" lon="6.02389">
        <ele>1250</ele>
        <time>2018-07-01T14:39:45Z</time>
      </trkpt>
      <trkpt lat="45.29981" lon="6.02387">
        <ele>1252</ele>
        <time>2018-07-01T14:39:49Z</time>
      </trkpt>
      <trkpt lat="45.29977" lon="6.02385">
        <ele>1252</ele>
        <time>2018-07-01T14:39:51Z</time>
      </trkpt>
      <trkpt lat="45.29972" lon="6.02389">
        <ele>1255</ele>
        <time>2018-07-01T14:39:53Z</time>
      </trkpt>
      <trkpt lat="45.29971" lon="6.02396">
        <ele>1259</ele>
        <time>2018-07-01T14:39:56Z</time>
      </trkpt>
      <trkpt lat="45.29968" lon="6.02401">
        <ele>1262</ele>
        <time>2018-07-01T14:40:13Z</time>
      </trkpt>
      <trkpt lat="45.29765" lon="6.0224">
        <ele>1233</ele>
        <time>2018-07-01T14:43:01Z</time>
      </trkpt>
      <trkpt lat="45.29758" lon="6.02248">
        <ele>1237</ele>
        <time>2018-07-01T14:43:03Z</time>
      </trkpt>
      <trkpt lat="45.29755" lon="6.02252">
        <ele>1238</ele>
        <time>2018-07-01T14:43:08Z</time>
      </trkpt>
      <trkpt lat="45.29759" lon="6.02254">
        <ele>1239</ele>
        <time>2018-07-01T14:43:21Z</time>
      </trkpt>
      <trkpt lat="45.29767" lon="6.02252">
        <ele>1238</ele>
        <time>2018-07-01T14:43:24Z</time>
      </trkpt>
      <trkpt lat="45.29773" lon="6.02251">
        <ele>1237</ele>
        <time>2018-07-01T14:43:26Z</time>
      </trkpt>
      <trkpt lat="45.29778" lon="6.02248">
        <ele>1236</ele>
        <time>2018-07-01T14:43:28Z</time>
      </trkpt>
      <trkpt lat="45.29785" lon="6.02246">
        <ele>1234</ele>
        <time>2018-07-01T14:43:30Z</time>
      </trkpt>
      <trkpt lat="45.29794" lon="6.02246">
        <ele>1234</ele>
        <time>2018-07-01T14:43:32Z</time>
      </trkpt>
      <trkpt lat="45.29802" lon="6.02245">
        <ele>1233</ele>
        <time>2018-07-01T14:43:34Z</time>
      </trkpt>
      <trkpt lat="45.29807" lon="6.02245">
        <ele>1232</ele>
        <time>2018-07-01T14:43:36Z</time>
      </trkpt>
      <trkpt lat="45.29812" lon="6.02243">
        <ele>1230</ele>
        <time>2018-07-01T14:43:39Z</time>
      </trkpt>
      <trkpt lat="45.29813" lon="6.02236">
        <ele>1227</ele>
        <time>2018-07-01T14:43:42Z</time>
      </trkpt>
      <trkpt lat="45.29808" lon="6.0223">
        <ele>1225</ele>
        <time>2018-07-01T14:43:44Z</time>
      </trkpt>
      <trkpt lat="45.29804" lon="6.02224">
        <ele>1223</ele>
        <time>2018-07-01T14:43:46Z</time>
      </trkpt>
      <trkpt lat="45.29802" lon="6.02217">
        <ele>1220</ele>
        <time>2018-07-01T14:43:48Z</time>
      </trkpt>
      <trkpt lat="45.29799" lon="6.02211">
        <ele>1217</ele>
        <time>2018-07-01T14:43:50Z</time>
      </trkpt>
      <trkpt lat="45.29796" lon="6.02206">
        <ele>1215</ele>
        <time>2018-07-01T14:43:52Z</time>
      </trkpt>
      <trkpt lat="45.29793" lon="6.022">
        <ele>1213</ele>
        <time>2018-07-01T14:43:54Z</time>
      </trkpt>
      <trkpt lat="45.29796" lon="6.02195">
        <ele>1210</ele>
        <time>2018-07-01T14:43:57Z</time>
      </trkpt>
      <trkpt lat="45.29802" lon="6.02194">
        <ele>1209</ele>
        <time>2018-07-01T14:43:59Z</time>
      </trkpt>
      <trkpt lat="45.29809" lon="6.02193">
        <ele>1207</ele>
        <time>2018-07-01T14:44:01Z</time>
      </trkpt>
      <trkpt lat="45.29815" lon="6.02191">
        <ele>1206</ele>
        <time>2018-07-01T14:44:03Z</time>
      </trkpt>
      <trkpt lat="45.2982" lon="6.02191">
        <ele>1205</ele>
        <time>2018-07-01T14:44:06Z</time>
      </trkpt>
      <trkpt lat="45.29826" lon="6.0219">
        <ele>1203</ele>
        <time>2018-07-01T14:44:09Z</time>
      </trkpt>
      <trkpt lat="45.29833" lon="6.0219">
        <ele>1202</ele>
        <time>2018-07-01T14:44:11Z</time>
      </trkpt>
      <trkpt lat="45.29842" lon="6.02191">
        <ele>1201</ele>
        <time>2018-07-01T14:44:13Z</time>
      </trkpt>
      <trkpt lat="45.29846" lon="6.02191">
        <ele>1201</ele>
        <time>2018-07-01T14:44:14Z</time>
      </trkpt>
      <trkpt lat="45.29855" lon="6.02191">
        <ele>1199</ele>
        <time>2018-07-01T14:44:16Z</time>
      </trkpt>
      <trkpt lat="45.29863" lon="6.02193">
        <ele>1198</ele>
        <time>2018-07-01T14:44:18Z</time>
      </trkpt>
      <trkpt lat="45.29869" lon="6.02195">
        <ele>1199</ele>
        <time>2018-07-01T14:44:20Z</time>
      </trkpt>
      <trkpt lat="45.29874" lon="6.02196">
        <ele>1198</ele>
        <time>2018-07-01T14:44:24Z</time>
      </trkpt>
      <trkpt lat="45.29879" lon="6.02194">
        <ele>1195</ele>
        <time>2018-07-01T14:44:27Z</time>
      </trkpt>
      <trkpt lat="45.29885" lon="6.02193">
        <ele>1193</ele>
        <time>2018-07-01T14:44:30Z</time>
      </trkpt>
      <trkpt lat="45.2989" lon="6.02192">
        <ele>1191</ele>
        <time>2018-07-01T14:44:33Z</time>
      </trkpt>
      <trkpt lat="45.29895" lon="6.0219">
        <ele>1188</ele>
        <time>2018-07-01T14:44:36Z</time>
      </trkpt>
      <trkpt lat="45.29901" lon="6.02189">
        <ele>1186</ele>
        <time>2018-07-01T14:44:39Z</time>
      </trkpt>
      <trkpt lat="45.29905" lon="6.02186">
        <ele>1184</ele>
        <time>2018-07-01T14:44:44Z</time>
      </trkpt>
      <trkpt lat="45.29912" lon="6.02186">
        <ele>1182</ele>
        <time>2018-07-01T14:44:47Z</time>
      </trkpt>
      <trkpt lat="45.29917" lon="6.02188">
        <ele>1180</ele>
        <time>2018-07-01T14:44:49Z</time>
      </trkpt>
      <trkpt lat="45.29923" lon="6.02188">
        <ele>1179</ele>
        <time>2018-07-01T14:44:51Z</time>
      </trkpt>
      <trkpt lat="45.29931" lon="6.0219">
        <ele>1178</ele>
        <time>2018-07-01T14:44:53Z</time>
      </trkpt>
      <trkpt lat="45.29938" lon="6.02193">
        <ele>1176</ele>
        <time>2018-07-01T14:44:55Z</time>
      </trkpt>
      <trkpt lat="45.29945" lon="6.02193">
        <ele>1174</ele>
        <time>2018-07-01T14:44:57Z</time>
      </trkpt>
      <trkpt lat="45.29946" lon="6.02185">
        <ele>1170</ele>
        <time>2018-07-01T14:45:00Z</time>
      </trkpt>
      <trkpt lat="45.29942" lon="6.02182">
        <ele>1171</ele>
        <time>2018-07-01T14:45:04Z</time>
      </trkpt>
      <trkpt lat="45.29942" lon="6.02179">
        <ele>1170</ele>
        <time>2018-07-01T14:45:34Z</time>
      </trkpt>
      <trkpt lat="45.29942" lon="6.02179">
        <ele>1170</ele>
        <time>2018-07-01T14:45:37Z</time>
      </trkpt>
      <trkpt lat="45.29942" lon="6.02179">
        <ele>1170</ele>
        <time>2018-07-01T14:46:04Z</time>
      </trkpt>
      <trkpt lat="45.29942" lon="6.02179">
        <ele>1170</ele>
        <time>2018-07-01T14:46:07Z</time>
      </trkpt>
      <trkpt lat="45.29939" lon="6.02173">
        <ele>1168</ele>
        <time>2018-07-01T14:46:26Z</time>
      </trkpt>
      <trkpt lat="45.29937" lon="6.02165">
        <ele>1166</ele>
        <time>2018-07-01T14:46:29Z</time>
      </trkpt>
      <trkpt lat="45.29937" lon="6.02155">
        <ele>1162</ele>
        <time>2018-07-01T14:46:31Z</time>
      </trkpt>
      <trkpt lat="45.29937" lon="6.02146">
        <ele>1159</ele>
        <time>2018-07-01T14:46:34Z</time>
      </trkpt>
      <trkpt lat="45.2994" lon="6.02137">
        <ele>1154</ele>
        <time>2018-07-01T14:46:37Z</time>
      </trkpt>
      <trkpt lat="45.29941" lon="6.0213">
        <ele>1151</ele>
        <time>2018-07-01T14:46:39Z</time>
      </trkpt>
      <trkpt lat="45.29942" lon="6.02123">
        <ele>1148</ele>
        <time>2018-07-01T14:46:41Z</time>
      </trkpt>
      <trkpt lat="45.29947" lon="6.02121">
        <ele>1146</ele>
        <time>2018-07-01T14:46:43Z</time>
      </trkpt>
      <trkpt lat="45.29954" lon="6.02124">
        <ele>1145</ele>
        <time>2018-07-01T14:46:45Z</time>
      </trkpt>
      <trkpt lat="45.2996" lon="6.02121">
        <ele>1141</ele>
        <time>2018-07-01T14:46:47Z</time>
      </trkpt>
      <trkpt lat="45.29965" lon="6.02114">
        <ele>1137</ele>
        <time>2018-07-01T14:46:49Z</time>
      </trkpt>
      <trkpt lat="45.29971" lon="6.02109">
        <ele>1133</ele>
        <time>2018-07-01T14:46:51Z</time>
      </trkpt>
      <trkpt lat="45.29977" lon="6.02105">
        <ele>1129</ele>
        <time>2018-07-01T14:46:53Z</time>
      </trkpt>
      <trkpt lat="45.29981" lon="6.02102">
        <ele>1127</ele>
        <time>2018-07-01T14:46:55Z</time>
      </trkpt>
      <trkpt lat="45.29985" lon="6.02103">
        <ele>1126</ele>
        <time>2018-07-01T14:46:58Z</time>
      </trkpt>
      <trkpt lat="45.29982" lon="6.021">
        <ele>1126</ele>
        <time>2018-07-01T14:47:18Z</time>
      </trkpt>
      <trkpt lat="45.29981" lon="6.02099">
        <ele>1126</ele>
        <time>2018-07-01T14:47:42Z</time>
      </trkpt>
      <trkpt lat="45.2998" lon="6.02097">
        <ele>1126</ele>
        <time>2018-07-01T14:47:45Z</time>
      </trkpt>
      <trkpt lat="45.29976" lon="6.02089">
        <ele>1124</ele>
        <time>2018-07-01T14:47:49Z</time>
      </trkpt>
      <trkpt lat="45.29975" lon="6.02079">
        <ele>1121</ele>
        <time>2018-07-01T14:47:51Z</time>
      </trkpt>
      <trkpt lat="45.29976" lon="6.0207">
        <ele>1117</ele>
        <time>2018-07-01T14:47:53Z</time>
      </trkpt>
      <trkpt lat="45.29978" lon="6.02063">
        <ele>1114</ele>
        <time>2018-07-01T14:47:55Z</time>
      </trkpt>
      <trkpt lat="45.2998" lon="6.02057">
        <ele>1111</ele>
        <time>2018-07-01T14:47:58Z</time>
      </trkpt>
      <trkpt lat="45.29984" lon="6.02054">
        <ele>1109</ele>
        <time>2018-07-01T14:48:03Z</time>
      </trkpt>
      <trkpt lat="45.29983" lon="6.02047">
        <ele>1106</ele>
        <time>2018-07-01T14:48:07Z</time>
      </trkpt>
      <trkpt lat="45.2998" lon="6.0204">
        <ele>1104</ele>
        <time>2018-07-01T14:48:10Z</time>
      </trkpt>
      <trkpt lat="45.29978" lon="6.02034">
        <ele>1103</ele>
        <time>2018-07-01T14:48:13Z</time>
      </trkpt>
      <trkpt lat="45.29976" lon="6.02028">
        <ele>1101</ele>
        <time>2018-07-01T14:48:16Z</time>
      </trkpt>
      <trkpt lat="45.29971" lon="6.02022">
        <ele>1100</ele>
        <time>2018-07-01T14:48:19Z</time>
      </trkpt>
      <trkpt lat="45.29966" lon="6.02018">
        <ele>1099</ele>
        <time>2018-07-01T14:48:21Z</time>
      </trkpt>
      <trkpt lat="45.29962" lon="6.02012">
        <ele>1099</ele>
        <time>2018-07-01T14:48:23Z</time>
      </trkpt>
      <trkpt lat="45.29958" lon="6.02004">
        <ele>1097</ele>
        <time>2018-07-01T14:48:26Z</time>
      </trkpt>
      <trkpt lat="45.29955" lon="6.01998">
        <ele>1095</ele>
        <time>2018-07-01T14:48:28Z</time>
      </trkpt>
      <trkpt lat="45.29951" lon="6.0199">
        <ele>1093</ele>
        <time>2018-07-01T14:48:30Z</time>
      </trkpt>
      <trkpt lat="45.29946" lon="6.01983">
        <ele>1092</ele>
        <time>2018-07-01T14:48:32Z</time>
      </trkpt>
      <trkpt lat="45.29944" lon="6.01976">
        <ele>1089</ele>
        <time>2018-07-01T14:48:36Z</time>
      </trkpt>
      <trkpt lat="45.29944" lon="6.01968">
        <ele>1085</ele>
        <time>2018-07-01T14:48:42Z</time>
      </trkpt>
      <trkpt lat="45.29943" lon="6.01962">
        <ele>1083</ele>
        <time>2018-07-01T14:48:44Z</time>
      </trkpt>
      <trkpt lat="45.29939" lon="6.01952">
        <ele>1079</ele>
        <time>2018-07-01T14:48:46Z</time>
      </trkpt>
      <trkpt lat="45.29937" lon="6.01943">
        <ele>1075</ele>
        <time>2018-07-01T14:48:48Z</time>
      </trkpt>
      <trkpt lat="45.29936" lon="6.01937">
        <ele>1072</ele>
        <time>2018-07-01T14:48:52Z</time>
      </trkpt>
      <trkpt lat="45.29933" lon="6.01931">
        <ele>1070</ele>
        <time>2018-07-01T14:48:58Z</time>
      </trkpt>
      <trkpt lat="45.29927" lon="6.01927">
        <ele>1069</ele>
        <time>2018-07-01T14:49:09Z</time>
      </trkpt>
      <trkpt lat="45.29919" lon="6.0192">
        <ele>1066</ele>
        <time>2018-07-01T14:49:11Z</time>
      </trkpt>
      <trkpt lat="45.29913" lon="6.01916">
        <ele>1065</ele>
        <time>2018-07-01T14:49:13Z</time>
      </trkpt>
      <trkpt lat="45.29907" lon="6.01913">
        <ele>1064</ele>
        <time>2018-07-01T14:49:15Z</time>
      </trkpt>
      <trkpt lat="45.29902" lon="6.01909">
        <ele>1062</ele>
        <time>2018-07-01T14:49:17Z</time>
      </trkpt>
      <trkpt lat="45.29898" lon="6.01904">
        <ele>1060</ele>
        <time>2018-07-01T14:49:19Z</time>
      </trkpt>
      <trkpt lat="45.29894" lon="6.01898">
        <ele>1058</ele>
        <time>2018-07-01T14:49:21Z</time>
      </trkpt>
      <trkpt lat="45.29891" lon="6.01893">
        <ele>1056</ele>
        <time>2018-07-01T14:49:24Z</time>
      </trkpt>
      <trkpt lat="45.29886" lon="6.01891">
        <ele>1055</ele>
        <time>2018-07-01T14:49:26Z</time>
      </trkpt>
      <trkpt lat="45.29881" lon="6.01892">
        <ele>1056</ele>
        <time>2018-07-01T14:49:28Z</time>
      </trkpt>
      <trkpt lat="45.29877" lon="6.01892">
        <ele>1056</ele>
        <time>2018-07-01T14:49:30Z</time>
      </trkpt>
      <trkpt lat="45.29872" lon="6.0189">
        <ele>1056</ele>
        <time>2018-07-01T14:49:32Z</time>
      </trkpt>
      <trkpt lat="45.29867" lon="6.01886">
        <ele>1054</ele>
        <time>2018-07-01T14:49:35Z</time>
      </trkpt>
      <trkpt lat="45.29863" lon="6.01881">
        <ele>1053</ele>
        <time>2018-07-01T14:49:37Z</time>
      </trkpt>
      <trkpt lat="45.2986" lon="6.01876">
        <ele>1051</ele>
        <time>2018-07-01T14:49:40Z</time>
      </trkpt>
      <trkpt lat="45.29857" lon="6.01873">
        <ele>1051</ele>
        <time>2018-07-01T14:49:49Z</time>
      </trkpt>
      <trkpt lat="45.29852" lon="6.01868">
        <ele>1050</ele>
        <time>2018-07-01T14:50:00Z</time>
      </trkpt>
      <trkpt lat="45.2985" lon="6.01863">
        <ele>1048</ele>
        <time>2018-07-01T14:50:03Z</time>
      </trkpt>
      <trkpt lat="45.29849" lon="6.01856">
        <ele>1045</ele>
        <time>2018-07-01T14:50:05Z</time>
      </trkpt>
      <trkpt lat="45.29849" lon="6.01848">
        <ele>1042</ele>
        <time>2018-07-01T14:50:07Z</time>
      </trkpt>
      <trkpt lat="45.29849" lon="6.01841">
        <ele>1039</ele>
        <time>2018-07-01T14:50:10Z</time>
      </trkpt>
      <trkpt lat="45.29846" lon="6.01832">
        <ele>1038</ele>
        <time>2018-07-01T14:50:13Z</time>
      </trkpt>
      <trkpt lat="45.29843" lon="6.01823">
        <ele>1036</ele>
        <time>2018-07-01T14:50:15Z</time>
      </trkpt>
      <trkpt lat="45.2984" lon="6.01814">
        <ele>1034</ele>
        <time>2018-07-01T14:50:17Z</time>
      </trkpt>
      <trkpt lat="45.29839" lon="6.01806">
        <ele>1033</ele>
        <time>2018-07-01T14:50:19Z</time>
      </trkpt>
      <trkpt lat="45.29842" lon="6.01803">
        <ele>1031</ele>
        <time>2018-07-01T14:50:26Z</time>
      </trkpt>
      <trkpt lat="45.29842" lon="6.01796">
        <ele>1029</ele>
        <time>2018-07-01T14:50:29Z</time>
      </trkpt>
      <trkpt lat="45.2984" lon="6.01787">
        <ele>1027</ele>
        <time>2018-07-01T14:50:32Z</time>
      </trkpt>
      <trkpt lat="45.29837" lon="6.0178">
        <ele>1026</ele>
        <time>2018-07-01T14:50:35Z</time>
      </trkpt>
      <trkpt lat="45.29841" lon="6.01775">
        <ele>1024</ele>
        <time>2018-07-01T14:50:40Z</time>
      </trkpt>
      <trkpt lat="45.29842" lon="6.01767">
        <ele>1022</ele>
        <time>2018-07-01T14:50:45Z</time>
      </trkpt>
      <trkpt lat="45.29838" lon="6.01762">
        <ele>1021</ele>
        <time>2018-07-01T14:50:50Z</time>
      </trkpt>
      <trkpt lat="45.29839" lon="6.01755">
        <ele>1019</ele>
        <time>2018-07-01T14:50:54Z</time>
      </trkpt>
      <trkpt lat="45.29842" lon="6.01748">
        <ele>1017</ele>
        <time>2018-07-01T14:50:57Z</time>
      </trkpt>
      <trkpt lat="45.29842" lon="6.01741">
        <ele>1015</ele>
        <time>2018-07-01T14:51:01Z</time>
      </trkpt>
      <trkpt lat="45.29844" lon="6.01735">
        <ele>1013</ele>
        <time>2018-07-01T14:51:04Z</time>
      </trkpt>
      <trkpt lat="45.29847" lon="6.01729">
        <ele>1011</ele>
        <time>2018-07-01T14:51:08Z</time>
      </trkpt>
      <trkpt lat="45.29849" lon="6.01721">
        <ele>1009</ele>
        <time>2018-07-01T14:51:12Z</time>
      </trkpt>
      <trkpt lat="45.29847" lon="6.01713">
        <ele>1007</ele>
        <time>2018-07-01T14:51:15Z</time>
      </trkpt>
      <trkpt lat="45.29844" lon="6.01708">
        <ele>1006</ele>
        <time>2018-07-01T14:51:19Z</time>
      </trkpt>
      <trkpt lat="45.29845" lon="6.01707">
        <ele>1006</ele>
        <time>2018-07-01T14:51:37Z</time>
      </trkpt>
      <trkpt lat="45.29845" lon="6.01706">
        <ele>1006</ele>
        <time>2018-07-01T14:51:40Z</time>
      </trkpt>
      <trkpt lat="45.29844" lon="6.01702">
        <ele>1005</ele>
        <time>2018-07-01T14:51:56Z</time>
      </trkpt>
      <trkpt lat="45.29845" lon="6.017">
        <ele>1004</ele>
        <time>2018-07-01T14:51:59Z</time>
      </trkpt>
      <trkpt lat="45.2984" lon="6.01705">
        <ele>1006</ele>
        <time>2018-07-01T14:52:07Z</time>
      </trkpt>
      <trkpt lat="45.29844" lon="6.01701">
        <ele>1005</ele>
        <time>2018-07-01T14:52:17Z</time>
      </trkpt>
      <trkpt lat="45.29841" lon="6.01695">
        <ele>1004</ele>
        <time>2018-07-01T14:52:34Z</time>
      </trkpt>
      <trkpt lat="45.29843" lon="6.01701">
        <ele>1005</ele>
        <time>2018-07-01T14:52:43Z</time>
      </trkpt>
      <trkpt lat="45.29847" lon="6.01706">
        <ele>1005</ele>
        <time>2018-07-01T14:52:47Z</time>
      </trkpt>
      <trkpt lat="45.2985" lon="6.01712">
        <ele>1006</ele>
        <time>2018-07-01T14:52:51Z</time>
      </trkpt>
      <trkpt lat="45.29853" lon="6.01719">
        <ele>1007</ele>
        <time>2018-07-01T14:52:54Z</time>
      </trkpt>
      <trkpt lat="45.29858" lon="6.01717">
        <ele>1006</ele>
        <time>2018-07-01T14:52:59Z</time>
      </trkpt>
      <trkpt lat="45.29862" lon="6.01713">
        <ele>1004</ele>
        <time>2018-07-01T14:53:02Z</time>
      </trkpt>
      <trkpt lat="45.2986" lon="6.01707">
        <ele>1003</ele>
        <time>2018-07-01T14:53:05Z</time>
      </trkpt>
      <trkpt lat="45.29856" lon="6.01704">
        <ele>1003</ele>
        <time>2018-07-01T14:53:10Z</time>
      </trkpt>
      <trkpt lat="45.29851" lon="6.01704">
        <ele>1004</ele>
        <time>2018-07-01T14:53:14Z</time>
      </trkpt>
      <trkpt lat="45.29847" lon="6.01708">
        <ele>1006</ele>
        <time>2018-07-01T14:53:22Z</time>
      </trkpt>
      <trkpt lat="45.29843" lon="6.01711">
        <ele>1007</ele>
        <time>2018-07-01T14:53:32Z</time>
      </trkpt>
      <trkpt lat="45.29839" lon="6.01702">
        <ele>1006</ele>
        <time>2018-07-01T14:53:35Z</time>
      </trkpt>
      <trkpt lat="45.29842" lon="6.01696">
        <ele>1004</ele>
        <time>2018-07-01T14:53:38Z</time>
      </trkpt>
      <trkpt lat="45.29847" lon="6.0169">
        <ele>1001</ele>
        <time>2018-07-01T14:53:41Z</time>
      </trkpt>
      <trkpt lat="45.2985" lon="6.01684">
        <ele>999</ele>
        <time>2018-07-01T14:53:43Z</time>
      </trkpt>
      <trkpt lat="45.29855" lon="6.01678">
        <ele>997</ele>
        <time>2018-07-01T14:53:46Z</time>
      </trkpt>
      <trkpt lat="45.29864" lon="6.01668">
        <ele>993</ele>
        <time>2018-07-01T14:53:52Z</time>
      </trkpt>
      <trkpt lat="45.29865" lon="6.01662">
        <ele>991</ele>
        <time>2018-07-01T14:53:57Z</time>
      </trkpt>
      <trkpt lat="45.29865" lon="6.01654">
        <ele>989</ele>
        <time>2018-07-01T14:54:00Z</time>
      </trkpt>
      <trkpt lat="45.29868" lon="6.01647">
        <ele>987</ele>
        <time>2018-07-01T14:54:04Z</time>
      </trkpt>
      <trkpt lat="45.29871" lon="6.0164">
        <ele>985</ele>
        <time>2018-07-01T14:54:06Z</time>
      </trkpt>
      <trkpt lat="45.29873" lon="6.01634">
        <ele>983</ele>
        <time>2018-07-01T14:54:08Z</time>
      </trkpt>
      <trkpt lat="45.29876" lon="6.01629">
        <ele>981</ele>
        <time>2018-07-01T14:54:10Z</time>
      </trkpt>
      <trkpt lat="45.29879" lon="6.01624">
        <ele>979</ele>
        <time>2018-07-01T14:54:12Z</time>
      </trkpt>
      <trkpt lat="45.29882" lon="6.01618">
        <ele>977</ele>
        <time>2018-07-01T14:54:14Z</time>
      </trkpt>
      <trkpt lat="45.29884" lon="6.01612">
        <ele>975</ele>
        <time>2018-07-01T14:54:16Z</time>
      </trkpt>
      <trkpt lat="45.29887" lon="6.01605">
        <ele>973</ele>
        <time>2018-07-01T14:54:19Z</time>
      </trkpt>
      <trkpt lat="45.2989" lon="6.01597">
        <ele>971</ele>
        <time>2018-07-01T14:54:22Z</time>
      </trkpt>
      <trkpt lat="45.29894" lon="6.01589">
        <ele>968</ele>
        <time>2018-07-01T14:54:25Z</time>
      </trkpt>
      <trkpt lat="45.29896" lon="6.01583">
        <ele>966</ele>
        <time>2018-07-01T14:54:27Z</time>
      </trkpt>
      <trkpt lat="45.29899" lon="6.01578">
        <ele>965</ele>
        <time>2018-07-01T14:54:29Z</time>
      </trkpt>
      <trkpt lat="45.29902" lon="6.01574">
        <ele>963</ele>
        <time>2018-07-01T14:54:31Z</time>
      </trkpt>
      <trkpt lat="45.29905" lon="6.01567">
        <ele>961</ele>
        <time>2018-07-01T14:54:34Z</time>
      </trkpt>
      <trkpt lat="45.29908" lon="6.0156">
        <ele>959</ele>
        <time>2018-07-01T14:54:37Z</time>
      </trkpt>
      <trkpt lat="45.29911" lon="6.01553">
        <ele>957</ele>
        <time>2018-07-01T14:54:40Z</time>
      </trkpt>
      <trkpt lat="45.29914" lon="6.01547">
        <ele>955</ele>
        <time>2018-07-01T14:54:42Z</time>
      </trkpt>
      <trkpt lat="45.29918" lon="6.01541">
        <ele>953</ele>
        <time>2018-07-01T14:54:44Z</time>
      </trkpt>
      <trkpt lat="45.29921" lon="6.01534">
        <ele>951</ele>
        <time>2018-07-01T14:54:46Z</time>
      </trkpt>
      <trkpt lat="45.29925" lon="6.01527">
        <ele>949</ele>
        <time>2018-07-01T14:54:48Z</time>
      </trkpt>
      <trkpt lat="45.29926" lon="6.0152">
        <ele>947</ele>
        <time>2018-07-01T14:54:50Z</time>
      </trkpt>
      <trkpt lat="45.29924" lon="6.01512">
        <ele>945</ele>
        <time>2018-07-01T14:54:52Z</time>
      </trkpt>
      <trkpt lat="45.29922" lon="6.01503">
        <ele>943</ele>
        <time>2018-07-01T14:54:54Z</time>
      </trkpt>
      <trkpt lat="45.29921" lon="6.01496">
        <ele>942</ele>
        <time>2018-07-01T14:54:56Z</time>
      </trkpt>
      <trkpt lat="45.29922" lon="6.01485">
        <ele>939</ele>
        <time>2018-07-01T14:54:58Z</time>
      </trkpt>
      <trkpt lat="45.29921" lon="6.01476">
        <ele>937</ele>
        <time>2018-07-01T14:55:00Z</time>
      </trkpt>
      <trkpt lat="45.2992" lon="6.01468">
        <ele>936</ele>
        <time>2018-07-01T14:55:02Z</time>
      </trkpt>
      <trkpt lat="45.29918" lon="6.0146">
        <ele>934</ele>
        <time>2018-07-01T14:55:04Z</time>
      </trkpt>
      <trkpt lat="45.29916" lon="6.01449">
        <ele>931</ele>
        <time>2018-07-01T14:55:06Z</time>
      </trkpt>
      <trkpt lat="45.29915" lon="6.01443">
        <ele>930</ele>
        <time>2018-07-01T14:55:07Z</time>
      </trkpt>
      <trkpt lat="45.29913" lon="6.01437">
        <ele>929</ele>
        <time>2018-07-01T14:55:08Z</time>
      </trkpt>
      <trkpt lat="45.29908" lon="6.01428">
        <ele>927</ele>
        <time>2018-07-01T14:55:10Z</time>
      </trkpt>
      <trkpt lat="45.29905" lon="6.01422">
        <ele>926</ele>
        <time>2018-07-01T14:55:12Z</time>
      </trkpt>
      <trkpt lat="45.29905" lon="6.01413">
        <ele>924</ele>
        <time>2018-07-01T14:55:16Z</time>
      </trkpt>
      <trkpt lat="45.29909" lon="6.01399">
        <ele>922</ele>
        <time>2018-07-01T14:55:18Z</time>
      </trkpt>
      <trkpt lat="45.29911" lon="6.01391">
        <ele>920</ele>
        <time>2018-07-01T14:55:19Z</time>
      </trkpt>
      <trkpt lat="45.29913" lon="6.01382">
        <ele>919</ele>
        <time>2018-07-01T14:55:20Z</time>
      </trkpt>
      <trkpt lat="45.29916" lon="6.01373">
        <ele>918</ele>
        <time>2018-07-01T14:55:21Z</time>
      </trkpt>
      <trkpt lat="45.29923" lon="6.0135">
        <ele>915</ele>
        <time>2018-07-01T14:55:22Z</time>
      </trkpt>
      <trkpt lat="45.29929" lon="6.01336">
        <ele>914</ele>
        <time>2018-07-01T14:55:23Z</time>
      </trkpt>
      <trkpt lat="45.29931" lon="6.01327">
        <ele>913</ele>
        <time>2018-07-01T14:55:24Z</time>
      </trkpt>
      <trkpt lat="45.29934" lon="6.01318">
        <ele>912</ele>
        <time>2018-07-01T14:55:25Z</time>
      </trkpt>
      <trkpt lat="45.29938" lon="6.01311">
        <ele>912</ele>
        <time>2018-07-01T14:55:29Z</time>
      </trkpt>
      <trkpt lat="45.29939" lon="6.01303">
        <ele>910</ele>
        <time>2018-07-01T14:55:31Z</time>
      </trkpt>
      <trkpt lat="45.29938" lon="6.01295">
        <ele>909</ele>
        <time>2018-07-01T14:55:39Z</time>
      </trkpt>
      <trkpt lat="45.2994" lon="6.01289">
        <ele>909</ele>
        <time>2018-07-01T14:55:42Z</time>
      </trkpt>
      <trkpt lat="45.29941" lon="6.01278">
        <ele>908</ele>
        <time>2018-07-01T14:55:44Z</time>
      </trkpt>
      <trkpt lat="45.29944" lon="6.01266">
        <ele>906</ele>
        <time>2018-07-01T14:55:46Z</time>
      </trkpt>
      <trkpt lat="45.29945" lon="6.01257">
        <ele>905</ele>
        <time>2018-07-01T14:55:48Z</time>
      </trkpt>
      <trkpt lat="45.29947" lon="6.0125">
        <ele>905</ele>
        <time>2018-07-01T14:55:50Z</time>
      </trkpt>
      <trkpt lat="45.29948" lon="6.01242">
        <ele>904</ele>
        <time>2018-07-01T14:55:53Z</time>
      </trkpt>
      <trkpt lat="45.29949" lon="6.01236">
        <ele>903</ele>
        <time>2018-07-01T14:55:55Z</time>
      </trkpt>
      <trkpt lat="45.2995" lon="6.01225">
        <ele>902</ele>
        <time>2018-07-01T14:55:57Z</time>
      </trkpt>
      <trkpt lat="45.2995" lon="6.01216">
        <ele>901</ele>
        <time>2018-07-01T14:55:59Z</time>
      </trkpt>
      <trkpt lat="45.29951" lon="6.01206">
        <ele>899</ele>
        <time>2018-07-01T14:56:01Z</time>
      </trkpt>
      <trkpt lat="45.29954" lon="6.01195">
        <ele>898</ele>
        <time>2018-07-01T14:56:03Z</time>
      </trkpt>
      <trkpt lat="45.29956" lon="6.01189">
        <ele>897</ele>
        <time>2018-07-01T14:56:04Z</time>
      </trkpt>
      <trkpt lat="45.29959" lon="6.01177">
        <ele>895</ele>
        <time>2018-07-01T14:56:06Z</time>
      </trkpt>
      <trkpt lat="45.2996" lon="6.01171">
        <ele>894</ele>
        <time>2018-07-01T14:56:07Z</time>
      </trkpt>
      <trkpt lat="45.29961" lon="6.01159">
        <ele>893</ele>
        <time>2018-07-01T14:56:09Z</time>
      </trkpt>
      <trkpt lat="45.29961" lon="6.01151">
        <ele>892</ele>
        <time>2018-07-01T14:56:11Z</time>
      </trkpt>
      <trkpt lat="45.29961" lon="6.01145">
        <ele>891</ele>
        <time>2018-07-01T14:56:13Z</time>
      </trkpt>
      <trkpt lat="45.29961" lon="6.01136">
        <ele>890</ele>
        <time>2018-07-01T14:56:15Z</time>
      </trkpt>
      <trkpt lat="45.2996" lon="6.01129">
        <ele>889</ele>
        <time>2018-07-01T14:56:17Z</time>
      </trkpt>
      <trkpt lat="45.29957" lon="6.01121">
        <ele>888</ele>
        <time>2018-07-01T14:56:20Z</time>
      </trkpt>
      <trkpt lat="45.29954" lon="6.01115">
        <ele>887</ele>
        <time>2018-07-01T14:56:22Z</time>
      </trkpt>
      <trkpt lat="45.29948" lon="6.01107">
        <ele>886</ele>
        <time>2018-07-01T14:56:24Z</time>
      </trkpt>
      <trkpt lat="45.29944" lon="6.01102">
        <ele>885</ele>
        <time>2018-07-01T14:56:25Z</time>
      </trkpt>
      <trkpt lat="45.2994" lon="6.01097">
        <ele>885</ele>
        <time>2018-07-01T14:56:26Z</time>
      </trkpt>
      <trkpt lat="45.29936" lon="6.01092">
        <ele>883</ele>
        <time>2018-07-01T14:56:27Z</time>
      </trkpt>
      <trkpt lat="45.29933" lon="6.01086">
        <ele>882</ele>
        <time>2018-07-01T14:56:28Z</time>
      </trkpt>
      <trkpt lat="45.29931" lon="6.01079">
        <ele>881</ele>
        <time>2018-07-01T14:56:29Z</time>
      </trkpt>
      <trkpt lat="45.29929" lon="6.01072">
        <ele>880</ele>
        <time>2018-07-01T14:56:31Z</time>
      </trkpt>
      <trkpt lat="45.29925" lon="6.01067">
        <ele>879</ele>
        <time>2018-07-01T14:56:33Z</time>
      </trkpt>
      <trkpt lat="45.29921" lon="6.01063">
        <ele>878</ele>
        <time>2018-07-01T14:56:42Z</time>
      </trkpt>
      <trkpt lat="45.29919" lon="6.01057">
        <ele>877</ele>
        <time>2018-07-01T14:56:50Z</time>
      </trkpt>
      <trkpt lat="45.29915" lon="6.0105">
        <ele>875</ele>
        <time>2018-07-01T14:56:52Z</time>
      </trkpt>
      <trkpt lat="45.29913" lon="6.01042">
        <ele>874</ele>
        <time>2018-07-01T14:56:54Z</time>
      </trkpt>
      <trkpt lat="45.29916" lon="6.01035">
        <ele>874</ele>
        <time>2018-07-01T14:56:58Z</time>
      </trkpt>
      <trkpt lat="45.29919" lon="6.01027">
        <ele>873</ele>
        <time>2018-07-01T14:57:14Z</time>
      </trkpt>
      <trkpt lat="45.29921" lon="6.01019">
        <ele>873</ele>
        <time>2018-07-01T14:57:18Z</time>
      </trkpt>
      <trkpt lat="45.29924" lon="6.01012">
        <ele>872</ele>
        <time>2018-07-01T14:57:21Z</time>
      </trkpt>
      <trkpt lat="45.29926" lon="6.01006">
        <ele>871</ele>
        <time>2018-07-01T14:57:25Z</time>
      </trkpt>
      <trkpt lat="45.29925" lon="6.00998">
        <ele>870</ele>
        <time>2018-07-01T14:57:31Z</time>
      </trkpt>
      <trkpt lat="45.2992" lon="6.00992">
        <ele>869</ele>
        <time>2018-07-01T14:57:33Z</time>
      </trkpt>
      <trkpt lat="45.29914" lon="6.00986">
        <ele>867</ele>
        <time>2018-07-01T14:57:35Z</time>
      </trkpt>
      <trkpt lat="45.29907" lon="6.0098">
        <ele>866</ele>
        <time>2018-07-01T14:57:37Z</time>
      </trkpt>
      <trkpt lat="45.29899" lon="6.00962">
        <ele>863</ele>
        <time>2018-07-01T14:57:41Z</time>
      </trkpt>
      <trkpt lat="45.29896" lon="6.00951">
        <ele>861</ele>
        <time>2018-07-01T14:57:43Z</time>
      </trkpt>
      <trkpt lat="45.29893" lon="6.00941">
        <ele>860</ele>
        <time>2018-07-01T14:57:45Z</time>
      </trkpt>
      <trkpt lat="45.2989" lon="6.00931">
        <ele>859</ele>
        <time>2018-07-01T14:57:47Z</time>
      </trkpt>
      <trkpt lat="45.29887" lon="6.00921">
        <ele>857</ele>
        <time>2018-07-01T14:57:49Z</time>
      </trkpt>
      <trkpt lat="45.29885" lon="6.00914">
        <ele>856</ele>
        <time>2018-07-01T14:57:51Z</time>
      </trkpt>
      <trkpt lat="45.29884" lon="6.00907">
        <ele>856</ele>
        <time>2018-07-01T14:57:53Z</time>
      </trkpt>
      <trkpt lat="45.29883" lon="6.009">
        <ele>855</ele>
        <time>2018-07-01T14:58:12Z</time>
      </trkpt>
      <trkpt lat="45.2988" lon="6.00892">
        <ele>854</ele>
        <time>2018-07-01T14:58:14Z</time>
      </trkpt>
      <trkpt lat="45.29877" lon="6.00886">
        <ele>854</ele>
        <time>2018-07-01T14:58:16Z</time>
      </trkpt>
      <trkpt lat="45.29873" lon="6.00882">
        <ele>853</ele>
        <time>2018-07-01T14:58:18Z</time>
      </trkpt>
      <trkpt lat="45.2987" lon="6.00878">
        <ele>853</ele>
        <time>2018-07-01T14:58:27Z</time>
      </trkpt>
      <trkpt lat="45.29867" lon="6.00874">
        <ele>852</ele>
        <time>2018-07-01T14:58:56Z</time>
      </trkpt>
      <trkpt lat="45.29867" lon="6.00874">
        <ele>852</ele>
        <time>2018-07-01T14:58:59Z</time>
      </trkpt>
      <trkpt lat="45.29869" lon="6.00876">
        <ele>852</ele>
        <time>2018-07-01T14:59:28Z</time>
      </trkpt>
      <trkpt lat="45.2987" lon="6.00877">
        <ele>853</ele>
        <time>2018-07-01T14:59:32Z</time>
      </trkpt>
      <trkpt lat="45.29866" lon="6.00871">
        <ele>851</ele>
        <time>2018-07-01T14:59:44Z</time>
      </trkpt>
      <trkpt lat="45.29862" lon="6.00866">
        <ele>849</ele>
        <time>2018-07-01T14:59:46Z</time>
      </trkpt>
      <trkpt lat="45.29856" lon="6.00863">
        <ele>848</ele>
        <time>2018-07-01T14:59:48Z</time>
      </trkpt>
      <trkpt lat="45.29851" lon="6.0086">
        <ele>846</ele>
        <time>2018-07-01T14:59:50Z</time>
      </trkpt>
      <trkpt lat="45.29845" lon="6.00858">
        <ele>845</ele>
        <time>2018-07-01T14:59:52Z</time>
      </trkpt>
      <trkpt lat="45.2984" lon="6.00859">
        <ele>844</ele>
        <time>2018-07-01T14:59:54Z</time>
      </trkpt>
      <trkpt lat="45.29834" lon="6.0086">
        <ele>843</ele>
        <time>2018-07-01T14:59:56Z</time>
      </trkpt>
      <trkpt lat="45.29828" lon="6.00857">
        <ele>841</ele>
        <time>2018-07-01T14:59:58Z</time>
      </trkpt>
      <trkpt lat="45.29825" lon="6.00848">
        <ele>840</ele>
        <time>2018-07-01T15:00:00Z</time>
      </trkpt>
      <trkpt lat="45.29823" lon="6.00837">
        <ele>838</ele>
        <time>2018-07-01T15:00:02Z</time>
      </trkpt>
      <trkpt lat="45.29821" lon="6.00827">
        <ele>836</ele>
        <time>2018-07-01T15:00:04Z</time>
      </trkpt>
      <trkpt lat="45.29818" lon="6.0082">
        <ele>835</ele>
        <time>2018-07-01T15:00:06Z</time>
      </trkpt>
      <trkpt lat="45.29814" lon="6.00812">
        <ele>832</ele>
        <time>2018-07-01T15:00:08Z</time>
      </trkpt>
      <trkpt lat="45.29812" lon="6.00802">
        <ele>830</ele>
        <time>2018-07-01T15:00:10Z</time>
      </trkpt>
      <trkpt lat="45.2981" lon="6.00792">
        <ele>827</ele>
        <time>2018-07-01T15:00:12Z</time>
      </trkpt>
      <trkpt lat="45.29808" lon="6.00783">
        <ele>824</ele>
        <time>2018-07-01T15:00:14Z</time>
      </trkpt>
      <trkpt lat="45.29809" lon="6.00774">
        <ele>822</ele>
        <time>2018-07-01T15:00:16Z</time>
      </trkpt>
      <trkpt lat="45.29811" lon="6.00764">
        <ele>820</ele>
        <time>2018-07-01T15:00:18Z</time>
      </trkpt>
      <trkpt lat="45.29814" lon="6.00753">
        <ele>818</ele>
        <time>2018-07-01T15:00:20Z</time>
      </trkpt>
      <trkpt lat="45.29817" lon="6.00741">
        <ele>815</ele>
        <time>2018-07-01T15:00:22Z</time>
      </trkpt>
      <trkpt lat="45.29817" lon="6.00731">
        <ele>813</ele>
        <time>2018-07-01T15:00:24Z</time>
      </trkpt>
      <trkpt lat="45.29816" lon="6.00724">
        <ele>811</ele>
        <time>2018-07-01T15:00:26Z</time>
      </trkpt>
      <trkpt lat="45.29816" lon="6.00716">
        <ele>809</ele>
        <time>2018-07-01T15:00:28Z</time>
      </trkpt>
      <trkpt lat="45.29814" lon="6.00709">
        <ele>807</ele>
        <time>2018-07-01T15:00:30Z</time>
      </trkpt>
      <trkpt lat="45.29815" lon="6.00701">
        <ele>805</ele>
        <time>2018-07-01T15:00:32Z</time>
      </trkpt>
      <trkpt lat="45.29817" lon="6.00693">
        <ele>803</ele>
        <time>2018-07-01T15:00:35Z</time>
      </trkpt>
      <trkpt lat="45.29814" lon="6.00685">
        <ele>801</ele>
        <time>2018-07-01T15:00:38Z</time>
      </trkpt>
      <trkpt lat="45.29811" lon="6.0068">
        <ele>799</ele>
        <time>2018-07-01T15:00:40Z</time>
      </trkpt>
      <trkpt lat="45.29807" lon="6.00673">
        <ele>797</ele>
        <time>2018-07-01T15:00:43Z</time>
      </trkpt>
      <trkpt lat="45.29806" lon="6.00665">
        <ele>795</ele>
        <time>2018-07-01T15:00:46Z</time>
      </trkpt>
      <trkpt lat="45.29807" lon="6.00658">
        <ele>793</ele>
        <time>2018-07-01T15:00:48Z</time>
      </trkpt>
      <trkpt lat="45.29809" lon="6.00651">
        <ele>792</ele>
        <time>2018-07-01T15:00:50Z</time>
      </trkpt>
      <trkpt lat="45.29811" lon="6.00641">
        <ele>790</ele>
        <time>2018-07-01T15:00:52Z</time>
      </trkpt>
      <trkpt lat="45.29812" lon="6.00632">
        <ele>789</ele>
        <time>2018-07-01T15:00:54Z</time>
      </trkpt>
      <trkpt lat="45.29813" lon="6.00624">
        <ele>787</ele>
        <time>2018-07-01T15:00:56Z</time>
      </trkpt>
      <trkpt lat="45.29813" lon="6.00617">
        <ele>786</ele>
        <time>2018-07-01T15:00:58Z</time>
      </trkpt>
      <trkpt lat="45.29813" lon="6.0061">
        <ele>784</ele>
        <time>2018-07-01T15:01:01Z</time>
      </trkpt>
      <trkpt lat="45.29818" lon="6.00603">
        <ele>783</ele>
        <time>2018-07-01T15:01:03Z</time>
      </trkpt>
      <trkpt lat="45.29824" lon="6.00596">
        <ele>783</ele>
        <time>2018-07-01T15:01:05Z</time>
      </trkpt>
      <trkpt lat="45.29827" lon="6.00589">
        <ele>782</ele>
        <time>2018-07-01T15:01:07Z</time>
      </trkpt>
      <trkpt lat="45.29831" lon="6.00582">
        <ele>782</ele>
        <time>2018-07-01T15:01:09Z</time>
      </trkpt>
      <trkpt lat="45.29835" lon="6.00575">
        <ele>781</ele>
        <time>2018-07-01T15:01:11Z</time>
      </trkpt>
      <trkpt lat="45.29837" lon="6.00567">
        <ele>780</ele>
        <time>2018-07-01T15:01:13Z</time>
      </trkpt>
      <trkpt lat="45.29841" lon="6.00559">
        <ele>778</ele>
        <time>2018-07-01T15:01:15Z</time>
      </trkpt>
      <trkpt lat="45.29845" lon="6.0055">
        <ele>777</ele>
        <time>2018-07-01T15:01:17Z</time>
      </trkpt>
      <trkpt lat="45.29849" lon="6.00541">
        <ele>776</ele>
        <time>2018-07-01T15:01:19Z</time>
      </trkpt>
      <trkpt lat="45.2985" lon="6.00535">
        <ele>775</ele>
        <time>2018-07-01T15:01:20Z</time>
      </trkpt>
      <trkpt lat="45.29852" lon="6.00529">
        <ele>774</ele>
        <time>2018-07-01T15:01:21Z</time>
      </trkpt>
      <trkpt lat="45.29856" lon="6.0051">
        <ele>770</ele>
        <time>2018-07-01T15:01:24Z</time>
      </trkpt>
      <trkpt lat="45.29857" lon="6.00504">
        <ele>769</ele>
        <time>2018-07-01T15:01:25Z</time>
      </trkpt>
      <trkpt lat="45.29859" lon="6.00493">
        <ele>767</ele>
        <time>2018-07-01T15:01:27Z</time>
      </trkpt>
      <trkpt lat="45.29861" lon="6.00486">
        <ele>766</ele>
        <time>2018-07-01T15:01:29Z</time>
      </trkpt>
      <trkpt lat="45.29864" lon="6.00481">
        <ele>765</ele>
        <time>2018-07-01T15:01:32Z</time>
      </trkpt>
      <trkpt lat="45.29865" lon="6.00483">
        <ele>766</ele>
        <time>2018-07-01T15:01:51Z</time>
      </trkpt>
      <trkpt lat="45.29865" lon="6.00483">
        <ele>766</ele>
        <time>2018-07-01T15:01:54Z</time>
      </trkpt>
      <trkpt lat="45.29865" lon="6.00482">
        <ele>765</ele>
        <time>2018-07-01T15:02:21Z</time>
      </trkpt>
      <trkpt lat="45.29865" lon="6.00482">
        <ele>765</ele>
        <time>2018-07-01T15:02:24Z</time>
      </trkpt>
      <trkpt lat="45.2987" lon="6.00483">
        <ele>766</ele>
        <time>2018-07-01T15:02:48Z</time>
      </trkpt>
      <trkpt lat="45.29875" lon="6.00478">
        <ele>765</ele>
        <time>2018-07-01T15:02:50Z</time>
      </trkpt>
      <trkpt lat="45.2988" lon="6.00474">
        <ele>765</ele>
        <time>2018-07-01T15:02:52Z</time>
      </trkpt>
      <trkpt lat="45.29885" lon="6.00471">
        <ele>764</ele>
        <time>2018-07-01T15:02:54Z</time>
      </trkpt>
      <trkpt lat="45.29889" lon="6.00469">
        <ele>764</ele>
        <time>2018-07-01T15:02:56Z</time>
      </trkpt>
      <trkpt lat="45.29894" lon="6.0047">
        <ele>764</ele>
        <time>2018-07-01T15:02:58Z</time>
      </trkpt>
      <trkpt lat="45.299" lon="6.00473">
        <ele>765</ele>
        <time>2018-07-01T15:03:00Z</time>
      </trkpt>
      <trkpt lat="45.29905" lon="6.00475">
        <ele>766</ele>
        <time>2018-07-01T15:03:02Z</time>
      </trkpt>
      <trkpt lat="45.2991" lon="6.00476">
        <ele>766</ele>
        <time>2018-07-01T15:03:04Z</time>
      </trkpt>
      <trkpt lat="45.29915" lon="6.00481">
        <ele>767</ele>
        <time>2018-07-01T15:03:06Z</time>
      </trkpt>
      <trkpt lat="45.2992" lon="6.00482">
        <ele>768</ele>
        <time>2018-07-01T15:03:08Z</time>
      </trkpt>
      <trkpt lat="45.29913" lon="6.00477">
        <ele>767</ele>
        <time>2018-07-01T15:03:20Z</time>
      </trkpt>
      <trkpt lat="45.29908" lon="6.00475">
        <ele>766</ele>
        <time>2018-07-01T15:03:22Z</time>
      </trkpt>
      <trkpt lat="45.29902" lon="6.00473">
        <ele>765</ele>
        <time>2018-07-01T15:03:24Z</time>
      </trkpt>
      <trkpt lat="45.29896" lon="6.00473">
        <ele>765</ele>
        <time>2018-07-01T15:03:26Z</time>
      </trkpt>
      <trkpt lat="45.2989" lon="6.00472">
        <ele>765</ele>
        <time>2018-07-01T15:03:28Z</time>
      </trkpt>
      <trkpt lat="45.29885" lon="6.00473">
        <ele>764</ele>
        <time>2018-07-01T15:03:30Z</time>
      </trkpt>
      <trkpt lat="45.29879" lon="6.00473">
        <ele>764</ele>
        <time>2018-07-01T15:03:32Z</time>
      </trkpt>
      <trkpt lat="45.29875" lon="6.00475">
        <ele>765</ele>
        <time>2018-07-01T15:03:34Z</time>
      </trkpt>
      <trkpt lat="45.2987" lon="6.00479">
        <ele>765</ele>
        <time>2018-07-01T15:03:37Z</time>
      </trkpt>
      <trkpt lat="45.29865" lon="6.00483">
        <ele>766</ele>
        <time>2018-07-01T15:03:40Z</time>
      </trkpt>
      <trkpt lat="45.29866" lon="6.00477">
        <ele>764</ele>
        <time>2018-07-01T15:03:46Z</time>
      </trkpt>
      <trkpt lat="45.2987" lon="6.00471">
        <ele>763</ele>
        <time>2018-07-01T15:03:49Z</time>
      </trkpt>
      <trkpt lat="45.29873" lon="6.00465">
        <ele>762</ele>
        <time>2018-07-01T15:03:51Z</time>
      </trkpt>
      <trkpt lat="45.29876" lon="6.00458">
        <ele>761</ele>
        <time>2018-07-01T15:03:54Z</time>
      </trkpt>
      <trkpt lat="45.29879" lon="6.00452">
        <ele>760</ele>
        <time>2018-07-01T15:03:56Z</time>
      </trkpt>
      <trkpt lat="45.29883" lon="6.00444">
        <ele>758</ele>
        <time>2018-07-01T15:03:58Z</time>
      </trkpt>
      <trkpt lat="45.29887" lon="6.00436">
        <ele>757</ele>
        <time>2018-07-01T15:04:00Z</time>
      </trkpt>
      <trkpt lat="45.2989" lon="6.00428">
        <ele>755</ele>
        <time>2018-07-01T15:04:02Z</time>
      </trkpt>
      <trkpt lat="45.29895" lon="6.0042">
        <ele>754</ele>
        <time>2018-07-01T15:04:04Z</time>
      </trkpt>
      <trkpt lat="45.29899" lon="6.00412">
        <ele>752</ele>
        <time>2018-07-01T15:04:06Z</time>
      </trkpt>
      <trkpt lat="45.29903" lon="6.00405">
        <ele>751</ele>
        <time>2018-07-01T15:04:08Z</time>
      </trkpt>
      <trkpt lat="45.29906" lon="6.00398">
        <ele>750</ele>
        <time>2018-07-01T15:04:10Z</time>
      </trkpt>
      <trkpt lat="45.29907" lon="6.00389">
        <ele>748</ele>
        <time>2018-07-01T15:04:13Z</time>
      </trkpt>
      <trkpt lat="45.29902" lon="6.00381">
        <ele>746</ele>
        <time>2018-07-01T15:04:16Z</time>
      </trkpt>
      <trkpt lat="45.29899" lon="6.00372">
        <ele>744</ele>
        <time>2018-07-01T15:04:19Z</time>
      </trkpt>
      <trkpt lat="45.29897" lon="6.00365">
        <ele>743</ele>
        <time>2018-07-01T15:04:21Z</time>
      </trkpt>
      <trkpt lat="45.29896" lon="6.00355">
        <ele>740</ele>
        <time>2018-07-01T15:04:23Z</time>
      </trkpt>
      <trkpt lat="45.29896" lon="6.00345">
        <ele>738</ele>
        <time>2018-07-01T15:04:25Z</time>
      </trkpt>
      <trkpt lat="45.29897" lon="6.00337">
        <ele>737</ele>
        <time>2018-07-01T15:04:27Z</time>
      </trkpt>
      <trkpt lat="45.29897" lon="6.00329">
        <ele>735</ele>
        <time>2018-07-01T15:04:29Z</time>
      </trkpt>
      <trkpt lat="45.29896" lon="6.00323">
        <ele>734</ele>
        <time>2018-07-01T15:04:31Z</time>
      </trkpt>
      <trkpt lat="45.29896" lon="6.0031">
        <ele>732</ele>
        <time>2018-07-01T15:04:35Z</time>
      </trkpt>
      <trkpt lat="45.29895" lon="6.00303">
        <ele>731</ele>
        <time>2018-07-01T15:04:37Z</time>
      </trkpt>
      <trkpt lat="45.29895" lon="6.00295">
        <ele>730</ele>
        <time>2018-07-01T15:04:39Z</time>
      </trkpt>
      <trkpt lat="45.29895" lon="6.00287">
        <ele>728</ele>
        <time>2018-07-01T15:04:41Z</time>
      </trkpt>
      <trkpt lat="45.29897" lon="6.00278">
        <ele>727</ele>
        <time>2018-07-01T15:04:43Z</time>
      </trkpt>
      <trkpt lat="45.29897" lon="6.00271">
        <ele>726</ele>
        <time>2018-07-01T15:04:45Z</time>
      </trkpt>
      <trkpt lat="45.29896" lon="6.00265">
        <ele>725</ele>
        <time>2018-07-01T15:04:47Z</time>
      </trkpt>
      <trkpt lat="45.29896" lon="6.00258">
        <ele>724</ele>
        <time>2018-07-01T15:04:49Z</time>
      </trkpt>
      <trkpt lat="45.29895" lon="6.00251">
        <ele>723</ele>
        <time>2018-07-01T15:04:51Z</time>
      </trkpt>
      <trkpt lat="45.29894" lon="6.00245">
        <ele>722</ele>
        <time>2018-07-01T15:04:53Z</time>
      </trkpt>
      <trkpt lat="45.29894" lon="6.00237">
        <ele>721</ele>
        <time>2018-07-01T15:04:55Z</time>
      </trkpt>
      <trkpt lat="45.29894" lon="6.00228">
        <ele>719</ele>
        <time>2018-07-01T15:04:57Z</time>
      </trkpt>
      <trkpt lat="45.29894" lon="6.00218">
        <ele>718</ele>
        <time>2018-07-01T15:04:59Z</time>
      </trkpt>
      <trkpt lat="45.29895" lon="6.00208">
        <ele>716</ele>
        <time>2018-07-01T15:05:01Z</time>
      </trkpt>
      <trkpt lat="45.29895" lon="6.00201">
        <ele>715</ele>
        <time>2018-07-01T15:05:03Z</time>
      </trkpt>
      <trkpt lat="45.29895" lon="6.00192">
        <ele>714</ele>
        <time>2018-07-01T15:05:05Z</time>
      </trkpt>
      <trkpt lat="45.29894" lon="6.00183">
        <ele>713</ele>
        <time>2018-07-01T15:05:07Z</time>
      </trkpt>
      <trkpt lat="45.29889" lon="6.00181">
        <ele>713</ele>
        <time>2018-07-01T15:05:09Z</time>
      </trkpt>
      <trkpt lat="45.29885" lon="6.00186">
        <ele>714</ele>
        <time>2018-07-01T15:05:12Z</time>
      </trkpt>
      <trkpt lat="45.29882" lon="6.00192">
        <ele>714</ele>
        <time>2018-07-01T15:05:14Z</time>
      </trkpt>
      <trkpt lat="45.29878" lon="6.00189">
        <ele>714</ele>
        <time>2018-07-01T15:05:19Z</time>
      </trkpt>
      <trkpt lat="45.29878" lon="6.00181">
        <ele>713</ele>
        <time>2018-07-01T15:05:21Z</time>
      </trkpt>
      <trkpt lat="45.29878" lon="6.00169">
        <ele>712</ele>
        <time>2018-07-01T15:05:23Z</time>
      </trkpt>
      <trkpt lat="45.29879" lon="6.00159">
        <ele>711</ele>
        <time>2018-07-01T15:05:25Z</time>
      </trkpt>
      <trkpt lat="45.29881" lon="6.0015">
        <ele>710</ele>
        <time>2018-07-01T15:05:27Z</time>
      </trkpt>
      <trkpt lat="45.29884" lon="6.0014">
        <ele>709</ele>
        <time>2018-07-01T15:05:29Z</time>
      </trkpt>
      <trkpt lat="45.29887" lon="6.00131">
        <ele>707</ele>
        <time>2018-07-01T15:05:31Z</time>
      </trkpt>
      <trkpt lat="45.29893" lon="6.00119">
        <ele>706</ele>
        <time>2018-07-01T15:05:33Z</time>
      </trkpt>
      <trkpt lat="45.29904" lon="6.00101">
        <ele>703</ele>
        <time>2018-07-01T15:05:35Z</time>
      </trkpt>
      <trkpt lat="45.29908" lon="6.00095">
        <ele>702</ele>
        <time>2018-07-01T15:05:36Z</time>
      </trkpt>
      <trkpt lat="45.2991" lon="6.00088">
        <ele>701</ele>
        <time>2018-07-01T15:05:37Z</time>
      </trkpt>
      <trkpt lat="45.29913" lon="6.0008">
        <ele>700</ele>
        <time>2018-07-01T15:05:38Z</time>
      </trkpt>
      <trkpt lat="45.29915" lon="6.00068">
        <ele>698</ele>
        <time>2018-07-01T15:05:39Z</time>
      </trkpt>
      <trkpt lat="45.29916" lon="6.00058">
        <ele>697</ele>
        <time>2018-07-01T15:05:40Z</time>
      </trkpt>
      <trkpt lat="45.29921" lon="6.00053">
        <ele>696</ele>
        <time>2018-07-01T15:05:41Z</time>
      </trkpt>
      <trkpt lat="45.29934" lon="6.00041">
        <ele>693</ele>
        <time>2018-07-01T15:05:43Z</time>
      </trkpt>
      <trkpt lat="45.29941" lon="6.00035">
        <ele>692</ele>
        <time>2018-07-01T15:05:44Z</time>
      </trkpt>
      <trkpt lat="45.29948" lon="6.00027">
        <ele>690</ele>
        <time>2018-07-01T15:05:45Z</time>
      </trkpt>
      <trkpt lat="45.29954" lon="6.0002">
        <ele>688</ele>
        <time>2018-07-01T15:05:46Z</time>
      </trkpt>
      <trkpt lat="45.2996" lon="6.00013">
        <ele>687</ele>
        <time>2018-07-01T15:05:47Z</time>
      </trkpt>
      <trkpt lat="45.29964" lon="6.00009">
        <ele>686</ele>
        <time>2018-07-01T15:05:48Z</time>
      </trkpt>
      <trkpt lat="45.29968" lon="6.00003">
        <ele>684</ele>
        <time>2018-07-01T15:05:49Z</time>
      </trkpt>
      <trkpt lat="45.29973" lon="5.99999">
        <ele>683</ele>
        <time>2018-07-01T15:05:50Z</time>
      </trkpt>
      <trkpt lat="45.29978" lon="5.99995">
        <ele>682</ele>
        <time>2018-07-01T15:05:51Z</time>
      </trkpt>
      <trkpt lat="45.29983" lon="5.99991">
        <ele>680</ele>
        <time>2018-07-01T15:05:52Z</time>
      </trkpt>
      <trkpt lat="45.29989" lon="5.99982">
        <ele>678</ele>
        <time>2018-07-01T15:05:54Z</time>
      </trkpt>
      <trkpt lat="45.29995" lon="5.99971">
        <ele>676</ele>
        <time>2018-07-01T15:05:56Z</time>
      </trkpt>
      <trkpt lat="45.29997" lon="5.99964">
        <ele>675</ele>
        <time>2018-07-01T15:05:57Z</time>
      </trkpt>
      <trkpt lat="45.29998" lon="5.99957">
        <ele>674</ele>
        <time>2018-07-01T15:05:58Z</time>
      </trkpt>
      <trkpt lat="45.3" lon="5.99952">
        <ele>673</ele>
        <time>2018-07-01T15:05:59Z</time>
      </trkpt>
      <trkpt lat="45.30004" lon="5.99946">
        <ele>672</ele>
        <time>2018-07-01T15:06:00Z</time>
      </trkpt>
      <trkpt lat="45.30007" lon="5.99938">
        <ele>670</ele>
        <time>2018-07-01T15:06:01Z</time>
      </trkpt>
      <trkpt lat="45.30011" lon="5.99928">
        <ele>669</ele>
        <time>2018-07-01T15:06:03Z</time>
      </trkpt>
      <trkpt lat="45.30016" lon="5.99927">
        <ele>669</ele>
        <time>2018-07-01T15:06:04Z</time>
      </trkpt>
      <trkpt lat="45.30021" lon="5.99918">
        <ele>668</ele>
        <time>2018-07-01T15:06:06Z</time>
      </trkpt>
      <trkpt lat="45.30022" lon="5.99908">
        <ele>667</ele>
        <time>2018-07-01T15:06:09Z</time>
      </trkpt>
      <trkpt lat="45.30021" lon="5.99901">
        <ele>666</ele>
        <time>2018-07-01T15:06:12Z</time>
      </trkpt>
      <trkpt lat="45.30026" lon="5.99895">
        <ele>666</ele>
        <time>2018-07-01T15:06:14Z</time>
      </trkpt>
      <trkpt lat="45.3003" lon="5.99891">
        <ele>665</ele>
        <time>2018-07-01T15:06:16Z</time>
      </trkpt>
      <trkpt lat="45.30029" lon="5.99895">
        <ele>666</ele>
        <time>2018-07-01T15:06:42Z</time>
      </trkpt>
      <trkpt lat="45.30029" lon="5.99895">
        <ele>666</ele>
        <time>2018-07-01T15:06:43Z</time>
      </trkpt>
      <trkpt lat="45.30029" lon="5.99895">
        <ele>666</ele>
        <time>2018-07-01T15:07:12Z</time>
      </trkpt>
      <trkpt lat="45.30029" lon="5.99895">
        <ele>666</ele>
        <time>2018-07-01T15:07:15Z</time>
      </trkpt>
      <trkpt lat="45.30035" lon="5.99897">
        <ele>666</ele>
        <time>2018-07-01T15:07:30Z</time>
      </trkpt>
      <trkpt lat="45.3004" lon="5.99898">
        <ele>666</ele>
        <time>2018-07-01T15:07:32Z</time>
      </trkpt>
      <trkpt lat="45.30045" lon="5.99898">
        <ele>665</ele>
        <time>2018-07-01T15:07:34Z</time>
      </trkpt>
      <trkpt lat="45.30051" lon="5.999">
        <ele>665</ele>
        <time>2018-07-01T15:07:36Z</time>
      </trkpt>
      <trkpt lat="45.30055" lon="5.99902">
        <ele>666</ele>
        <time>2018-07-01T15:07:44Z</time>
      </trkpt>
      <trkpt lat="45.30056" lon="5.9991">
        <ele>666</ele>
        <time>2018-07-01T15:07:50Z</time>
      </trkpt>
      <trkpt lat="45.30056" lon="5.99918">
        <ele>667</ele>
        <time>2018-07-01T15:07:52Z</time>
      </trkpt>
      <trkpt lat="45.30056" lon="5.99925">
        <ele>667</ele>
        <time>2018-07-01T15:07:54Z</time>
      </trkpt>
      <trkpt lat="45.30059" lon="5.99933">
        <ele>668</ele>
        <time>2018-07-01T15:07:57Z</time>
      </trkpt>
      <trkpt lat="45.30062" lon="5.99939">
        <ele>668</ele>
        <time>2018-07-01T15:07:59Z</time>
      </trkpt>
      <trkpt lat="45.30064" lon="5.99946">
        <ele>669</ele>
        <time>2018-07-01T15:08:01Z</time>
      </trkpt>
      <trkpt lat="45.30066" lon="5.99953">
        <ele>669</ele>
        <time>2018-07-01T15:08:03Z</time>
      </trkpt>
      <trkpt lat="45.30071" lon="5.99963">
        <ele>670</ele>
        <time>2018-07-01T15:08:05Z</time>
      </trkpt>
      <trkpt lat="45.30076" lon="5.99972">
        <ele>670</ele>
        <time>2018-07-01T15:08:07Z</time>
      </trkpt>
      <trkpt lat="45.30081" lon="5.99976">
        <ele>670</ele>
        <time>2018-07-01T15:08:09Z</time>
      </trkpt>
      <trkpt lat="45.30087" lon="5.9997">
        <ele>668</ele>
        <time>2018-07-01T15:08:11Z</time>
      </trkpt>
      <trkpt lat="45.30093" lon="5.99962">
        <ele>667</ele>
        <time>2018-07-01T15:08:13Z</time>
      </trkpt>
      <trkpt lat="45.301" lon="5.99952">
        <ele>665</ele>
        <time>2018-07-01T15:08:15Z</time>
      </trkpt>
      <trkpt lat="45.30106" lon="5.99947">
        <ele>664</ele>
        <time>2018-07-01T15:08:16Z</time>
      </trkpt>
      <trkpt lat="45.3012" lon="5.99934">
        <ele>661</ele>
        <time>2018-07-01T15:08:17Z</time>
      </trkpt>
      <trkpt lat="45.30124" lon="5.99931">
        <ele>661</ele>
        <time>2018-07-01T15:08:18Z</time>
      </trkpt>
      <trkpt lat="45.3013" lon="5.99929">
        <ele>660</ele>
        <time>2018-07-01T15:08:19Z</time>
      </trkpt>
      <trkpt lat="45.30135" lon="5.99927">
        <ele>659</ele>
        <time>2018-07-01T15:08:20Z</time>
      </trkpt>
      <trkpt lat="45.30141" lon="5.99924">
        <ele>658</ele>
        <time>2018-07-01T15:08:21Z</time>
      </trkpt>
      <trkpt lat="45.30146" lon="5.99916">
        <ele>657</ele>
        <time>2018-07-01T15:08:22Z</time>
      </trkpt>
      <trkpt lat="45.30151" lon="5.99912">
        <ele>656</ele>
        <time>2018-07-01T15:08:24Z</time>
      </trkpt>
      <trkpt lat="45.30157" lon="5.99909">
        <ele>655</ele>
        <time>2018-07-01T15:08:25Z</time>
      </trkpt>
      <trkpt lat="45.30162" lon="5.99909">
        <ele>655</ele>
        <time>2018-07-01T15:08:26Z</time>
      </trkpt>
      <trkpt lat="45.30167" lon="5.99901">
        <ele>653</ele>
        <time>2018-07-01T15:08:28Z</time>
      </trkpt>
      <trkpt lat="45.30172" lon="5.99897">
        <ele>653</ele>
        <time>2018-07-01T15:08:29Z</time>
      </trkpt>
      <trkpt lat="45.30177" lon="5.99887">
        <ele>651</ele>
        <time>2018-07-01T15:08:30Z</time>
      </trkpt>
      <trkpt lat="45.30181" lon="5.99883">
        <ele>651</ele>
        <time>2018-07-01T15:08:31Z</time>
      </trkpt>
      <trkpt lat="45.30186" lon="5.99876">
        <ele>649</ele>
        <time>2018-07-01T15:08:32Z</time>
      </trkpt>
      <trkpt lat="45.30192" lon="5.9987">
        <ele>648</ele>
        <time>2018-07-01T15:08:33Z</time>
      </trkpt>
      <trkpt lat="45.302" lon="5.99864">
        <ele>647</ele>
        <time>2018-07-01T15:08:34Z</time>
      </trkpt>
      <trkpt lat="45.30206" lon="5.99858">
        <ele>646</ele>
        <time>2018-07-01T15:08:35Z</time>
      </trkpt>
      <trkpt lat="45.30212" lon="5.99849">
        <ele>644</ele>
        <time>2018-07-01T15:08:36Z</time>
      </trkpt>
      <trkpt lat="45.30217" lon="5.99844">
        <ele>643</ele>
        <time>2018-07-01T15:08:37Z</time>
      </trkpt>
      <trkpt lat="45.30224" lon="5.99837">
        <ele>642</ele>
        <time>2018-07-01T15:08:38Z</time>
      </trkpt>
      <trkpt lat="45.3023" lon="5.99829">
        <ele>640</ele>
        <time>2018-07-01T15:08:40Z</time>
      </trkpt>
      <trkpt lat="45.30234" lon="5.99827">
        <ele>639</ele>
        <time>2018-07-01T15:08:41Z</time>
      </trkpt>
      <trkpt lat="45.30239" lon="5.99824">
        <ele>638</ele>
        <time>2018-07-01T15:08:43Z</time>
      </trkpt>
      <trkpt lat="45.30244" lon="5.99827">
        <ele>638</ele>
        <time>2018-07-01T15:08:44Z</time>
      </trkpt>
      <trkpt lat="45.30251" lon="5.99819">
        <ele>636</ele>
        <time>2018-07-01T15:08:46Z</time>
      </trkpt>
      <trkpt lat="45.30256" lon="5.99815">
        <ele>635</ele>
        <time>2018-07-01T15:08:48Z</time>
      </trkpt>
      <trkpt lat="45.30261" lon="5.99811">
        <ele>634</ele>
        <time>2018-07-01T15:08:50Z</time>
      </trkpt>
      <trkpt lat="45.30267" lon="5.99805">
        <ele>633</ele>
        <time>2018-07-01T15:08:52Z</time>
      </trkpt>
      <trkpt lat="45.30272" lon="5.998">
        <ele>632</ele>
        <time>2018-07-01T15:08:54Z</time>
      </trkpt>
      <trkpt lat="45.30275" lon="5.99795">
        <ele>631</ele>
        <time>2018-07-01T15:08:56Z</time>
      </trkpt>
      <trkpt lat="45.30258" lon="5.99826">
        <ele>636</ele>
        <time>2018-07-01T15:08:58Z</time>
      </trkpt>
      <trkpt lat="45.30254" lon="5.99821">
        <ele>636</ele>
        <time>2018-07-01T15:09:01Z</time>
      </trkpt>
      <trkpt lat="45.3025" lon="5.99819">
        <ele>637</ele>
        <time>2018-07-01T15:09:04Z</time>
      </trkpt>
      <trkpt lat="45.30245" lon="5.99815">
        <ele>637</ele>
        <time>2018-07-01T15:09:07Z</time>
      </trkpt>
      <trkpt lat="45.3024" lon="5.99814">
        <ele>638</ele>
        <time>2018-07-01T15:09:11Z</time>
      </trkpt>
      <trkpt lat="45.30243" lon="5.99809">
        <ele>637</ele>
        <time>2018-07-01T15:09:22Z</time>
      </trkpt>
      <trkpt lat="45.30243" lon="5.99809">
        <ele>637</ele>
        <time>2018-07-01T15:09:42Z</time>
      </trkpt>
      <trkpt lat="45.30243" lon="5.99809">
        <ele>637</ele>
        <time>2018-07-01T15:09:43Z</time>
      </trkpt>
      <trkpt lat="45.30243" lon="5.99809">
        <ele>637</ele>
        <time>2018-07-01T15:10:12Z</time>
      </trkpt>
      <trkpt lat="45.30243" lon="5.99809">
        <ele>637</ele>
        <time>2018-07-01T15:10:13Z</time>
      </trkpt>
      <trkpt lat="45.30243" lon="5.99809">
        <ele>637</ele>
        <time>2018-07-01T15:10:42Z</time>
      </trkpt>
      <trkpt lat="45.30243" lon="5.99809">
        <ele>637</ele>
        <time>2018-07-01T15:10:43Z</time>
      </trkpt>
      <trkpt lat="45.30243" lon="5.99809">
        <ele>637</ele>
        <time>2018-07-01T15:11:12Z</time>
      </trkpt>
    </trkseg>
  </trk>
</gpx>